<?xml version="1.0" encoding="UTF-8" standalone="no" ?>
<gpx xmlns="http://www.topografix.com/GPX/1/1" xmlns:xsi="http://www.w3.org/2001/XMLSchema-instance" xsi:schemaLocation="http://www.topografix.com/GPX/1/1 http://www.topografix.com/GPX/1/1/gpx.xsd" version="1.1" creator="VisuGPX - https://www.visugpx.com">
  <metadata>
    <name>Course à pied en soirée</name>
  </metadata>
  <trk>
    <name><![CDATA[Course à pied en soirée_1]]></name>
    <trkseg>
      <trkpt lat="43.64692" lon="1.37659">
        <ele>135</ele>
        <time>2025-03-18T17:30:46Z</time>
      </trkpt>
      <trkpt lat="43.6469" lon="1.37661">
        <ele>135</ele>
        <time>2025-03-18T17:30:47Z</time>
      </trkpt>
      <trkpt lat="43.64688" lon="1.37663">
        <ele>134</ele>
        <time>2025-03-18T17:30:48Z</time>
      </trkpt>
      <trkpt lat="43.64686" lon="1.37665">
        <ele>134</ele>
        <time>2025-03-18T17:30:49Z</time>
      </trkpt>
      <trkpt lat="43.64685" lon="1.37667">
        <ele>134</ele>
        <time>2025-03-18T17:30:50Z</time>
      </trkpt>
      <trkpt lat="43.64683" lon="1.37667">
        <ele>134</ele>
        <time>2025-03-18T17:30:51Z</time>
      </trkpt>
      <trkpt lat="43.64681" lon="1.37668">
        <ele>134</ele>
        <time>2025-03-18T17:30:52Z</time>
      </trkpt>
      <trkpt lat="43.64679" lon="1.37668">
        <ele>135</ele>
        <time>2025-03-18T17:30:53Z</time>
      </trkpt>
      <trkpt lat="43.64677" lon="1.37669">
        <ele>135</ele>
        <time>2025-03-18T17:30:54Z</time>
      </trkpt>
      <trkpt lat="43.64675" lon="1.37669">
        <ele>136</ele>
        <time>2025-03-18T17:30:55Z</time>
      </trkpt>
      <trkpt lat="43.64671" lon="1.37668">
        <ele>136</ele>
        <time>2025-03-18T17:30:56Z</time>
      </trkpt>
      <trkpt lat="43.64668" lon="1.37668">
        <ele>136</ele>
        <time>2025-03-18T17:30:57Z</time>
      </trkpt>
      <trkpt lat="43.64665" lon="1.37667">
        <ele>137</ele>
        <time>2025-03-18T17:30:58Z</time>
      </trkpt>
      <trkpt lat="43.64663" lon="1.37667">
        <ele>137</ele>
        <time>2025-03-18T17:30:59Z</time>
      </trkpt>
      <trkpt lat="43.64662" lon="1.37666">
        <ele>137</ele>
        <time>2025-03-18T17:31:00Z</time>
      </trkpt>
      <trkpt lat="43.64661" lon="1.37666">
        <ele>137</ele>
        <time>2025-03-18T17:31:01Z</time>
      </trkpt>
      <trkpt lat="43.6466" lon="1.37666">
        <ele>137</ele>
        <time>2025-03-18T17:31:02Z</time>
      </trkpt>
      <trkpt lat="43.64655" lon="1.37665">
        <ele>137</ele>
        <time>2025-03-18T17:31:03Z</time>
      </trkpt>
      <trkpt lat="43.64655" lon="1.37665">
        <ele>138</ele>
        <time>2025-03-18T17:31:05Z</time>
      </trkpt>
      <trkpt lat="43.64644" lon="1.37664">
        <ele>138</ele>
        <time>2025-03-18T17:31:06Z</time>
      </trkpt>
      <trkpt lat="43.64644" lon="1.37664">
        <ele>138</ele>
        <time>2025-03-18T17:31:08Z</time>
      </trkpt>
      <trkpt lat="43.64634" lon="1.37669">
        <ele>138</ele>
        <time>2025-03-18T17:31:10Z</time>
      </trkpt>
      <trkpt lat="43.64632" lon="1.3767">
        <ele>138</ele>
        <time>2025-03-18T17:31:11Z</time>
      </trkpt>
      <trkpt lat="43.64631" lon="1.37671">
        <ele>138</ele>
        <time>2025-03-18T17:31:12Z</time>
      </trkpt>
      <trkpt lat="43.6463" lon="1.37672">
        <ele>138</ele>
        <time>2025-03-18T17:31:13Z</time>
      </trkpt>
      <trkpt lat="43.64629" lon="1.37673">
        <ele>138</ele>
        <time>2025-03-18T17:31:14Z</time>
      </trkpt>
      <trkpt lat="43.64623" lon="1.37679">
        <ele>138</ele>
        <time>2025-03-18T17:31:15Z</time>
      </trkpt>
      <trkpt lat="43.64621" lon="1.3768">
        <ele>137</ele>
        <time>2025-03-18T17:31:16Z</time>
      </trkpt>
      <trkpt lat="43.64619" lon="1.37681">
        <ele>137</ele>
        <time>2025-03-18T17:31:17Z</time>
      </trkpt>
      <trkpt lat="43.64618" lon="1.37682">
        <ele>137</ele>
        <time>2025-03-18T17:31:18Z</time>
      </trkpt>
      <trkpt lat="43.64611" lon="1.37686">
        <ele>137</ele>
        <time>2025-03-18T17:31:19Z</time>
      </trkpt>
      <trkpt lat="43.6461" lon="1.37687">
        <ele>137</ele>
        <time>2025-03-18T17:31:20Z</time>
      </trkpt>
      <trkpt lat="43.64608" lon="1.37688">
        <ele>138</ele>
        <time>2025-03-18T17:31:21Z</time>
      </trkpt>
      <trkpt lat="43.64606" lon="1.37689">
        <ele>138</ele>
        <time>2025-03-18T17:31:22Z</time>
      </trkpt>
      <trkpt lat="43.64598" lon="1.37691">
        <ele>137</ele>
        <time>2025-03-18T17:31:24Z</time>
      </trkpt>
      <trkpt lat="43.64597" lon="1.37691">
        <ele>137</ele>
        <time>2025-03-18T17:31:25Z</time>
      </trkpt>
      <trkpt lat="43.64595" lon="1.37692">
        <ele>137</ele>
        <time>2025-03-18T17:31:26Z</time>
      </trkpt>
      <trkpt lat="43.64592" lon="1.37691">
        <ele>138</ele>
        <time>2025-03-18T17:31:28Z</time>
      </trkpt>
      <trkpt lat="43.6459" lon="1.37691">
        <ele>138</ele>
        <time>2025-03-18T17:31:29Z</time>
      </trkpt>
      <trkpt lat="43.64587" lon="1.37691">
        <ele>138</ele>
        <time>2025-03-18T17:31:30Z</time>
      </trkpt>
      <trkpt lat="43.64584" lon="1.37691">
        <ele>138</ele>
        <time>2025-03-18T17:31:31Z</time>
      </trkpt>
      <trkpt lat="43.64582" lon="1.3769">
        <ele>138</ele>
        <time>2025-03-18T17:31:32Z</time>
      </trkpt>
      <trkpt lat="43.64579" lon="1.37689">
        <ele>138</ele>
        <time>2025-03-18T17:31:33Z</time>
      </trkpt>
      <trkpt lat="43.64577" lon="1.37688">
        <ele>138</ele>
        <time>2025-03-18T17:31:34Z</time>
      </trkpt>
      <trkpt lat="43.64574" lon="1.37687">
        <ele>138</ele>
        <time>2025-03-18T17:31:35Z</time>
      </trkpt>
      <trkpt lat="43.64571" lon="1.37685">
        <ele>138</ele>
        <time>2025-03-18T17:31:36Z</time>
      </trkpt>
      <trkpt lat="43.64568" lon="1.37683">
        <ele>138</ele>
        <time>2025-03-18T17:31:37Z</time>
      </trkpt>
      <trkpt lat="43.64565" lon="1.37682">
        <ele>138</ele>
        <time>2025-03-18T17:31:38Z</time>
      </trkpt>
      <trkpt lat="43.64563" lon="1.37681">
        <ele>138</ele>
        <time>2025-03-18T17:31:39Z</time>
      </trkpt>
      <trkpt lat="43.64561" lon="1.37681">
        <ele>138</ele>
        <time>2025-03-18T17:31:40Z</time>
      </trkpt>
      <trkpt lat="43.64559" lon="1.3768">
        <ele>138</ele>
        <time>2025-03-18T17:31:41Z</time>
      </trkpt>
      <trkpt lat="43.64558" lon="1.3768">
        <ele>138</ele>
        <time>2025-03-18T17:31:43Z</time>
      </trkpt>
      <trkpt lat="43.64556" lon="1.37679">
        <ele>138</ele>
        <time>2025-03-18T17:31:44Z</time>
      </trkpt>
      <trkpt lat="43.64554" lon="1.37679">
        <ele>139</ele>
        <time>2025-03-18T17:31:45Z</time>
      </trkpt>
      <trkpt lat="43.64551" lon="1.37678">
        <ele>139</ele>
        <time>2025-03-18T17:31:46Z</time>
      </trkpt>
      <trkpt lat="43.64549" lon="1.37676">
        <ele>139</ele>
        <time>2025-03-18T17:31:47Z</time>
      </trkpt>
      <trkpt lat="43.64546" lon="1.37675">
        <ele>139</ele>
        <time>2025-03-18T17:31:48Z</time>
      </trkpt>
      <trkpt lat="43.64543" lon="1.37673">
        <ele>139</ele>
        <time>2025-03-18T17:31:49Z</time>
      </trkpt>
      <trkpt lat="43.64541" lon="1.37672">
        <ele>139</ele>
        <time>2025-03-18T17:31:50Z</time>
      </trkpt>
      <trkpt lat="43.6454" lon="1.37671">
        <ele>138</ele>
        <time>2025-03-18T17:31:51Z</time>
      </trkpt>
      <trkpt lat="43.64538" lon="1.37671">
        <ele>138</ele>
        <time>2025-03-18T17:31:52Z</time>
      </trkpt>
      <trkpt lat="43.6453" lon="1.3767">
        <ele>138</ele>
        <time>2025-03-18T17:31:53Z</time>
      </trkpt>
      <trkpt lat="43.64528" lon="1.37671">
        <ele>138</ele>
        <time>2025-03-18T17:31:54Z</time>
      </trkpt>
      <trkpt lat="43.64526" lon="1.37673">
        <ele>138</ele>
        <time>2025-03-18T17:31:55Z</time>
      </trkpt>
      <trkpt lat="43.64523" lon="1.37674">
        <ele>138</ele>
        <time>2025-03-18T17:31:56Z</time>
      </trkpt>
      <trkpt lat="43.64521" lon="1.37676">
        <ele>138</ele>
        <time>2025-03-18T17:31:57Z</time>
      </trkpt>
      <trkpt lat="43.64518" lon="1.3768">
        <ele>138</ele>
        <time>2025-03-18T17:31:58Z</time>
      </trkpt>
      <trkpt lat="43.64517" lon="1.37682">
        <ele>138</ele>
        <time>2025-03-18T17:31:59Z</time>
      </trkpt>
      <trkpt lat="43.64516" lon="1.37684">
        <ele>139</ele>
        <time>2025-03-18T17:32:00Z</time>
      </trkpt>
      <trkpt lat="43.64515" lon="1.37687">
        <ele>139</ele>
        <time>2025-03-18T17:32:02Z</time>
      </trkpt>
      <trkpt lat="43.64513" lon="1.3769">
        <ele>139</ele>
        <time>2025-03-18T17:32:03Z</time>
      </trkpt>
      <trkpt lat="43.64509" lon="1.37699">
        <ele>139</ele>
        <time>2025-03-18T17:32:04Z</time>
      </trkpt>
      <trkpt lat="43.64509" lon="1.37701">
        <ele>139</ele>
        <time>2025-03-18T17:32:05Z</time>
      </trkpt>
      <trkpt lat="43.64508" lon="1.37705">
        <ele>139</ele>
        <time>2025-03-18T17:32:06Z</time>
      </trkpt>
      <trkpt lat="43.64507" lon="1.37706">
        <ele>139</ele>
        <time>2025-03-18T17:32:07Z</time>
      </trkpt>
      <trkpt lat="43.64506" lon="1.37709">
        <ele>139</ele>
        <time>2025-03-18T17:32:08Z</time>
      </trkpt>
      <trkpt lat="43.64505" lon="1.37714">
        <ele>138</ele>
        <time>2025-03-18T17:32:09Z</time>
      </trkpt>
      <trkpt lat="43.64504" lon="1.37715">
        <ele>138</ele>
        <time>2025-03-18T17:32:10Z</time>
      </trkpt>
      <trkpt lat="43.64502" lon="1.3772">
        <ele>138</ele>
        <time>2025-03-18T17:32:11Z</time>
      </trkpt>
      <trkpt lat="43.64502" lon="1.37722">
        <ele>138</ele>
        <time>2025-03-18T17:32:12Z</time>
      </trkpt>
      <trkpt lat="43.645" lon="1.37728">
        <ele>138</ele>
        <time>2025-03-18T17:32:13Z</time>
      </trkpt>
      <trkpt lat="43.64499" lon="1.37729">
        <ele>138</ele>
        <time>2025-03-18T17:32:14Z</time>
      </trkpt>
      <trkpt lat="43.64497" lon="1.37733">
        <ele>138</ele>
        <time>2025-03-18T17:32:15Z</time>
      </trkpt>
      <trkpt lat="43.64496" lon="1.37734">
        <ele>139</ele>
        <time>2025-03-18T17:32:16Z</time>
      </trkpt>
      <trkpt lat="43.64496" lon="1.37735">
        <ele>139</ele>
        <time>2025-03-18T17:32:17Z</time>
      </trkpt>
      <trkpt lat="43.64496" lon="1.37736">
        <ele>140</ele>
        <time>2025-03-18T17:32:18Z</time>
      </trkpt>
      <trkpt lat="43.64495" lon="1.37737">
        <ele>140</ele>
        <time>2025-03-18T17:32:19Z</time>
      </trkpt>
      <trkpt lat="43.64491" lon="1.37748">
        <ele>140</ele>
        <time>2025-03-18T17:32:21Z</time>
      </trkpt>
      <trkpt lat="43.64489" lon="1.3775">
        <ele>140</ele>
        <time>2025-03-18T17:32:22Z</time>
      </trkpt>
      <trkpt lat="43.64488" lon="1.37753">
        <ele>140</ele>
        <time>2025-03-18T17:32:23Z</time>
      </trkpt>
      <trkpt lat="43.64487" lon="1.37756">
        <ele>140</ele>
        <time>2025-03-18T17:32:24Z</time>
      </trkpt>
      <trkpt lat="43.64485" lon="1.37762">
        <ele>139</ele>
        <time>2025-03-18T17:32:26Z</time>
      </trkpt>
      <trkpt lat="43.64483" lon="1.37769">
        <ele>139</ele>
        <time>2025-03-18T17:32:27Z</time>
      </trkpt>
      <trkpt lat="43.64483" lon="1.3777">
        <ele>139</ele>
        <time>2025-03-18T17:32:28Z</time>
      </trkpt>
      <trkpt lat="43.64482" lon="1.37772">
        <ele>139</ele>
        <time>2025-03-18T17:32:29Z</time>
      </trkpt>
      <trkpt lat="43.64482" lon="1.37773">
        <ele>139</ele>
        <time>2025-03-18T17:32:30Z</time>
      </trkpt>
      <trkpt lat="43.64481" lon="1.37775">
        <ele>140</ele>
        <time>2025-03-18T17:32:31Z</time>
      </trkpt>
      <trkpt lat="43.64481" lon="1.37776">
        <ele>140</ele>
        <time>2025-03-18T17:32:32Z</time>
      </trkpt>
      <trkpt lat="43.64477" lon="1.37785">
        <ele>140</ele>
        <time>2025-03-18T17:32:33Z</time>
      </trkpt>
      <trkpt lat="43.64476" lon="1.37787">
        <ele>140</ele>
        <time>2025-03-18T17:32:34Z</time>
      </trkpt>
      <trkpt lat="43.64476" lon="1.37788">
        <ele>140</ele>
        <time>2025-03-18T17:32:35Z</time>
      </trkpt>
      <trkpt lat="43.64475" lon="1.3779">
        <ele>140</ele>
        <time>2025-03-18T17:32:36Z</time>
      </trkpt>
      <trkpt lat="43.64472" lon="1.37796">
        <ele>140</ele>
        <time>2025-03-18T17:32:37Z</time>
      </trkpt>
      <trkpt lat="43.64472" lon="1.37796">
        <ele>141</ele>
        <time>2025-03-18T17:32:38Z</time>
      </trkpt>
      <trkpt lat="43.64468" lon="1.37809">
        <ele>141</ele>
        <time>2025-03-18T17:32:40Z</time>
      </trkpt>
      <trkpt lat="43.64467" lon="1.37818">
        <ele>141</ele>
        <time>2025-03-18T17:32:41Z</time>
      </trkpt>
      <trkpt lat="43.64465" lon="1.37824">
        <ele>141</ele>
        <time>2025-03-18T17:32:42Z</time>
      </trkpt>
      <trkpt lat="43.64465" lon="1.37826">
        <ele>140</ele>
        <time>2025-03-18T17:32:43Z</time>
      </trkpt>
      <trkpt lat="43.64464" lon="1.37831">
        <ele>140</ele>
        <time>2025-03-18T17:32:44Z</time>
      </trkpt>
      <trkpt lat="43.64463" lon="1.37832">
        <ele>141</ele>
        <time>2025-03-18T17:32:45Z</time>
      </trkpt>
      <trkpt lat="43.64462" lon="1.37836">
        <ele>141</ele>
        <time>2025-03-18T17:32:46Z</time>
      </trkpt>
      <trkpt lat="43.64461" lon="1.37841">
        <ele>140</ele>
        <time>2025-03-18T17:32:47Z</time>
      </trkpt>
      <trkpt lat="43.64461" lon="1.37842">
        <ele>140</ele>
        <time>2025-03-18T17:32:48Z</time>
      </trkpt>
      <trkpt lat="43.64459" lon="1.37847">
        <ele>141</ele>
        <time>2025-03-18T17:32:49Z</time>
      </trkpt>
      <trkpt lat="43.64459" lon="1.37849">
        <ele>141</ele>
        <time>2025-03-18T17:32:50Z</time>
      </trkpt>
      <trkpt lat="43.64458" lon="1.37852">
        <ele>141</ele>
        <time>2025-03-18T17:32:51Z</time>
      </trkpt>
      <trkpt lat="43.64457" lon="1.37855">
        <ele>142</ele>
        <time>2025-03-18T17:32:52Z</time>
      </trkpt>
      <trkpt lat="43.64456" lon="1.37858">
        <ele>142</ele>
        <time>2025-03-18T17:32:53Z</time>
      </trkpt>
      <trkpt lat="43.64455" lon="1.37863">
        <ele>142</ele>
        <time>2025-03-18T17:32:54Z</time>
      </trkpt>
      <trkpt lat="43.64455" lon="1.37864">
        <ele>142</ele>
        <time>2025-03-18T17:32:55Z</time>
      </trkpt>
      <trkpt lat="43.64455" lon="1.3787">
        <ele>142</ele>
        <time>2025-03-18T17:32:56Z</time>
      </trkpt>
      <trkpt lat="43.64455" lon="1.37872">
        <ele>142</ele>
        <time>2025-03-18T17:32:57Z</time>
      </trkpt>
      <trkpt lat="43.64455" lon="1.37876">
        <ele>142</ele>
        <time>2025-03-18T17:32:58Z</time>
      </trkpt>
      <trkpt lat="43.64456" lon="1.37879">
        <ele>141</ele>
        <time>2025-03-18T17:32:59Z</time>
      </trkpt>
      <trkpt lat="43.64458" lon="1.37883">
        <ele>141</ele>
        <time>2025-03-18T17:33:00Z</time>
      </trkpt>
      <trkpt lat="43.64458" lon="1.37883">
        <ele>140</ele>
        <time>2025-03-18T17:33:01Z</time>
      </trkpt>
      <trkpt lat="43.64459" lon="1.37887">
        <ele>139</ele>
        <time>2025-03-18T17:33:02Z</time>
      </trkpt>
      <trkpt lat="43.6446" lon="1.37892">
        <ele>139</ele>
        <time>2025-03-18T17:33:03Z</time>
      </trkpt>
      <trkpt lat="43.64463" lon="1.37901">
        <ele>139</ele>
        <time>2025-03-18T17:33:04Z</time>
      </trkpt>
      <trkpt lat="43.64462" lon="1.37907">
        <ele>140</ele>
        <time>2025-03-18T17:33:06Z</time>
      </trkpt>
      <trkpt lat="43.64462" lon="1.37913">
        <ele>142</ele>
        <time>2025-03-18T17:33:07Z</time>
      </trkpt>
      <trkpt lat="43.64462" lon="1.37919">
        <ele>142</ele>
        <time>2025-03-18T17:33:08Z</time>
      </trkpt>
      <trkpt lat="43.64462" lon="1.37921">
        <ele>143</ele>
        <time>2025-03-18T17:33:09Z</time>
      </trkpt>
      <trkpt lat="43.64462" lon="1.37924">
        <ele>143</ele>
        <time>2025-03-18T17:33:10Z</time>
      </trkpt>
      <trkpt lat="43.64462" lon="1.37928">
        <ele>143</ele>
        <time>2025-03-18T17:33:11Z</time>
      </trkpt>
      <trkpt lat="43.64463" lon="1.37931">
        <ele>142</ele>
        <time>2025-03-18T17:33:12Z</time>
      </trkpt>
      <trkpt lat="43.64464" lon="1.37935">
        <ele>141</ele>
        <time>2025-03-18T17:33:13Z</time>
      </trkpt>
      <trkpt lat="43.64465" lon="1.37938">
        <ele>141</ele>
        <time>2025-03-18T17:33:14Z</time>
      </trkpt>
      <trkpt lat="43.64467" lon="1.37943">
        <ele>141</ele>
        <time>2025-03-18T17:33:15Z</time>
      </trkpt>
      <trkpt lat="43.64468" lon="1.37945">
        <ele>141</ele>
        <time>2025-03-18T17:33:16Z</time>
      </trkpt>
      <trkpt lat="43.64473" lon="1.37951">
        <ele>141</ele>
        <time>2025-03-18T17:33:18Z</time>
      </trkpt>
      <trkpt lat="43.64474" lon="1.37953">
        <ele>141</ele>
        <time>2025-03-18T17:33:19Z</time>
      </trkpt>
      <trkpt lat="43.64476" lon="1.37955">
        <ele>142</ele>
        <time>2025-03-18T17:33:20Z</time>
      </trkpt>
      <trkpt lat="43.64478" lon="1.37957">
        <ele>142</ele>
        <time>2025-03-18T17:33:21Z</time>
      </trkpt>
      <trkpt lat="43.64481" lon="1.37959">
        <ele>142</ele>
        <time>2025-03-18T17:33:22Z</time>
      </trkpt>
      <trkpt lat="43.64483" lon="1.37961">
        <ele>142</ele>
        <time>2025-03-18T17:33:23Z</time>
      </trkpt>
      <trkpt lat="43.64485" lon="1.37962">
        <ele>143</ele>
        <time>2025-03-18T17:33:24Z</time>
      </trkpt>
      <trkpt lat="43.64487" lon="1.37963">
        <ele>143</ele>
        <time>2025-03-18T17:33:25Z</time>
      </trkpt>
      <trkpt lat="43.64487" lon="1.37963">
        <ele>143</ele>
        <time>2025-03-18T17:33:26Z</time>
      </trkpt>
      <trkpt lat="43.6449" lon="1.37965">
        <ele>142</ele>
        <time>2025-03-18T17:33:27Z</time>
      </trkpt>
      <trkpt lat="43.64493" lon="1.37966">
        <ele>142</ele>
        <time>2025-03-18T17:33:28Z</time>
      </trkpt>
      <trkpt lat="43.64496" lon="1.37968">
        <ele>142</ele>
        <time>2025-03-18T17:33:29Z</time>
      </trkpt>
      <trkpt lat="43.64498" lon="1.37969">
        <ele>142</ele>
        <time>2025-03-18T17:33:30Z</time>
      </trkpt>
      <trkpt lat="43.645" lon="1.3797">
        <ele>142</ele>
        <time>2025-03-18T17:33:31Z</time>
      </trkpt>
      <trkpt lat="43.64502" lon="1.37971">
        <ele>142</ele>
        <time>2025-03-18T17:33:32Z</time>
      </trkpt>
      <trkpt lat="43.64505" lon="1.37972">
        <ele>142</ele>
        <time>2025-03-18T17:33:33Z</time>
      </trkpt>
      <trkpt lat="43.64505" lon="1.37972">
        <ele>142</ele>
        <time>2025-03-18T17:33:34Z</time>
      </trkpt>
      <trkpt lat="43.64505" lon="1.37972">
        <ele>142</ele>
        <time>2025-03-18T17:33:35Z</time>
      </trkpt>
      <trkpt lat="43.64513" lon="1.37979">
        <ele>142</ele>
        <time>2025-03-18T17:33:37Z</time>
      </trkpt>
      <trkpt lat="43.64515" lon="1.37981">
        <ele>142</ele>
        <time>2025-03-18T17:33:38Z</time>
      </trkpt>
      <trkpt lat="43.64517" lon="1.37982">
        <ele>142</ele>
        <time>2025-03-18T17:33:39Z</time>
      </trkpt>
      <trkpt lat="43.6452" lon="1.37984">
        <ele>142</ele>
        <time>2025-03-18T17:33:40Z</time>
      </trkpt>
      <trkpt lat="43.64522" lon="1.37985">
        <ele>142</ele>
        <time>2025-03-18T17:33:41Z</time>
      </trkpt>
      <trkpt lat="43.64524" lon="1.37987">
        <ele>143</ele>
        <time>2025-03-18T17:33:42Z</time>
      </trkpt>
      <trkpt lat="43.64527" lon="1.37989">
        <ele>143</ele>
        <time>2025-03-18T17:33:43Z</time>
      </trkpt>
      <trkpt lat="43.64529" lon="1.3799">
        <ele>143</ele>
        <time>2025-03-18T17:33:44Z</time>
      </trkpt>
      <trkpt lat="43.64529" lon="1.3799">
        <ele>143</ele>
        <time>2025-03-18T17:33:45Z</time>
      </trkpt>
      <trkpt lat="43.64537" lon="1.37992">
        <ele>143</ele>
        <time>2025-03-18T17:36:48Z</time>
      </trkpt>
      <trkpt lat="43.64535" lon="1.37991">
        <ele>144</ele>
        <time>2025-03-18T17:36:49Z</time>
      </trkpt>
      <trkpt lat="43.64533" lon="1.3799">
        <ele>144</ele>
        <time>2025-03-18T17:36:50Z</time>
      </trkpt>
      <trkpt lat="43.6453" lon="1.3799">
        <ele>144</ele>
        <time>2025-03-18T17:36:51Z</time>
      </trkpt>
      <trkpt lat="43.64527" lon="1.37989">
        <ele>145</ele>
        <time>2025-03-18T17:36:52Z</time>
      </trkpt>
      <trkpt lat="43.64525" lon="1.37988">
        <ele>145</ele>
        <time>2025-03-18T17:36:53Z</time>
      </trkpt>
      <trkpt lat="43.64523" lon="1.37987">
        <ele>145</ele>
        <time>2025-03-18T17:36:54Z</time>
      </trkpt>
      <trkpt lat="43.64519" lon="1.37986">
        <ele>145</ele>
        <time>2025-03-18T17:36:55Z</time>
      </trkpt>
      <trkpt lat="43.64518" lon="1.37985">
        <ele>145</ele>
        <time>2025-03-18T17:36:56Z</time>
      </trkpt>
      <trkpt lat="43.64514" lon="1.37984">
        <ele>145</ele>
        <time>2025-03-18T17:36:57Z</time>
      </trkpt>
      <trkpt lat="43.64513" lon="1.37984">
        <ele>145</ele>
        <time>2025-03-18T17:36:58Z</time>
      </trkpt>
      <trkpt lat="43.64511" lon="1.37983">
        <ele>144</ele>
        <time>2025-03-18T17:36:59Z</time>
      </trkpt>
      <trkpt lat="43.64508" lon="1.37981">
        <ele>144</ele>
        <time>2025-03-18T17:37:00Z</time>
      </trkpt>
      <trkpt lat="43.64506" lon="1.3798">
        <ele>144</ele>
        <time>2025-03-18T17:37:01Z</time>
      </trkpt>
      <trkpt lat="43.64502" lon="1.37978">
        <ele>144</ele>
        <time>2025-03-18T17:37:02Z</time>
      </trkpt>
      <trkpt lat="43.64501" lon="1.37977">
        <ele>144</ele>
        <time>2025-03-18T17:37:03Z</time>
      </trkpt>
      <trkpt lat="43.64499" lon="1.37977">
        <ele>143</ele>
        <time>2025-03-18T17:37:04Z</time>
      </trkpt>
      <trkpt lat="43.64497" lon="1.37975">
        <ele>143</ele>
        <time>2025-03-18T17:37:05Z</time>
      </trkpt>
      <trkpt lat="43.64494" lon="1.37974">
        <ele>142</ele>
        <time>2025-03-18T17:37:06Z</time>
      </trkpt>
      <trkpt lat="43.64491" lon="1.37972">
        <ele>142</ele>
        <time>2025-03-18T17:37:07Z</time>
      </trkpt>
      <trkpt lat="43.6449" lon="1.37972">
        <ele>143</ele>
        <time>2025-03-18T17:37:08Z</time>
      </trkpt>
      <trkpt lat="43.64488" lon="1.37971">
        <ele>143</ele>
        <time>2025-03-18T17:37:09Z</time>
      </trkpt>
      <trkpt lat="43.64486" lon="1.3797">
        <ele>144</ele>
        <time>2025-03-18T17:37:10Z</time>
      </trkpt>
      <trkpt lat="43.64484" lon="1.37969">
        <ele>145</ele>
        <time>2025-03-18T17:37:11Z</time>
      </trkpt>
      <trkpt lat="43.64482" lon="1.37968">
        <ele>145</ele>
        <time>2025-03-18T17:37:12Z</time>
      </trkpt>
      <trkpt lat="43.64479" lon="1.37966">
        <ele>145</ele>
        <time>2025-03-18T17:37:13Z</time>
      </trkpt>
      <trkpt lat="43.64478" lon="1.37965">
        <ele>145</ele>
        <time>2025-03-18T17:37:14Z</time>
      </trkpt>
      <trkpt lat="43.64476" lon="1.37964">
        <ele>145</ele>
        <time>2025-03-18T17:37:15Z</time>
      </trkpt>
      <trkpt lat="43.64473" lon="1.37962">
        <ele>145</ele>
        <time>2025-03-18T17:37:16Z</time>
      </trkpt>
      <trkpt lat="43.64471" lon="1.37961">
        <ele>145</ele>
        <time>2025-03-18T17:37:17Z</time>
      </trkpt>
      <trkpt lat="43.64469" lon="1.3796">
        <ele>144</ele>
        <time>2025-03-18T17:37:18Z</time>
      </trkpt>
      <trkpt lat="43.64467" lon="1.37958">
        <ele>144</ele>
        <time>2025-03-18T17:37:19Z</time>
      </trkpt>
      <trkpt lat="43.64465" lon="1.37957">
        <ele>145</ele>
        <time>2025-03-18T17:37:20Z</time>
      </trkpt>
      <trkpt lat="43.64462" lon="1.37956">
        <ele>145</ele>
        <time>2025-03-18T17:37:21Z</time>
      </trkpt>
      <trkpt lat="43.6446" lon="1.37954">
        <ele>145</ele>
        <time>2025-03-18T17:37:22Z</time>
      </trkpt>
      <trkpt lat="43.64457" lon="1.37952">
        <ele>144</ele>
        <time>2025-03-18T17:37:23Z</time>
      </trkpt>
      <trkpt lat="43.64455" lon="1.37951">
        <ele>144</ele>
        <time>2025-03-18T17:37:24Z</time>
      </trkpt>
      <trkpt lat="43.64454" lon="1.3795">
        <ele>145</ele>
        <time>2025-03-18T17:37:25Z</time>
      </trkpt>
      <trkpt lat="43.64451" lon="1.37947">
        <ele>145</ele>
        <time>2025-03-18T17:37:26Z</time>
      </trkpt>
      <trkpt lat="43.6445" lon="1.37946">
        <ele>145</ele>
        <time>2025-03-18T17:37:27Z</time>
      </trkpt>
      <trkpt lat="43.64447" lon="1.37944">
        <ele>145</ele>
        <time>2025-03-18T17:37:28Z</time>
      </trkpt>
      <trkpt lat="43.64445" lon="1.37943">
        <ele>145</ele>
        <time>2025-03-18T17:37:29Z</time>
      </trkpt>
      <trkpt lat="43.64442" lon="1.37941">
        <ele>145</ele>
        <time>2025-03-18T17:37:30Z</time>
      </trkpt>
      <trkpt lat="43.64441" lon="1.37941">
        <ele>145</ele>
        <time>2025-03-18T17:37:31Z</time>
      </trkpt>
      <trkpt lat="43.64441" lon="1.37941">
        <ele>144</ele>
        <time>2025-03-18T17:37:32Z</time>
      </trkpt>
      <trkpt lat="43.64439" lon="1.37945">
        <ele>144</ele>
        <time>2025-03-18T17:37:33Z</time>
      </trkpt>
      <trkpt lat="43.64438" lon="1.37945">
        <ele>145</ele>
        <time>2025-03-18T17:37:34Z</time>
      </trkpt>
      <trkpt lat="43.64436" lon="1.37945">
        <ele>145</ele>
        <time>2025-03-18T17:37:35Z</time>
      </trkpt>
      <trkpt lat="43.64434" lon="1.37945">
        <ele>145</ele>
        <time>2025-03-18T17:37:36Z</time>
      </trkpt>
      <trkpt lat="43.64432" lon="1.37945">
        <ele>144</ele>
        <time>2025-03-18T17:37:37Z</time>
      </trkpt>
      <trkpt lat="43.64429" lon="1.37945">
        <ele>144</ele>
        <time>2025-03-18T17:37:38Z</time>
      </trkpt>
      <trkpt lat="43.64427" lon="1.37945">
        <ele>144</ele>
        <time>2025-03-18T17:37:39Z</time>
      </trkpt>
      <trkpt lat="43.64424" lon="1.37945">
        <ele>144</ele>
        <time>2025-03-18T17:37:40Z</time>
      </trkpt>
      <trkpt lat="43.64421" lon="1.37944">
        <ele>144</ele>
        <time>2025-03-18T17:37:41Z</time>
      </trkpt>
      <trkpt lat="43.64418" lon="1.37943">
        <ele>144</ele>
        <time>2025-03-18T17:37:42Z</time>
      </trkpt>
      <trkpt lat="43.64417" lon="1.37943">
        <ele>144</ele>
        <time>2025-03-18T17:37:43Z</time>
      </trkpt>
      <trkpt lat="43.64414" lon="1.37941">
        <ele>144</ele>
        <time>2025-03-18T17:37:44Z</time>
      </trkpt>
      <trkpt lat="43.64412" lon="1.37937">
        <ele>144</ele>
        <time>2025-03-18T17:37:45Z</time>
      </trkpt>
      <trkpt lat="43.64411" lon="1.37936">
        <ele>144</ele>
        <time>2025-03-18T17:37:46Z</time>
      </trkpt>
      <trkpt lat="43.6441" lon="1.37933">
        <ele>144</ele>
        <time>2025-03-18T17:37:47Z</time>
      </trkpt>
      <trkpt lat="43.64406" lon="1.3793">
        <ele>145</ele>
        <time>2025-03-18T17:37:48Z</time>
      </trkpt>
      <trkpt lat="43.64405" lon="1.3793">
        <ele>145</ele>
        <time>2025-03-18T17:37:49Z</time>
      </trkpt>
      <trkpt lat="43.64403" lon="1.37928">
        <ele>145</ele>
        <time>2025-03-18T17:37:50Z</time>
      </trkpt>
      <trkpt lat="43.644" lon="1.37926">
        <ele>145</ele>
        <time>2025-03-18T17:37:51Z</time>
      </trkpt>
      <trkpt lat="43.64399" lon="1.37925">
        <ele>145</ele>
        <time>2025-03-18T17:37:52Z</time>
      </trkpt>
      <trkpt lat="43.64397" lon="1.37923">
        <ele>145</ele>
        <time>2025-03-18T17:37:53Z</time>
      </trkpt>
      <trkpt lat="43.64394" lon="1.37921">
        <ele>145</ele>
        <time>2025-03-18T17:37:54Z</time>
      </trkpt>
      <trkpt lat="43.64393" lon="1.3792">
        <ele>145</ele>
        <time>2025-03-18T17:37:55Z</time>
      </trkpt>
      <trkpt lat="43.64391" lon="1.37918">
        <ele>145</ele>
        <time>2025-03-18T17:37:56Z</time>
      </trkpt>
      <trkpt lat="43.64389" lon="1.37917">
        <ele>145</ele>
        <time>2025-03-18T17:37:57Z</time>
      </trkpt>
      <trkpt lat="43.64388" lon="1.37915">
        <ele>145</ele>
        <time>2025-03-18T17:37:58Z</time>
      </trkpt>
      <trkpt lat="43.64386" lon="1.37914">
        <ele>145</ele>
        <time>2025-03-18T17:37:59Z</time>
      </trkpt>
      <trkpt lat="43.64383" lon="1.37913">
        <ele>145</ele>
        <time>2025-03-18T17:38:00Z</time>
      </trkpt>
      <trkpt lat="43.64381" lon="1.37911">
        <ele>145</ele>
        <time>2025-03-18T17:38:01Z</time>
      </trkpt>
      <trkpt lat="43.64379" lon="1.37909">
        <ele>145</ele>
        <time>2025-03-18T17:38:02Z</time>
      </trkpt>
      <trkpt lat="43.64377" lon="1.37908">
        <ele>145</ele>
        <time>2025-03-18T17:38:03Z</time>
      </trkpt>
      <trkpt lat="43.64374" lon="1.37906">
        <ele>145</ele>
        <time>2025-03-18T17:38:04Z</time>
      </trkpt>
      <trkpt lat="43.64373" lon="1.37905">
        <ele>144</ele>
        <time>2025-03-18T17:38:05Z</time>
      </trkpt>
      <trkpt lat="43.64369" lon="1.37904">
        <ele>144</ele>
        <time>2025-03-18T17:38:06Z</time>
      </trkpt>
      <trkpt lat="43.64368" lon="1.37904">
        <ele>145</ele>
        <time>2025-03-18T17:38:07Z</time>
      </trkpt>
      <trkpt lat="43.64366" lon="1.37903">
        <ele>145</ele>
        <time>2025-03-18T17:38:08Z</time>
      </trkpt>
      <trkpt lat="43.64364" lon="1.37903">
        <ele>145</ele>
        <time>2025-03-18T17:38:09Z</time>
      </trkpt>
      <trkpt lat="43.64362" lon="1.37903">
        <ele>145</ele>
        <time>2025-03-18T17:38:10Z</time>
      </trkpt>
      <trkpt lat="43.64359" lon="1.37904">
        <ele>145</ele>
        <time>2025-03-18T17:38:11Z</time>
      </trkpt>
      <trkpt lat="43.64358" lon="1.37905">
        <ele>145</ele>
        <time>2025-03-18T17:38:12Z</time>
      </trkpt>
      <trkpt lat="43.64356" lon="1.37905">
        <ele>145</ele>
        <time>2025-03-18T17:38:13Z</time>
      </trkpt>
      <trkpt lat="43.64354" lon="1.37906">
        <ele>145</ele>
        <time>2025-03-18T17:38:14Z</time>
      </trkpt>
      <trkpt lat="43.64352" lon="1.37906">
        <ele>145</ele>
        <time>2025-03-18T17:38:15Z</time>
      </trkpt>
      <trkpt lat="43.6435" lon="1.37908">
        <ele>145</ele>
        <time>2025-03-18T17:38:16Z</time>
      </trkpt>
      <trkpt lat="43.64347" lon="1.37909">
        <ele>145</ele>
        <time>2025-03-18T17:38:17Z</time>
      </trkpt>
      <trkpt lat="43.64346" lon="1.3791">
        <ele>145</ele>
        <time>2025-03-18T17:38:18Z</time>
      </trkpt>
      <trkpt lat="43.64344" lon="1.37911">
        <ele>145</ele>
        <time>2025-03-18T17:38:19Z</time>
      </trkpt>
      <trkpt lat="43.64342" lon="1.37912">
        <ele>145</ele>
        <time>2025-03-18T17:38:20Z</time>
      </trkpt>
      <trkpt lat="43.6434" lon="1.37913">
        <ele>145</ele>
        <time>2025-03-18T17:38:21Z</time>
      </trkpt>
      <trkpt lat="43.64337" lon="1.37913">
        <ele>145</ele>
        <time>2025-03-18T17:38:22Z</time>
      </trkpt>
      <trkpt lat="43.64333" lon="1.37915">
        <ele>146</ele>
        <time>2025-03-18T17:38:24Z</time>
      </trkpt>
      <trkpt lat="43.64329" lon="1.37916">
        <ele>146</ele>
        <time>2025-03-18T17:38:25Z</time>
      </trkpt>
      <trkpt lat="43.64328" lon="1.37917">
        <ele>146</ele>
        <time>2025-03-18T17:38:26Z</time>
      </trkpt>
      <trkpt lat="43.64326" lon="1.37918">
        <ele>146</ele>
        <time>2025-03-18T17:38:27Z</time>
      </trkpt>
      <trkpt lat="43.64324" lon="1.37919">
        <ele>146</ele>
        <time>2025-03-18T17:38:28Z</time>
      </trkpt>
      <trkpt lat="43.6432" lon="1.3792">
        <ele>147</ele>
        <time>2025-03-18T17:38:29Z</time>
      </trkpt>
      <trkpt lat="43.64319" lon="1.37921">
        <ele>147</ele>
        <time>2025-03-18T17:38:30Z</time>
      </trkpt>
      <trkpt lat="43.64317" lon="1.37922">
        <ele>146</ele>
        <time>2025-03-18T17:38:31Z</time>
      </trkpt>
      <trkpt lat="43.64314" lon="1.37923">
        <ele>146</ele>
        <time>2025-03-18T17:38:32Z</time>
      </trkpt>
      <trkpt lat="43.64313" lon="1.37924">
        <ele>146</ele>
        <time>2025-03-18T17:38:33Z</time>
      </trkpt>
      <trkpt lat="43.64311" lon="1.37924">
        <ele>146</ele>
        <time>2025-03-18T17:38:34Z</time>
      </trkpt>
      <trkpt lat="43.64309" lon="1.37926">
        <ele>146</ele>
        <time>2025-03-18T17:38:35Z</time>
      </trkpt>
      <trkpt lat="43.64307" lon="1.37928">
        <ele>147</ele>
        <time>2025-03-18T17:38:36Z</time>
      </trkpt>
      <trkpt lat="43.64305" lon="1.37928">
        <ele>147</ele>
        <time>2025-03-18T17:38:37Z</time>
      </trkpt>
      <trkpt lat="43.64303" lon="1.37929">
        <ele>146</ele>
        <time>2025-03-18T17:38:38Z</time>
      </trkpt>
      <trkpt lat="43.643" lon="1.37931">
        <ele>146</ele>
        <time>2025-03-18T17:38:39Z</time>
      </trkpt>
      <trkpt lat="43.64299" lon="1.37932">
        <ele>146</ele>
        <time>2025-03-18T17:38:40Z</time>
      </trkpt>
      <trkpt lat="43.64297" lon="1.37932">
        <ele>147</ele>
        <time>2025-03-18T17:38:41Z</time>
      </trkpt>
      <trkpt lat="43.64293" lon="1.37933">
        <ele>147</ele>
        <time>2025-03-18T17:38:42Z</time>
      </trkpt>
      <trkpt lat="43.64292" lon="1.37933">
        <ele>147</ele>
        <time>2025-03-18T17:38:43Z</time>
      </trkpt>
      <trkpt lat="43.64289" lon="1.37935">
        <ele>147</ele>
        <time>2025-03-18T17:38:44Z</time>
      </trkpt>
      <trkpt lat="43.64288" lon="1.37935">
        <ele>147</ele>
        <time>2025-03-18T17:38:45Z</time>
      </trkpt>
      <trkpt lat="43.64286" lon="1.37936">
        <ele>147</ele>
        <time>2025-03-18T17:38:46Z</time>
      </trkpt>
      <trkpt lat="43.64284" lon="1.37936">
        <ele>147</ele>
        <time>2025-03-18T17:38:47Z</time>
      </trkpt>
      <trkpt lat="43.64282" lon="1.37936">
        <ele>147</ele>
        <time>2025-03-18T17:38:48Z</time>
      </trkpt>
      <trkpt lat="43.6428" lon="1.37936">
        <ele>147</ele>
        <time>2025-03-18T17:38:49Z</time>
      </trkpt>
      <trkpt lat="43.64277" lon="1.37938">
        <ele>147</ele>
        <time>2025-03-18T17:38:50Z</time>
      </trkpt>
      <trkpt lat="43.64272" lon="1.37939">
        <ele>147</ele>
        <time>2025-03-18T17:38:51Z</time>
      </trkpt>
      <trkpt lat="43.64271" lon="1.3794">
        <ele>147</ele>
        <time>2025-03-18T17:38:52Z</time>
      </trkpt>
      <trkpt lat="43.6427" lon="1.3794">
        <ele>148</ele>
        <time>2025-03-18T17:38:53Z</time>
      </trkpt>
      <trkpt lat="43.6427" lon="1.3794">
        <ele>148</ele>
        <time>2025-03-18T17:38:54Z</time>
      </trkpt>
      <trkpt lat="43.64267" lon="1.3794">
        <ele>148</ele>
        <time>2025-03-18T17:38:55Z</time>
      </trkpt>
      <trkpt lat="43.64265" lon="1.3794">
        <ele>148</ele>
        <time>2025-03-18T17:38:56Z</time>
      </trkpt>
      <trkpt lat="43.64262" lon="1.37941">
        <ele>148</ele>
        <time>2025-03-18T17:38:57Z</time>
      </trkpt>
      <trkpt lat="43.6426" lon="1.37941">
        <ele>148</ele>
        <time>2025-03-18T17:38:58Z</time>
      </trkpt>
      <trkpt lat="43.64258" lon="1.37942">
        <ele>148</ele>
        <time>2025-03-18T17:38:59Z</time>
      </trkpt>
      <trkpt lat="43.64255" lon="1.37943">
        <ele>148</ele>
        <time>2025-03-18T17:39:00Z</time>
      </trkpt>
      <trkpt lat="43.64248" lon="1.37947">
        <ele>148</ele>
        <time>2025-03-18T17:39:02Z</time>
      </trkpt>
      <trkpt lat="43.64246" lon="1.37951">
        <ele>148</ele>
        <time>2025-03-18T17:39:03Z</time>
      </trkpt>
      <trkpt lat="43.64245" lon="1.37952">
        <ele>148</ele>
        <time>2025-03-18T17:39:04Z</time>
      </trkpt>
      <trkpt lat="43.64243" lon="1.37955">
        <ele>147</ele>
        <time>2025-03-18T17:39:05Z</time>
      </trkpt>
      <trkpt lat="43.64241" lon="1.37958">
        <ele>147</ele>
        <time>2025-03-18T17:39:06Z</time>
      </trkpt>
      <trkpt lat="43.64239" lon="1.3796">
        <ele>147</ele>
        <time>2025-03-18T17:39:07Z</time>
      </trkpt>
      <trkpt lat="43.64237" lon="1.37963">
        <ele>147</ele>
        <time>2025-03-18T17:39:08Z</time>
      </trkpt>
      <trkpt lat="43.64235" lon="1.37964">
        <ele>147</ele>
        <time>2025-03-18T17:39:09Z</time>
      </trkpt>
      <trkpt lat="43.64232" lon="1.37965">
        <ele>148</ele>
        <time>2025-03-18T17:39:10Z</time>
      </trkpt>
      <trkpt lat="43.64231" lon="1.37966">
        <ele>148</ele>
        <time>2025-03-18T17:39:11Z</time>
      </trkpt>
      <trkpt lat="43.64229" lon="1.37966">
        <ele>148</ele>
        <time>2025-03-18T17:39:12Z</time>
      </trkpt>
      <trkpt lat="43.64228" lon="1.37967">
        <ele>149</ele>
        <time>2025-03-18T17:39:13Z</time>
      </trkpt>
      <trkpt lat="43.64226" lon="1.37968">
        <ele>149</ele>
        <time>2025-03-18T17:39:14Z</time>
      </trkpt>
      <trkpt lat="43.64224" lon="1.37968">
        <ele>149</ele>
        <time>2025-03-18T17:39:15Z</time>
      </trkpt>
      <trkpt lat="43.64222" lon="1.37969">
        <ele>149</ele>
        <time>2025-03-18T17:39:16Z</time>
      </trkpt>
      <trkpt lat="43.6422" lon="1.37971">
        <ele>149</ele>
        <time>2025-03-18T17:39:17Z</time>
      </trkpt>
      <trkpt lat="43.64218" lon="1.37972">
        <ele>149</ele>
        <time>2025-03-18T17:39:18Z</time>
      </trkpt>
      <trkpt lat="43.64217" lon="1.37973">
        <ele>149</ele>
        <time>2025-03-18T17:39:19Z</time>
      </trkpt>
      <trkpt lat="43.64213" lon="1.37975">
        <ele>149</ele>
        <time>2025-03-18T17:39:21Z</time>
      </trkpt>
      <trkpt lat="43.64211" lon="1.37976">
        <ele>149</ele>
        <time>2025-03-18T17:39:22Z</time>
      </trkpt>
      <trkpt lat="43.64209" lon="1.37977">
        <ele>149</ele>
        <time>2025-03-18T17:39:23Z</time>
      </trkpt>
      <trkpt lat="43.64207" lon="1.37978">
        <ele>149</ele>
        <time>2025-03-18T17:39:24Z</time>
      </trkpt>
      <trkpt lat="43.64205" lon="1.3798">
        <ele>149</ele>
        <time>2025-03-18T17:39:25Z</time>
      </trkpt>
      <trkpt lat="43.64202" lon="1.37979">
        <ele>150</ele>
        <time>2025-03-18T17:39:26Z</time>
      </trkpt>
      <trkpt lat="43.642" lon="1.3798">
        <ele>151</ele>
        <time>2025-03-18T17:39:27Z</time>
      </trkpt>
      <trkpt lat="43.64196" lon="1.37982">
        <ele>151</ele>
        <time>2025-03-18T17:39:28Z</time>
      </trkpt>
      <trkpt lat="43.64194" lon="1.37983">
        <ele>151</ele>
        <time>2025-03-18T17:39:29Z</time>
      </trkpt>
      <trkpt lat="43.64192" lon="1.37985">
        <ele>151</ele>
        <time>2025-03-18T17:39:30Z</time>
      </trkpt>
      <trkpt lat="43.64191" lon="1.37988">
        <ele>151</ele>
        <time>2025-03-18T17:39:31Z</time>
      </trkpt>
      <trkpt lat="43.64189" lon="1.37992">
        <ele>151</ele>
        <time>2025-03-18T17:39:32Z</time>
      </trkpt>
      <trkpt lat="43.64188" lon="1.37993">
        <ele>151</ele>
        <time>2025-03-18T17:39:33Z</time>
      </trkpt>
      <trkpt lat="43.64186" lon="1.37997">
        <ele>151</ele>
        <time>2025-03-18T17:39:34Z</time>
      </trkpt>
      <trkpt lat="43.64185" lon="1.37998">
        <ele>151</ele>
        <time>2025-03-18T17:39:35Z</time>
      </trkpt>
      <trkpt lat="43.64183" lon="1.38001">
        <ele>151</ele>
        <time>2025-03-18T17:39:36Z</time>
      </trkpt>
      <trkpt lat="43.64181" lon="1.38002">
        <ele>151</ele>
        <time>2025-03-18T17:39:37Z</time>
      </trkpt>
      <trkpt lat="43.64181" lon="1.38002">
        <ele>151</ele>
        <time>2025-03-18T17:39:38Z</time>
      </trkpt>
      <trkpt lat="43.64179" lon="1.38004">
        <ele>151</ele>
        <time>2025-03-18T17:39:39Z</time>
      </trkpt>
      <trkpt lat="43.64179" lon="1.38004">
        <ele>151</ele>
        <time>2025-03-18T17:39:40Z</time>
      </trkpt>
      <trkpt lat="43.64178" lon="1.38008">
        <ele>151</ele>
        <time>2025-03-18T17:39:41Z</time>
      </trkpt>
      <trkpt lat="43.64178" lon="1.3801">
        <ele>150</ele>
        <time>2025-03-18T17:39:42Z</time>
      </trkpt>
      <trkpt lat="43.64177" lon="1.38012">
        <ele>150</ele>
        <time>2025-03-18T17:39:43Z</time>
      </trkpt>
      <trkpt lat="43.64176" lon="1.38013">
        <ele>149</ele>
        <time>2025-03-18T17:39:44Z</time>
      </trkpt>
      <trkpt lat="43.64175" lon="1.38015">
        <ele>149</ele>
        <time>2025-03-18T17:39:45Z</time>
      </trkpt>
      <trkpt lat="43.64175" lon="1.38017">
        <ele>149</ele>
        <time>2025-03-18T17:39:46Z</time>
      </trkpt>
      <trkpt lat="43.64174" lon="1.38019">
        <ele>149</ele>
        <time>2025-03-18T17:39:47Z</time>
      </trkpt>
      <trkpt lat="43.64173" lon="1.38022">
        <ele>149</ele>
        <time>2025-03-18T17:39:48Z</time>
      </trkpt>
      <trkpt lat="43.64172" lon="1.38025">
        <ele>150</ele>
        <time>2025-03-18T17:39:49Z</time>
      </trkpt>
      <trkpt lat="43.64171" lon="1.38028">
        <ele>150</ele>
        <time>2025-03-18T17:39:50Z</time>
      </trkpt>
      <trkpt lat="43.64169" lon="1.38031">
        <ele>150</ele>
        <time>2025-03-18T17:39:51Z</time>
      </trkpt>
      <trkpt lat="43.64168" lon="1.38033">
        <ele>150</ele>
        <time>2025-03-18T17:39:52Z</time>
      </trkpt>
      <trkpt lat="43.64166" lon="1.38035">
        <ele>150</ele>
        <time>2025-03-18T17:39:53Z</time>
      </trkpt>
      <trkpt lat="43.64165" lon="1.38036">
        <ele>150</ele>
        <time>2025-03-18T17:39:54Z</time>
      </trkpt>
      <trkpt lat="43.64163" lon="1.38038">
        <ele>150</ele>
        <time>2025-03-18T17:39:55Z</time>
      </trkpt>
      <trkpt lat="43.64162" lon="1.3804">
        <ele>150</ele>
        <time>2025-03-18T17:39:56Z</time>
      </trkpt>
      <trkpt lat="43.6416" lon="1.38041">
        <ele>150</ele>
        <time>2025-03-18T17:39:57Z</time>
      </trkpt>
      <trkpt lat="43.64157" lon="1.38043">
        <ele>150</ele>
        <time>2025-03-18T17:39:58Z</time>
      </trkpt>
      <trkpt lat="43.64155" lon="1.38044">
        <ele>150</ele>
        <time>2025-03-18T17:39:59Z</time>
      </trkpt>
      <trkpt lat="43.64151" lon="1.38045">
        <ele>149</ele>
        <time>2025-03-18T17:40:00Z</time>
      </trkpt>
      <trkpt lat="43.64151" lon="1.38045">
        <ele>149</ele>
        <time>2025-03-18T17:40:01Z</time>
      </trkpt>
      <trkpt lat="43.64146" lon="1.38044">
        <ele>149</ele>
        <time>2025-03-18T17:40:02Z</time>
      </trkpt>
      <trkpt lat="43.64144" lon="1.38043">
        <ele>149</ele>
        <time>2025-03-18T17:40:03Z</time>
      </trkpt>
      <trkpt lat="43.64143" lon="1.38044">
        <ele>149</ele>
        <time>2025-03-18T17:40:04Z</time>
      </trkpt>
      <trkpt lat="43.64142" lon="1.38045">
        <ele>149</ele>
        <time>2025-03-18T17:40:05Z</time>
      </trkpt>
      <trkpt lat="43.6414" lon="1.38046">
        <ele>149</ele>
        <time>2025-03-18T17:40:06Z</time>
      </trkpt>
      <trkpt lat="43.64139" lon="1.38047">
        <ele>149</ele>
        <time>2025-03-18T17:40:07Z</time>
      </trkpt>
      <trkpt lat="43.64137" lon="1.38048">
        <ele>149</ele>
        <time>2025-03-18T17:40:08Z</time>
      </trkpt>
      <trkpt lat="43.64135" lon="1.3805">
        <ele>149</ele>
        <time>2025-03-18T17:40:09Z</time>
      </trkpt>
      <trkpt lat="43.64134" lon="1.38051">
        <ele>150</ele>
        <time>2025-03-18T17:40:10Z</time>
      </trkpt>
      <trkpt lat="43.64134" lon="1.38051">
        <ele>151</ele>
        <time>2025-03-18T17:40:11Z</time>
      </trkpt>
      <trkpt lat="43.6413" lon="1.38051">
        <ele>151</ele>
        <time>2025-03-18T17:40:12Z</time>
      </trkpt>
      <trkpt lat="43.6413" lon="1.38051">
        <ele>151</ele>
        <time>2025-03-18T17:40:13Z</time>
      </trkpt>
      <trkpt lat="43.64127" lon="1.38051">
        <ele>151</ele>
        <time>2025-03-18T17:40:14Z</time>
      </trkpt>
      <trkpt lat="43.64127" lon="1.38051">
        <ele>150</ele>
        <time>2025-03-18T17:40:15Z</time>
      </trkpt>
      <trkpt lat="43.64125" lon="1.38051">
        <ele>150</ele>
        <time>2025-03-18T17:40:16Z</time>
      </trkpt>
      <trkpt lat="43.64125" lon="1.38051">
        <ele>151</ele>
        <time>2025-03-18T17:40:18Z</time>
      </trkpt>
      <trkpt lat="43.64125" lon="1.38051">
        <ele>151</ele>
        <time>2025-03-18T17:40:19Z</time>
      </trkpt>
      <trkpt lat="43.64125" lon="1.38051">
        <ele>151</ele>
        <time>2025-03-18T17:40:20Z</time>
      </trkpt>
      <trkpt lat="43.64125" lon="1.38051">
        <ele>150</ele>
        <time>2025-03-18T17:40:21Z</time>
      </trkpt>
      <trkpt lat="43.64123" lon="1.38051">
        <ele>150</ele>
        <time>2025-03-18T17:40:22Z</time>
      </trkpt>
      <trkpt lat="43.64123" lon="1.38051">
        <ele>149</ele>
        <time>2025-03-18T17:40:23Z</time>
      </trkpt>
      <trkpt lat="43.64123" lon="1.38051">
        <ele>150</ele>
        <time>2025-03-18T17:40:24Z</time>
      </trkpt>
      <trkpt lat="43.64123" lon="1.38051">
        <ele>151</ele>
        <time>2025-03-18T17:40:25Z</time>
      </trkpt>
      <trkpt lat="43.64121" lon="1.38051">
        <ele>151</ele>
        <time>2025-03-18T17:40:26Z</time>
      </trkpt>
      <trkpt lat="43.64121" lon="1.38051">
        <ele>151</ele>
        <time>2025-03-18T17:40:27Z</time>
      </trkpt>
      <trkpt lat="43.64121" lon="1.38051">
        <ele>150</ele>
        <time>2025-03-18T17:40:28Z</time>
      </trkpt>
      <trkpt lat="43.6412" lon="1.38048">
        <ele>150</ele>
        <time>2025-03-18T17:40:29Z</time>
      </trkpt>
      <trkpt lat="43.6412" lon="1.38048">
        <ele>151</ele>
        <time>2025-03-18T17:40:30Z</time>
      </trkpt>
      <trkpt lat="43.64119" lon="1.38044">
        <ele>151</ele>
        <time>2025-03-18T17:40:31Z</time>
      </trkpt>
      <trkpt lat="43.64119" lon="1.38044">
        <ele>151</ele>
        <time>2025-03-18T17:40:32Z</time>
      </trkpt>
      <trkpt lat="43.6412" lon="1.3804">
        <ele>151</ele>
        <time>2025-03-18T17:40:33Z</time>
      </trkpt>
      <trkpt lat="43.64121" lon="1.38039">
        <ele>151</ele>
        <time>2025-03-18T17:40:34Z</time>
      </trkpt>
      <trkpt lat="43.64123" lon="1.38038">
        <ele>151</ele>
        <time>2025-03-18T17:40:35Z</time>
      </trkpt>
      <trkpt lat="43.64124" lon="1.38037">
        <ele>151</ele>
        <time>2025-03-18T17:40:37Z</time>
      </trkpt>
      <trkpt lat="43.64126" lon="1.38036">
        <ele>151</ele>
        <time>2025-03-18T17:40:38Z</time>
      </trkpt>
      <trkpt lat="43.64127" lon="1.38035">
        <ele>151</ele>
        <time>2025-03-18T17:40:39Z</time>
      </trkpt>
      <trkpt lat="43.64129" lon="1.38034">
        <ele>151</ele>
        <time>2025-03-18T17:40:40Z</time>
      </trkpt>
      <trkpt lat="43.64129" lon="1.38031">
        <ele>151</ele>
        <time>2025-03-18T17:40:41Z</time>
      </trkpt>
      <trkpt lat="43.6413" lon="1.38028">
        <ele>151</ele>
        <time>2025-03-18T17:40:42Z</time>
      </trkpt>
      <trkpt lat="43.6413" lon="1.38025">
        <ele>151</ele>
        <time>2025-03-18T17:40:43Z</time>
      </trkpt>
      <trkpt lat="43.6413" lon="1.38022">
        <ele>151</ele>
        <time>2025-03-18T17:40:44Z</time>
      </trkpt>
      <trkpt lat="43.6413" lon="1.38021">
        <ele>151</ele>
        <time>2025-03-18T17:40:45Z</time>
      </trkpt>
      <trkpt lat="43.64129" lon="1.38019">
        <ele>151</ele>
        <time>2025-03-18T17:40:46Z</time>
      </trkpt>
      <trkpt lat="43.64128" lon="1.38018">
        <ele>151</ele>
        <time>2025-03-18T17:40:47Z</time>
      </trkpt>
      <trkpt lat="43.64128" lon="1.38017">
        <ele>151</ele>
        <time>2025-03-18T17:40:48Z</time>
      </trkpt>
      <trkpt lat="43.64127" lon="1.38016">
        <ele>151</ele>
        <time>2025-03-18T17:40:49Z</time>
      </trkpt>
      <trkpt lat="43.64123" lon="1.38007">
        <ele>151</ele>
        <time>2025-03-18T17:40:50Z</time>
      </trkpt>
      <trkpt lat="43.64121" lon="1.38005">
        <ele>151</ele>
        <time>2025-03-18T17:40:51Z</time>
      </trkpt>
      <trkpt lat="43.6412" lon="1.38003">
        <ele>151</ele>
        <time>2025-03-18T17:40:52Z</time>
      </trkpt>
      <trkpt lat="43.64112" lon="1.37994">
        <ele>151</ele>
        <time>2025-03-18T17:40:53Z</time>
      </trkpt>
      <trkpt lat="43.64109" lon="1.37993">
        <ele>151</ele>
        <time>2025-03-18T17:40:54Z</time>
      </trkpt>
      <trkpt lat="43.64107" lon="1.37991">
        <ele>151</ele>
        <time>2025-03-18T17:40:56Z</time>
      </trkpt>
      <trkpt lat="43.64104" lon="1.37989">
        <ele>151</ele>
        <time>2025-03-18T17:40:57Z</time>
      </trkpt>
      <trkpt lat="43.64101" lon="1.37988">
        <ele>150</ele>
        <time>2025-03-18T17:40:59Z</time>
      </trkpt>
      <trkpt lat="43.64099" lon="1.37986">
        <ele>150</ele>
        <time>2025-03-18T17:41:00Z</time>
      </trkpt>
      <trkpt lat="43.64093" lon="1.37983">
        <ele>151</ele>
        <time>2025-03-18T17:41:01Z</time>
      </trkpt>
      <trkpt lat="43.64092" lon="1.37983">
        <ele>151</ele>
        <time>2025-03-18T17:41:02Z</time>
      </trkpt>
      <trkpt lat="43.6409" lon="1.37983">
        <ele>151</ele>
        <time>2025-03-18T17:41:03Z</time>
      </trkpt>
      <trkpt lat="43.64089" lon="1.37982">
        <ele>151</ele>
        <time>2025-03-18T17:41:04Z</time>
      </trkpt>
      <trkpt lat="43.64081" lon="1.37979">
        <ele>151</ele>
        <time>2025-03-18T17:41:05Z</time>
      </trkpt>
      <trkpt lat="43.64079" lon="1.37977">
        <ele>151</ele>
        <time>2025-03-18T17:41:06Z</time>
      </trkpt>
      <trkpt lat="43.64077" lon="1.37974">
        <ele>151</ele>
        <time>2025-03-18T17:41:07Z</time>
      </trkpt>
      <trkpt lat="43.64074" lon="1.37972">
        <ele>151</ele>
        <time>2025-03-18T17:41:08Z</time>
      </trkpt>
      <trkpt lat="43.64072" lon="1.3797">
        <ele>151</ele>
        <time>2025-03-18T17:41:09Z</time>
      </trkpt>
      <trkpt lat="43.64069" lon="1.37966">
        <ele>151</ele>
        <time>2025-03-18T17:41:10Z</time>
      </trkpt>
      <trkpt lat="43.64068" lon="1.37965">
        <ele>151</ele>
        <time>2025-03-18T17:41:11Z</time>
      </trkpt>
      <trkpt lat="43.64065" lon="1.37962">
        <ele>151</ele>
        <time>2025-03-18T17:41:12Z</time>
      </trkpt>
      <trkpt lat="43.64064" lon="1.37961">
        <ele>151</ele>
        <time>2025-03-18T17:41:13Z</time>
      </trkpt>
      <trkpt lat="43.64061" lon="1.37959">
        <ele>151</ele>
        <time>2025-03-18T17:41:14Z</time>
      </trkpt>
      <trkpt lat="43.64059" lon="1.37958">
        <ele>151</ele>
        <time>2025-03-18T17:41:15Z</time>
      </trkpt>
      <trkpt lat="43.64057" lon="1.37956">
        <ele>151</ele>
        <time>2025-03-18T17:41:16Z</time>
      </trkpt>
      <trkpt lat="43.64054" lon="1.37954">
        <ele>151</ele>
        <time>2025-03-18T17:41:17Z</time>
      </trkpt>
      <trkpt lat="43.64053" lon="1.37953">
        <ele>151</ele>
        <time>2025-03-18T17:41:18Z</time>
      </trkpt>
      <trkpt lat="43.64051" lon="1.37952">
        <ele>151</ele>
        <time>2025-03-18T17:41:19Z</time>
      </trkpt>
      <trkpt lat="43.64048" lon="1.3795">
        <ele>151</ele>
        <time>2025-03-18T17:41:20Z</time>
      </trkpt>
      <trkpt lat="43.64047" lon="1.37949">
        <ele>151</ele>
        <time>2025-03-18T17:41:21Z</time>
      </trkpt>
      <trkpt lat="43.64043" lon="1.37948">
        <ele>151</ele>
        <time>2025-03-18T17:41:22Z</time>
      </trkpt>
      <trkpt lat="43.64042" lon="1.37947">
        <ele>151</ele>
        <time>2025-03-18T17:41:23Z</time>
      </trkpt>
      <trkpt lat="43.6404" lon="1.37945">
        <ele>151</ele>
        <time>2025-03-18T17:41:24Z</time>
      </trkpt>
      <trkpt lat="43.64038" lon="1.37943">
        <ele>151</ele>
        <time>2025-03-18T17:41:25Z</time>
      </trkpt>
      <trkpt lat="43.64037" lon="1.37943">
        <ele>151</ele>
        <time>2025-03-18T17:41:26Z</time>
      </trkpt>
      <trkpt lat="43.64035" lon="1.37942">
        <ele>151</ele>
        <time>2025-03-18T17:41:27Z</time>
      </trkpt>
      <trkpt lat="43.64033" lon="1.37941">
        <ele>151</ele>
        <time>2025-03-18T17:41:28Z</time>
      </trkpt>
      <trkpt lat="43.6403" lon="1.3794">
        <ele>151</ele>
        <time>2025-03-18T17:41:29Z</time>
      </trkpt>
      <trkpt lat="43.64028" lon="1.37938">
        <ele>151</ele>
        <time>2025-03-18T17:41:30Z</time>
      </trkpt>
      <trkpt lat="43.64026" lon="1.37937">
        <ele>151</ele>
        <time>2025-03-18T17:41:31Z</time>
      </trkpt>
      <trkpt lat="43.64024" lon="1.37936">
        <ele>151</ele>
        <time>2025-03-18T17:41:32Z</time>
      </trkpt>
      <trkpt lat="43.64022" lon="1.37934">
        <ele>151</ele>
        <time>2025-03-18T17:41:33Z</time>
      </trkpt>
      <trkpt lat="43.64022" lon="1.37934">
        <ele>151</ele>
        <time>2025-03-18T17:41:34Z</time>
      </trkpt>
      <trkpt lat="43.6402" lon="1.37933">
        <ele>151</ele>
        <time>2025-03-18T17:41:35Z</time>
      </trkpt>
      <trkpt lat="43.64018" lon="1.37933">
        <ele>151</ele>
        <time>2025-03-18T17:41:36Z</time>
      </trkpt>
      <trkpt lat="43.64016" lon="1.37932">
        <ele>151</ele>
        <time>2025-03-18T17:41:37Z</time>
      </trkpt>
      <trkpt lat="43.64014" lon="1.37931">
        <ele>151</ele>
        <time>2025-03-18T17:41:38Z</time>
      </trkpt>
      <trkpt lat="43.64012" lon="1.3793">
        <ele>151</ele>
        <time>2025-03-18T17:41:39Z</time>
      </trkpt>
      <trkpt lat="43.64008" lon="1.37927">
        <ele>151</ele>
        <time>2025-03-18T17:41:40Z</time>
      </trkpt>
      <trkpt lat="43.64006" lon="1.37925">
        <ele>151</ele>
        <time>2025-03-18T17:41:41Z</time>
      </trkpt>
      <trkpt lat="43.64004" lon="1.37922">
        <ele>152</ele>
        <time>2025-03-18T17:41:42Z</time>
      </trkpt>
      <trkpt lat="43.64002" lon="1.37919">
        <ele>152</ele>
        <time>2025-03-18T17:41:43Z</time>
      </trkpt>
      <trkpt lat="43.64001" lon="1.37915">
        <ele>151</ele>
        <time>2025-03-18T17:41:44Z</time>
      </trkpt>
      <trkpt lat="43.63999" lon="1.37911">
        <ele>151</ele>
        <time>2025-03-18T17:41:45Z</time>
      </trkpt>
      <trkpt lat="43.63997" lon="1.37907">
        <ele>151</ele>
        <time>2025-03-18T17:41:46Z</time>
      </trkpt>
      <trkpt lat="43.63995" lon="1.37903">
        <ele>151</ele>
        <time>2025-03-18T17:41:47Z</time>
      </trkpt>
      <trkpt lat="43.63994" lon="1.379">
        <ele>151</ele>
        <time>2025-03-18T17:41:48Z</time>
      </trkpt>
      <trkpt lat="43.63992" lon="1.37896">
        <ele>151</ele>
        <time>2025-03-18T17:41:49Z</time>
      </trkpt>
      <trkpt lat="43.63991" lon="1.37892">
        <ele>151</ele>
        <time>2025-03-18T17:41:50Z</time>
      </trkpt>
      <trkpt lat="43.6399" lon="1.3789">
        <ele>150</ele>
        <time>2025-03-18T17:41:51Z</time>
      </trkpt>
      <trkpt lat="43.63988" lon="1.37884">
        <ele>151</ele>
        <time>2025-03-18T17:41:53Z</time>
      </trkpt>
      <trkpt lat="43.63986" lon="1.37881">
        <ele>151</ele>
        <time>2025-03-18T17:41:54Z</time>
      </trkpt>
      <trkpt lat="43.63985" lon="1.37877">
        <ele>151</ele>
        <time>2025-03-18T17:41:55Z</time>
      </trkpt>
      <trkpt lat="43.63984" lon="1.37876">
        <ele>151</ele>
        <time>2025-03-18T17:41:56Z</time>
      </trkpt>
      <trkpt lat="43.63983" lon="1.37871">
        <ele>151</ele>
        <time>2025-03-18T17:41:57Z</time>
      </trkpt>
      <trkpt lat="43.63982" lon="1.3787">
        <ele>151</ele>
        <time>2025-03-18T17:41:58Z</time>
      </trkpt>
      <trkpt lat="43.63981" lon="1.37867">
        <ele>151</ele>
        <time>2025-03-18T17:41:59Z</time>
      </trkpt>
      <trkpt lat="43.6398" lon="1.37864">
        <ele>151</ele>
        <time>2025-03-18T17:42:00Z</time>
      </trkpt>
      <trkpt lat="43.63979" lon="1.37861">
        <ele>151</ele>
        <time>2025-03-18T17:42:01Z</time>
      </trkpt>
      <trkpt lat="43.63978" lon="1.37858">
        <ele>151</ele>
        <time>2025-03-18T17:42:02Z</time>
      </trkpt>
      <trkpt lat="43.63977" lon="1.37856">
        <ele>151</ele>
        <time>2025-03-18T17:42:03Z</time>
      </trkpt>
      <trkpt lat="43.63977" lon="1.37853">
        <ele>151</ele>
        <time>2025-03-18T17:42:04Z</time>
      </trkpt>
      <trkpt lat="43.63976" lon="1.37851">
        <ele>151</ele>
        <time>2025-03-18T17:42:05Z</time>
      </trkpt>
      <trkpt lat="43.63975" lon="1.37848">
        <ele>151</ele>
        <time>2025-03-18T17:42:06Z</time>
      </trkpt>
      <trkpt lat="43.63973" lon="1.37845">
        <ele>151</ele>
        <time>2025-03-18T17:42:07Z</time>
      </trkpt>
      <trkpt lat="43.63972" lon="1.37842">
        <ele>152</ele>
        <time>2025-03-18T17:42:08Z</time>
      </trkpt>
      <trkpt lat="43.63971" lon="1.37838">
        <ele>152</ele>
        <time>2025-03-18T17:42:09Z</time>
      </trkpt>
      <trkpt lat="43.6397" lon="1.37836">
        <ele>152</ele>
        <time>2025-03-18T17:42:10Z</time>
      </trkpt>
      <trkpt lat="43.63968" lon="1.3783">
        <ele>151</ele>
        <time>2025-03-18T17:42:12Z</time>
      </trkpt>
      <trkpt lat="43.63967" lon="1.37827">
        <ele>151</ele>
        <time>2025-03-18T17:42:13Z</time>
      </trkpt>
      <trkpt lat="43.63966" lon="1.37824">
        <ele>151</ele>
        <time>2025-03-18T17:42:14Z</time>
      </trkpt>
      <trkpt lat="43.63965" lon="1.37822">
        <ele>151</ele>
        <time>2025-03-18T17:42:15Z</time>
      </trkpt>
      <trkpt lat="43.63964" lon="1.37819">
        <ele>151</ele>
        <time>2025-03-18T17:42:16Z</time>
      </trkpt>
      <trkpt lat="43.63963" lon="1.37815">
        <ele>151</ele>
        <time>2025-03-18T17:42:17Z</time>
      </trkpt>
      <trkpt lat="43.63962" lon="1.37814">
        <ele>151</ele>
        <time>2025-03-18T17:42:18Z</time>
      </trkpt>
      <trkpt lat="43.63961" lon="1.3781">
        <ele>151</ele>
        <time>2025-03-18T17:42:19Z</time>
      </trkpt>
      <trkpt lat="43.63961" lon="1.37808">
        <ele>152</ele>
        <time>2025-03-18T17:42:20Z</time>
      </trkpt>
      <trkpt lat="43.63961" lon="1.37805">
        <ele>153</ele>
        <time>2025-03-18T17:42:21Z</time>
      </trkpt>
      <trkpt lat="43.6396" lon="1.378">
        <ele>153</ele>
        <time>2025-03-18T17:42:22Z</time>
      </trkpt>
      <trkpt lat="43.6396" lon="1.37798">
        <ele>155</ele>
        <time>2025-03-18T17:42:23Z</time>
      </trkpt>
      <trkpt lat="43.63957" lon="1.37794">
        <ele>155</ele>
        <time>2025-03-18T17:42:24Z</time>
      </trkpt>
      <trkpt lat="43.63957" lon="1.37793">
        <ele>155</ele>
        <time>2025-03-18T17:42:25Z</time>
      </trkpt>
      <trkpt lat="43.63955" lon="1.37792">
        <ele>155</ele>
        <time>2025-03-18T17:42:26Z</time>
      </trkpt>
      <trkpt lat="43.63953" lon="1.37791">
        <ele>155</ele>
        <time>2025-03-18T17:42:27Z</time>
      </trkpt>
      <trkpt lat="43.63951" lon="1.37791">
        <ele>154</ele>
        <time>2025-03-18T17:42:28Z</time>
      </trkpt>
      <trkpt lat="43.6395" lon="1.37791">
        <ele>154</ele>
        <time>2025-03-18T17:42:29Z</time>
      </trkpt>
      <trkpt lat="43.63949" lon="1.3779">
        <ele>154</ele>
        <time>2025-03-18T17:42:30Z</time>
      </trkpt>
      <trkpt lat="43.63947" lon="1.3779">
        <ele>153</ele>
        <time>2025-03-18T17:42:31Z</time>
      </trkpt>
      <trkpt lat="43.63943" lon="1.37789">
        <ele>153</ele>
        <time>2025-03-18T17:42:32Z</time>
      </trkpt>
      <trkpt lat="43.63942" lon="1.37788">
        <ele>153</ele>
        <time>2025-03-18T17:42:33Z</time>
      </trkpt>
      <trkpt lat="43.63939" lon="1.37786">
        <ele>153</ele>
        <time>2025-03-18T17:42:34Z</time>
      </trkpt>
      <trkpt lat="43.63938" lon="1.37785">
        <ele>153</ele>
        <time>2025-03-18T17:42:35Z</time>
      </trkpt>
      <trkpt lat="43.63935" lon="1.37781">
        <ele>153</ele>
        <time>2025-03-18T17:42:36Z</time>
      </trkpt>
      <trkpt lat="43.63934" lon="1.3778">
        <ele>153</ele>
        <time>2025-03-18T17:42:37Z</time>
      </trkpt>
      <trkpt lat="43.63932" lon="1.37777">
        <ele>153</ele>
        <time>2025-03-18T17:42:38Z</time>
      </trkpt>
      <trkpt lat="43.6393" lon="1.37774">
        <ele>153</ele>
        <time>2025-03-18T17:42:39Z</time>
      </trkpt>
      <trkpt lat="43.63929" lon="1.37772">
        <ele>153</ele>
        <time>2025-03-18T17:42:40Z</time>
      </trkpt>
      <trkpt lat="43.63927" lon="1.37771">
        <ele>153</ele>
        <time>2025-03-18T17:42:41Z</time>
      </trkpt>
      <trkpt lat="43.63926" lon="1.37769">
        <ele>153</ele>
        <time>2025-03-18T17:42:42Z</time>
      </trkpt>
      <trkpt lat="43.63924" lon="1.37768">
        <ele>153</ele>
        <time>2025-03-18T17:42:43Z</time>
      </trkpt>
      <trkpt lat="43.63922" lon="1.37767">
        <ele>154</ele>
        <time>2025-03-18T17:42:44Z</time>
      </trkpt>
      <trkpt lat="43.6392" lon="1.37768">
        <ele>154</ele>
        <time>2025-03-18T17:42:45Z</time>
      </trkpt>
      <trkpt lat="43.63917" lon="1.37769">
        <ele>154</ele>
        <time>2025-03-18T17:42:46Z</time>
      </trkpt>
      <trkpt lat="43.63914" lon="1.37771">
        <ele>154</ele>
        <time>2025-03-18T17:42:47Z</time>
      </trkpt>
      <trkpt lat="43.63913" lon="1.37772">
        <ele>155</ele>
        <time>2025-03-18T17:42:48Z</time>
      </trkpt>
      <trkpt lat="43.6391" lon="1.37774">
        <ele>155</ele>
        <time>2025-03-18T17:42:49Z</time>
      </trkpt>
      <trkpt lat="43.63909" lon="1.37775">
        <ele>155</ele>
        <time>2025-03-18T17:42:50Z</time>
      </trkpt>
      <trkpt lat="43.63907" lon="1.37776">
        <ele>155</ele>
        <time>2025-03-18T17:42:51Z</time>
      </trkpt>
      <trkpt lat="43.63905" lon="1.37777">
        <ele>155</ele>
        <time>2025-03-18T17:42:52Z</time>
      </trkpt>
      <trkpt lat="43.63903" lon="1.37778">
        <ele>155</ele>
        <time>2025-03-18T17:42:53Z</time>
      </trkpt>
      <trkpt lat="43.63901" lon="1.37779">
        <ele>155</ele>
        <time>2025-03-18T17:42:54Z</time>
      </trkpt>
      <trkpt lat="43.63898" lon="1.37781">
        <ele>155</ele>
        <time>2025-03-18T17:42:55Z</time>
      </trkpt>
      <trkpt lat="43.63896" lon="1.37782">
        <ele>154</ele>
        <time>2025-03-18T17:42:56Z</time>
      </trkpt>
      <trkpt lat="43.63895" lon="1.37783">
        <ele>154</ele>
        <time>2025-03-18T17:42:57Z</time>
      </trkpt>
      <trkpt lat="43.63894" lon="1.37786">
        <ele>154</ele>
        <time>2025-03-18T17:42:58Z</time>
      </trkpt>
      <trkpt lat="43.63893" lon="1.37789">
        <ele>153</ele>
        <time>2025-03-18T17:42:59Z</time>
      </trkpt>
      <trkpt lat="43.63892" lon="1.37791">
        <ele>154</ele>
        <time>2025-03-18T17:43:00Z</time>
      </trkpt>
      <trkpt lat="43.63893" lon="1.37794">
        <ele>154</ele>
        <time>2025-03-18T17:43:01Z</time>
      </trkpt>
      <trkpt lat="43.63894" lon="1.37797">
        <ele>154</ele>
        <time>2025-03-18T17:43:02Z</time>
      </trkpt>
      <trkpt lat="43.63894" lon="1.37801">
        <ele>154</ele>
        <time>2025-03-18T17:43:03Z</time>
      </trkpt>
      <trkpt lat="43.63894" lon="1.37803">
        <ele>154</ele>
        <time>2025-03-18T17:43:04Z</time>
      </trkpt>
      <trkpt lat="43.63895" lon="1.37805">
        <ele>153</ele>
        <time>2025-03-18T17:43:05Z</time>
      </trkpt>
      <trkpt lat="43.63894" lon="1.37809">
        <ele>153</ele>
        <time>2025-03-18T17:43:06Z</time>
      </trkpt>
      <trkpt lat="43.63893" lon="1.37811">
        <ele>153</ele>
        <time>2025-03-18T17:43:07Z</time>
      </trkpt>
      <trkpt lat="43.63889" lon="1.37813">
        <ele>152</ele>
        <time>2025-03-18T17:43:09Z</time>
      </trkpt>
      <trkpt lat="43.63888" lon="1.37813">
        <ele>152</ele>
        <time>2025-03-18T17:43:10Z</time>
      </trkpt>
      <trkpt lat="43.63887" lon="1.37813">
        <ele>152</ele>
        <time>2025-03-18T17:43:11Z</time>
      </trkpt>
      <trkpt lat="43.63886" lon="1.37813">
        <ele>152</ele>
        <time>2025-03-18T17:43:12Z</time>
      </trkpt>
      <trkpt lat="43.63884" lon="1.3781">
        <ele>152</ele>
        <time>2025-03-18T17:43:13Z</time>
      </trkpt>
      <trkpt lat="43.63884" lon="1.37808">
        <ele>152</ele>
        <time>2025-03-18T17:43:14Z</time>
      </trkpt>
      <trkpt lat="43.63882" lon="1.37806">
        <ele>152</ele>
        <time>2025-03-18T17:43:15Z</time>
      </trkpt>
      <trkpt lat="43.63881" lon="1.37804">
        <ele>153</ele>
        <time>2025-03-18T17:43:16Z</time>
      </trkpt>
      <trkpt lat="43.63881" lon="1.37804">
        <ele>153</ele>
        <time>2025-03-18T17:43:17Z</time>
      </trkpt>
      <trkpt lat="43.6388" lon="1.37801">
        <ele>152</ele>
        <time>2025-03-18T17:43:18Z</time>
      </trkpt>
      <trkpt lat="43.63879" lon="1.37797">
        <ele>152</ele>
        <time>2025-03-18T17:43:19Z</time>
      </trkpt>
      <trkpt lat="43.63879" lon="1.37797">
        <ele>152</ele>
        <time>2025-03-18T17:43:20Z</time>
      </trkpt>
      <trkpt lat="43.63879" lon="1.37794">
        <ele>152</ele>
        <time>2025-03-18T17:43:21Z</time>
      </trkpt>
      <trkpt lat="43.63879" lon="1.37794">
        <ele>152</ele>
        <time>2025-03-18T17:43:22Z</time>
      </trkpt>
      <trkpt lat="43.63878" lon="1.3779">
        <ele>152</ele>
        <time>2025-03-18T17:43:23Z</time>
      </trkpt>
      <trkpt lat="43.63878" lon="1.3779">
        <ele>152</ele>
        <time>2025-03-18T17:43:24Z</time>
      </trkpt>
      <trkpt lat="43.63878" lon="1.3779">
        <ele>153</ele>
        <time>2025-03-18T17:43:25Z</time>
      </trkpt>
      <trkpt lat="43.63878" lon="1.3779">
        <ele>153</ele>
        <time>2025-03-18T17:43:26Z</time>
      </trkpt>
      <trkpt lat="43.63878" lon="1.3779">
        <ele>153</ele>
        <time>2025-03-18T17:43:28Z</time>
      </trkpt>
      <trkpt lat="43.63878" lon="1.3779">
        <ele>153</ele>
        <time>2025-03-18T17:43:29Z</time>
      </trkpt>
      <trkpt lat="43.63878" lon="1.3779">
        <ele>152</ele>
        <time>2025-03-18T17:43:30Z</time>
      </trkpt>
      <trkpt lat="43.63878" lon="1.3779">
        <ele>152</ele>
        <time>2025-03-18T17:43:31Z</time>
      </trkpt>
      <trkpt lat="43.63878" lon="1.3779">
        <ele>153</ele>
        <time>2025-03-18T17:43:32Z</time>
      </trkpt>
      <trkpt lat="43.63878" lon="1.3779">
        <ele>153</ele>
        <time>2025-03-18T17:43:33Z</time>
      </trkpt>
      <trkpt lat="43.63878" lon="1.3779">
        <ele>153</ele>
        <time>2025-03-18T17:43:34Z</time>
      </trkpt>
      <trkpt lat="43.63877" lon="1.37788">
        <ele>154</ele>
        <time>2025-03-18T17:43:35Z</time>
      </trkpt>
      <trkpt lat="43.63877" lon="1.37788">
        <ele>154</ele>
        <time>2025-03-18T17:43:36Z</time>
      </trkpt>
      <trkpt lat="43.63877" lon="1.37788">
        <ele>154</ele>
        <time>2025-03-18T17:43:37Z</time>
      </trkpt>
      <trkpt lat="43.63875" lon="1.37786">
        <ele>154</ele>
        <time>2025-03-18T17:43:38Z</time>
      </trkpt>
      <trkpt lat="43.63875" lon="1.37786">
        <ele>153</ele>
        <time>2025-03-18T17:43:39Z</time>
      </trkpt>
      <trkpt lat="43.63873" lon="1.37784">
        <ele>153</ele>
        <time>2025-03-18T17:43:40Z</time>
      </trkpt>
      <trkpt lat="43.63873" lon="1.37784">
        <ele>153</ele>
        <time>2025-03-18T17:43:41Z</time>
      </trkpt>
      <trkpt lat="43.63871" lon="1.37781">
        <ele>153</ele>
        <time>2025-03-18T17:43:42Z</time>
      </trkpt>
      <trkpt lat="43.63871" lon="1.37781">
        <ele>153</ele>
        <time>2025-03-18T17:43:43Z</time>
      </trkpt>
      <trkpt lat="43.63869" lon="1.37779">
        <ele>152</ele>
        <time>2025-03-18T17:43:44Z</time>
      </trkpt>
      <trkpt lat="43.63868" lon="1.37778">
        <ele>152</ele>
        <time>2025-03-18T17:43:46Z</time>
      </trkpt>
      <trkpt lat="43.63867" lon="1.37777">
        <ele>153</ele>
        <time>2025-03-18T17:43:47Z</time>
      </trkpt>
      <trkpt lat="43.63866" lon="1.37776">
        <ele>153</ele>
        <time>2025-03-18T17:43:48Z</time>
      </trkpt>
      <trkpt lat="43.63865" lon="1.37776">
        <ele>153</ele>
        <time>2025-03-18T17:43:49Z</time>
      </trkpt>
      <trkpt lat="43.63865" lon="1.37776">
        <ele>153</ele>
        <time>2025-03-18T17:43:50Z</time>
      </trkpt>
      <trkpt lat="43.63864" lon="1.37774">
        <ele>153</ele>
        <time>2025-03-18T17:43:51Z</time>
      </trkpt>
      <trkpt lat="43.63864" lon="1.37774">
        <ele>153</ele>
        <time>2025-03-18T17:43:52Z</time>
      </trkpt>
      <trkpt lat="43.63862" lon="1.37773">
        <ele>153</ele>
        <time>2025-03-18T17:43:53Z</time>
      </trkpt>
      <trkpt lat="43.63862" lon="1.37773">
        <ele>153</ele>
        <time>2025-03-18T17:43:54Z</time>
      </trkpt>
      <trkpt lat="43.63862" lon="1.37773">
        <ele>153</ele>
        <time>2025-03-18T17:43:55Z</time>
      </trkpt>
      <trkpt lat="43.6386" lon="1.3777">
        <ele>153</ele>
        <time>2025-03-18T17:43:56Z</time>
      </trkpt>
      <trkpt lat="43.63858" lon="1.37769">
        <ele>153</ele>
        <time>2025-03-18T17:43:57Z</time>
      </trkpt>
      <trkpt lat="43.63857" lon="1.37768">
        <ele>153</ele>
        <time>2025-03-18T17:43:58Z</time>
      </trkpt>
      <trkpt lat="43.63857" lon="1.37767">
        <ele>153</ele>
        <time>2025-03-18T17:43:59Z</time>
      </trkpt>
      <trkpt lat="43.63856" lon="1.37766">
        <ele>153</ele>
        <time>2025-03-18T17:44:00Z</time>
      </trkpt>
      <trkpt lat="43.63855" lon="1.37764">
        <ele>153</ele>
        <time>2025-03-18T17:44:01Z</time>
      </trkpt>
      <trkpt lat="43.63853" lon="1.37762">
        <ele>153</ele>
        <time>2025-03-18T17:44:02Z</time>
      </trkpt>
      <trkpt lat="43.63851" lon="1.3776">
        <ele>152</ele>
        <time>2025-03-18T17:44:03Z</time>
      </trkpt>
      <trkpt lat="43.63849" lon="1.37758">
        <ele>152</ele>
        <time>2025-03-18T17:44:04Z</time>
      </trkpt>
      <trkpt lat="43.63848" lon="1.37757">
        <ele>152</ele>
        <time>2025-03-18T17:44:05Z</time>
      </trkpt>
      <trkpt lat="43.63848" lon="1.37757">
        <ele>153</ele>
        <time>2025-03-18T17:44:06Z</time>
      </trkpt>
      <trkpt lat="43.63844" lon="1.37754">
        <ele>153</ele>
        <time>2025-03-18T17:44:07Z</time>
      </trkpt>
      <trkpt lat="43.63843" lon="1.37753">
        <ele>153</ele>
        <time>2025-03-18T17:44:08Z</time>
      </trkpt>
      <trkpt lat="43.6384" lon="1.37751">
        <ele>153</ele>
        <time>2025-03-18T17:44:09Z</time>
      </trkpt>
      <trkpt lat="43.63839" lon="1.3775">
        <ele>153</ele>
        <time>2025-03-18T17:44:10Z</time>
      </trkpt>
      <trkpt lat="43.63835" lon="1.37746">
        <ele>153</ele>
        <time>2025-03-18T17:44:12Z</time>
      </trkpt>
      <trkpt lat="43.63835" lon="1.37746">
        <ele>152</ele>
        <time>2025-03-18T17:44:13Z</time>
      </trkpt>
      <trkpt lat="43.63831" lon="1.37743">
        <ele>151</ele>
        <time>2025-03-18T17:44:14Z</time>
      </trkpt>
      <trkpt lat="43.63829" lon="1.3774">
        <ele>151</ele>
        <time>2025-03-18T17:44:15Z</time>
      </trkpt>
      <trkpt lat="43.63826" lon="1.37736">
        <ele>151</ele>
        <time>2025-03-18T17:44:16Z</time>
      </trkpt>
      <trkpt lat="43.63824" lon="1.37735">
        <ele>151</ele>
        <time>2025-03-18T17:44:17Z</time>
      </trkpt>
      <trkpt lat="43.63823" lon="1.37733">
        <ele>151</ele>
        <time>2025-03-18T17:44:18Z</time>
      </trkpt>
      <trkpt lat="43.6382" lon="1.3773">
        <ele>151</ele>
        <time>2025-03-18T17:44:19Z</time>
      </trkpt>
      <trkpt lat="43.63819" lon="1.37729">
        <ele>151</ele>
        <time>2025-03-18T17:44:20Z</time>
      </trkpt>
      <trkpt lat="43.63816" lon="1.37727">
        <ele>151</ele>
        <time>2025-03-18T17:44:21Z</time>
      </trkpt>
      <trkpt lat="43.63812" lon="1.37723">
        <ele>151</ele>
        <time>2025-03-18T17:44:22Z</time>
      </trkpt>
      <trkpt lat="43.63811" lon="1.37722">
        <ele>151</ele>
        <time>2025-03-18T17:44:23Z</time>
      </trkpt>
      <trkpt lat="43.63807" lon="1.37717">
        <ele>151</ele>
        <time>2025-03-18T17:44:25Z</time>
      </trkpt>
      <trkpt lat="43.63805" lon="1.37714">
        <ele>151</ele>
        <time>2025-03-18T17:44:26Z</time>
      </trkpt>
      <trkpt lat="43.63804" lon="1.37712">
        <ele>151</ele>
        <time>2025-03-18T17:44:27Z</time>
      </trkpt>
      <trkpt lat="43.63801" lon="1.3771">
        <ele>151</ele>
        <time>2025-03-18T17:44:28Z</time>
      </trkpt>
      <trkpt lat="43.63799" lon="1.37707">
        <ele>151</ele>
        <time>2025-03-18T17:44:29Z</time>
      </trkpt>
      <trkpt lat="43.63797" lon="1.37704">
        <ele>151</ele>
        <time>2025-03-18T17:44:30Z</time>
      </trkpt>
      <trkpt lat="43.63797" lon="1.37704">
        <ele>151</ele>
        <time>2025-03-18T17:44:31Z</time>
      </trkpt>
      <trkpt lat="43.63795" lon="1.37703">
        <ele>151</ele>
        <time>2025-03-18T17:44:32Z</time>
      </trkpt>
      <trkpt lat="43.63795" lon="1.37703">
        <ele>151</ele>
        <time>2025-03-18T17:44:33Z</time>
      </trkpt>
      <trkpt lat="43.63793" lon="1.37706">
        <ele>151</ele>
        <time>2025-03-18T17:44:34Z</time>
      </trkpt>
      <trkpt lat="43.63793" lon="1.37709">
        <ele>151</ele>
        <time>2025-03-18T17:44:35Z</time>
      </trkpt>
      <trkpt lat="43.63793" lon="1.37711">
        <ele>151</ele>
        <time>2025-03-18T17:44:36Z</time>
      </trkpt>
      <trkpt lat="43.63793" lon="1.37714">
        <ele>151</ele>
        <time>2025-03-18T17:44:37Z</time>
      </trkpt>
      <trkpt lat="43.63792" lon="1.37716">
        <ele>152</ele>
        <time>2025-03-18T17:44:38Z</time>
      </trkpt>
      <trkpt lat="43.63792" lon="1.37719">
        <ele>152</ele>
        <time>2025-03-18T17:44:39Z</time>
      </trkpt>
      <trkpt lat="43.63792" lon="1.37722">
        <ele>153</ele>
        <time>2025-03-18T17:44:40Z</time>
      </trkpt>
      <trkpt lat="43.63791" lon="1.37729">
        <ele>153</ele>
        <time>2025-03-18T17:44:41Z</time>
      </trkpt>
      <trkpt lat="43.63791" lon="1.37731">
        <ele>154</ele>
        <time>2025-03-18T17:44:42Z</time>
      </trkpt>
      <trkpt lat="43.63788" lon="1.37738">
        <ele>154</ele>
        <time>2025-03-18T17:44:44Z</time>
      </trkpt>
      <trkpt lat="43.63787" lon="1.37743">
        <ele>154</ele>
        <time>2025-03-18T17:44:45Z</time>
      </trkpt>
      <trkpt lat="43.63787" lon="1.37744">
        <ele>155</ele>
        <time>2025-03-18T17:44:46Z</time>
      </trkpt>
      <trkpt lat="43.63787" lon="1.37749">
        <ele>155</ele>
        <time>2025-03-18T17:44:47Z</time>
      </trkpt>
      <trkpt lat="43.63787" lon="1.3775">
        <ele>155</ele>
        <time>2025-03-18T17:44:48Z</time>
      </trkpt>
      <trkpt lat="43.63786" lon="1.37754">
        <ele>155</ele>
        <time>2025-03-18T17:44:49Z</time>
      </trkpt>
      <trkpt lat="43.63786" lon="1.37757">
        <ele>157</ele>
        <time>2025-03-18T17:44:50Z</time>
      </trkpt>
      <trkpt lat="43.63786" lon="1.3776">
        <ele>156</ele>
        <time>2025-03-18T17:44:51Z</time>
      </trkpt>
      <trkpt lat="43.63786" lon="1.37763">
        <ele>155</ele>
        <time>2025-03-18T17:44:52Z</time>
      </trkpt>
      <trkpt lat="43.63785" lon="1.37766">
        <ele>155</ele>
        <time>2025-03-18T17:44:53Z</time>
      </trkpt>
      <trkpt lat="43.63785" lon="1.3777">
        <ele>155</ele>
        <time>2025-03-18T17:44:54Z</time>
      </trkpt>
      <trkpt lat="43.63784" lon="1.37773">
        <ele>155</ele>
        <time>2025-03-18T17:44:55Z</time>
      </trkpt>
      <trkpt lat="43.63784" lon="1.37776">
        <ele>155</ele>
        <time>2025-03-18T17:44:56Z</time>
      </trkpt>
      <trkpt lat="43.63783" lon="1.37779">
        <ele>155</ele>
        <time>2025-03-18T17:44:57Z</time>
      </trkpt>
      <trkpt lat="43.63783" lon="1.37782">
        <ele>155</ele>
        <time>2025-03-18T17:44:58Z</time>
      </trkpt>
      <trkpt lat="43.63783" lon="1.37785">
        <ele>155</ele>
        <time>2025-03-18T17:44:59Z</time>
      </trkpt>
      <trkpt lat="43.63782" lon="1.37788">
        <ele>155</ele>
        <time>2025-03-18T17:45:00Z</time>
      </trkpt>
      <trkpt lat="43.63781" lon="1.37794">
        <ele>155</ele>
        <time>2025-03-18T17:45:01Z</time>
      </trkpt>
      <trkpt lat="43.6378" lon="1.37797">
        <ele>155</ele>
        <time>2025-03-18T17:45:03Z</time>
      </trkpt>
      <trkpt lat="43.63779" lon="1.378">
        <ele>155</ele>
        <time>2025-03-18T17:45:04Z</time>
      </trkpt>
      <trkpt lat="43.63778" lon="1.37803">
        <ele>155</ele>
        <time>2025-03-18T17:45:05Z</time>
      </trkpt>
      <trkpt lat="43.63776" lon="1.37805">
        <ele>155</ele>
        <time>2025-03-18T17:45:06Z</time>
      </trkpt>
      <trkpt lat="43.63773" lon="1.37806">
        <ele>157</ele>
        <time>2025-03-18T17:45:07Z</time>
      </trkpt>
      <trkpt lat="43.63769" lon="1.37806">
        <ele>157</ele>
        <time>2025-03-18T17:45:08Z</time>
      </trkpt>
      <trkpt lat="43.63768" lon="1.37806">
        <ele>157</ele>
        <time>2025-03-18T17:45:09Z</time>
      </trkpt>
      <trkpt lat="43.63764" lon="1.37805">
        <ele>156</ele>
        <time>2025-03-18T17:45:10Z</time>
      </trkpt>
      <trkpt lat="43.63763" lon="1.37805">
        <ele>156</ele>
        <time>2025-03-18T17:45:11Z</time>
      </trkpt>
      <trkpt lat="43.6376" lon="1.37805">
        <ele>155</ele>
        <time>2025-03-18T17:45:12Z</time>
      </trkpt>
      <trkpt lat="43.63758" lon="1.37805">
        <ele>155</ele>
        <time>2025-03-18T17:45:13Z</time>
      </trkpt>
      <trkpt lat="43.63758" lon="1.37805">
        <ele>155</ele>
        <time>2025-03-18T17:45:14Z</time>
      </trkpt>
      <trkpt lat="43.63753" lon="1.37805">
        <ele>156</ele>
        <time>2025-03-18T17:45:15Z</time>
      </trkpt>
      <trkpt lat="43.63751" lon="1.37805">
        <ele>156</ele>
        <time>2025-03-18T17:45:16Z</time>
      </trkpt>
      <trkpt lat="43.63748" lon="1.37807">
        <ele>156</ele>
        <time>2025-03-18T17:45:17Z</time>
      </trkpt>
      <trkpt lat="43.63747" lon="1.37807">
        <ele>156</ele>
        <time>2025-03-18T17:45:18Z</time>
      </trkpt>
      <trkpt lat="43.63741" lon="1.37808">
        <ele>155</ele>
        <time>2025-03-18T17:45:20Z</time>
      </trkpt>
      <trkpt lat="43.6374" lon="1.37808">
        <ele>155</ele>
        <time>2025-03-18T17:45:21Z</time>
      </trkpt>
      <trkpt lat="43.63738" lon="1.37806">
        <ele>154</ele>
        <time>2025-03-18T17:45:22Z</time>
      </trkpt>
      <trkpt lat="43.63738" lon="1.37806">
        <ele>154</ele>
        <time>2025-03-18T17:45:23Z</time>
      </trkpt>
      <trkpt lat="43.63737" lon="1.37803">
        <ele>153</ele>
        <time>2025-03-18T17:45:24Z</time>
      </trkpt>
      <trkpt lat="43.63737" lon="1.37803">
        <ele>154</ele>
        <time>2025-03-18T17:45:25Z</time>
      </trkpt>
      <trkpt lat="43.63737" lon="1.37803">
        <ele>154</ele>
        <time>2025-03-18T17:45:26Z</time>
      </trkpt>
      <trkpt lat="43.63737" lon="1.37803">
        <ele>154</ele>
        <time>2025-03-18T17:45:27Z</time>
      </trkpt>
      <trkpt lat="43.63737" lon="1.37803">
        <ele>154</ele>
        <time>2025-03-18T17:45:28Z</time>
      </trkpt>
      <trkpt lat="43.63737" lon="1.37803">
        <ele>154</ele>
        <time>2025-03-18T17:45:29Z</time>
      </trkpt>
      <trkpt lat="43.63737" lon="1.378">
        <ele>154</ele>
        <time>2025-03-18T17:45:30Z</time>
      </trkpt>
      <trkpt lat="43.63736" lon="1.37797">
        <ele>154</ele>
        <time>2025-03-18T17:45:31Z</time>
      </trkpt>
      <trkpt lat="43.63735" lon="1.37794">
        <ele>154</ele>
        <time>2025-03-18T17:45:32Z</time>
      </trkpt>
      <trkpt lat="43.63733" lon="1.37792">
        <ele>154</ele>
        <time>2025-03-18T17:45:33Z</time>
      </trkpt>
      <trkpt lat="43.63732" lon="1.37789">
        <ele>154</ele>
        <time>2025-03-18T17:45:34Z</time>
      </trkpt>
      <trkpt lat="43.63731" lon="1.37786">
        <ele>154</ele>
        <time>2025-03-18T17:45:35Z</time>
      </trkpt>
      <trkpt lat="43.6373" lon="1.37783">
        <ele>154</ele>
        <time>2025-03-18T17:45:36Z</time>
      </trkpt>
      <trkpt lat="43.63729" lon="1.3778">
        <ele>154</ele>
        <time>2025-03-18T17:45:37Z</time>
      </trkpt>
      <trkpt lat="43.63728" lon="1.37777">
        <ele>154</ele>
        <time>2025-03-18T17:45:38Z</time>
      </trkpt>
      <trkpt lat="43.63726" lon="1.37774">
        <ele>154</ele>
        <time>2025-03-18T17:45:39Z</time>
      </trkpt>
      <trkpt lat="43.63726" lon="1.37773">
        <ele>154</ele>
        <time>2025-03-18T17:45:40Z</time>
      </trkpt>
      <trkpt lat="43.63726" lon="1.37772">
        <ele>153</ele>
        <time>2025-03-18T17:45:41Z</time>
      </trkpt>
      <trkpt lat="43.63722" lon="1.37771">
        <ele>153</ele>
        <time>2025-03-18T17:45:42Z</time>
      </trkpt>
      <trkpt lat="43.63721" lon="1.37772">
        <ele>154</ele>
        <time>2025-03-18T17:45:43Z</time>
      </trkpt>
      <trkpt lat="43.63721" lon="1.37772">
        <ele>154</ele>
        <time>2025-03-18T17:45:44Z</time>
      </trkpt>
      <trkpt lat="43.63718" lon="1.37773">
        <ele>154</ele>
        <time>2025-03-18T17:45:45Z</time>
      </trkpt>
      <trkpt lat="43.63716" lon="1.37774">
        <ele>154</ele>
        <time>2025-03-18T17:45:46Z</time>
      </trkpt>
      <trkpt lat="43.63714" lon="1.37776">
        <ele>154</ele>
        <time>2025-03-18T17:45:47Z</time>
      </trkpt>
      <trkpt lat="43.63711" lon="1.37779">
        <ele>154</ele>
        <time>2025-03-18T17:45:48Z</time>
      </trkpt>
      <trkpt lat="43.6371" lon="1.3778">
        <ele>154</ele>
        <time>2025-03-18T17:45:49Z</time>
      </trkpt>
      <trkpt lat="43.63708" lon="1.37782">
        <ele>154</ele>
        <time>2025-03-18T17:45:50Z</time>
      </trkpt>
      <trkpt lat="43.63705" lon="1.37784">
        <ele>154</ele>
        <time>2025-03-18T17:45:51Z</time>
      </trkpt>
      <trkpt lat="43.63704" lon="1.37784">
        <ele>154</ele>
        <time>2025-03-18T17:45:52Z</time>
      </trkpt>
      <trkpt lat="43.637" lon="1.37786">
        <ele>154</ele>
        <time>2025-03-18T17:45:53Z</time>
      </trkpt>
      <trkpt lat="43.63699" lon="1.37787">
        <ele>154</ele>
        <time>2025-03-18T17:45:54Z</time>
      </trkpt>
      <trkpt lat="43.63696" lon="1.37789">
        <ele>154</ele>
        <time>2025-03-18T17:45:55Z</time>
      </trkpt>
      <trkpt lat="43.63695" lon="1.3779">
        <ele>154</ele>
        <time>2025-03-18T17:45:56Z</time>
      </trkpt>
      <trkpt lat="43.63693" lon="1.37791">
        <ele>154</ele>
        <time>2025-03-18T17:45:57Z</time>
      </trkpt>
      <trkpt lat="43.63691" lon="1.37793">
        <ele>154</ele>
        <time>2025-03-18T17:45:58Z</time>
      </trkpt>
      <trkpt lat="43.63688" lon="1.37795">
        <ele>154</ele>
        <time>2025-03-18T17:45:59Z</time>
      </trkpt>
      <trkpt lat="43.63686" lon="1.37796">
        <ele>154</ele>
        <time>2025-03-18T17:46:00Z</time>
      </trkpt>
      <trkpt lat="43.63683" lon="1.37799">
        <ele>154</ele>
        <time>2025-03-18T17:46:01Z</time>
      </trkpt>
      <trkpt lat="43.63682" lon="1.37799">
        <ele>154</ele>
        <time>2025-03-18T17:46:02Z</time>
      </trkpt>
      <trkpt lat="43.63679" lon="1.37801">
        <ele>154</ele>
        <time>2025-03-18T17:46:03Z</time>
      </trkpt>
      <trkpt lat="43.63677" lon="1.37802">
        <ele>154</ele>
        <time>2025-03-18T17:46:04Z</time>
      </trkpt>
      <trkpt lat="43.63673" lon="1.37805">
        <ele>154</ele>
        <time>2025-03-18T17:46:06Z</time>
      </trkpt>
      <trkpt lat="43.63671" lon="1.37807">
        <ele>154</ele>
        <time>2025-03-18T17:46:07Z</time>
      </trkpt>
      <trkpt lat="43.63669" lon="1.37808">
        <ele>153</ele>
        <time>2025-03-18T17:46:08Z</time>
      </trkpt>
      <trkpt lat="43.63666" lon="1.3781">
        <ele>153</ele>
        <time>2025-03-18T17:46:09Z</time>
      </trkpt>
      <trkpt lat="43.63663" lon="1.37813">
        <ele>154</ele>
        <time>2025-03-18T17:46:11Z</time>
      </trkpt>
      <trkpt lat="43.63663" lon="1.37813">
        <ele>154</ele>
        <time>2025-03-18T17:46:12Z</time>
      </trkpt>
      <trkpt lat="43.63658" lon="1.37816">
        <ele>153</ele>
        <time>2025-03-18T17:46:13Z</time>
      </trkpt>
      <trkpt lat="43.63656" lon="1.37818">
        <ele>154</ele>
        <time>2025-03-18T17:46:14Z</time>
      </trkpt>
      <trkpt lat="43.63654" lon="1.3782">
        <ele>154</ele>
        <time>2025-03-18T17:46:15Z</time>
      </trkpt>
      <trkpt lat="43.63652" lon="1.37821">
        <ele>153</ele>
        <time>2025-03-18T17:46:16Z</time>
      </trkpt>
      <trkpt lat="43.6365" lon="1.37822">
        <ele>152</ele>
        <time>2025-03-18T17:46:17Z</time>
      </trkpt>
      <trkpt lat="43.63648" lon="1.37824">
        <ele>152</ele>
        <time>2025-03-18T17:46:18Z</time>
      </trkpt>
      <trkpt lat="43.63646" lon="1.37825">
        <ele>153</ele>
        <time>2025-03-18T17:46:19Z</time>
      </trkpt>
      <trkpt lat="43.63644" lon="1.37826">
        <ele>153</ele>
        <time>2025-03-18T17:46:20Z</time>
      </trkpt>
      <trkpt lat="43.63641" lon="1.37828">
        <ele>154</ele>
        <time>2025-03-18T17:46:21Z</time>
      </trkpt>
      <trkpt lat="43.6364" lon="1.37829">
        <ele>155</ele>
        <time>2025-03-18T17:46:22Z</time>
      </trkpt>
      <trkpt lat="43.63637" lon="1.37831">
        <ele>155</ele>
        <time>2025-03-18T17:46:23Z</time>
      </trkpt>
      <trkpt lat="43.63635" lon="1.37832">
        <ele>155</ele>
        <time>2025-03-18T17:46:24Z</time>
      </trkpt>
      <trkpt lat="43.63633" lon="1.37834">
        <ele>155</ele>
        <time>2025-03-18T17:46:25Z</time>
      </trkpt>
      <trkpt lat="43.63633" lon="1.37834">
        <ele>155</ele>
        <time>2025-03-18T17:46:26Z</time>
      </trkpt>
      <trkpt lat="43.63629" lon="1.37837">
        <ele>154</ele>
        <time>2025-03-18T17:46:27Z</time>
      </trkpt>
      <trkpt lat="43.63626" lon="1.37839">
        <ele>154</ele>
        <time>2025-03-18T17:46:28Z</time>
      </trkpt>
      <trkpt lat="43.63624" lon="1.3784">
        <ele>154</ele>
        <time>2025-03-18T17:46:29Z</time>
      </trkpt>
      <trkpt lat="43.63621" lon="1.37843">
        <ele>154</ele>
        <time>2025-03-18T17:46:30Z</time>
      </trkpt>
      <trkpt lat="43.6362" lon="1.37843">
        <ele>154</ele>
        <time>2025-03-18T17:46:31Z</time>
      </trkpt>
      <trkpt lat="43.63618" lon="1.37845">
        <ele>154</ele>
        <time>2025-03-18T17:46:32Z</time>
      </trkpt>
      <trkpt lat="43.63616" lon="1.37847">
        <ele>154</ele>
        <time>2025-03-18T17:46:33Z</time>
      </trkpt>
      <trkpt lat="43.63614" lon="1.37848">
        <ele>154</ele>
        <time>2025-03-18T17:46:34Z</time>
      </trkpt>
      <trkpt lat="43.6361" lon="1.37851">
        <ele>154</ele>
        <time>2025-03-18T17:46:35Z</time>
      </trkpt>
      <trkpt lat="43.63609" lon="1.37852">
        <ele>154</ele>
        <time>2025-03-18T17:46:36Z</time>
      </trkpt>
      <trkpt lat="43.63604" lon="1.37855">
        <ele>155</ele>
        <time>2025-03-18T17:46:38Z</time>
      </trkpt>
      <trkpt lat="43.63601" lon="1.37857">
        <ele>155</ele>
        <time>2025-03-18T17:46:39Z</time>
      </trkpt>
      <trkpt lat="43.636" lon="1.37858">
        <ele>155</ele>
        <time>2025-03-18T17:46:40Z</time>
      </trkpt>
      <trkpt lat="43.63598" lon="1.37859">
        <ele>155</ele>
        <time>2025-03-18T17:46:41Z</time>
      </trkpt>
      <trkpt lat="43.63596" lon="1.37861">
        <ele>155</ele>
        <time>2025-03-18T17:46:42Z</time>
      </trkpt>
      <trkpt lat="43.63594" lon="1.37863">
        <ele>155</ele>
        <time>2025-03-18T17:46:43Z</time>
      </trkpt>
      <trkpt lat="43.63591" lon="1.37865">
        <ele>155</ele>
        <time>2025-03-18T17:46:44Z</time>
      </trkpt>
      <trkpt lat="43.63589" lon="1.37867">
        <ele>156</ele>
        <time>2025-03-18T17:46:45Z</time>
      </trkpt>
      <trkpt lat="43.63586" lon="1.37868">
        <ele>156</ele>
        <time>2025-03-18T17:46:46Z</time>
      </trkpt>
      <trkpt lat="43.63584" lon="1.37871">
        <ele>155</ele>
        <time>2025-03-18T17:46:47Z</time>
      </trkpt>
      <trkpt lat="43.63582" lon="1.37872">
        <ele>154</ele>
        <time>2025-03-18T17:46:48Z</time>
      </trkpt>
      <trkpt lat="43.6358" lon="1.37874">
        <ele>154</ele>
        <time>2025-03-18T17:46:49Z</time>
      </trkpt>
      <trkpt lat="43.63578" lon="1.37876">
        <ele>155</ele>
        <time>2025-03-18T17:46:50Z</time>
      </trkpt>
      <trkpt lat="43.63574" lon="1.37877">
        <ele>155</ele>
        <time>2025-03-18T17:46:51Z</time>
      </trkpt>
      <trkpt lat="43.63573" lon="1.37878">
        <ele>155</ele>
        <time>2025-03-18T17:46:52Z</time>
      </trkpt>
      <trkpt lat="43.63571" lon="1.37879">
        <ele>156</ele>
        <time>2025-03-18T17:46:53Z</time>
      </trkpt>
      <trkpt lat="43.63569" lon="1.37881">
        <ele>156</ele>
        <time>2025-03-18T17:46:54Z</time>
      </trkpt>
      <trkpt lat="43.63567" lon="1.37883">
        <ele>156</ele>
        <time>2025-03-18T17:46:55Z</time>
      </trkpt>
      <trkpt lat="43.63562" lon="1.37887">
        <ele>155</ele>
        <time>2025-03-18T17:46:57Z</time>
      </trkpt>
      <trkpt lat="43.63558" lon="1.37891">
        <ele>155</ele>
        <time>2025-03-18T17:46:59Z</time>
      </trkpt>
      <trkpt lat="43.63555" lon="1.37893">
        <ele>155</ele>
        <time>2025-03-18T17:47:00Z</time>
      </trkpt>
      <trkpt lat="43.63554" lon="1.37894">
        <ele>155</ele>
        <time>2025-03-18T17:47:01Z</time>
      </trkpt>
      <trkpt lat="43.63551" lon="1.37898">
        <ele>155</ele>
        <time>2025-03-18T17:47:02Z</time>
      </trkpt>
      <trkpt lat="43.6355" lon="1.37899">
        <ele>155</ele>
        <time>2025-03-18T17:47:03Z</time>
      </trkpt>
      <trkpt lat="43.63548" lon="1.37901">
        <ele>155</ele>
        <time>2025-03-18T17:47:04Z</time>
      </trkpt>
      <trkpt lat="43.63546" lon="1.37903">
        <ele>155</ele>
        <time>2025-03-18T17:47:05Z</time>
      </trkpt>
      <trkpt lat="43.63546" lon="1.37903">
        <ele>154</ele>
        <time>2025-03-18T17:47:06Z</time>
      </trkpt>
      <trkpt lat="43.63541" lon="1.37907">
        <ele>154</ele>
        <time>2025-03-18T17:47:07Z</time>
      </trkpt>
      <trkpt lat="43.63539" lon="1.37909">
        <ele>154</ele>
        <time>2025-03-18T17:47:08Z</time>
      </trkpt>
      <trkpt lat="43.63536" lon="1.37911">
        <ele>154</ele>
        <time>2025-03-18T17:47:09Z</time>
      </trkpt>
      <trkpt lat="43.63535" lon="1.37912">
        <ele>154</ele>
        <time>2025-03-18T17:47:10Z</time>
      </trkpt>
      <trkpt lat="43.63533" lon="1.37913">
        <ele>154</ele>
        <time>2025-03-18T17:47:11Z</time>
      </trkpt>
      <trkpt lat="43.63531" lon="1.37915">
        <ele>154</ele>
        <time>2025-03-18T17:47:12Z</time>
      </trkpt>
      <trkpt lat="43.63531" lon="1.37915">
        <ele>155</ele>
        <time>2025-03-18T17:47:13Z</time>
      </trkpt>
      <trkpt lat="43.63527" lon="1.37919">
        <ele>155</ele>
        <time>2025-03-18T17:47:14Z</time>
      </trkpt>
      <trkpt lat="43.63524" lon="1.37921">
        <ele>155</ele>
        <time>2025-03-18T17:47:15Z</time>
      </trkpt>
      <trkpt lat="43.63522" lon="1.37922">
        <ele>155</ele>
        <time>2025-03-18T17:47:16Z</time>
      </trkpt>
      <trkpt lat="43.6352" lon="1.37924">
        <ele>155</ele>
        <time>2025-03-18T17:47:17Z</time>
      </trkpt>
      <trkpt lat="43.63517" lon="1.37926">
        <ele>155</ele>
        <time>2025-03-18T17:47:18Z</time>
      </trkpt>
      <trkpt lat="43.63514" lon="1.37928">
        <ele>154</ele>
        <time>2025-03-18T17:47:19Z</time>
      </trkpt>
      <trkpt lat="43.63513" lon="1.37928">
        <ele>153</ele>
        <time>2025-03-18T17:47:20Z</time>
      </trkpt>
      <trkpt lat="43.63509" lon="1.37931">
        <ele>154</ele>
        <time>2025-03-18T17:47:21Z</time>
      </trkpt>
      <trkpt lat="43.63508" lon="1.37932">
        <ele>155</ele>
        <time>2025-03-18T17:47:22Z</time>
      </trkpt>
      <trkpt lat="43.63506" lon="1.37934">
        <ele>157</ele>
        <time>2025-03-18T17:47:23Z</time>
      </trkpt>
      <trkpt lat="43.63504" lon="1.37935">
        <ele>157</ele>
        <time>2025-03-18T17:47:24Z</time>
      </trkpt>
      <trkpt lat="43.63504" lon="1.37935">
        <ele>156</ele>
        <time>2025-03-18T17:47:25Z</time>
      </trkpt>
      <trkpt lat="43.63499" lon="1.37939">
        <ele>156</ele>
        <time>2025-03-18T17:47:26Z</time>
      </trkpt>
      <trkpt lat="43.63497" lon="1.3794">
        <ele>155</ele>
        <time>2025-03-18T17:47:27Z</time>
      </trkpt>
      <trkpt lat="43.63495" lon="1.37942">
        <ele>155</ele>
        <time>2025-03-18T17:47:28Z</time>
      </trkpt>
      <trkpt lat="43.63492" lon="1.37944">
        <ele>155</ele>
        <time>2025-03-18T17:47:29Z</time>
      </trkpt>
      <trkpt lat="43.6349" lon="1.37945">
        <ele>156</ele>
        <time>2025-03-18T17:47:30Z</time>
      </trkpt>
      <trkpt lat="43.63487" lon="1.37948">
        <ele>156</ele>
        <time>2025-03-18T17:47:31Z</time>
      </trkpt>
      <trkpt lat="43.63486" lon="1.37949">
        <ele>155</ele>
        <time>2025-03-18T17:47:32Z</time>
      </trkpt>
      <trkpt lat="43.63484" lon="1.37951">
        <ele>155</ele>
        <time>2025-03-18T17:47:33Z</time>
      </trkpt>
      <trkpt lat="43.63483" lon="1.37952">
        <ele>155</ele>
        <time>2025-03-18T17:47:34Z</time>
      </trkpt>
      <trkpt lat="43.63481" lon="1.37954">
        <ele>153</ele>
        <time>2025-03-18T17:47:35Z</time>
      </trkpt>
      <trkpt lat="43.63477" lon="1.37958">
        <ele>153</ele>
        <time>2025-03-18T17:47:36Z</time>
      </trkpt>
      <trkpt lat="43.63475" lon="1.3796">
        <ele>153</ele>
        <time>2025-03-18T17:47:37Z</time>
      </trkpt>
      <trkpt lat="43.63473" lon="1.37962">
        <ele>153</ele>
        <time>2025-03-18T17:47:38Z</time>
      </trkpt>
      <trkpt lat="43.63471" lon="1.37963">
        <ele>153</ele>
        <time>2025-03-18T17:47:39Z</time>
      </trkpt>
      <trkpt lat="43.63467" lon="1.37966">
        <ele>154</ele>
        <time>2025-03-18T17:47:41Z</time>
      </trkpt>
      <trkpt lat="43.63465" lon="1.37968">
        <ele>154</ele>
        <time>2025-03-18T17:47:42Z</time>
      </trkpt>
      <trkpt lat="43.63462" lon="1.3797">
        <ele>154</ele>
        <time>2025-03-18T17:47:43Z</time>
      </trkpt>
      <trkpt lat="43.63461" lon="1.37971">
        <ele>154</ele>
        <time>2025-03-18T17:47:44Z</time>
      </trkpt>
      <trkpt lat="43.63458" lon="1.37973">
        <ele>153</ele>
        <time>2025-03-18T17:47:45Z</time>
      </trkpt>
      <trkpt lat="43.63457" lon="1.37974">
        <ele>153</ele>
        <time>2025-03-18T17:47:46Z</time>
      </trkpt>
      <trkpt lat="43.63455" lon="1.37975">
        <ele>154</ele>
        <time>2025-03-18T17:47:47Z</time>
      </trkpt>
      <trkpt lat="43.63452" lon="1.37977">
        <ele>154</ele>
        <time>2025-03-18T17:47:48Z</time>
      </trkpt>
      <trkpt lat="43.6345" lon="1.37979">
        <ele>154</ele>
        <time>2025-03-18T17:47:49Z</time>
      </trkpt>
      <trkpt lat="43.63448" lon="1.3798">
        <ele>154</ele>
        <time>2025-03-18T17:47:50Z</time>
      </trkpt>
      <trkpt lat="43.63445" lon="1.37983">
        <ele>153</ele>
        <time>2025-03-18T17:47:51Z</time>
      </trkpt>
      <trkpt lat="43.63444" lon="1.37984">
        <ele>153</ele>
        <time>2025-03-18T17:47:52Z</time>
      </trkpt>
      <trkpt lat="43.63443" lon="1.37986">
        <ele>153</ele>
        <time>2025-03-18T17:47:54Z</time>
      </trkpt>
      <trkpt lat="43.63439" lon="1.3799">
        <ele>153</ele>
        <time>2025-03-18T17:47:55Z</time>
      </trkpt>
      <trkpt lat="43.63436" lon="1.37992">
        <ele>153</ele>
        <time>2025-03-18T17:47:56Z</time>
      </trkpt>
      <trkpt lat="43.63436" lon="1.37992">
        <ele>153</ele>
        <time>2025-03-18T17:47:57Z</time>
      </trkpt>
      <trkpt lat="43.63432" lon="1.37996">
        <ele>154</ele>
        <time>2025-03-18T17:47:58Z</time>
      </trkpt>
      <trkpt lat="43.63429" lon="1.37997">
        <ele>154</ele>
        <time>2025-03-18T17:47:59Z</time>
      </trkpt>
      <trkpt lat="43.63428" lon="1.37998">
        <ele>154</ele>
        <time>2025-03-18T17:48:00Z</time>
      </trkpt>
      <trkpt lat="43.63428" lon="1.37998">
        <ele>154</ele>
        <time>2025-03-18T17:48:01Z</time>
      </trkpt>
      <trkpt lat="43.63424" lon="1.37999">
        <ele>154</ele>
        <time>2025-03-18T17:48:02Z</time>
      </trkpt>
      <trkpt lat="43.63422" lon="1.38">
        <ele>153</ele>
        <time>2025-03-18T17:48:03Z</time>
      </trkpt>
      <trkpt lat="43.63422" lon="1.38">
        <ele>153</ele>
        <time>2025-03-18T17:48:04Z</time>
      </trkpt>
      <trkpt lat="43.63419" lon="1.38002">
        <ele>153</ele>
        <time>2025-03-18T17:48:05Z</time>
      </trkpt>
      <trkpt lat="43.63419" lon="1.38002">
        <ele>153</ele>
        <time>2025-03-18T17:48:06Z</time>
      </trkpt>
      <trkpt lat="43.63417" lon="1.38006">
        <ele>153</ele>
        <time>2025-03-18T17:48:07Z</time>
      </trkpt>
      <trkpt lat="43.63417" lon="1.38006">
        <ele>153</ele>
        <time>2025-03-18T17:48:08Z</time>
      </trkpt>
      <trkpt lat="43.63417" lon="1.3801">
        <ele>152</ele>
        <time>2025-03-18T17:48:09Z</time>
      </trkpt>
      <trkpt lat="43.63417" lon="1.3801">
        <ele>151</ele>
        <time>2025-03-18T17:48:10Z</time>
      </trkpt>
      <trkpt lat="43.63414" lon="1.38011">
        <ele>152</ele>
        <time>2025-03-18T17:48:11Z</time>
      </trkpt>
      <trkpt lat="43.63412" lon="1.38011">
        <ele>153</ele>
        <time>2025-03-18T17:48:13Z</time>
      </trkpt>
      <trkpt lat="43.63412" lon="1.38011">
        <ele>153</ele>
        <time>2025-03-18T17:48:14Z</time>
      </trkpt>
      <trkpt lat="43.63409" lon="1.3801">
        <ele>153</ele>
        <time>2025-03-18T17:49:07Z</time>
      </trkpt>
      <trkpt lat="43.63409" lon="1.3801">
        <ele>153</ele>
        <time>2025-03-18T17:49:08Z</time>
      </trkpt>
      <trkpt lat="43.63406" lon="1.38012">
        <ele>153</ele>
        <time>2025-03-18T17:49:09Z</time>
      </trkpt>
      <trkpt lat="43.63404" lon="1.38016">
        <ele>152</ele>
        <time>2025-03-18T17:49:11Z</time>
      </trkpt>
      <trkpt lat="43.63403" lon="1.38018">
        <ele>152</ele>
        <time>2025-03-18T17:49:12Z</time>
      </trkpt>
      <trkpt lat="43.63402" lon="1.3802">
        <ele>153</ele>
        <time>2025-03-18T17:49:13Z</time>
      </trkpt>
      <trkpt lat="43.634" lon="1.38021">
        <ele>154</ele>
        <time>2025-03-18T17:49:14Z</time>
      </trkpt>
      <trkpt lat="43.63398" lon="1.3802">
        <ele>154</ele>
        <time>2025-03-18T17:49:15Z</time>
      </trkpt>
      <trkpt lat="43.63398" lon="1.3802">
        <ele>154</ele>
        <time>2025-03-18T17:49:16Z</time>
      </trkpt>
      <trkpt lat="43.63395" lon="1.3802">
        <ele>153</ele>
        <time>2025-03-18T17:49:17Z</time>
      </trkpt>
      <trkpt lat="43.63395" lon="1.3802">
        <ele>153</ele>
        <time>2025-03-18T17:49:18Z</time>
      </trkpt>
      <trkpt lat="43.63392" lon="1.38022">
        <ele>153</ele>
        <time>2025-03-18T17:49:19Z</time>
      </trkpt>
      <trkpt lat="43.63392" lon="1.38022">
        <ele>154</ele>
        <time>2025-03-18T17:49:20Z</time>
      </trkpt>
      <trkpt lat="43.63389" lon="1.38024">
        <ele>154</ele>
        <time>2025-03-18T17:49:21Z</time>
      </trkpt>
      <trkpt lat="43.63389" lon="1.38024">
        <ele>154</ele>
        <time>2025-03-18T17:49:22Z</time>
      </trkpt>
      <trkpt lat="43.63385" lon="1.38027">
        <ele>154</ele>
        <time>2025-03-18T17:49:23Z</time>
      </trkpt>
      <trkpt lat="43.63382" lon="1.38029">
        <ele>153</ele>
        <time>2025-03-18T17:49:24Z</time>
      </trkpt>
      <trkpt lat="43.63381" lon="1.3803">
        <ele>153</ele>
        <time>2025-03-18T17:49:25Z</time>
      </trkpt>
      <trkpt lat="43.63375" lon="1.38033">
        <ele>154</ele>
        <time>2025-03-18T17:49:27Z</time>
      </trkpt>
      <trkpt lat="43.63372" lon="1.38036">
        <ele>154</ele>
        <time>2025-03-18T17:49:28Z</time>
      </trkpt>
      <trkpt lat="43.6337" lon="1.38037">
        <ele>154</ele>
        <time>2025-03-18T17:49:29Z</time>
      </trkpt>
      <trkpt lat="43.63368" lon="1.38038">
        <ele>154</ele>
        <time>2025-03-18T17:49:30Z</time>
      </trkpt>
      <trkpt lat="43.63364" lon="1.38041">
        <ele>154</ele>
        <time>2025-03-18T17:49:31Z</time>
      </trkpt>
      <trkpt lat="43.63363" lon="1.38042">
        <ele>154</ele>
        <time>2025-03-18T17:49:32Z</time>
      </trkpt>
      <trkpt lat="43.63361" lon="1.38044">
        <ele>154</ele>
        <time>2025-03-18T17:49:33Z</time>
      </trkpt>
      <trkpt lat="43.63358" lon="1.38047">
        <ele>154</ele>
        <time>2025-03-18T17:49:34Z</time>
      </trkpt>
      <trkpt lat="43.63356" lon="1.38048">
        <ele>154</ele>
        <time>2025-03-18T17:49:35Z</time>
      </trkpt>
      <trkpt lat="43.63354" lon="1.38051">
        <ele>153</ele>
        <time>2025-03-18T17:49:36Z</time>
      </trkpt>
      <trkpt lat="43.63351" lon="1.38054">
        <ele>153</ele>
        <time>2025-03-18T17:49:37Z</time>
      </trkpt>
      <trkpt lat="43.6335" lon="1.38055">
        <ele>153</ele>
        <time>2025-03-18T17:49:38Z</time>
      </trkpt>
      <trkpt lat="43.63347" lon="1.38057">
        <ele>153</ele>
        <time>2025-03-18T17:49:39Z</time>
      </trkpt>
      <trkpt lat="43.63346" lon="1.38058">
        <ele>153</ele>
        <time>2025-03-18T17:49:40Z</time>
      </trkpt>
      <trkpt lat="43.63343" lon="1.38061">
        <ele>153</ele>
        <time>2025-03-18T17:49:41Z</time>
      </trkpt>
      <trkpt lat="43.63342" lon="1.38062">
        <ele>154</ele>
        <time>2025-03-18T17:49:42Z</time>
      </trkpt>
      <trkpt lat="43.63342" lon="1.38062">
        <ele>154</ele>
        <time>2025-03-18T17:49:43Z</time>
      </trkpt>
      <trkpt lat="43.63337" lon="1.38065">
        <ele>154</ele>
        <time>2025-03-18T17:49:44Z</time>
      </trkpt>
      <trkpt lat="43.63335" lon="1.38067">
        <ele>154</ele>
        <time>2025-03-18T17:49:46Z</time>
      </trkpt>
      <trkpt lat="43.6333" lon="1.38069">
        <ele>154</ele>
        <time>2025-03-18T17:49:47Z</time>
      </trkpt>
      <trkpt lat="43.63327" lon="1.38071">
        <ele>154</ele>
        <time>2025-03-18T17:49:48Z</time>
      </trkpt>
      <trkpt lat="43.63326" lon="1.38072">
        <ele>154</ele>
        <time>2025-03-18T17:49:49Z</time>
      </trkpt>
      <trkpt lat="43.63324" lon="1.38074">
        <ele>154</ele>
        <time>2025-03-18T17:49:50Z</time>
      </trkpt>
      <trkpt lat="43.63324" lon="1.38074">
        <ele>154</ele>
        <time>2025-03-18T17:49:51Z</time>
      </trkpt>
      <trkpt lat="43.63318" lon="1.38079">
        <ele>154</ele>
        <time>2025-03-18T17:49:52Z</time>
      </trkpt>
      <trkpt lat="43.63317" lon="1.3808">
        <ele>155</ele>
        <time>2025-03-18T17:49:53Z</time>
      </trkpt>
      <trkpt lat="43.63314" lon="1.38084">
        <ele>155</ele>
        <time>2025-03-18T17:49:54Z</time>
      </trkpt>
      <trkpt lat="43.63313" lon="1.38085">
        <ele>155</ele>
        <time>2025-03-18T17:49:55Z</time>
      </trkpt>
      <trkpt lat="43.63311" lon="1.38088">
        <ele>155</ele>
        <time>2025-03-18T17:49:56Z</time>
      </trkpt>
      <trkpt lat="43.63308" lon="1.38093">
        <ele>155</ele>
        <time>2025-03-18T17:49:57Z</time>
      </trkpt>
      <trkpt lat="43.63307" lon="1.38094">
        <ele>155</ele>
        <time>2025-03-18T17:49:58Z</time>
      </trkpt>
      <trkpt lat="43.63303" lon="1.38098">
        <ele>153</ele>
        <time>2025-03-18T17:49:59Z</time>
      </trkpt>
      <trkpt lat="43.63302" lon="1.38099">
        <ele>153</ele>
        <time>2025-03-18T17:50:00Z</time>
      </trkpt>
      <trkpt lat="43.63299" lon="1.38102">
        <ele>153</ele>
        <time>2025-03-18T17:50:01Z</time>
      </trkpt>
      <trkpt lat="43.63298" lon="1.38103">
        <ele>152</ele>
        <time>2025-03-18T17:50:02Z</time>
      </trkpt>
      <trkpt lat="43.63297" lon="1.38104">
        <ele>152</ele>
        <time>2025-03-18T17:50:03Z</time>
      </trkpt>
      <trkpt lat="43.63296" lon="1.38106">
        <ele>152</ele>
        <time>2025-03-18T17:50:04Z</time>
      </trkpt>
      <trkpt lat="43.63294" lon="1.38108">
        <ele>152</ele>
        <time>2025-03-18T17:50:05Z</time>
      </trkpt>
      <trkpt lat="43.6329" lon="1.38112">
        <ele>152</ele>
        <time>2025-03-18T17:50:06Z</time>
      </trkpt>
      <trkpt lat="43.63288" lon="1.38114">
        <ele>152</ele>
        <time>2025-03-18T17:50:07Z</time>
      </trkpt>
      <trkpt lat="43.63286" lon="1.38116">
        <ele>152</ele>
        <time>2025-03-18T17:50:08Z</time>
      </trkpt>
      <trkpt lat="43.63284" lon="1.38118">
        <ele>152</ele>
        <time>2025-03-18T17:50:09Z</time>
      </trkpt>
      <trkpt lat="43.63282" lon="1.38119">
        <ele>152</ele>
        <time>2025-03-18T17:50:10Z</time>
      </trkpt>
      <trkpt lat="43.6328" lon="1.38121">
        <ele>152</ele>
        <time>2025-03-18T17:50:11Z</time>
      </trkpt>
      <trkpt lat="43.63278" lon="1.38122">
        <ele>153</ele>
        <time>2025-03-18T17:50:13Z</time>
      </trkpt>
      <trkpt lat="43.63276" lon="1.38125">
        <ele>153</ele>
        <time>2025-03-18T17:50:14Z</time>
      </trkpt>
      <trkpt lat="43.63276" lon="1.38125">
        <ele>153</ele>
        <time>2025-03-18T17:50:15Z</time>
      </trkpt>
      <trkpt lat="43.63276" lon="1.38125">
        <ele>152</ele>
        <time>2025-03-18T17:50:16Z</time>
      </trkpt>
      <trkpt lat="43.63277" lon="1.38127">
        <ele>152</ele>
        <time>2025-03-18T17:50:17Z</time>
      </trkpt>
      <trkpt lat="43.63277" lon="1.38127">
        <ele>152</ele>
        <time>2025-03-18T17:50:18Z</time>
      </trkpt>
      <trkpt lat="43.63281" lon="1.3813">
        <ele>152</ele>
        <time>2025-03-18T17:50:19Z</time>
      </trkpt>
      <trkpt lat="43.63282" lon="1.38132">
        <ele>152</ele>
        <time>2025-03-18T17:50:20Z</time>
      </trkpt>
      <trkpt lat="43.63284" lon="1.38134">
        <ele>152</ele>
        <time>2025-03-18T17:50:21Z</time>
      </trkpt>
      <trkpt lat="43.63285" lon="1.38136">
        <ele>152</ele>
        <time>2025-03-18T17:50:22Z</time>
      </trkpt>
      <trkpt lat="43.63287" lon="1.38142">
        <ele>152</ele>
        <time>2025-03-18T17:50:24Z</time>
      </trkpt>
      <trkpt lat="43.63288" lon="1.38146">
        <ele>152</ele>
        <time>2025-03-18T17:50:25Z</time>
      </trkpt>
      <trkpt lat="43.63289" lon="1.38147">
        <ele>152</ele>
        <time>2025-03-18T17:50:26Z</time>
      </trkpt>
      <trkpt lat="43.6329" lon="1.3815">
        <ele>152</ele>
        <time>2025-03-18T17:50:27Z</time>
      </trkpt>
      <trkpt lat="43.6329" lon="1.38153">
        <ele>152</ele>
        <time>2025-03-18T17:50:28Z</time>
      </trkpt>
      <trkpt lat="43.63291" lon="1.38156">
        <ele>152</ele>
        <time>2025-03-18T17:50:29Z</time>
      </trkpt>
      <trkpt lat="43.63291" lon="1.38158">
        <ele>152</ele>
        <time>2025-03-18T17:50:30Z</time>
      </trkpt>
      <trkpt lat="43.63292" lon="1.38161">
        <ele>152</ele>
        <time>2025-03-18T17:50:31Z</time>
      </trkpt>
      <trkpt lat="43.63292" lon="1.38164">
        <ele>152</ele>
        <time>2025-03-18T17:50:32Z</time>
      </trkpt>
      <trkpt lat="43.63293" lon="1.38166">
        <ele>152</ele>
        <time>2025-03-18T17:50:33Z</time>
      </trkpt>
      <trkpt lat="43.63293" lon="1.38169">
        <ele>152</ele>
        <time>2025-03-18T17:50:34Z</time>
      </trkpt>
      <trkpt lat="43.63293" lon="1.38173">
        <ele>152</ele>
        <time>2025-03-18T17:50:35Z</time>
      </trkpt>
      <trkpt lat="43.63293" lon="1.38178">
        <ele>152</ele>
        <time>2025-03-18T17:50:36Z</time>
      </trkpt>
      <trkpt lat="43.63293" lon="1.3818">
        <ele>152</ele>
        <time>2025-03-18T17:50:37Z</time>
      </trkpt>
      <trkpt lat="43.63293" lon="1.38183">
        <ele>152</ele>
        <time>2025-03-18T17:50:38Z</time>
      </trkpt>
      <trkpt lat="43.63292" lon="1.38186">
        <ele>152</ele>
        <time>2025-03-18T17:50:39Z</time>
      </trkpt>
      <trkpt lat="43.63292" lon="1.38189">
        <ele>152</ele>
        <time>2025-03-18T17:50:40Z</time>
      </trkpt>
      <trkpt lat="43.63291" lon="1.38194">
        <ele>152</ele>
        <time>2025-03-18T17:50:41Z</time>
      </trkpt>
      <trkpt lat="43.63291" lon="1.38197">
        <ele>152</ele>
        <time>2025-03-18T17:50:42Z</time>
      </trkpt>
      <trkpt lat="43.6329" lon="1.38199">
        <ele>152</ele>
        <time>2025-03-18T17:50:43Z</time>
      </trkpt>
      <trkpt lat="43.6329" lon="1.38204">
        <ele>152</ele>
        <time>2025-03-18T17:50:44Z</time>
      </trkpt>
      <trkpt lat="43.6329" lon="1.38206">
        <ele>151</ele>
        <time>2025-03-18T17:50:45Z</time>
      </trkpt>
      <trkpt lat="43.6329" lon="1.38211">
        <ele>151</ele>
        <time>2025-03-18T17:50:46Z</time>
      </trkpt>
      <trkpt lat="43.6329" lon="1.38213">
        <ele>151</ele>
        <time>2025-03-18T17:50:47Z</time>
      </trkpt>
      <trkpt lat="43.63291" lon="1.38216">
        <ele>151</ele>
        <time>2025-03-18T17:50:48Z</time>
      </trkpt>
      <trkpt lat="43.63291" lon="1.38216">
        <ele>151</ele>
        <time>2025-03-18T17:50:49Z</time>
      </trkpt>
      <trkpt lat="43.63293" lon="1.38222">
        <ele>151</ele>
        <time>2025-03-18T17:50:50Z</time>
      </trkpt>
      <trkpt lat="43.63294" lon="1.38225">
        <ele>151</ele>
        <time>2025-03-18T17:50:51Z</time>
      </trkpt>
      <trkpt lat="43.63295" lon="1.38227">
        <ele>151</ele>
        <time>2025-03-18T17:50:52Z</time>
      </trkpt>
      <trkpt lat="43.63296" lon="1.3823">
        <ele>151</ele>
        <time>2025-03-18T17:50:53Z</time>
      </trkpt>
      <trkpt lat="43.63296" lon="1.3823">
        <ele>151</ele>
        <time>2025-03-18T17:50:54Z</time>
      </trkpt>
      <trkpt lat="43.63299" lon="1.38233">
        <ele>150</ele>
        <time>2025-03-18T17:50:55Z</time>
      </trkpt>
      <trkpt lat="43.63299" lon="1.38233">
        <ele>150</ele>
        <time>2025-03-18T17:50:56Z</time>
      </trkpt>
      <trkpt lat="43.633" lon="1.38235">
        <ele>150</ele>
        <time>2025-03-18T17:50:57Z</time>
      </trkpt>
      <trkpt lat="43.63303" lon="1.38236">
        <ele>150</ele>
        <time>2025-03-18T17:50:58Z</time>
      </trkpt>
      <trkpt lat="43.63305" lon="1.38237">
        <ele>150</ele>
        <time>2025-03-18T17:50:59Z</time>
      </trkpt>
      <trkpt lat="43.63307" lon="1.38238">
        <ele>150</ele>
        <time>2025-03-18T17:51:00Z</time>
      </trkpt>
      <trkpt lat="43.63309" lon="1.38239">
        <ele>150</ele>
        <time>2025-03-18T17:51:01Z</time>
      </trkpt>
      <trkpt lat="43.63309" lon="1.38239">
        <ele>150</ele>
        <time>2025-03-18T17:51:02Z</time>
      </trkpt>
      <trkpt lat="43.63313" lon="1.38241">
        <ele>150</ele>
        <time>2025-03-18T17:51:03Z</time>
      </trkpt>
      <trkpt lat="43.63315" lon="1.38242">
        <ele>151</ele>
        <time>2025-03-18T17:51:04Z</time>
      </trkpt>
      <trkpt lat="43.63317" lon="1.38244">
        <ele>151</ele>
        <time>2025-03-18T17:51:05Z</time>
      </trkpt>
      <trkpt lat="43.63319" lon="1.38244">
        <ele>151</ele>
        <time>2025-03-18T17:51:06Z</time>
      </trkpt>
      <trkpt lat="43.63321" lon="1.38245">
        <ele>151</ele>
        <time>2025-03-18T17:51:07Z</time>
      </trkpt>
      <trkpt lat="43.63323" lon="1.38246">
        <ele>151</ele>
        <time>2025-03-18T17:51:08Z</time>
      </trkpt>
      <trkpt lat="43.63325" lon="1.38246">
        <ele>150</ele>
        <time>2025-03-18T17:51:09Z</time>
      </trkpt>
      <trkpt lat="43.63328" lon="1.38246">
        <ele>150</ele>
        <time>2025-03-18T17:51:10Z</time>
      </trkpt>
      <trkpt lat="43.6333" lon="1.38246">
        <ele>150</ele>
        <time>2025-03-18T17:51:11Z</time>
      </trkpt>
      <trkpt lat="43.63332" lon="1.38246">
        <ele>150</ele>
        <time>2025-03-18T17:51:12Z</time>
      </trkpt>
      <trkpt lat="43.63334" lon="1.38245">
        <ele>150</ele>
        <time>2025-03-18T17:51:13Z</time>
      </trkpt>
      <trkpt lat="43.63336" lon="1.38243">
        <ele>149</ele>
        <time>2025-03-18T17:51:14Z</time>
      </trkpt>
      <trkpt lat="43.63338" lon="1.38242">
        <ele>149</ele>
        <time>2025-03-18T17:51:15Z</time>
      </trkpt>
      <trkpt lat="43.6334" lon="1.3824">
        <ele>149</ele>
        <time>2025-03-18T17:51:16Z</time>
      </trkpt>
      <trkpt lat="43.63343" lon="1.38236">
        <ele>149</ele>
        <time>2025-03-18T17:51:17Z</time>
      </trkpt>
      <trkpt lat="43.63344" lon="1.38235">
        <ele>149</ele>
        <time>2025-03-18T17:51:18Z</time>
      </trkpt>
      <trkpt lat="43.63346" lon="1.38231">
        <ele>149</ele>
        <time>2025-03-18T17:51:19Z</time>
      </trkpt>
      <trkpt lat="43.63347" lon="1.38229">
        <ele>149</ele>
        <time>2025-03-18T17:51:20Z</time>
      </trkpt>
      <trkpt lat="43.63348" lon="1.38227">
        <ele>149</ele>
        <time>2025-03-18T17:51:21Z</time>
      </trkpt>
      <trkpt lat="43.63349" lon="1.38224">
        <ele>148</ele>
        <time>2025-03-18T17:51:22Z</time>
      </trkpt>
      <trkpt lat="43.63351" lon="1.3822">
        <ele>148</ele>
        <time>2025-03-18T17:51:23Z</time>
      </trkpt>
      <trkpt lat="43.63352" lon="1.38219">
        <ele>148</ele>
        <time>2025-03-18T17:51:24Z</time>
      </trkpt>
      <trkpt lat="43.63353" lon="1.38216">
        <ele>148</ele>
        <time>2025-03-18T17:51:25Z</time>
      </trkpt>
      <trkpt lat="43.63354" lon="1.38213">
        <ele>148</ele>
        <time>2025-03-18T17:51:26Z</time>
      </trkpt>
      <trkpt lat="43.63354" lon="1.3821">
        <ele>148</ele>
        <time>2025-03-18T17:51:27Z</time>
      </trkpt>
      <trkpt lat="43.63355" lon="1.38207">
        <ele>148</ele>
        <time>2025-03-18T17:51:28Z</time>
      </trkpt>
      <trkpt lat="43.63356" lon="1.38204">
        <ele>149</ele>
        <time>2025-03-18T17:51:29Z</time>
      </trkpt>
      <trkpt lat="43.63357" lon="1.38201">
        <ele>149</ele>
        <time>2025-03-18T17:51:30Z</time>
      </trkpt>
      <trkpt lat="43.63357" lon="1.38198">
        <ele>148</ele>
        <time>2025-03-18T17:51:31Z</time>
      </trkpt>
      <trkpt lat="43.63357" lon="1.38198">
        <ele>148</ele>
        <time>2025-03-18T17:51:32Z</time>
      </trkpt>
      <trkpt lat="43.63358" lon="1.38192">
        <ele>148</ele>
        <time>2025-03-18T17:51:33Z</time>
      </trkpt>
      <trkpt lat="43.63359" lon="1.38189">
        <ele>148</ele>
        <time>2025-03-18T17:51:34Z</time>
      </trkpt>
      <trkpt lat="43.63359" lon="1.38185">
        <ele>148</ele>
        <time>2025-03-18T17:51:35Z</time>
      </trkpt>
      <trkpt lat="43.6336" lon="1.38182">
        <ele>147</ele>
        <time>2025-03-18T17:51:36Z</time>
      </trkpt>
      <trkpt lat="43.6336" lon="1.38177">
        <ele>147</ele>
        <time>2025-03-18T17:51:37Z</time>
      </trkpt>
      <trkpt lat="43.6336" lon="1.38175">
        <ele>147</ele>
        <time>2025-03-18T17:51:38Z</time>
      </trkpt>
      <trkpt lat="43.63361" lon="1.38169">
        <ele>147</ele>
        <time>2025-03-18T17:51:39Z</time>
      </trkpt>
      <trkpt lat="43.63362" lon="1.38167">
        <ele>147</ele>
        <time>2025-03-18T17:51:40Z</time>
      </trkpt>
      <trkpt lat="43.63363" lon="1.38164">
        <ele>147</ele>
        <time>2025-03-18T17:51:41Z</time>
      </trkpt>
      <trkpt lat="43.63365" lon="1.38162">
        <ele>148</ele>
        <time>2025-03-18T17:51:42Z</time>
      </trkpt>
      <trkpt lat="43.63369" lon="1.38159">
        <ele>149</ele>
        <time>2025-03-18T17:51:44Z</time>
      </trkpt>
      <trkpt lat="43.63372" lon="1.38159">
        <ele>149</ele>
        <time>2025-03-18T17:51:45Z</time>
      </trkpt>
      <trkpt lat="43.63374" lon="1.38158">
        <ele>149</ele>
        <time>2025-03-18T17:51:46Z</time>
      </trkpt>
      <trkpt lat="43.63377" lon="1.38158">
        <ele>149</ele>
        <time>2025-03-18T17:51:47Z</time>
      </trkpt>
      <trkpt lat="43.63379" lon="1.38158">
        <ele>149</ele>
        <time>2025-03-18T17:51:48Z</time>
      </trkpt>
      <trkpt lat="43.63381" lon="1.38157">
        <ele>148</ele>
        <time>2025-03-18T17:51:49Z</time>
      </trkpt>
      <trkpt lat="43.63381" lon="1.38157">
        <ele>148</ele>
        <time>2025-03-18T17:51:50Z</time>
      </trkpt>
      <trkpt lat="43.63384" lon="1.38155">
        <ele>148</ele>
        <time>2025-03-18T17:51:51Z</time>
      </trkpt>
      <trkpt lat="43.63384" lon="1.38155">
        <ele>149</ele>
        <time>2025-03-18T17:51:52Z</time>
      </trkpt>
      <trkpt lat="43.63386" lon="1.38151">
        <ele>149</ele>
        <time>2025-03-18T17:51:53Z</time>
      </trkpt>
      <trkpt lat="43.63386" lon="1.38151">
        <ele>149</ele>
        <time>2025-03-18T17:51:54Z</time>
      </trkpt>
      <trkpt lat="43.63388" lon="1.38147">
        <ele>149</ele>
        <time>2025-03-18T17:51:55Z</time>
      </trkpt>
      <trkpt lat="43.63389" lon="1.38145">
        <ele>149</ele>
        <time>2025-03-18T17:51:56Z</time>
      </trkpt>
      <trkpt lat="43.63389" lon="1.38145">
        <ele>149</ele>
        <time>2025-03-18T17:51:57Z</time>
      </trkpt>
      <trkpt lat="43.63391" lon="1.3814">
        <ele>149</ele>
        <time>2025-03-18T17:51:58Z</time>
      </trkpt>
      <trkpt lat="43.63391" lon="1.3814">
        <ele>149</ele>
        <time>2025-03-18T17:51:59Z</time>
      </trkpt>
      <trkpt lat="43.63393" lon="1.38136">
        <ele>149</ele>
        <time>2025-03-18T17:52:00Z</time>
      </trkpt>
      <trkpt lat="43.63394" lon="1.38133">
        <ele>149</ele>
        <time>2025-03-18T17:52:01Z</time>
      </trkpt>
      <trkpt lat="43.63395" lon="1.3813">
        <ele>149</ele>
        <time>2025-03-18T17:52:02Z</time>
      </trkpt>
      <trkpt lat="43.63396" lon="1.38128">
        <ele>149</ele>
        <time>2025-03-18T17:52:03Z</time>
      </trkpt>
      <trkpt lat="43.63397" lon="1.38125">
        <ele>149</ele>
        <time>2025-03-18T17:52:04Z</time>
      </trkpt>
      <trkpt lat="43.63399" lon="1.38121">
        <ele>149</ele>
        <time>2025-03-18T17:52:05Z</time>
      </trkpt>
      <trkpt lat="43.63399" lon="1.3812">
        <ele>148</ele>
        <time>2025-03-18T17:52:06Z</time>
      </trkpt>
      <trkpt lat="43.63399" lon="1.3812">
        <ele>148</ele>
        <time>2025-03-18T17:52:07Z</time>
      </trkpt>
      <trkpt lat="43.634" lon="1.38116">
        <ele>148</ele>
        <time>2025-03-18T17:52:08Z</time>
      </trkpt>
      <trkpt lat="43.63401" lon="1.38113">
        <ele>148</ele>
        <time>2025-03-18T17:52:09Z</time>
      </trkpt>
      <trkpt lat="43.63401" lon="1.38109">
        <ele>148</ele>
        <time>2025-03-18T17:52:10Z</time>
      </trkpt>
      <trkpt lat="43.63402" lon="1.38106">
        <ele>147</ele>
        <time>2025-03-18T17:52:11Z</time>
      </trkpt>
      <trkpt lat="43.63403" lon="1.38103">
        <ele>147</ele>
        <time>2025-03-18T17:52:12Z</time>
      </trkpt>
      <trkpt lat="43.63404" lon="1.381">
        <ele>147</ele>
        <time>2025-03-18T17:52:13Z</time>
      </trkpt>
      <trkpt lat="43.63404" lon="1.381">
        <ele>147</ele>
        <time>2025-03-18T17:52:14Z</time>
      </trkpt>
      <trkpt lat="43.63406" lon="1.38095">
        <ele>147</ele>
        <time>2025-03-18T17:52:15Z</time>
      </trkpt>
      <trkpt lat="43.63407" lon="1.38092">
        <ele>147</ele>
        <time>2025-03-18T17:52:16Z</time>
      </trkpt>
      <trkpt lat="43.63408" lon="1.38088">
        <ele>147</ele>
        <time>2025-03-18T17:52:17Z</time>
      </trkpt>
      <trkpt lat="43.63408" lon="1.38086">
        <ele>148</ele>
        <time>2025-03-18T17:52:18Z</time>
      </trkpt>
      <trkpt lat="43.63409" lon="1.38084">
        <ele>148</ele>
        <time>2025-03-18T17:52:19Z</time>
      </trkpt>
      <trkpt lat="43.63411" lon="1.38081">
        <ele>148</ele>
        <time>2025-03-18T17:52:20Z</time>
      </trkpt>
      <trkpt lat="43.63414" lon="1.38078">
        <ele>148</ele>
        <time>2025-03-18T17:52:21Z</time>
      </trkpt>
      <trkpt lat="43.63415" lon="1.38077">
        <ele>148</ele>
        <time>2025-03-18T17:52:22Z</time>
      </trkpt>
      <trkpt lat="43.63418" lon="1.38074">
        <ele>148</ele>
        <time>2025-03-18T17:52:23Z</time>
      </trkpt>
      <trkpt lat="43.63419" lon="1.38073">
        <ele>148</ele>
        <time>2025-03-18T17:52:24Z</time>
      </trkpt>
      <trkpt lat="43.63421" lon="1.3807">
        <ele>148</ele>
        <time>2025-03-18T17:52:25Z</time>
      </trkpt>
      <trkpt lat="43.63423" lon="1.38068">
        <ele>148</ele>
        <time>2025-03-18T17:52:26Z</time>
      </trkpt>
      <trkpt lat="43.63423" lon="1.38068">
        <ele>147</ele>
        <time>2025-03-18T17:52:27Z</time>
      </trkpt>
      <trkpt lat="43.63428" lon="1.38065">
        <ele>147</ele>
        <time>2025-03-18T17:52:28Z</time>
      </trkpt>
      <trkpt lat="43.63429" lon="1.38064">
        <ele>148</ele>
        <time>2025-03-18T17:52:29Z</time>
      </trkpt>
      <trkpt lat="43.63431" lon="1.38063">
        <ele>148</ele>
        <time>2025-03-18T17:52:30Z</time>
      </trkpt>
      <trkpt lat="43.63431" lon="1.38063">
        <ele>148</ele>
        <time>2025-03-18T17:52:31Z</time>
      </trkpt>
      <trkpt lat="43.63431" lon="1.3806">
        <ele>148</ele>
        <time>2025-03-18T17:52:32Z</time>
      </trkpt>
      <trkpt lat="43.63431" lon="1.3806">
        <ele>148</ele>
        <time>2025-03-18T17:52:33Z</time>
      </trkpt>
      <trkpt lat="43.63429" lon="1.38057">
        <ele>148</ele>
        <time>2025-03-18T17:52:34Z</time>
      </trkpt>
      <trkpt lat="43.63429" lon="1.38057">
        <ele>148</ele>
        <time>2025-03-18T17:52:35Z</time>
      </trkpt>
      <trkpt lat="43.63428" lon="1.38053">
        <ele>147</ele>
        <time>2025-03-18T17:52:58Z</time>
      </trkpt>
      <trkpt lat="43.63426" lon="1.3805">
        <ele>147</ele>
        <time>2025-03-18T17:52:59Z</time>
      </trkpt>
      <trkpt lat="43.63426" lon="1.3805">
        <ele>147</ele>
        <time>2025-03-18T17:53:00Z</time>
      </trkpt>
      <trkpt lat="43.63424" lon="1.38046">
        <ele>147</ele>
        <time>2025-03-18T17:53:01Z</time>
      </trkpt>
      <trkpt lat="43.63422" lon="1.38044">
        <ele>147</ele>
        <time>2025-03-18T17:53:02Z</time>
      </trkpt>
      <trkpt lat="43.63421" lon="1.38042">
        <ele>147</ele>
        <time>2025-03-18T17:53:03Z</time>
      </trkpt>
      <trkpt lat="43.63418" lon="1.38039">
        <ele>147</ele>
        <time>2025-03-18T17:53:04Z</time>
      </trkpt>
      <trkpt lat="43.63418" lon="1.38038">
        <ele>147</ele>
        <time>2025-03-18T17:53:05Z</time>
      </trkpt>
      <trkpt lat="43.63416" lon="1.38035">
        <ele>147</ele>
        <time>2025-03-18T17:53:06Z</time>
      </trkpt>
      <trkpt lat="43.63414" lon="1.3803">
        <ele>147</ele>
        <time>2025-03-18T17:53:07Z</time>
      </trkpt>
      <trkpt lat="43.63413" lon="1.38029">
        <ele>147</ele>
        <time>2025-03-18T17:53:08Z</time>
      </trkpt>
      <trkpt lat="43.63412" lon="1.38024">
        <ele>147</ele>
        <time>2025-03-18T17:53:09Z</time>
      </trkpt>
      <trkpt lat="43.63411" lon="1.38023">
        <ele>147</ele>
        <time>2025-03-18T17:53:10Z</time>
      </trkpt>
      <trkpt lat="43.63411" lon="1.38019">
        <ele>147</ele>
        <time>2025-03-18T17:53:11Z</time>
      </trkpt>
      <trkpt lat="43.63411" lon="1.38015">
        <ele>148</ele>
        <time>2025-03-18T17:53:12Z</time>
      </trkpt>
      <trkpt lat="43.63412" lon="1.38012">
        <ele>148</ele>
        <time>2025-03-18T17:53:13Z</time>
      </trkpt>
      <trkpt lat="43.63415" lon="1.38008">
        <ele>148</ele>
        <time>2025-03-18T17:53:14Z</time>
      </trkpt>
      <trkpt lat="43.63416" lon="1.38007">
        <ele>149</ele>
        <time>2025-03-18T17:53:15Z</time>
      </trkpt>
      <trkpt lat="43.63418" lon="1.38006">
        <ele>149</ele>
        <time>2025-03-18T17:53:16Z</time>
      </trkpt>
      <trkpt lat="43.63419" lon="1.38004">
        <ele>149</ele>
        <time>2025-03-18T17:53:17Z</time>
      </trkpt>
      <trkpt lat="43.63421" lon="1.38003">
        <ele>149</ele>
        <time>2025-03-18T17:53:18Z</time>
      </trkpt>
      <trkpt lat="43.63425" lon="1.37998">
        <ele>149</ele>
        <time>2025-03-18T17:53:19Z</time>
      </trkpt>
      <trkpt lat="43.63428" lon="1.37996">
        <ele>149</ele>
        <time>2025-03-18T17:53:20Z</time>
      </trkpt>
      <trkpt lat="43.63431" lon="1.37993">
        <ele>149</ele>
        <time>2025-03-18T17:53:21Z</time>
      </trkpt>
      <trkpt lat="43.63432" lon="1.37992">
        <ele>149</ele>
        <time>2025-03-18T17:53:22Z</time>
      </trkpt>
      <trkpt lat="43.63435" lon="1.3799">
        <ele>149</ele>
        <time>2025-03-18T17:53:23Z</time>
      </trkpt>
      <trkpt lat="43.63437" lon="1.37988">
        <ele>149</ele>
        <time>2025-03-18T17:53:24Z</time>
      </trkpt>
      <trkpt lat="43.63439" lon="1.37986">
        <ele>149</ele>
        <time>2025-03-18T17:53:25Z</time>
      </trkpt>
      <trkpt lat="43.63442" lon="1.37983">
        <ele>149</ele>
        <time>2025-03-18T17:53:26Z</time>
      </trkpt>
      <trkpt lat="43.63444" lon="1.37982">
        <ele>149</ele>
        <time>2025-03-18T17:53:27Z</time>
      </trkpt>
      <trkpt lat="43.63446" lon="1.3798">
        <ele>149</ele>
        <time>2025-03-18T17:53:28Z</time>
      </trkpt>
      <trkpt lat="43.63448" lon="1.37978">
        <ele>149</ele>
        <time>2025-03-18T17:53:29Z</time>
      </trkpt>
      <trkpt lat="43.6345" lon="1.37975">
        <ele>149</ele>
        <time>2025-03-18T17:53:30Z</time>
      </trkpt>
      <trkpt lat="43.63452" lon="1.37973">
        <ele>149</ele>
        <time>2025-03-18T17:53:31Z</time>
      </trkpt>
      <trkpt lat="43.63454" lon="1.37971">
        <ele>148</ele>
        <time>2025-03-18T17:53:32Z</time>
      </trkpt>
      <trkpt lat="43.63456" lon="1.3797">
        <ele>148</ele>
        <time>2025-03-18T17:53:33Z</time>
      </trkpt>
      <trkpt lat="43.63461" lon="1.37966">
        <ele>149</ele>
        <time>2025-03-18T17:53:35Z</time>
      </trkpt>
      <trkpt lat="43.63463" lon="1.37964">
        <ele>148</ele>
        <time>2025-03-18T17:53:37Z</time>
      </trkpt>
      <trkpt lat="43.63467" lon="1.3796">
        <ele>148</ele>
        <time>2025-03-18T17:53:38Z</time>
      </trkpt>
      <trkpt lat="43.6347" lon="1.37958">
        <ele>148</ele>
        <time>2025-03-18T17:53:39Z</time>
      </trkpt>
      <trkpt lat="43.63472" lon="1.37956">
        <ele>148</ele>
        <time>2025-03-18T17:53:40Z</time>
      </trkpt>
      <trkpt lat="43.63474" lon="1.37954">
        <ele>148</ele>
        <time>2025-03-18T17:53:41Z</time>
      </trkpt>
      <trkpt lat="43.63474" lon="1.37954">
        <ele>148</ele>
        <time>2025-03-18T17:53:42Z</time>
      </trkpt>
      <trkpt lat="43.63478" lon="1.3795">
        <ele>148</ele>
        <time>2025-03-18T17:53:43Z</time>
      </trkpt>
      <trkpt lat="43.6348" lon="1.37948">
        <ele>148</ele>
        <time>2025-03-18T17:53:44Z</time>
      </trkpt>
      <trkpt lat="43.63483" lon="1.37946">
        <ele>148</ele>
        <time>2025-03-18T17:53:45Z</time>
      </trkpt>
      <trkpt lat="43.63485" lon="1.37944">
        <ele>148</ele>
        <time>2025-03-18T17:53:46Z</time>
      </trkpt>
      <trkpt lat="43.63487" lon="1.37942">
        <ele>148</ele>
        <time>2025-03-18T17:53:47Z</time>
      </trkpt>
      <trkpt lat="43.6349" lon="1.3794">
        <ele>148</ele>
        <time>2025-03-18T17:53:48Z</time>
      </trkpt>
      <trkpt lat="43.63492" lon="1.37938">
        <ele>148</ele>
        <time>2025-03-18T17:53:49Z</time>
      </trkpt>
      <trkpt lat="43.63495" lon="1.37936">
        <ele>148</ele>
        <time>2025-03-18T17:53:50Z</time>
      </trkpt>
      <trkpt lat="43.63497" lon="1.37935">
        <ele>147</ele>
        <time>2025-03-18T17:53:51Z</time>
      </trkpt>
      <trkpt lat="43.63499" lon="1.37933">
        <ele>147</ele>
        <time>2025-03-18T17:53:52Z</time>
      </trkpt>
      <trkpt lat="43.63503" lon="1.37929">
        <ele>147</ele>
        <time>2025-03-18T17:53:54Z</time>
      </trkpt>
      <trkpt lat="43.63508" lon="1.37925">
        <ele>147</ele>
        <time>2025-03-18T17:53:56Z</time>
      </trkpt>
      <trkpt lat="43.63508" lon="1.37925">
        <ele>147</ele>
        <time>2025-03-18T17:53:57Z</time>
      </trkpt>
      <trkpt lat="43.63512" lon="1.37921">
        <ele>147</ele>
        <time>2025-03-18T17:53:58Z</time>
      </trkpt>
      <trkpt lat="43.63515" lon="1.37919">
        <ele>147</ele>
        <time>2025-03-18T17:53:59Z</time>
      </trkpt>
      <trkpt lat="43.63518" lon="1.37917">
        <ele>147</ele>
        <time>2025-03-18T17:54:00Z</time>
      </trkpt>
      <trkpt lat="43.63519" lon="1.37916">
        <ele>148</ele>
        <time>2025-03-18T17:54:01Z</time>
      </trkpt>
      <trkpt lat="43.63522" lon="1.37914">
        <ele>148</ele>
        <time>2025-03-18T17:54:02Z</time>
      </trkpt>
      <trkpt lat="43.63523" lon="1.37913">
        <ele>147</ele>
        <time>2025-03-18T17:54:03Z</time>
      </trkpt>
      <trkpt lat="43.63527" lon="1.37911">
        <ele>147</ele>
        <time>2025-03-18T17:54:04Z</time>
      </trkpt>
      <trkpt lat="43.63528" lon="1.3791">
        <ele>147</ele>
        <time>2025-03-18T17:54:05Z</time>
      </trkpt>
      <trkpt lat="43.63528" lon="1.3791">
        <ele>147</ele>
        <time>2025-03-18T17:54:06Z</time>
      </trkpt>
      <trkpt lat="43.63532" lon="1.37906">
        <ele>147</ele>
        <time>2025-03-18T17:54:07Z</time>
      </trkpt>
      <trkpt lat="43.63534" lon="1.37905">
        <ele>147</ele>
        <time>2025-03-18T17:54:08Z</time>
      </trkpt>
      <trkpt lat="43.63535" lon="1.37903">
        <ele>147</ele>
        <time>2025-03-18T17:54:09Z</time>
      </trkpt>
      <trkpt lat="43.63538" lon="1.37901">
        <ele>147</ele>
        <time>2025-03-18T17:54:10Z</time>
      </trkpt>
      <trkpt lat="43.63538" lon="1.37901">
        <ele>147</ele>
        <time>2025-03-18T17:54:11Z</time>
      </trkpt>
      <trkpt lat="43.63543" lon="1.37896">
        <ele>147</ele>
        <time>2025-03-18T17:54:12Z</time>
      </trkpt>
      <trkpt lat="43.63544" lon="1.37895">
        <ele>147</ele>
        <time>2025-03-18T17:54:13Z</time>
      </trkpt>
      <trkpt lat="43.63546" lon="1.37894">
        <ele>147</ele>
        <time>2025-03-18T17:54:14Z</time>
      </trkpt>
      <trkpt lat="43.63549" lon="1.37892">
        <ele>147</ele>
        <time>2025-03-18T17:54:15Z</time>
      </trkpt>
      <trkpt lat="43.63551" lon="1.3789">
        <ele>147</ele>
        <time>2025-03-18T17:54:16Z</time>
      </trkpt>
      <trkpt lat="43.63553" lon="1.37888">
        <ele>146</ele>
        <time>2025-03-18T17:54:17Z</time>
      </trkpt>
      <trkpt lat="43.63555" lon="1.37886">
        <ele>146</ele>
        <time>2025-03-18T17:54:18Z</time>
      </trkpt>
      <trkpt lat="43.63559" lon="1.37883">
        <ele>146</ele>
        <time>2025-03-18T17:54:19Z</time>
      </trkpt>
      <trkpt lat="43.6356" lon="1.37882">
        <ele>147</ele>
        <time>2025-03-18T17:54:20Z</time>
      </trkpt>
      <trkpt lat="43.63563" lon="1.37879">
        <ele>147</ele>
        <time>2025-03-18T17:54:21Z</time>
      </trkpt>
      <trkpt lat="43.63564" lon="1.37878">
        <ele>147</ele>
        <time>2025-03-18T17:54:22Z</time>
      </trkpt>
      <trkpt lat="43.63568" lon="1.37876">
        <ele>147</ele>
        <time>2025-03-18T17:54:23Z</time>
      </trkpt>
      <trkpt lat="43.63569" lon="1.37875">
        <ele>147</ele>
        <time>2025-03-18T17:54:24Z</time>
      </trkpt>
      <trkpt lat="43.63569" lon="1.37875">
        <ele>147</ele>
        <time>2025-03-18T17:54:25Z</time>
      </trkpt>
      <trkpt lat="43.63573" lon="1.37872">
        <ele>146</ele>
        <time>2025-03-18T17:54:26Z</time>
      </trkpt>
      <trkpt lat="43.63575" lon="1.3787">
        <ele>146</ele>
        <time>2025-03-18T17:54:27Z</time>
      </trkpt>
      <trkpt lat="43.6358" lon="1.37866">
        <ele>146</ele>
        <time>2025-03-18T17:54:29Z</time>
      </trkpt>
      <trkpt lat="43.63582" lon="1.37865">
        <ele>146</ele>
        <time>2025-03-18T17:54:30Z</time>
      </trkpt>
      <trkpt lat="43.63584" lon="1.37863">
        <ele>146</ele>
        <time>2025-03-18T17:54:31Z</time>
      </trkpt>
      <trkpt lat="43.63588" lon="1.3786">
        <ele>146</ele>
        <time>2025-03-18T17:54:33Z</time>
      </trkpt>
      <trkpt lat="43.63588" lon="1.3786">
        <ele>146</ele>
        <time>2025-03-18T17:54:34Z</time>
      </trkpt>
      <trkpt lat="43.63593" lon="1.37856">
        <ele>146</ele>
        <time>2025-03-18T17:54:35Z</time>
      </trkpt>
      <trkpt lat="43.63595" lon="1.37854">
        <ele>146</ele>
        <time>2025-03-18T17:54:36Z</time>
      </trkpt>
      <trkpt lat="43.63598" lon="1.37853">
        <ele>146</ele>
        <time>2025-03-18T17:54:37Z</time>
      </trkpt>
      <trkpt lat="43.636" lon="1.37851">
        <ele>146</ele>
        <time>2025-03-18T17:54:38Z</time>
      </trkpt>
      <trkpt lat="43.636" lon="1.37851">
        <ele>146</ele>
        <time>2025-03-18T17:54:39Z</time>
      </trkpt>
      <trkpt lat="43.63605" lon="1.37847">
        <ele>146</ele>
        <time>2025-03-18T17:54:40Z</time>
      </trkpt>
      <trkpt lat="43.63607" lon="1.37846">
        <ele>146</ele>
        <time>2025-03-18T17:54:41Z</time>
      </trkpt>
      <trkpt lat="43.63609" lon="1.37844">
        <ele>146</ele>
        <time>2025-03-18T17:54:42Z</time>
      </trkpt>
      <trkpt lat="43.63611" lon="1.37843">
        <ele>146</ele>
        <time>2025-03-18T17:54:43Z</time>
      </trkpt>
      <trkpt lat="43.63613" lon="1.37841">
        <ele>146</ele>
        <time>2025-03-18T17:54:44Z</time>
      </trkpt>
      <trkpt lat="43.63615" lon="1.37839">
        <ele>146</ele>
        <time>2025-03-18T17:54:45Z</time>
      </trkpt>
      <trkpt lat="43.63617" lon="1.37837">
        <ele>146</ele>
        <time>2025-03-18T17:54:46Z</time>
      </trkpt>
      <trkpt lat="43.63619" lon="1.37836">
        <ele>146</ele>
        <time>2025-03-18T17:54:47Z</time>
      </trkpt>
      <trkpt lat="43.63622" lon="1.37834">
        <ele>146</ele>
        <time>2025-03-18T17:54:48Z</time>
      </trkpt>
      <trkpt lat="43.63626" lon="1.37831">
        <ele>146</ele>
        <time>2025-03-18T17:54:49Z</time>
      </trkpt>
      <trkpt lat="43.63627" lon="1.3783">
        <ele>146</ele>
        <time>2025-03-18T17:54:50Z</time>
      </trkpt>
      <trkpt lat="43.63629" lon="1.37829">
        <ele>146</ele>
        <time>2025-03-18T17:54:51Z</time>
      </trkpt>
      <trkpt lat="43.63631" lon="1.37828">
        <ele>146</ele>
        <time>2025-03-18T17:54:52Z</time>
      </trkpt>
      <trkpt lat="43.63631" lon="1.37828">
        <ele>145</ele>
        <time>2025-03-18T17:54:53Z</time>
      </trkpt>
      <trkpt lat="43.63635" lon="1.37825">
        <ele>145</ele>
        <time>2025-03-18T17:54:54Z</time>
      </trkpt>
      <trkpt lat="43.63635" lon="1.37825">
        <ele>145</ele>
        <time>2025-03-18T17:54:55Z</time>
      </trkpt>
      <trkpt lat="43.6364" lon="1.37822">
        <ele>145</ele>
        <time>2025-03-18T17:54:56Z</time>
      </trkpt>
      <trkpt lat="43.63642" lon="1.37821">
        <ele>145</ele>
        <time>2025-03-18T17:54:57Z</time>
      </trkpt>
      <trkpt lat="43.63644" lon="1.37819">
        <ele>145</ele>
        <time>2025-03-18T17:54:58Z</time>
      </trkpt>
      <trkpt lat="43.63646" lon="1.37818">
        <ele>145</ele>
        <time>2025-03-18T17:54:59Z</time>
      </trkpt>
      <trkpt lat="43.63649" lon="1.37816">
        <ele>145</ele>
        <time>2025-03-18T17:55:00Z</time>
      </trkpt>
      <trkpt lat="43.63651" lon="1.37814">
        <ele>146</ele>
        <time>2025-03-18T17:55:01Z</time>
      </trkpt>
      <trkpt lat="43.63653" lon="1.37812">
        <ele>146</ele>
        <time>2025-03-18T17:55:02Z</time>
      </trkpt>
      <trkpt lat="43.63655" lon="1.3781">
        <ele>146</ele>
        <time>2025-03-18T17:55:03Z</time>
      </trkpt>
      <trkpt lat="43.63657" lon="1.37808">
        <ele>146</ele>
        <time>2025-03-18T17:55:04Z</time>
      </trkpt>
      <trkpt lat="43.63657" lon="1.37808">
        <ele>146</ele>
        <time>2025-03-18T17:55:05Z</time>
      </trkpt>
      <trkpt lat="43.63662" lon="1.37805">
        <ele>146</ele>
        <time>2025-03-18T17:55:06Z</time>
      </trkpt>
      <trkpt lat="43.63664" lon="1.37803">
        <ele>146</ele>
        <time>2025-03-18T17:55:07Z</time>
      </trkpt>
      <trkpt lat="43.63666" lon="1.37802">
        <ele>146</ele>
        <time>2025-03-18T17:55:08Z</time>
      </trkpt>
      <trkpt lat="43.63668" lon="1.37801">
        <ele>146</ele>
        <time>2025-03-18T17:55:09Z</time>
      </trkpt>
      <trkpt lat="43.6367" lon="1.37799">
        <ele>146</ele>
        <time>2025-03-18T17:55:10Z</time>
      </trkpt>
      <trkpt lat="43.63674" lon="1.37796">
        <ele>146</ele>
        <time>2025-03-18T17:55:12Z</time>
      </trkpt>
      <trkpt lat="43.63676" lon="1.37794">
        <ele>146</ele>
        <time>2025-03-18T17:55:13Z</time>
      </trkpt>
      <trkpt lat="43.6368" lon="1.37792">
        <ele>146</ele>
        <time>2025-03-18T17:55:14Z</time>
      </trkpt>
      <trkpt lat="43.63681" lon="1.37791">
        <ele>145</ele>
        <time>2025-03-18T17:55:15Z</time>
      </trkpt>
      <trkpt lat="43.63681" lon="1.37791">
        <ele>145</ele>
        <time>2025-03-18T17:55:16Z</time>
      </trkpt>
      <trkpt lat="43.63685" lon="1.37787">
        <ele>145</ele>
        <time>2025-03-18T17:55:17Z</time>
      </trkpt>
      <trkpt lat="43.63687" lon="1.37785">
        <ele>146</ele>
        <time>2025-03-18T17:55:18Z</time>
      </trkpt>
      <trkpt lat="43.6369" lon="1.37784">
        <ele>146</ele>
        <time>2025-03-18T17:55:19Z</time>
      </trkpt>
      <trkpt lat="43.63692" lon="1.37782">
        <ele>146</ele>
        <time>2025-03-18T17:55:20Z</time>
      </trkpt>
      <trkpt lat="43.63695" lon="1.3778">
        <ele>146</ele>
        <time>2025-03-18T17:55:21Z</time>
      </trkpt>
      <trkpt lat="43.63696" lon="1.37779">
        <ele>146</ele>
        <time>2025-03-18T17:55:22Z</time>
      </trkpt>
      <trkpt lat="43.63699" lon="1.37778">
        <ele>146</ele>
        <time>2025-03-18T17:55:23Z</time>
      </trkpt>
      <trkpt lat="43.63701" lon="1.37776">
        <ele>146</ele>
        <time>2025-03-18T17:55:24Z</time>
      </trkpt>
      <trkpt lat="43.63703" lon="1.37775">
        <ele>146</ele>
        <time>2025-03-18T17:55:25Z</time>
      </trkpt>
      <trkpt lat="43.63705" lon="1.37773">
        <ele>146</ele>
        <time>2025-03-18T17:55:26Z</time>
      </trkpt>
      <trkpt lat="43.63707" lon="1.37771">
        <ele>146</ele>
        <time>2025-03-18T17:55:27Z</time>
      </trkpt>
      <trkpt lat="43.63709" lon="1.3777">
        <ele>146</ele>
        <time>2025-03-18T17:55:28Z</time>
      </trkpt>
      <trkpt lat="43.63711" lon="1.37768">
        <ele>146</ele>
        <time>2025-03-18T17:55:29Z</time>
      </trkpt>
      <trkpt lat="43.63713" lon="1.37766">
        <ele>146</ele>
        <time>2025-03-18T17:55:31Z</time>
      </trkpt>
      <trkpt lat="43.63717" lon="1.37763">
        <ele>146</ele>
        <time>2025-03-18T17:55:32Z</time>
      </trkpt>
      <trkpt lat="43.6372" lon="1.37762">
        <ele>146</ele>
        <time>2025-03-18T17:55:33Z</time>
      </trkpt>
      <trkpt lat="43.63724" lon="1.37765">
        <ele>146</ele>
        <time>2025-03-18T17:55:34Z</time>
      </trkpt>
      <trkpt lat="43.63725" lon="1.37766">
        <ele>146</ele>
        <time>2025-03-18T17:55:35Z</time>
      </trkpt>
      <trkpt lat="43.63726" lon="1.3777">
        <ele>146</ele>
        <time>2025-03-18T17:55:36Z</time>
      </trkpt>
      <trkpt lat="43.63729" lon="1.37774">
        <ele>146</ele>
        <time>2025-03-18T17:55:37Z</time>
      </trkpt>
      <trkpt lat="43.63729" lon="1.37776">
        <ele>146</ele>
        <time>2025-03-18T17:55:38Z</time>
      </trkpt>
      <trkpt lat="43.63731" lon="1.3778">
        <ele>146</ele>
        <time>2025-03-18T17:55:39Z</time>
      </trkpt>
      <trkpt lat="43.63732" lon="1.37782">
        <ele>146</ele>
        <time>2025-03-18T17:55:40Z</time>
      </trkpt>
      <trkpt lat="43.63733" lon="1.37785">
        <ele>146</ele>
        <time>2025-03-18T17:55:41Z</time>
      </trkpt>
      <trkpt lat="43.63734" lon="1.37788">
        <ele>146</ele>
        <time>2025-03-18T17:55:42Z</time>
      </trkpt>
      <trkpt lat="43.63735" lon="1.37791">
        <ele>147</ele>
        <time>2025-03-18T17:55:43Z</time>
      </trkpt>
      <trkpt lat="43.63736" lon="1.37795">
        <ele>147</ele>
        <time>2025-03-18T17:55:44Z</time>
      </trkpt>
      <trkpt lat="43.63736" lon="1.37797">
        <ele>146</ele>
        <time>2025-03-18T17:55:45Z</time>
      </trkpt>
      <trkpt lat="43.63737" lon="1.37799">
        <ele>146</ele>
        <time>2025-03-18T17:55:46Z</time>
      </trkpt>
      <trkpt lat="43.63737" lon="1.37799">
        <ele>145</ele>
        <time>2025-03-18T17:55:47Z</time>
      </trkpt>
      <trkpt lat="43.63741" lon="1.37801">
        <ele>145</ele>
        <time>2025-03-18T17:55:48Z</time>
      </trkpt>
      <trkpt lat="43.63741" lon="1.37801">
        <ele>145</ele>
        <time>2025-03-18T17:55:49Z</time>
      </trkpt>
      <trkpt lat="43.63742" lon="1.37801">
        <ele>145</ele>
        <time>2025-03-18T17:55:50Z</time>
      </trkpt>
      <trkpt lat="43.63746" lon="1.37799">
        <ele>145</ele>
        <time>2025-03-18T17:55:51Z</time>
      </trkpt>
      <trkpt lat="43.63748" lon="1.37799">
        <ele>145</ele>
        <time>2025-03-18T17:55:52Z</time>
      </trkpt>
      <trkpt lat="43.63752" lon="1.37799">
        <ele>145</ele>
        <time>2025-03-18T17:55:53Z</time>
      </trkpt>
      <trkpt lat="43.63754" lon="1.37798">
        <ele>145</ele>
        <time>2025-03-18T17:55:54Z</time>
      </trkpt>
      <trkpt lat="43.63756" lon="1.37798">
        <ele>145</ele>
        <time>2025-03-18T17:55:55Z</time>
      </trkpt>
      <trkpt lat="43.63758" lon="1.37799">
        <ele>145</ele>
        <time>2025-03-18T17:55:56Z</time>
      </trkpt>
      <trkpt lat="43.63761" lon="1.37799">
        <ele>145</ele>
        <time>2025-03-18T17:55:57Z</time>
      </trkpt>
      <trkpt lat="43.63763" lon="1.378">
        <ele>145</ele>
        <time>2025-03-18T17:55:58Z</time>
      </trkpt>
      <trkpt lat="43.63766" lon="1.37801">
        <ele>145</ele>
        <time>2025-03-18T17:55:59Z</time>
      </trkpt>
      <trkpt lat="43.63767" lon="1.37801">
        <ele>145</ele>
        <time>2025-03-18T17:56:00Z</time>
      </trkpt>
      <trkpt lat="43.63767" lon="1.37801">
        <ele>145</ele>
        <time>2025-03-18T17:56:01Z</time>
      </trkpt>
      <trkpt lat="43.63769" lon="1.37801">
        <ele>145</ele>
        <time>2025-03-18T17:56:02Z</time>
      </trkpt>
      <trkpt lat="43.63772" lon="1.37797">
        <ele>145</ele>
        <time>2025-03-18T17:56:03Z</time>
      </trkpt>
      <trkpt lat="43.63772" lon="1.37794">
        <ele>145</ele>
        <time>2025-03-18T17:56:04Z</time>
      </trkpt>
      <trkpt lat="43.63773" lon="1.37792">
        <ele>144</ele>
        <time>2025-03-18T17:56:05Z</time>
      </trkpt>
      <trkpt lat="43.63773" lon="1.37792">
        <ele>144</ele>
        <time>2025-03-18T17:56:06Z</time>
      </trkpt>
      <trkpt lat="43.63774" lon="1.37786">
        <ele>144</ele>
        <time>2025-03-18T17:56:07Z</time>
      </trkpt>
      <trkpt lat="43.63775" lon="1.37782">
        <ele>144</ele>
        <time>2025-03-18T17:56:08Z</time>
      </trkpt>
      <trkpt lat="43.63775" lon="1.37781">
        <ele>144</ele>
        <time>2025-03-18T17:56:09Z</time>
      </trkpt>
      <trkpt lat="43.63775" lon="1.37779">
        <ele>144</ele>
        <time>2025-03-18T17:56:10Z</time>
      </trkpt>
      <trkpt lat="43.63775" lon="1.37779">
        <ele>144</ele>
        <time>2025-03-18T17:56:11Z</time>
      </trkpt>
      <trkpt lat="43.63775" lon="1.37773">
        <ele>143</ele>
        <time>2025-03-18T17:56:12Z</time>
      </trkpt>
      <trkpt lat="43.63776" lon="1.3777">
        <ele>144</ele>
        <time>2025-03-18T17:56:13Z</time>
      </trkpt>
      <trkpt lat="43.63776" lon="1.37765">
        <ele>144</ele>
        <time>2025-03-18T17:56:14Z</time>
      </trkpt>
      <trkpt lat="43.63777" lon="1.37763">
        <ele>144</ele>
        <time>2025-03-18T17:56:15Z</time>
      </trkpt>
      <trkpt lat="43.63778" lon="1.37759">
        <ele>143</ele>
        <time>2025-03-18T17:56:16Z</time>
      </trkpt>
      <trkpt lat="43.63779" lon="1.37756">
        <ele>143</ele>
        <time>2025-03-18T17:56:17Z</time>
      </trkpt>
      <trkpt lat="43.6378" lon="1.37753">
        <ele>144</ele>
        <time>2025-03-18T17:56:18Z</time>
      </trkpt>
      <trkpt lat="43.63781" lon="1.3775">
        <ele>144</ele>
        <time>2025-03-18T17:56:19Z</time>
      </trkpt>
      <trkpt lat="43.63782" lon="1.37747">
        <ele>144</ele>
        <time>2025-03-18T17:56:20Z</time>
      </trkpt>
      <trkpt lat="43.63783" lon="1.37744">
        <ele>144</ele>
        <time>2025-03-18T17:56:21Z</time>
      </trkpt>
      <trkpt lat="43.63784" lon="1.37741">
        <ele>144</ele>
        <time>2025-03-18T17:56:22Z</time>
      </trkpt>
      <trkpt lat="43.63785" lon="1.37738">
        <ele>144</ele>
        <time>2025-03-18T17:56:23Z</time>
      </trkpt>
      <trkpt lat="43.63786" lon="1.37735">
        <ele>144</ele>
        <time>2025-03-18T17:56:24Z</time>
      </trkpt>
      <trkpt lat="43.63787" lon="1.37732">
        <ele>144</ele>
        <time>2025-03-18T17:56:25Z</time>
      </trkpt>
      <trkpt lat="43.63789" lon="1.37729">
        <ele>144</ele>
        <time>2025-03-18T17:56:26Z</time>
      </trkpt>
      <trkpt lat="43.63789" lon="1.37727">
        <ele>144</ele>
        <time>2025-03-18T17:56:27Z</time>
      </trkpt>
      <trkpt lat="43.63789" lon="1.37727">
        <ele>144</ele>
        <time>2025-03-18T17:56:28Z</time>
      </trkpt>
      <trkpt lat="43.63791" lon="1.37723">
        <ele>144</ele>
        <time>2025-03-18T17:56:29Z</time>
      </trkpt>
      <trkpt lat="43.63791" lon="1.37723">
        <ele>144</ele>
        <time>2025-03-18T17:56:30Z</time>
      </trkpt>
      <trkpt lat="43.63791" lon="1.3772">
        <ele>144</ele>
        <time>2025-03-18T17:56:31Z</time>
      </trkpt>
      <trkpt lat="43.63791" lon="1.3772">
        <ele>143</ele>
        <time>2025-03-18T17:56:32Z</time>
      </trkpt>
      <trkpt lat="43.63791" lon="1.3772">
        <ele>143</ele>
        <time>2025-03-18T17:56:33Z</time>
      </trkpt>
      <trkpt lat="43.63792" lon="1.37716">
        <ele>143</ele>
        <time>2025-03-18T17:56:34Z</time>
      </trkpt>
      <trkpt lat="43.63792" lon="1.37716">
        <ele>143</ele>
        <time>2025-03-18T17:56:35Z</time>
      </trkpt>
      <trkpt lat="43.63794" lon="1.37714">
        <ele>143</ele>
        <time>2025-03-18T17:56:36Z</time>
      </trkpt>
      <trkpt lat="43.63794" lon="1.37714">
        <ele>142</ele>
        <time>2025-03-18T17:56:37Z</time>
      </trkpt>
      <trkpt lat="43.63794" lon="1.3771">
        <ele>142</ele>
        <time>2025-03-18T17:56:38Z</time>
      </trkpt>
      <trkpt lat="43.63794" lon="1.3771">
        <ele>142</ele>
        <time>2025-03-18T17:56:39Z</time>
      </trkpt>
      <trkpt lat="43.63796" lon="1.37708">
        <ele>142</ele>
        <time>2025-03-18T17:56:40Z</time>
      </trkpt>
      <trkpt lat="43.63796" lon="1.37708">
        <ele>142</ele>
        <time>2025-03-18T17:56:41Z</time>
      </trkpt>
      <trkpt lat="43.63798" lon="1.37708">
        <ele>142</ele>
        <time>2025-03-18T17:56:42Z</time>
      </trkpt>
      <trkpt lat="43.638" lon="1.37709">
        <ele>142</ele>
        <time>2025-03-18T17:56:43Z</time>
      </trkpt>
      <trkpt lat="43.63802" lon="1.37709">
        <ele>142</ele>
        <time>2025-03-18T17:56:44Z</time>
      </trkpt>
      <trkpt lat="43.63804" lon="1.3771">
        <ele>142</ele>
        <time>2025-03-18T17:56:45Z</time>
      </trkpt>
      <trkpt lat="43.63805" lon="1.3771">
        <ele>142</ele>
        <time>2025-03-18T17:56:46Z</time>
      </trkpt>
      <trkpt lat="43.63807" lon="1.37711">
        <ele>142</ele>
        <time>2025-03-18T17:56:47Z</time>
      </trkpt>
      <trkpt lat="43.63811" lon="1.37713">
        <ele>142</ele>
        <time>2025-03-18T17:56:48Z</time>
      </trkpt>
      <trkpt lat="43.63813" lon="1.37714">
        <ele>143</ele>
        <time>2025-03-18T17:56:49Z</time>
      </trkpt>
      <trkpt lat="43.63816" lon="1.37715">
        <ele>143</ele>
        <time>2025-03-18T17:56:50Z</time>
      </trkpt>
      <trkpt lat="43.63818" lon="1.37716">
        <ele>143</ele>
        <time>2025-03-18T17:56:51Z</time>
      </trkpt>
      <trkpt lat="43.6382" lon="1.3772">
        <ele>143</ele>
        <time>2025-03-18T17:56:52Z</time>
      </trkpt>
      <trkpt lat="43.63821" lon="1.37721">
        <ele>143</ele>
        <time>2025-03-18T17:56:53Z</time>
      </trkpt>
      <trkpt lat="43.63821" lon="1.37721">
        <ele>143</ele>
        <time>2025-03-18T17:56:54Z</time>
      </trkpt>
      <trkpt lat="43.63825" lon="1.37726">
        <ele>143</ele>
        <time>2025-03-18T17:56:55Z</time>
      </trkpt>
      <trkpt lat="43.63827" lon="1.37728">
        <ele>144</ele>
        <time>2025-03-18T17:56:56Z</time>
      </trkpt>
      <trkpt lat="43.63829" lon="1.37731">
        <ele>144</ele>
        <time>2025-03-18T17:56:57Z</time>
      </trkpt>
      <trkpt lat="43.63831" lon="1.37733">
        <ele>144</ele>
        <time>2025-03-18T17:56:58Z</time>
      </trkpt>
      <trkpt lat="43.63831" lon="1.37733">
        <ele>143</ele>
        <time>2025-03-18T17:56:59Z</time>
      </trkpt>
      <trkpt lat="43.63835" lon="1.37738">
        <ele>144</ele>
        <time>2025-03-18T17:57:00Z</time>
      </trkpt>
      <trkpt lat="43.63837" lon="1.37741">
        <ele>144</ele>
        <time>2025-03-18T17:57:01Z</time>
      </trkpt>
      <trkpt lat="43.63839" lon="1.37743">
        <ele>144</ele>
        <time>2025-03-18T17:57:02Z</time>
      </trkpt>
      <trkpt lat="43.63841" lon="1.37746">
        <ele>144</ele>
        <time>2025-03-18T17:57:03Z</time>
      </trkpt>
      <trkpt lat="43.63843" lon="1.37748">
        <ele>144</ele>
        <time>2025-03-18T17:57:04Z</time>
      </trkpt>
      <trkpt lat="43.63846" lon="1.37753">
        <ele>144</ele>
        <time>2025-03-18T17:57:06Z</time>
      </trkpt>
      <trkpt lat="43.63849" lon="1.37756">
        <ele>144</ele>
        <time>2025-03-18T17:57:07Z</time>
      </trkpt>
      <trkpt lat="43.63851" lon="1.37758">
        <ele>143</ele>
        <time>2025-03-18T17:57:08Z</time>
      </trkpt>
      <trkpt lat="43.63851" lon="1.37758">
        <ele>143</ele>
        <time>2025-03-18T17:57:09Z</time>
      </trkpt>
      <trkpt lat="43.63856" lon="1.37763">
        <ele>144</ele>
        <time>2025-03-18T17:57:10Z</time>
      </trkpt>
      <trkpt lat="43.63861" lon="1.37768">
        <ele>144</ele>
        <time>2025-03-18T17:57:12Z</time>
      </trkpt>
      <trkpt lat="43.63863" lon="1.37769">
        <ele>144</ele>
        <time>2025-03-18T17:57:13Z</time>
      </trkpt>
      <trkpt lat="43.63865" lon="1.37771">
        <ele>144</ele>
        <time>2025-03-18T17:57:14Z</time>
      </trkpt>
      <trkpt lat="43.63865" lon="1.37771">
        <ele>144</ele>
        <time>2025-03-18T17:57:15Z</time>
      </trkpt>
      <trkpt lat="43.63868" lon="1.37775">
        <ele>144</ele>
        <time>2025-03-18T17:57:16Z</time>
      </trkpt>
      <trkpt lat="43.63869" lon="1.37776">
        <ele>144</ele>
        <time>2025-03-18T17:57:17Z</time>
      </trkpt>
      <trkpt lat="43.63872" lon="1.3778">
        <ele>144</ele>
        <time>2025-03-18T17:57:18Z</time>
      </trkpt>
      <trkpt lat="43.63873" lon="1.37782">
        <ele>144</ele>
        <time>2025-03-18T17:57:19Z</time>
      </trkpt>
      <trkpt lat="43.63874" lon="1.37785">
        <ele>143</ele>
        <time>2025-03-18T17:57:20Z</time>
      </trkpt>
      <trkpt lat="43.63876" lon="1.37788">
        <ele>143</ele>
        <time>2025-03-18T17:57:21Z</time>
      </trkpt>
      <trkpt lat="43.63877" lon="1.37791">
        <ele>143</ele>
        <time>2025-03-18T17:57:22Z</time>
      </trkpt>
      <trkpt lat="43.63878" lon="1.37794">
        <ele>143</ele>
        <time>2025-03-18T17:57:23Z</time>
      </trkpt>
      <trkpt lat="43.63879" lon="1.37797">
        <ele>143</ele>
        <time>2025-03-18T17:57:24Z</time>
      </trkpt>
      <trkpt lat="43.63879" lon="1.37797">
        <ele>143</ele>
        <time>2025-03-18T17:57:25Z</time>
      </trkpt>
      <trkpt lat="43.63882" lon="1.37802">
        <ele>143</ele>
        <time>2025-03-18T17:57:26Z</time>
      </trkpt>
      <trkpt lat="43.63883" lon="1.37805">
        <ele>143</ele>
        <time>2025-03-18T17:57:27Z</time>
      </trkpt>
      <trkpt lat="43.63884" lon="1.37807">
        <ele>143</ele>
        <time>2025-03-18T17:57:28Z</time>
      </trkpt>
      <trkpt lat="43.63884" lon="1.37807">
        <ele>143</ele>
        <time>2025-03-18T17:57:29Z</time>
      </trkpt>
      <trkpt lat="43.63884" lon="1.37807">
        <ele>143</ele>
        <time>2025-03-18T17:57:30Z</time>
      </trkpt>
      <trkpt lat="43.63885" lon="1.3781">
        <ele>143</ele>
        <time>2025-03-18T17:57:31Z</time>
      </trkpt>
      <trkpt lat="43.63885" lon="1.3781">
        <ele>143</ele>
        <time>2025-03-18T17:57:32Z</time>
      </trkpt>
      <trkpt lat="43.6389" lon="1.37809">
        <ele>143</ele>
        <time>2025-03-18T17:57:33Z</time>
      </trkpt>
      <trkpt lat="43.63892" lon="1.37808">
        <ele>143</ele>
        <time>2025-03-18T17:57:34Z</time>
      </trkpt>
      <trkpt lat="43.63893" lon="1.37806">
        <ele>143</ele>
        <time>2025-03-18T17:57:35Z</time>
      </trkpt>
      <trkpt lat="43.63894" lon="1.37803">
        <ele>143</ele>
        <time>2025-03-18T17:57:36Z</time>
      </trkpt>
      <trkpt lat="43.63893" lon="1.378">
        <ele>143</ele>
        <time>2025-03-18T17:57:37Z</time>
      </trkpt>
      <trkpt lat="43.63892" lon="1.37797">
        <ele>143</ele>
        <time>2025-03-18T17:57:38Z</time>
      </trkpt>
      <trkpt lat="43.63892" lon="1.37793">
        <ele>143</ele>
        <time>2025-03-18T17:57:39Z</time>
      </trkpt>
      <trkpt lat="43.63891" lon="1.37791">
        <ele>143</ele>
        <time>2025-03-18T17:57:40Z</time>
      </trkpt>
      <trkpt lat="43.63891" lon="1.37788">
        <ele>143</ele>
        <time>2025-03-18T17:57:41Z</time>
      </trkpt>
      <trkpt lat="43.63892" lon="1.37784">
        <ele>143</ele>
        <time>2025-03-18T17:57:42Z</time>
      </trkpt>
      <trkpt lat="43.63893" lon="1.37783">
        <ele>143</ele>
        <time>2025-03-18T17:57:43Z</time>
      </trkpt>
      <trkpt lat="43.63893" lon="1.37782">
        <ele>143</ele>
        <time>2025-03-18T17:57:44Z</time>
      </trkpt>
      <trkpt lat="43.63898" lon="1.37778">
        <ele>143</ele>
        <time>2025-03-18T17:57:45Z</time>
      </trkpt>
      <trkpt lat="43.63902" lon="1.37775">
        <ele>143</ele>
        <time>2025-03-18T17:57:46Z</time>
      </trkpt>
      <trkpt lat="43.63903" lon="1.37774">
        <ele>144</ele>
        <time>2025-03-18T17:57:47Z</time>
      </trkpt>
      <trkpt lat="43.63905" lon="1.37772">
        <ele>143</ele>
        <time>2025-03-18T17:57:48Z</time>
      </trkpt>
      <trkpt lat="43.63907" lon="1.3777">
        <ele>144</ele>
        <time>2025-03-18T17:57:49Z</time>
      </trkpt>
      <trkpt lat="43.63907" lon="1.3777">
        <ele>144</ele>
        <time>2025-03-18T17:57:50Z</time>
      </trkpt>
      <trkpt lat="43.6391" lon="1.37765">
        <ele>144</ele>
        <time>2025-03-18T17:57:51Z</time>
      </trkpt>
      <trkpt lat="43.63911" lon="1.37763">
        <ele>144</ele>
        <time>2025-03-18T17:57:52Z</time>
      </trkpt>
      <trkpt lat="43.63914" lon="1.37759">
        <ele>144</ele>
        <time>2025-03-18T17:57:53Z</time>
      </trkpt>
      <trkpt lat="43.63915" lon="1.37758">
        <ele>144</ele>
        <time>2025-03-18T17:57:54Z</time>
      </trkpt>
      <trkpt lat="43.63918" lon="1.37758">
        <ele>144</ele>
        <time>2025-03-18T17:57:55Z</time>
      </trkpt>
      <trkpt lat="43.6392" lon="1.37759">
        <ele>144</ele>
        <time>2025-03-18T17:57:56Z</time>
      </trkpt>
      <trkpt lat="43.6392" lon="1.37759">
        <ele>144</ele>
        <time>2025-03-18T17:57:57Z</time>
      </trkpt>
      <trkpt lat="43.63925" lon="1.37762">
        <ele>144</ele>
        <time>2025-03-18T17:57:58Z</time>
      </trkpt>
      <trkpt lat="43.63927" lon="1.37764">
        <ele>144</ele>
        <time>2025-03-18T17:57:59Z</time>
      </trkpt>
      <trkpt lat="43.63927" lon="1.37764">
        <ele>144</ele>
        <time>2025-03-18T17:58:00Z</time>
      </trkpt>
      <trkpt lat="43.63931" lon="1.3777">
        <ele>144</ele>
        <time>2025-03-18T17:58:01Z</time>
      </trkpt>
      <trkpt lat="43.63935" lon="1.37773">
        <ele>144</ele>
        <time>2025-03-18T17:58:02Z</time>
      </trkpt>
      <trkpt lat="43.63936" lon="1.37774">
        <ele>145</ele>
        <time>2025-03-18T17:58:03Z</time>
      </trkpt>
      <trkpt lat="43.63942" lon="1.37777">
        <ele>145</ele>
        <time>2025-03-18T17:58:05Z</time>
      </trkpt>
      <trkpt lat="43.63943" lon="1.37778">
        <ele>143</ele>
        <time>2025-03-18T17:58:06Z</time>
      </trkpt>
      <trkpt lat="43.63943" lon="1.37778">
        <ele>144</ele>
        <time>2025-03-18T17:58:07Z</time>
      </trkpt>
      <trkpt lat="43.63948" lon="1.3778">
        <ele>144</ele>
        <time>2025-03-18T17:58:08Z</time>
      </trkpt>
      <trkpt lat="43.63948" lon="1.3778">
        <ele>144</ele>
        <time>2025-03-18T17:58:09Z</time>
      </trkpt>
      <trkpt lat="43.63953" lon="1.37781">
        <ele>146</ele>
        <time>2025-03-18T17:58:10Z</time>
      </trkpt>
      <trkpt lat="43.63955" lon="1.37781">
        <ele>146</ele>
        <time>2025-03-18T17:58:11Z</time>
      </trkpt>
      <trkpt lat="43.63959" lon="1.37783">
        <ele>145</ele>
        <time>2025-03-18T17:58:12Z</time>
      </trkpt>
      <trkpt lat="43.6396" lon="1.37783">
        <ele>146</ele>
        <time>2025-03-18T17:58:13Z</time>
      </trkpt>
      <trkpt lat="43.63964" lon="1.37783">
        <ele>146</ele>
        <time>2025-03-18T17:58:14Z</time>
      </trkpt>
      <trkpt lat="43.63965" lon="1.37783">
        <ele>145</ele>
        <time>2025-03-18T17:58:15Z</time>
      </trkpt>
      <trkpt lat="43.63967" lon="1.37781">
        <ele>145</ele>
        <time>2025-03-18T17:58:16Z</time>
      </trkpt>
      <trkpt lat="43.63969" lon="1.37779">
        <ele>144</ele>
        <time>2025-03-18T17:58:17Z</time>
      </trkpt>
      <trkpt lat="43.63971" lon="1.37776">
        <ele>144</ele>
        <time>2025-03-18T17:58:18Z</time>
      </trkpt>
      <trkpt lat="43.63972" lon="1.37774">
        <ele>144</ele>
        <time>2025-03-18T17:58:19Z</time>
      </trkpt>
      <trkpt lat="43.63973" lon="1.37771">
        <ele>143</ele>
        <time>2025-03-18T17:58:20Z</time>
      </trkpt>
      <trkpt lat="43.63973" lon="1.37764">
        <ele>144</ele>
        <time>2025-03-18T17:58:22Z</time>
      </trkpt>
      <trkpt lat="43.63973" lon="1.37761">
        <ele>144</ele>
        <time>2025-03-18T17:58:23Z</time>
      </trkpt>
      <trkpt lat="43.63974" lon="1.37758">
        <ele>144</ele>
        <time>2025-03-18T17:58:24Z</time>
      </trkpt>
      <trkpt lat="43.63974" lon="1.37755">
        <ele>143</ele>
        <time>2025-03-18T17:58:25Z</time>
      </trkpt>
      <trkpt lat="43.63975" lon="1.37753">
        <ele>143</ele>
        <time>2025-03-18T17:58:26Z</time>
      </trkpt>
      <trkpt lat="43.63975" lon="1.37747">
        <ele>143</ele>
        <time>2025-03-18T17:58:28Z</time>
      </trkpt>
      <trkpt lat="43.63976" lon="1.37742">
        <ele>143</ele>
        <time>2025-03-18T17:58:29Z</time>
      </trkpt>
      <trkpt lat="43.63976" lon="1.37741">
        <ele>143</ele>
        <time>2025-03-18T17:58:30Z</time>
      </trkpt>
      <trkpt lat="43.63976" lon="1.37737">
        <ele>143</ele>
        <time>2025-03-18T17:58:31Z</time>
      </trkpt>
      <trkpt lat="43.63976" lon="1.37732">
        <ele>143</ele>
        <time>2025-03-18T17:58:32Z</time>
      </trkpt>
      <trkpt lat="43.63976" lon="1.3773">
        <ele>143</ele>
        <time>2025-03-18T17:58:33Z</time>
      </trkpt>
      <trkpt lat="43.63978" lon="1.37725">
        <ele>144</ele>
        <time>2025-03-18T17:58:34Z</time>
      </trkpt>
      <trkpt lat="43.63979" lon="1.37723">
        <ele>144</ele>
        <time>2025-03-18T17:58:35Z</time>
      </trkpt>
      <trkpt lat="43.63981" lon="1.37719">
        <ele>144</ele>
        <time>2025-03-18T17:58:36Z</time>
      </trkpt>
      <trkpt lat="43.63982" lon="1.37717">
        <ele>144</ele>
        <time>2025-03-18T17:58:37Z</time>
      </trkpt>
      <trkpt lat="43.63982" lon="1.37717">
        <ele>144</ele>
        <time>2025-03-18T17:58:38Z</time>
      </trkpt>
      <trkpt lat="43.63985" lon="1.37711">
        <ele>144</ele>
        <time>2025-03-18T17:58:39Z</time>
      </trkpt>
      <trkpt lat="43.63988" lon="1.37708">
        <ele>144</ele>
        <time>2025-03-18T17:58:40Z</time>
      </trkpt>
      <trkpt lat="43.6399" lon="1.37706">
        <ele>144</ele>
        <time>2025-03-18T17:58:41Z</time>
      </trkpt>
      <trkpt lat="43.63993" lon="1.37703">
        <ele>144</ele>
        <time>2025-03-18T17:58:42Z</time>
      </trkpt>
      <trkpt lat="43.63994" lon="1.37702">
        <ele>144</ele>
        <time>2025-03-18T17:58:43Z</time>
      </trkpt>
      <trkpt lat="43.63997" lon="1.37698">
        <ele>144</ele>
        <time>2025-03-18T17:58:44Z</time>
      </trkpt>
      <trkpt lat="43.63997" lon="1.37696">
        <ele>144</ele>
        <time>2025-03-18T17:58:45Z</time>
      </trkpt>
      <trkpt lat="43.64" lon="1.37692">
        <ele>144</ele>
        <time>2025-03-18T17:58:46Z</time>
      </trkpt>
      <trkpt lat="43.64002" lon="1.3769">
        <ele>144</ele>
        <time>2025-03-18T17:58:47Z</time>
      </trkpt>
      <trkpt lat="43.64003" lon="1.37689">
        <ele>145</ele>
        <time>2025-03-18T17:58:48Z</time>
      </trkpt>
      <trkpt lat="43.64004" lon="1.37686">
        <ele>145</ele>
        <time>2025-03-18T17:58:49Z</time>
      </trkpt>
      <trkpt lat="43.64006" lon="1.37683">
        <ele>144</ele>
        <time>2025-03-18T17:58:50Z</time>
      </trkpt>
      <trkpt lat="43.64007" lon="1.3768">
        <ele>144</ele>
        <time>2025-03-18T17:58:51Z</time>
      </trkpt>
      <trkpt lat="43.64009" lon="1.37678">
        <ele>144</ele>
        <time>2025-03-18T17:58:52Z</time>
      </trkpt>
      <trkpt lat="43.6401" lon="1.37675">
        <ele>143</ele>
        <time>2025-03-18T17:58:53Z</time>
      </trkpt>
      <trkpt lat="43.64012" lon="1.37673">
        <ele>143</ele>
        <time>2025-03-18T17:58:54Z</time>
      </trkpt>
      <trkpt lat="43.64013" lon="1.3767">
        <ele>143</ele>
        <time>2025-03-18T17:58:55Z</time>
      </trkpt>
      <trkpt lat="43.64015" lon="1.37665">
        <ele>143</ele>
        <time>2025-03-18T17:58:56Z</time>
      </trkpt>
      <trkpt lat="43.64016" lon="1.37664">
        <ele>143</ele>
        <time>2025-03-18T17:58:57Z</time>
      </trkpt>
      <trkpt lat="43.64018" lon="1.37661">
        <ele>143</ele>
        <time>2025-03-18T17:58:58Z</time>
      </trkpt>
      <trkpt lat="43.64022" lon="1.37654">
        <ele>143</ele>
        <time>2025-03-18T17:59:00Z</time>
      </trkpt>
      <trkpt lat="43.64023" lon="1.37652">
        <ele>143</ele>
        <time>2025-03-18T17:59:01Z</time>
      </trkpt>
      <trkpt lat="43.64024" lon="1.3765">
        <ele>143</ele>
        <time>2025-03-18T17:59:02Z</time>
      </trkpt>
      <trkpt lat="43.64026" lon="1.37644">
        <ele>143</ele>
        <time>2025-03-18T17:59:03Z</time>
      </trkpt>
      <trkpt lat="43.64026" lon="1.37642">
        <ele>143</ele>
        <time>2025-03-18T17:59:04Z</time>
      </trkpt>
      <trkpt lat="43.64028" lon="1.37636">
        <ele>143</ele>
        <time>2025-03-18T17:59:05Z</time>
      </trkpt>
      <trkpt lat="43.64029" lon="1.37634">
        <ele>143</ele>
        <time>2025-03-18T17:59:06Z</time>
      </trkpt>
      <trkpt lat="43.6403" lon="1.37632">
        <ele>142</ele>
        <time>2025-03-18T17:59:07Z</time>
      </trkpt>
      <trkpt lat="43.64034" lon="1.37627">
        <ele>142</ele>
        <time>2025-03-18T17:59:09Z</time>
      </trkpt>
      <trkpt lat="43.64035" lon="1.37624">
        <ele>142</ele>
        <time>2025-03-18T17:59:10Z</time>
      </trkpt>
      <trkpt lat="43.64037" lon="1.37621">
        <ele>142</ele>
        <time>2025-03-18T17:59:11Z</time>
      </trkpt>
      <trkpt lat="43.64039" lon="1.37618">
        <ele>142</ele>
        <time>2025-03-18T17:59:12Z</time>
      </trkpt>
      <trkpt lat="43.6404" lon="1.37615">
        <ele>142</ele>
        <time>2025-03-18T17:59:13Z</time>
      </trkpt>
      <trkpt lat="43.64042" lon="1.37612">
        <ele>142</ele>
        <time>2025-03-18T17:59:14Z</time>
      </trkpt>
      <trkpt lat="43.64043" lon="1.37609">
        <ele>142</ele>
        <time>2025-03-18T17:59:15Z</time>
      </trkpt>
      <trkpt lat="43.64044" lon="1.37606">
        <ele>142</ele>
        <time>2025-03-18T17:59:16Z</time>
      </trkpt>
      <trkpt lat="43.64046" lon="1.37602">
        <ele>142</ele>
        <time>2025-03-18T17:59:17Z</time>
      </trkpt>
      <trkpt lat="43.64049" lon="1.37597">
        <ele>142</ele>
        <time>2025-03-18T17:59:19Z</time>
      </trkpt>
      <trkpt lat="43.64051" lon="1.37593">
        <ele>142</ele>
        <time>2025-03-18T17:59:20Z</time>
      </trkpt>
      <trkpt lat="43.64052" lon="1.37592">
        <ele>142</ele>
        <time>2025-03-18T17:59:21Z</time>
      </trkpt>
      <trkpt lat="43.64055" lon="1.37587">
        <ele>142</ele>
        <time>2025-03-18T17:59:22Z</time>
      </trkpt>
      <trkpt lat="43.64055" lon="1.37586">
        <ele>142</ele>
        <time>2025-03-18T17:59:23Z</time>
      </trkpt>
      <trkpt lat="43.64057" lon="1.37583">
        <ele>142</ele>
        <time>2025-03-18T17:59:24Z</time>
      </trkpt>
      <trkpt lat="43.64058" lon="1.3758">
        <ele>142</ele>
        <time>2025-03-18T17:59:25Z</time>
      </trkpt>
      <trkpt lat="43.6406" lon="1.37577">
        <ele>142</ele>
        <time>2025-03-18T17:59:26Z</time>
      </trkpt>
      <trkpt lat="43.64062" lon="1.37574">
        <ele>142</ele>
        <time>2025-03-18T17:59:27Z</time>
      </trkpt>
      <trkpt lat="43.64064" lon="1.37572">
        <ele>142</ele>
        <time>2025-03-18T17:59:28Z</time>
      </trkpt>
      <trkpt lat="43.64066" lon="1.3757">
        <ele>142</ele>
        <time>2025-03-18T17:59:29Z</time>
      </trkpt>
      <trkpt lat="43.64069" lon="1.37569">
        <ele>142</ele>
        <time>2025-03-18T17:59:30Z</time>
      </trkpt>
      <trkpt lat="43.64071" lon="1.37568">
        <ele>142</ele>
        <time>2025-03-18T17:59:31Z</time>
      </trkpt>
      <trkpt lat="43.64073" lon="1.37568">
        <ele>142</ele>
        <time>2025-03-18T17:59:32Z</time>
      </trkpt>
      <trkpt lat="43.64076" lon="1.37567">
        <ele>142</ele>
        <time>2025-03-18T17:59:33Z</time>
      </trkpt>
      <trkpt lat="43.64078" lon="1.37567">
        <ele>142</ele>
        <time>2025-03-18T17:59:34Z</time>
      </trkpt>
      <trkpt lat="43.64081" lon="1.37568">
        <ele>142</ele>
        <time>2025-03-18T17:59:35Z</time>
      </trkpt>
      <trkpt lat="43.64083" lon="1.37569">
        <ele>142</ele>
        <time>2025-03-18T17:59:36Z</time>
      </trkpt>
      <trkpt lat="43.64085" lon="1.37569">
        <ele>142</ele>
        <time>2025-03-18T17:59:37Z</time>
      </trkpt>
      <trkpt lat="43.64087" lon="1.3757">
        <ele>142</ele>
        <time>2025-03-18T17:59:38Z</time>
      </trkpt>
      <trkpt lat="43.64092" lon="1.37572">
        <ele>142</ele>
        <time>2025-03-18T17:59:39Z</time>
      </trkpt>
      <trkpt lat="43.64095" lon="1.37573">
        <ele>142</ele>
        <time>2025-03-18T17:59:40Z</time>
      </trkpt>
      <trkpt lat="43.64098" lon="1.37574">
        <ele>142</ele>
        <time>2025-03-18T17:59:41Z</time>
      </trkpt>
      <trkpt lat="43.641" lon="1.37576">
        <ele>142</ele>
        <time>2025-03-18T17:59:42Z</time>
      </trkpt>
      <trkpt lat="43.64105" lon="1.37578">
        <ele>142</ele>
        <time>2025-03-18T17:59:44Z</time>
      </trkpt>
      <trkpt lat="43.64107" lon="1.3758">
        <ele>142</ele>
        <time>2025-03-18T17:59:45Z</time>
      </trkpt>
      <trkpt lat="43.6411" lon="1.37581">
        <ele>143</ele>
        <time>2025-03-18T17:59:46Z</time>
      </trkpt>
      <trkpt lat="43.64112" lon="1.37582">
        <ele>143</ele>
        <time>2025-03-18T17:59:47Z</time>
      </trkpt>
      <trkpt lat="43.64112" lon="1.37582">
        <ele>143</ele>
        <time>2025-03-18T17:59:48Z</time>
      </trkpt>
      <trkpt lat="43.64116" lon="1.37583">
        <ele>143</ele>
        <time>2025-03-18T17:59:49Z</time>
      </trkpt>
      <trkpt lat="43.64118" lon="1.37583">
        <ele>143</ele>
        <time>2025-03-18T17:59:50Z</time>
      </trkpt>
      <trkpt lat="43.64121" lon="1.37584">
        <ele>143</ele>
        <time>2025-03-18T17:59:51Z</time>
      </trkpt>
      <trkpt lat="43.64123" lon="1.37584">
        <ele>143</ele>
        <time>2025-03-18T17:59:52Z</time>
      </trkpt>
      <trkpt lat="43.64123" lon="1.37584">
        <ele>143</ele>
        <time>2025-03-18T17:59:53Z</time>
      </trkpt>
      <trkpt lat="43.64127" lon="1.37583">
        <ele>143</ele>
        <time>2025-03-18T17:59:54Z</time>
      </trkpt>
      <trkpt lat="43.64127" lon="1.37583">
        <ele>143</ele>
        <time>2025-03-18T17:59:55Z</time>
      </trkpt>
      <trkpt lat="43.64132" lon="1.37583">
        <ele>143</ele>
        <time>2025-03-18T17:59:56Z</time>
      </trkpt>
      <trkpt lat="43.64132" lon="1.37583">
        <ele>143</ele>
        <time>2025-03-18T17:59:57Z</time>
      </trkpt>
      <trkpt lat="43.64134" lon="1.37584">
        <ele>143</ele>
        <time>2025-03-18T17:59:58Z</time>
      </trkpt>
      <trkpt lat="43.64136" lon="1.37585">
        <ele>143</ele>
        <time>2025-03-18T17:59:59Z</time>
      </trkpt>
      <trkpt lat="43.64141" lon="1.37586">
        <ele>143</ele>
        <time>2025-03-18T18:00:00Z</time>
      </trkpt>
      <trkpt lat="43.64144" lon="1.37586">
        <ele>143</ele>
        <time>2025-03-18T18:00:01Z</time>
      </trkpt>
      <trkpt lat="43.64146" lon="1.37587">
        <ele>142</ele>
        <time>2025-03-18T18:00:02Z</time>
      </trkpt>
      <trkpt lat="43.64149" lon="1.3759">
        <ele>142</ele>
        <time>2025-03-18T18:00:03Z</time>
      </trkpt>
      <trkpt lat="43.64151" lon="1.37592">
        <ele>142</ele>
        <time>2025-03-18T18:00:04Z</time>
      </trkpt>
      <trkpt lat="43.64152" lon="1.37593">
        <ele>143</ele>
        <time>2025-03-18T18:00:05Z</time>
      </trkpt>
      <trkpt lat="43.64154" lon="1.37597">
        <ele>143</ele>
        <time>2025-03-18T18:00:06Z</time>
      </trkpt>
      <trkpt lat="43.64155" lon="1.37598">
        <ele>143</ele>
        <time>2025-03-18T18:00:07Z</time>
      </trkpt>
      <trkpt lat="43.64156" lon="1.37601">
        <ele>143</ele>
        <time>2025-03-18T18:00:08Z</time>
      </trkpt>
      <trkpt lat="43.64158" lon="1.37604">
        <ele>143</ele>
        <time>2025-03-18T18:00:09Z</time>
      </trkpt>
      <trkpt lat="43.6416" lon="1.37606">
        <ele>143</ele>
        <time>2025-03-18T18:00:10Z</time>
      </trkpt>
      <trkpt lat="43.64162" lon="1.37609">
        <ele>143</ele>
        <time>2025-03-18T18:00:11Z</time>
      </trkpt>
      <trkpt lat="43.64164" lon="1.37612">
        <ele>143</ele>
        <time>2025-03-18T18:00:12Z</time>
      </trkpt>
      <trkpt lat="43.64165" lon="1.37614">
        <ele>143</ele>
        <time>2025-03-18T18:00:13Z</time>
      </trkpt>
      <trkpt lat="43.64167" lon="1.37617">
        <ele>143</ele>
        <time>2025-03-18T18:00:14Z</time>
      </trkpt>
      <trkpt lat="43.64169" lon="1.37619">
        <ele>143</ele>
        <time>2025-03-18T18:00:16Z</time>
      </trkpt>
      <trkpt lat="43.64171" lon="1.3762">
        <ele>143</ele>
        <time>2025-03-18T18:00:17Z</time>
      </trkpt>
      <trkpt lat="43.64171" lon="1.3762">
        <ele>143</ele>
        <time>2025-03-18T18:00:18Z</time>
      </trkpt>
      <trkpt lat="43.64173" lon="1.3762">
        <ele>143</ele>
        <time>2025-03-18T18:00:19Z</time>
      </trkpt>
      <trkpt lat="43.64173" lon="1.3762">
        <ele>143</ele>
        <time>2025-03-18T18:00:20Z</time>
      </trkpt>
      <trkpt lat="43.64177" lon="1.37623">
        <ele>143</ele>
        <time>2025-03-18T18:00:21Z</time>
      </trkpt>
      <trkpt lat="43.64177" lon="1.37623">
        <ele>143</ele>
        <time>2025-03-18T18:00:22Z</time>
      </trkpt>
      <trkpt lat="43.64179" lon="1.37624">
        <ele>143</ele>
        <time>2025-03-18T18:00:23Z</time>
      </trkpt>
      <trkpt lat="43.64179" lon="1.37624">
        <ele>143</ele>
        <time>2025-03-18T18:00:24Z</time>
      </trkpt>
      <trkpt lat="43.64179" lon="1.37624">
        <ele>143</ele>
        <time>2025-03-18T18:00:25Z</time>
      </trkpt>
      <trkpt lat="43.64185" lon="1.37624">
        <ele>143</ele>
        <time>2025-03-18T18:00:26Z</time>
      </trkpt>
      <trkpt lat="43.64185" lon="1.37624">
        <ele>143</ele>
        <time>2025-03-18T18:00:27Z</time>
      </trkpt>
      <trkpt lat="43.64187" lon="1.37623">
        <ele>142</ele>
        <time>2025-03-18T18:00:28Z</time>
      </trkpt>
      <trkpt lat="43.64189" lon="1.37622">
        <ele>142</ele>
        <time>2025-03-18T18:00:29Z</time>
      </trkpt>
      <trkpt lat="43.64191" lon="1.37621">
        <ele>142</ele>
        <time>2025-03-18T18:00:30Z</time>
      </trkpt>
      <trkpt lat="43.64194" lon="1.37619">
        <ele>142</ele>
        <time>2025-03-18T18:00:32Z</time>
      </trkpt>
      <trkpt lat="43.64194" lon="1.37619">
        <ele>142</ele>
        <time>2025-03-18T18:00:33Z</time>
      </trkpt>
      <trkpt lat="43.64197" lon="1.37617">
        <ele>142</ele>
        <time>2025-03-18T18:00:35Z</time>
      </trkpt>
      <trkpt lat="43.64199" lon="1.37615">
        <ele>142</ele>
        <time>2025-03-18T18:00:36Z</time>
      </trkpt>
      <trkpt lat="43.64199" lon="1.37615">
        <ele>142</ele>
        <time>2025-03-18T18:00:37Z</time>
      </trkpt>
      <trkpt lat="43.64203" lon="1.37613">
        <ele>142</ele>
        <time>2025-03-18T18:00:38Z</time>
      </trkpt>
      <trkpt lat="43.64205" lon="1.37613">
        <ele>142</ele>
        <time>2025-03-18T18:00:39Z</time>
      </trkpt>
      <trkpt lat="43.64205" lon="1.37613">
        <ele>142</ele>
        <time>2025-03-18T18:00:40Z</time>
      </trkpt>
      <trkpt lat="43.64209" lon="1.3761">
        <ele>141</ele>
        <time>2025-03-18T18:00:41Z</time>
      </trkpt>
      <trkpt lat="43.64211" lon="1.37609">
        <ele>141</ele>
        <time>2025-03-18T18:00:42Z</time>
      </trkpt>
      <trkpt lat="43.64213" lon="1.37608">
        <ele>142</ele>
        <time>2025-03-18T18:00:43Z</time>
      </trkpt>
      <trkpt lat="43.64216" lon="1.37607">
        <ele>142</ele>
        <time>2025-03-18T18:00:44Z</time>
      </trkpt>
      <trkpt lat="43.6422" lon="1.37604">
        <ele>142</ele>
        <time>2025-03-18T18:00:45Z</time>
      </trkpt>
      <trkpt lat="43.64221" lon="1.37603">
        <ele>142</ele>
        <time>2025-03-18T18:00:46Z</time>
      </trkpt>
      <trkpt lat="43.64223" lon="1.37602">
        <ele>142</ele>
        <time>2025-03-18T18:00:47Z</time>
      </trkpt>
      <trkpt lat="43.64226" lon="1.37601">
        <ele>142</ele>
        <time>2025-03-18T18:00:48Z</time>
      </trkpt>
      <trkpt lat="43.64228" lon="1.376">
        <ele>142</ele>
        <time>2025-03-18T18:00:49Z</time>
      </trkpt>
      <trkpt lat="43.64231" lon="1.37599">
        <ele>141</ele>
        <time>2025-03-18T18:00:50Z</time>
      </trkpt>
      <trkpt lat="43.64233" lon="1.37598">
        <ele>141</ele>
        <time>2025-03-18T18:00:51Z</time>
      </trkpt>
      <trkpt lat="43.64235" lon="1.37596">
        <ele>142</ele>
        <time>2025-03-18T18:00:52Z</time>
      </trkpt>
      <trkpt lat="43.6424" lon="1.37593">
        <ele>142</ele>
        <time>2025-03-18T18:00:54Z</time>
      </trkpt>
      <trkpt lat="43.64242" lon="1.37591">
        <ele>142</ele>
        <time>2025-03-18T18:00:55Z</time>
      </trkpt>
      <trkpt lat="43.64245" lon="1.3759">
        <ele>142</ele>
        <time>2025-03-18T18:00:56Z</time>
      </trkpt>
      <trkpt lat="43.64245" lon="1.3759">
        <ele>142</ele>
        <time>2025-03-18T18:00:57Z</time>
      </trkpt>
      <trkpt lat="43.64249" lon="1.37587">
        <ele>142</ele>
        <time>2025-03-18T18:00:58Z</time>
      </trkpt>
      <trkpt lat="43.64251" lon="1.37586">
        <ele>142</ele>
        <time>2025-03-18T18:00:59Z</time>
      </trkpt>
      <trkpt lat="43.64253" lon="1.37584">
        <ele>143</ele>
        <time>2025-03-18T18:01:00Z</time>
      </trkpt>
      <trkpt lat="43.64255" lon="1.37583">
        <ele>143</ele>
        <time>2025-03-18T18:01:01Z</time>
      </trkpt>
      <trkpt lat="43.64258" lon="1.37582">
        <ele>143</ele>
        <time>2025-03-18T18:01:02Z</time>
      </trkpt>
      <trkpt lat="43.6426" lon="1.3758">
        <ele>143</ele>
        <time>2025-03-18T18:01:03Z</time>
      </trkpt>
      <trkpt lat="43.6426" lon="1.3758">
        <ele>143</ele>
        <time>2025-03-18T18:01:04Z</time>
      </trkpt>
      <trkpt lat="43.64265" lon="1.37578">
        <ele>143</ele>
        <time>2025-03-18T18:01:05Z</time>
      </trkpt>
      <trkpt lat="43.64267" lon="1.37578">
        <ele>143</ele>
        <time>2025-03-18T18:01:06Z</time>
      </trkpt>
      <trkpt lat="43.6427" lon="1.37578">
        <ele>143</ele>
        <time>2025-03-18T18:01:07Z</time>
      </trkpt>
      <trkpt lat="43.64274" lon="1.37578">
        <ele>143</ele>
        <time>2025-03-18T18:01:08Z</time>
      </trkpt>
      <trkpt lat="43.64277" lon="1.3758">
        <ele>143</ele>
        <time>2025-03-18T18:01:09Z</time>
      </trkpt>
      <trkpt lat="43.6428" lon="1.37583">
        <ele>143</ele>
        <time>2025-03-18T18:01:10Z</time>
      </trkpt>
      <trkpt lat="43.64284" lon="1.3759">
        <ele>143</ele>
        <time>2025-03-18T18:01:12Z</time>
      </trkpt>
      <trkpt lat="43.64285" lon="1.37592">
        <ele>144</ele>
        <time>2025-03-18T18:01:13Z</time>
      </trkpt>
      <trkpt lat="43.64287" lon="1.37597">
        <ele>144</ele>
        <time>2025-03-18T18:01:14Z</time>
      </trkpt>
      <trkpt lat="43.64288" lon="1.37599">
        <ele>144</ele>
        <time>2025-03-18T18:01:15Z</time>
      </trkpt>
      <trkpt lat="43.64289" lon="1.37603">
        <ele>144</ele>
        <time>2025-03-18T18:01:16Z</time>
      </trkpt>
      <trkpt lat="43.6429" lon="1.37605">
        <ele>144</ele>
        <time>2025-03-18T18:01:17Z</time>
      </trkpt>
      <trkpt lat="43.64292" lon="1.3761">
        <ele>144</ele>
        <time>2025-03-18T18:01:18Z</time>
      </trkpt>
      <trkpt lat="43.64293" lon="1.37612">
        <ele>146</ele>
        <time>2025-03-18T18:01:19Z</time>
      </trkpt>
      <trkpt lat="43.64293" lon="1.37612">
        <ele>147</ele>
        <time>2025-03-18T18:01:20Z</time>
      </trkpt>
      <trkpt lat="43.64295" lon="1.37617">
        <ele>147</ele>
        <time>2025-03-18T18:01:21Z</time>
      </trkpt>
      <trkpt lat="43.64297" lon="1.3762">
        <ele>147</ele>
        <time>2025-03-18T18:01:22Z</time>
      </trkpt>
      <trkpt lat="43.64299" lon="1.37625">
        <ele>147</ele>
        <time>2025-03-18T18:01:23Z</time>
      </trkpt>
      <trkpt lat="43.643" lon="1.37627">
        <ele>147</ele>
        <time>2025-03-18T18:01:24Z</time>
      </trkpt>
      <trkpt lat="43.64303" lon="1.37633">
        <ele>147</ele>
        <time>2025-03-18T18:01:25Z</time>
      </trkpt>
      <trkpt lat="43.64303" lon="1.37635">
        <ele>147</ele>
        <time>2025-03-18T18:01:26Z</time>
      </trkpt>
      <trkpt lat="43.64303" lon="1.37635">
        <ele>147</ele>
        <time>2025-03-18T18:01:27Z</time>
      </trkpt>
      <trkpt lat="43.64307" lon="1.37642">
        <ele>146</ele>
        <time>2025-03-18T18:01:28Z</time>
      </trkpt>
      <trkpt lat="43.64309" lon="1.37647">
        <ele>146</ele>
        <time>2025-03-18T18:01:29Z</time>
      </trkpt>
      <trkpt lat="43.64309" lon="1.37649">
        <ele>145</ele>
        <time>2025-03-18T18:01:30Z</time>
      </trkpt>
      <trkpt lat="43.64312" lon="1.37656">
        <ele>144</ele>
        <time>2025-03-18T18:01:32Z</time>
      </trkpt>
      <trkpt lat="43.64314" lon="1.37659">
        <ele>144</ele>
        <time>2025-03-18T18:01:33Z</time>
      </trkpt>
      <trkpt lat="43.64315" lon="1.37663">
        <ele>144</ele>
        <time>2025-03-18T18:01:34Z</time>
      </trkpt>
      <trkpt lat="43.64316" lon="1.37666">
        <ele>144</ele>
        <time>2025-03-18T18:01:35Z</time>
      </trkpt>
      <trkpt lat="43.64317" lon="1.3767">
        <ele>144</ele>
        <time>2025-03-18T18:01:36Z</time>
      </trkpt>
      <trkpt lat="43.64319" lon="1.37674">
        <ele>143</ele>
        <time>2025-03-18T18:01:37Z</time>
      </trkpt>
      <trkpt lat="43.64321" lon="1.37679">
        <ele>143</ele>
        <time>2025-03-18T18:01:38Z</time>
      </trkpt>
      <trkpt lat="43.64321" lon="1.37681">
        <ele>142</ele>
        <time>2025-03-18T18:01:39Z</time>
      </trkpt>
      <trkpt lat="43.64324" lon="1.37686">
        <ele>142</ele>
        <time>2025-03-18T18:01:40Z</time>
      </trkpt>
      <trkpt lat="43.64324" lon="1.37687">
        <ele>142</ele>
        <time>2025-03-18T18:01:41Z</time>
      </trkpt>
      <trkpt lat="43.64326" lon="1.37693">
        <ele>142</ele>
        <time>2025-03-18T18:01:43Z</time>
      </trkpt>
      <trkpt lat="43.64327" lon="1.37696">
        <ele>142</ele>
        <time>2025-03-18T18:01:44Z</time>
      </trkpt>
      <trkpt lat="43.64328" lon="1.37701">
        <ele>142</ele>
        <time>2025-03-18T18:01:45Z</time>
      </trkpt>
      <trkpt lat="43.64329" lon="1.37703">
        <ele>141</ele>
        <time>2025-03-18T18:01:46Z</time>
      </trkpt>
      <trkpt lat="43.64331" lon="1.37709">
        <ele>141</ele>
        <time>2025-03-18T18:01:47Z</time>
      </trkpt>
      <trkpt lat="43.64331" lon="1.37711">
        <ele>141</ele>
        <time>2025-03-18T18:01:48Z</time>
      </trkpt>
      <trkpt lat="43.64332" lon="1.37714">
        <ele>142</ele>
        <time>2025-03-18T18:01:49Z</time>
      </trkpt>
      <trkpt lat="43.64333" lon="1.37717">
        <ele>142</ele>
        <time>2025-03-18T18:01:50Z</time>
      </trkpt>
      <trkpt lat="43.64333" lon="1.37717">
        <ele>143</ele>
        <time>2025-03-18T18:01:51Z</time>
      </trkpt>
      <trkpt lat="43.64335" lon="1.3772">
        <ele>143</ele>
        <time>2025-03-18T18:01:52Z</time>
      </trkpt>
      <trkpt lat="43.64335" lon="1.3772">
        <ele>143</ele>
        <time>2025-03-18T18:01:53Z</time>
      </trkpt>
      <trkpt lat="43.64334" lon="1.37725">
        <ele>142</ele>
        <time>2025-03-18T18:01:54Z</time>
      </trkpt>
      <trkpt lat="43.64332" lon="1.37728">
        <ele>143</ele>
        <time>2025-03-18T18:01:55Z</time>
      </trkpt>
      <trkpt lat="43.64331" lon="1.37729">
        <ele>143</ele>
        <time>2025-03-18T18:01:56Z</time>
      </trkpt>
      <trkpt lat="43.6433" lon="1.37731">
        <ele>142</ele>
        <time>2025-03-18T18:01:57Z</time>
      </trkpt>
      <trkpt lat="43.64329" lon="1.37733">
        <ele>142</ele>
        <time>2025-03-18T18:01:58Z</time>
      </trkpt>
      <trkpt lat="43.64328" lon="1.37734">
        <ele>142</ele>
        <time>2025-03-18T18:01:59Z</time>
      </trkpt>
      <trkpt lat="43.64325" lon="1.37741">
        <ele>142</ele>
        <time>2025-03-18T18:02:00Z</time>
      </trkpt>
      <trkpt lat="43.64324" lon="1.37744">
        <ele>142</ele>
        <time>2025-03-18T18:02:01Z</time>
      </trkpt>
      <trkpt lat="43.64325" lon="1.37749">
        <ele>142</ele>
        <time>2025-03-18T18:02:02Z</time>
      </trkpt>
      <trkpt lat="43.64325" lon="1.37751">
        <ele>142</ele>
        <time>2025-03-18T18:02:03Z</time>
      </trkpt>
      <trkpt lat="43.64327" lon="1.37754">
        <ele>142</ele>
        <time>2025-03-18T18:02:04Z</time>
      </trkpt>
      <trkpt lat="43.64329" lon="1.37756">
        <ele>142</ele>
        <time>2025-03-18T18:02:05Z</time>
      </trkpt>
      <trkpt lat="43.6433" lon="1.37758">
        <ele>142</ele>
        <time>2025-03-18T18:02:06Z</time>
      </trkpt>
      <trkpt lat="43.64332" lon="1.37761">
        <ele>142</ele>
        <time>2025-03-18T18:02:07Z</time>
      </trkpt>
      <trkpt lat="43.64336" lon="1.37765">
        <ele>141</ele>
        <time>2025-03-18T18:02:09Z</time>
      </trkpt>
      <trkpt lat="43.64336" lon="1.37765">
        <ele>140</ele>
        <time>2025-03-18T18:02:10Z</time>
      </trkpt>
      <trkpt lat="43.64339" lon="1.3777">
        <ele>140</ele>
        <time>2025-03-18T18:02:11Z</time>
      </trkpt>
      <trkpt lat="43.64339" lon="1.3777">
        <ele>139</ele>
        <time>2025-03-18T18:02:12Z</time>
      </trkpt>
      <trkpt lat="43.64342" lon="1.37776">
        <ele>139</ele>
        <time>2025-03-18T18:02:13Z</time>
      </trkpt>
      <trkpt lat="43.64343" lon="1.37778">
        <ele>139</ele>
        <time>2025-03-18T18:02:14Z</time>
      </trkpt>
      <trkpt lat="43.64344" lon="1.37781">
        <ele>140</ele>
        <time>2025-03-18T18:02:15Z</time>
      </trkpt>
      <trkpt lat="43.64346" lon="1.37784">
        <ele>141</ele>
        <time>2025-03-18T18:02:16Z</time>
      </trkpt>
      <trkpt lat="43.64347" lon="1.37787">
        <ele>141</ele>
        <time>2025-03-18T18:02:17Z</time>
      </trkpt>
      <trkpt lat="43.64348" lon="1.3779">
        <ele>141</ele>
        <time>2025-03-18T18:02:18Z</time>
      </trkpt>
      <trkpt lat="43.64348" lon="1.3779">
        <ele>141</ele>
        <time>2025-03-18T18:02:19Z</time>
      </trkpt>
      <trkpt lat="43.64351" lon="1.37795">
        <ele>141</ele>
        <time>2025-03-18T18:02:20Z</time>
      </trkpt>
      <trkpt lat="43.64353" lon="1.37797">
        <ele>141</ele>
        <time>2025-03-18T18:02:21Z</time>
      </trkpt>
      <trkpt lat="43.64356" lon="1.37798">
        <ele>141</ele>
        <time>2025-03-18T18:02:22Z</time>
      </trkpt>
      <trkpt lat="43.64358" lon="1.37799">
        <ele>141</ele>
        <time>2025-03-18T18:02:23Z</time>
      </trkpt>
      <trkpt lat="43.6436" lon="1.37799">
        <ele>140</ele>
        <time>2025-03-18T18:02:24Z</time>
      </trkpt>
      <trkpt lat="43.64363" lon="1.378">
        <ele>140</ele>
        <time>2025-03-18T18:02:25Z</time>
      </trkpt>
      <trkpt lat="43.64365" lon="1.378">
        <ele>140</ele>
        <time>2025-03-18T18:02:26Z</time>
      </trkpt>
      <trkpt lat="43.64367" lon="1.37801">
        <ele>141</ele>
        <time>2025-03-18T18:02:27Z</time>
      </trkpt>
      <trkpt lat="43.64373" lon="1.37802">
        <ele>141</ele>
        <time>2025-03-18T18:02:29Z</time>
      </trkpt>
      <trkpt lat="43.64374" lon="1.37802">
        <ele>141</ele>
        <time>2025-03-18T18:02:30Z</time>
      </trkpt>
      <trkpt lat="43.64377" lon="1.37802">
        <ele>141</ele>
        <time>2025-03-18T18:02:31Z</time>
      </trkpt>
      <trkpt lat="43.64379" lon="1.37803">
        <ele>141</ele>
        <time>2025-03-18T18:02:32Z</time>
      </trkpt>
      <trkpt lat="43.64382" lon="1.37803">
        <ele>141</ele>
        <time>2025-03-18T18:02:33Z</time>
      </trkpt>
      <trkpt lat="43.64386" lon="1.37804">
        <ele>141</ele>
        <time>2025-03-18T18:02:34Z</time>
      </trkpt>
      <trkpt lat="43.64387" lon="1.37804">
        <ele>140</ele>
        <time>2025-03-18T18:02:35Z</time>
      </trkpt>
      <trkpt lat="43.6439" lon="1.37804">
        <ele>140</ele>
        <time>2025-03-18T18:02:36Z</time>
      </trkpt>
      <trkpt lat="43.64392" lon="1.37804">
        <ele>140</ele>
        <time>2025-03-18T18:02:37Z</time>
      </trkpt>
      <trkpt lat="43.64395" lon="1.37805">
        <ele>140</ele>
        <time>2025-03-18T18:02:38Z</time>
      </trkpt>
      <trkpt lat="43.64398" lon="1.37805">
        <ele>140</ele>
        <time>2025-03-18T18:02:39Z</time>
      </trkpt>
      <trkpt lat="43.644" lon="1.37805">
        <ele>140</ele>
        <time>2025-03-18T18:02:40Z</time>
      </trkpt>
      <trkpt lat="43.64404" lon="1.37806">
        <ele>140</ele>
        <time>2025-03-18T18:02:41Z</time>
      </trkpt>
      <trkpt lat="43.64405" lon="1.37806">
        <ele>140</ele>
        <time>2025-03-18T18:02:42Z</time>
      </trkpt>
      <trkpt lat="43.64408" lon="1.37806">
        <ele>139</ele>
        <time>2025-03-18T18:02:43Z</time>
      </trkpt>
      <trkpt lat="43.6441" lon="1.37807">
        <ele>139</ele>
        <time>2025-03-18T18:02:44Z</time>
      </trkpt>
      <trkpt lat="43.64413" lon="1.37807">
        <ele>139</ele>
        <time>2025-03-18T18:02:45Z</time>
      </trkpt>
      <trkpt lat="43.64415" lon="1.37808">
        <ele>139</ele>
        <time>2025-03-18T18:02:46Z</time>
      </trkpt>
      <trkpt lat="43.64421" lon="1.37809">
        <ele>138</ele>
        <time>2025-03-18T18:02:48Z</time>
      </trkpt>
      <trkpt lat="43.64422" lon="1.37809">
        <ele>138</ele>
        <time>2025-03-18T18:02:49Z</time>
      </trkpt>
      <trkpt lat="43.64425" lon="1.3781">
        <ele>138</ele>
        <time>2025-03-18T18:02:50Z</time>
      </trkpt>
      <trkpt lat="43.64427" lon="1.37811">
        <ele>138</ele>
        <time>2025-03-18T18:02:51Z</time>
      </trkpt>
      <trkpt lat="43.64427" lon="1.37811">
        <ele>138</ele>
        <time>2025-03-18T18:02:52Z</time>
      </trkpt>
      <trkpt lat="43.64431" lon="1.37814">
        <ele>139</ele>
        <time>2025-03-18T18:02:53Z</time>
      </trkpt>
      <trkpt lat="43.64433" lon="1.37815">
        <ele>139</ele>
        <time>2025-03-18T18:02:54Z</time>
      </trkpt>
      <trkpt lat="43.64435" lon="1.37816">
        <ele>139</ele>
        <time>2025-03-18T18:02:55Z</time>
      </trkpt>
      <trkpt lat="43.64435" lon="1.37816">
        <ele>139</ele>
        <time>2025-03-18T18:02:56Z</time>
      </trkpt>
      <trkpt lat="43.64438" lon="1.37817">
        <ele>139</ele>
        <time>2025-03-18T18:02:57Z</time>
      </trkpt>
      <trkpt lat="43.6444" lon="1.37818">
        <ele>139</ele>
        <time>2025-03-18T18:02:58Z</time>
      </trkpt>
      <trkpt lat="43.6444" lon="1.37818">
        <ele>139</ele>
        <time>2025-03-18T18:02:59Z</time>
      </trkpt>
      <trkpt lat="43.64442" lon="1.37819">
        <ele>139</ele>
        <time>2025-03-18T18:03:00Z</time>
      </trkpt>
      <trkpt lat="43.64442" lon="1.37819">
        <ele>139</ele>
        <time>2025-03-18T18:03:01Z</time>
      </trkpt>
      <trkpt lat="43.64445" lon="1.37821">
        <ele>139</ele>
        <time>2025-03-18T18:03:02Z</time>
      </trkpt>
      <trkpt lat="43.64448" lon="1.37824">
        <ele>139</ele>
        <time>2025-03-18T18:03:03Z</time>
      </trkpt>
      <trkpt lat="43.6445" lon="1.37826">
        <ele>139</ele>
        <time>2025-03-18T18:03:04Z</time>
      </trkpt>
      <trkpt lat="43.6445" lon="1.37826">
        <ele>139</ele>
        <time>2025-03-18T18:03:05Z</time>
      </trkpt>
      <trkpt lat="43.64459" lon="1.37835">
        <ele>139</ele>
        <time>2025-03-18T18:03:07Z</time>
      </trkpt>
      <trkpt lat="43.64462" lon="1.37837">
        <ele>138</ele>
        <time>2025-03-18T18:03:08Z</time>
      </trkpt>
      <trkpt lat="43.64464" lon="1.37839">
        <ele>138</ele>
        <time>2025-03-18T18:03:09Z</time>
      </trkpt>
      <trkpt lat="43.64466" lon="1.37841">
        <ele>138</ele>
        <time>2025-03-18T18:03:10Z</time>
      </trkpt>
      <trkpt lat="43.64469" lon="1.37843">
        <ele>138</ele>
        <time>2025-03-18T18:03:11Z</time>
      </trkpt>
      <trkpt lat="43.64471" lon="1.37845">
        <ele>138</ele>
        <time>2025-03-18T18:03:12Z</time>
      </trkpt>
      <trkpt lat="43.64476" lon="1.37848">
        <ele>138</ele>
        <time>2025-03-18T18:03:13Z</time>
      </trkpt>
      <trkpt lat="43.64477" lon="1.37849">
        <ele>138</ele>
        <time>2025-03-18T18:03:14Z</time>
      </trkpt>
      <trkpt lat="43.64479" lon="1.3785">
        <ele>138</ele>
        <time>2025-03-18T18:03:15Z</time>
      </trkpt>
      <trkpt lat="43.64481" lon="1.37851">
        <ele>139</ele>
        <time>2025-03-18T18:03:16Z</time>
      </trkpt>
      <trkpt lat="43.64483" lon="1.37853">
        <ele>139</ele>
        <time>2025-03-18T18:03:17Z</time>
      </trkpt>
      <trkpt lat="43.64486" lon="1.37854">
        <ele>139</ele>
        <time>2025-03-18T18:03:18Z</time>
      </trkpt>
      <trkpt lat="43.64488" lon="1.37855">
        <ele>139</ele>
        <time>2025-03-18T18:03:19Z</time>
      </trkpt>
      <trkpt lat="43.64491" lon="1.37856">
        <ele>139</ele>
        <time>2025-03-18T18:03:20Z</time>
      </trkpt>
      <trkpt lat="43.64493" lon="1.37857">
        <ele>140</ele>
        <time>2025-03-18T18:03:21Z</time>
      </trkpt>
      <trkpt lat="43.64493" lon="1.37857">
        <ele>140</ele>
        <time>2025-03-18T18:03:22Z</time>
      </trkpt>
      <trkpt lat="43.64498" lon="1.37859">
        <ele>140</ele>
        <time>2025-03-18T18:03:23Z</time>
      </trkpt>
      <trkpt lat="43.645" lon="1.37861">
        <ele>140</ele>
        <time>2025-03-18T18:03:24Z</time>
      </trkpt>
      <trkpt lat="43.64504" lon="1.37864">
        <ele>141</ele>
        <time>2025-03-18T18:03:26Z</time>
      </trkpt>
      <trkpt lat="43.64504" lon="1.37864">
        <ele>141</ele>
        <time>2025-03-18T18:03:27Z</time>
      </trkpt>
      <trkpt lat="43.64508" lon="1.37868">
        <ele>140</ele>
        <time>2025-03-18T18:03:28Z</time>
      </trkpt>
      <trkpt lat="43.64513" lon="1.3787">
        <ele>140</ele>
        <time>2025-03-18T18:03:30Z</time>
      </trkpt>
      <trkpt lat="43.64517" lon="1.37872">
        <ele>140</ele>
        <time>2025-03-18T18:03:31Z</time>
      </trkpt>
      <trkpt lat="43.64518" lon="1.37872">
        <ele>140</ele>
        <time>2025-03-18T18:03:32Z</time>
      </trkpt>
      <trkpt lat="43.64518" lon="1.37872">
        <ele>140</ele>
        <time>2025-03-18T18:03:33Z</time>
      </trkpt>
      <trkpt lat="43.64523" lon="1.37872">
        <ele>140</ele>
        <time>2025-03-18T18:03:34Z</time>
      </trkpt>
      <trkpt lat="43.64525" lon="1.37872">
        <ele>140</ele>
        <time>2025-03-18T18:03:35Z</time>
      </trkpt>
      <trkpt lat="43.64525" lon="1.37872">
        <ele>140</ele>
        <time>2025-03-18T18:03:36Z</time>
      </trkpt>
      <trkpt lat="43.64531" lon="1.37872">
        <ele>140</ele>
        <time>2025-03-18T18:03:37Z</time>
      </trkpt>
      <trkpt lat="43.64536" lon="1.3787">
        <ele>139</ele>
        <time>2025-03-18T18:03:39Z</time>
      </trkpt>
      <trkpt lat="43.64538" lon="1.3787">
        <ele>139</ele>
        <time>2025-03-18T18:03:40Z</time>
      </trkpt>
      <trkpt lat="43.64541" lon="1.37869">
        <ele>139</ele>
        <time>2025-03-18T18:03:41Z</time>
      </trkpt>
      <trkpt lat="43.64543" lon="1.37868">
        <ele>139</ele>
        <time>2025-03-18T18:03:42Z</time>
      </trkpt>
      <trkpt lat="43.64546" lon="1.37868">
        <ele>139</ele>
        <time>2025-03-18T18:03:43Z</time>
      </trkpt>
      <trkpt lat="43.6455" lon="1.37866">
        <ele>139</ele>
        <time>2025-03-18T18:03:44Z</time>
      </trkpt>
      <trkpt lat="43.64552" lon="1.37866">
        <ele>139</ele>
        <time>2025-03-18T18:03:45Z</time>
      </trkpt>
      <trkpt lat="43.64554" lon="1.37865">
        <ele>139</ele>
        <time>2025-03-18T18:03:46Z</time>
      </trkpt>
      <trkpt lat="43.64556" lon="1.37864">
        <ele>139</ele>
        <time>2025-03-18T18:03:47Z</time>
      </trkpt>
      <trkpt lat="43.64559" lon="1.37864">
        <ele>139</ele>
        <time>2025-03-18T18:03:48Z</time>
      </trkpt>
      <trkpt lat="43.64561" lon="1.37864">
        <ele>139</ele>
        <time>2025-03-18T18:03:49Z</time>
      </trkpt>
      <trkpt lat="43.64564" lon="1.37864">
        <ele>139</ele>
        <time>2025-03-18T18:03:50Z</time>
      </trkpt>
      <trkpt lat="43.64567" lon="1.37864">
        <ele>139</ele>
        <time>2025-03-18T18:03:51Z</time>
      </trkpt>
      <trkpt lat="43.64569" lon="1.37864">
        <ele>139</ele>
        <time>2025-03-18T18:03:52Z</time>
      </trkpt>
      <trkpt lat="43.64569" lon="1.37864">
        <ele>139</ele>
        <time>2025-03-18T18:03:53Z</time>
      </trkpt>
      <trkpt lat="43.64574" lon="1.37863">
        <ele>139</ele>
        <time>2025-03-18T18:03:54Z</time>
      </trkpt>
      <trkpt lat="43.64576" lon="1.37863">
        <ele>139</ele>
        <time>2025-03-18T18:03:55Z</time>
      </trkpt>
      <trkpt lat="43.6458" lon="1.37863">
        <ele>139</ele>
        <time>2025-03-18T18:03:56Z</time>
      </trkpt>
      <trkpt lat="43.64581" lon="1.37863">
        <ele>139</ele>
        <time>2025-03-18T18:03:57Z</time>
      </trkpt>
      <trkpt lat="43.64584" lon="1.37863">
        <ele>139</ele>
        <time>2025-03-18T18:03:58Z</time>
      </trkpt>
      <trkpt lat="43.64586" lon="1.37862">
        <ele>139</ele>
        <time>2025-03-18T18:03:59Z</time>
      </trkpt>
      <trkpt lat="43.64588" lon="1.37862">
        <ele>139</ele>
        <time>2025-03-18T18:04:00Z</time>
      </trkpt>
      <trkpt lat="43.64591" lon="1.37863">
        <ele>139</ele>
        <time>2025-03-18T18:04:01Z</time>
      </trkpt>
      <trkpt lat="43.64593" lon="1.37864">
        <ele>139</ele>
        <time>2025-03-18T18:04:02Z</time>
      </trkpt>
      <trkpt lat="43.64597" lon="1.37868">
        <ele>139</ele>
        <time>2025-03-18T18:04:04Z</time>
      </trkpt>
      <trkpt lat="43.64597" lon="1.37872">
        <ele>140</ele>
        <time>2025-03-18T18:04:05Z</time>
      </trkpt>
      <trkpt lat="43.64597" lon="1.37875">
        <ele>140</ele>
        <time>2025-03-18T18:04:06Z</time>
      </trkpt>
      <trkpt lat="43.64596" lon="1.37878">
        <ele>140</ele>
        <time>2025-03-18T18:04:07Z</time>
      </trkpt>
      <trkpt lat="43.64596" lon="1.37881">
        <ele>140</ele>
        <time>2025-03-18T18:04:08Z</time>
      </trkpt>
      <trkpt lat="43.64594" lon="1.37887">
        <ele>140</ele>
        <time>2025-03-18T18:04:10Z</time>
      </trkpt>
      <trkpt lat="43.64593" lon="1.37893">
        <ele>140</ele>
        <time>2025-03-18T18:04:12Z</time>
      </trkpt>
      <trkpt lat="43.64593" lon="1.37893">
        <ele>140</ele>
        <time>2025-03-18T18:04:13Z</time>
      </trkpt>
      <trkpt lat="43.64591" lon="1.379">
        <ele>139</ele>
        <time>2025-03-18T18:04:14Z</time>
      </trkpt>
      <trkpt lat="43.6459" lon="1.37903">
        <ele>139</ele>
        <time>2025-03-18T18:04:15Z</time>
      </trkpt>
      <trkpt lat="43.64588" lon="1.37908">
        <ele>139</ele>
        <time>2025-03-18T18:04:16Z</time>
      </trkpt>
      <trkpt lat="43.64588" lon="1.3791">
        <ele>139</ele>
        <time>2025-03-18T18:04:17Z</time>
      </trkpt>
      <trkpt lat="43.64587" lon="1.37913">
        <ele>139</ele>
        <time>2025-03-18T18:04:18Z</time>
      </trkpt>
      <trkpt lat="43.64586" lon="1.37916">
        <ele>138</ele>
        <time>2025-03-18T18:04:19Z</time>
      </trkpt>
      <trkpt lat="43.64586" lon="1.37916">
        <ele>138</ele>
        <time>2025-03-18T18:04:20Z</time>
      </trkpt>
      <trkpt lat="43.64583" lon="1.37923">
        <ele>138</ele>
        <time>2025-03-18T18:04:21Z</time>
      </trkpt>
      <trkpt lat="43.64582" lon="1.37928">
        <ele>138</ele>
        <time>2025-03-18T18:04:22Z</time>
      </trkpt>
      <trkpt lat="43.64581" lon="1.3793">
        <ele>138</ele>
        <time>2025-03-18T18:04:23Z</time>
      </trkpt>
      <trkpt lat="43.6458" lon="1.37933">
        <ele>138</ele>
        <time>2025-03-18T18:04:24Z</time>
      </trkpt>
      <trkpt lat="43.64578" lon="1.37936">
        <ele>139</ele>
        <time>2025-03-18T18:04:25Z</time>
      </trkpt>
      <trkpt lat="43.64577" lon="1.37938">
        <ele>139</ele>
        <time>2025-03-18T18:04:26Z</time>
      </trkpt>
      <trkpt lat="43.64575" lon="1.37941">
        <ele>139</ele>
        <time>2025-03-18T18:04:27Z</time>
      </trkpt>
      <trkpt lat="43.64574" lon="1.37945">
        <ele>139</ele>
        <time>2025-03-18T18:04:28Z</time>
      </trkpt>
      <trkpt lat="43.64573" lon="1.37948">
        <ele>139</ele>
        <time>2025-03-18T18:04:29Z</time>
      </trkpt>
      <trkpt lat="43.64571" lon="1.37951">
        <ele>139</ele>
        <time>2025-03-18T18:04:30Z</time>
      </trkpt>
      <trkpt lat="43.6457" lon="1.37954">
        <ele>140</ele>
        <time>2025-03-18T18:04:31Z</time>
      </trkpt>
      <trkpt lat="43.64568" lon="1.37958">
        <ele>140</ele>
        <time>2025-03-18T18:04:32Z</time>
      </trkpt>
      <trkpt lat="43.64567" lon="1.37961">
        <ele>140</ele>
        <time>2025-03-18T18:04:33Z</time>
      </trkpt>
      <trkpt lat="43.64566" lon="1.37964">
        <ele>140</ele>
        <time>2025-03-18T18:04:34Z</time>
      </trkpt>
      <trkpt lat="43.64564" lon="1.37968">
        <ele>140</ele>
        <time>2025-03-18T18:04:35Z</time>
      </trkpt>
      <trkpt lat="43.64563" lon="1.37971">
        <ele>140</ele>
        <time>2025-03-18T18:04:36Z</time>
      </trkpt>
      <trkpt lat="43.64561" lon="1.37973">
        <ele>140</ele>
        <time>2025-03-18T18:04:37Z</time>
      </trkpt>
      <trkpt lat="43.64561" lon="1.37973">
        <ele>140</ele>
        <time>2025-03-18T18:04:38Z</time>
      </trkpt>
      <trkpt lat="43.64557" lon="1.37978">
        <ele>140</ele>
        <time>2025-03-18T18:04:39Z</time>
      </trkpt>
      <trkpt lat="43.64555" lon="1.3798">
        <ele>140</ele>
        <time>2025-03-18T18:04:40Z</time>
      </trkpt>
      <trkpt lat="43.64552" lon="1.37982">
        <ele>140</ele>
        <time>2025-03-18T18:04:41Z</time>
      </trkpt>
      <trkpt lat="43.6455" lon="1.37984">
        <ele>140</ele>
        <time>2025-03-18T18:04:42Z</time>
      </trkpt>
      <trkpt lat="43.64548" lon="1.37985">
        <ele>140</ele>
        <time>2025-03-18T18:04:43Z</time>
      </trkpt>
      <trkpt lat="43.64546" lon="1.37986">
        <ele>140</ele>
        <time>2025-03-18T18:04:44Z</time>
      </trkpt>
      <trkpt lat="43.64544" lon="1.37988">
        <ele>140</ele>
        <time>2025-03-18T18:04:45Z</time>
      </trkpt>
      <trkpt lat="43.64539" lon="1.37986">
        <ele>140</ele>
        <time>2025-03-18T18:04:46Z</time>
      </trkpt>
      <trkpt lat="43.64535" lon="1.37984">
        <ele>140</ele>
        <time>2025-03-18T18:04:47Z</time>
      </trkpt>
      <trkpt lat="43.6453" lon="1.37981">
        <ele>142</ele>
        <time>2025-03-18T18:17:14Z</time>
      </trkpt>
      <trkpt lat="43.64526" lon="1.37979">
        <ele>143</ele>
        <time>2025-03-18T18:17:15Z</time>
      </trkpt>
      <trkpt lat="43.64521" lon="1.37977">
        <ele>143</ele>
        <time>2025-03-18T18:17:16Z</time>
      </trkpt>
      <trkpt lat="43.64517" lon="1.37975">
        <ele>143</ele>
        <time>2025-03-18T18:17:17Z</time>
      </trkpt>
      <trkpt lat="43.64512" lon="1.37973">
        <ele>143</ele>
        <time>2025-03-18T18:17:18Z</time>
      </trkpt>
      <trkpt lat="43.64507" lon="1.37971">
        <ele>143</ele>
        <time>2025-03-18T18:17:19Z</time>
      </trkpt>
      <trkpt lat="43.64503" lon="1.37968">
        <ele>142</ele>
        <time>2025-03-18T18:17:20Z</time>
      </trkpt>
      <trkpt lat="43.64498" lon="1.37966">
        <ele>142</ele>
        <time>2025-03-18T18:17:21Z</time>
      </trkpt>
      <trkpt lat="43.64494" lon="1.37964">
        <ele>142</ele>
        <time>2025-03-18T18:17:22Z</time>
      </trkpt>
      <trkpt lat="43.64501" lon="1.37969">
        <ele>142</ele>
        <time>2025-03-18T18:17:24Z</time>
      </trkpt>
      <trkpt lat="43.64505" lon="1.37971">
        <ele>142</ele>
        <time>2025-03-18T18:17:25Z</time>
      </trkpt>
      <trkpt lat="43.64508" lon="1.37973">
        <ele>143</ele>
        <time>2025-03-18T18:17:26Z</time>
      </trkpt>
      <trkpt lat="43.64514" lon="1.37977">
        <ele>143</ele>
        <time>2025-03-18T18:17:27Z</time>
      </trkpt>
      <trkpt lat="43.64516" lon="1.37978">
        <ele>143</ele>
        <time>2025-03-18T18:17:28Z</time>
      </trkpt>
      <trkpt lat="43.6452" lon="1.37981">
        <ele>143</ele>
        <time>2025-03-18T18:17:29Z</time>
      </trkpt>
      <trkpt lat="43.64524" lon="1.37983">
        <ele>143</ele>
        <time>2025-03-18T18:17:30Z</time>
      </trkpt>
      <trkpt lat="43.64529" lon="1.37986">
        <ele>143</ele>
        <time>2025-03-18T18:17:31Z</time>
      </trkpt>
      <trkpt lat="43.64531" lon="1.37986">
        <ele>143</ele>
        <time>2025-03-18T18:17:32Z</time>
      </trkpt>
      <trkpt lat="43.64534" lon="1.37987">
        <ele>143</ele>
        <time>2025-03-18T18:17:33Z</time>
      </trkpt>
      <trkpt lat="43.64537" lon="1.37987">
        <ele>143</ele>
        <time>2025-03-18T18:17:34Z</time>
      </trkpt>
      <trkpt lat="43.64545" lon="1.37986">
        <ele>143</ele>
        <time>2025-03-18T18:17:35Z</time>
      </trkpt>
      <trkpt lat="43.64549" lon="1.37984">
        <ele>143</ele>
        <time>2025-03-18T18:17:36Z</time>
      </trkpt>
      <trkpt lat="43.64553" lon="1.37981">
        <ele>142</ele>
        <time>2025-03-18T18:17:37Z</time>
      </trkpt>
      <trkpt lat="43.64556" lon="1.37978">
        <ele>142</ele>
        <time>2025-03-18T18:17:38Z</time>
      </trkpt>
      <trkpt lat="43.64559" lon="1.37975">
        <ele>142</ele>
        <time>2025-03-18T18:17:39Z</time>
      </trkpt>
      <trkpt lat="43.64561" lon="1.37973">
        <ele>142</ele>
        <time>2025-03-18T18:17:40Z</time>
      </trkpt>
      <trkpt lat="43.64562" lon="1.37971">
        <ele>141</ele>
        <time>2025-03-18T18:17:41Z</time>
      </trkpt>
      <trkpt lat="43.64564" lon="1.37966">
        <ele>141</ele>
        <time>2025-03-18T18:17:42Z</time>
      </trkpt>
      <trkpt lat="43.64566" lon="1.37961">
        <ele>141</ele>
        <time>2025-03-18T18:17:43Z</time>
      </trkpt>
      <trkpt lat="43.64568" lon="1.37957">
        <ele>142</ele>
        <time>2025-03-18T18:17:44Z</time>
      </trkpt>
      <trkpt lat="43.64568" lon="1.37949">
        <ele>142</ele>
        <time>2025-03-18T18:17:45Z</time>
      </trkpt>
      <trkpt lat="43.64568" lon="1.37942">
        <ele>142</ele>
        <time>2025-03-18T18:17:46Z</time>
      </trkpt>
      <trkpt lat="43.64568" lon="1.37934">
        <ele>143</ele>
        <time>2025-03-18T18:17:47Z</time>
      </trkpt>
      <trkpt lat="43.64566" lon="1.37924">
        <ele>143</ele>
        <time>2025-03-18T18:17:49Z</time>
      </trkpt>
      <trkpt lat="43.64564" lon="1.3792">
        <ele>143</ele>
        <time>2025-03-18T18:17:50Z</time>
      </trkpt>
      <trkpt lat="43.6456" lon="1.37914">
        <ele>142</ele>
        <time>2025-03-18T18:17:51Z</time>
      </trkpt>
      <trkpt lat="43.64558" lon="1.37912">
        <ele>142</ele>
        <time>2025-03-18T18:17:52Z</time>
      </trkpt>
      <trkpt lat="43.64557" lon="1.3791">
        <ele>141</ele>
        <time>2025-03-18T18:17:53Z</time>
      </trkpt>
      <trkpt lat="43.64554" lon="1.37907">
        <ele>141</ele>
        <time>2025-03-18T18:17:54Z</time>
      </trkpt>
      <trkpt lat="43.6455" lon="1.37905">
        <ele>141</ele>
        <time>2025-03-18T18:17:55Z</time>
      </trkpt>
      <trkpt lat="43.6455" lon="1.37905">
        <ele>141</ele>
        <time>2025-03-18T18:17:56Z</time>
      </trkpt>
      <trkpt lat="43.64541" lon="1.37901">
        <ele>141</ele>
        <time>2025-03-18T18:17:57Z</time>
      </trkpt>
      <trkpt lat="43.64539" lon="1.379">
        <ele>141</ele>
        <time>2025-03-18T18:17:58Z</time>
      </trkpt>
      <trkpt lat="43.64536" lon="1.37898">
        <ele>141</ele>
        <time>2025-03-18T18:17:59Z</time>
      </trkpt>
      <trkpt lat="43.64532" lon="1.37896">
        <ele>141</ele>
        <time>2025-03-18T18:18:00Z</time>
      </trkpt>
      <trkpt lat="43.64529" lon="1.37894">
        <ele>141</ele>
        <time>2025-03-18T18:18:01Z</time>
      </trkpt>
      <trkpt lat="43.64524" lon="1.3789">
        <ele>141</ele>
        <time>2025-03-18T18:18:02Z</time>
      </trkpt>
      <trkpt lat="43.64522" lon="1.37889">
        <ele>141</ele>
        <time>2025-03-18T18:18:03Z</time>
      </trkpt>
      <trkpt lat="43.64518" lon="1.37887">
        <ele>140</ele>
        <time>2025-03-18T18:18:04Z</time>
      </trkpt>
      <trkpt lat="43.64515" lon="1.37885">
        <ele>141</ele>
        <time>2025-03-18T18:18:05Z</time>
      </trkpt>
      <trkpt lat="43.64511" lon="1.37882">
        <ele>141</ele>
        <time>2025-03-18T18:18:06Z</time>
      </trkpt>
      <trkpt lat="43.64508" lon="1.3788">
        <ele>140</ele>
        <time>2025-03-18T18:18:07Z</time>
      </trkpt>
      <trkpt lat="43.64508" lon="1.3788">
        <ele>140</ele>
        <time>2025-03-18T18:18:08Z</time>
      </trkpt>
      <trkpt lat="43.64501" lon="1.37874">
        <ele>140</ele>
        <time>2025-03-18T18:18:09Z</time>
      </trkpt>
      <trkpt lat="43.64497" lon="1.37871">
        <ele>140</ele>
        <time>2025-03-18T18:18:10Z</time>
      </trkpt>
      <trkpt lat="43.6449" lon="1.37869">
        <ele>141</ele>
        <time>2025-03-18T18:18:12Z</time>
      </trkpt>
      <trkpt lat="43.64485" lon="1.37869">
        <ele>141</ele>
        <time>2025-03-18T18:18:13Z</time>
      </trkpt>
      <trkpt lat="43.64482" lon="1.37871">
        <ele>140</ele>
        <time>2025-03-18T18:18:14Z</time>
      </trkpt>
      <trkpt lat="43.64479" lon="1.37872">
        <ele>140</ele>
        <time>2025-03-18T18:18:15Z</time>
      </trkpt>
      <trkpt lat="43.64476" lon="1.37874">
        <ele>142</ele>
        <time>2025-03-18T18:18:16Z</time>
      </trkpt>
      <trkpt lat="43.64472" lon="1.37876">
        <ele>142</ele>
        <time>2025-03-18T18:18:17Z</time>
      </trkpt>
      <trkpt lat="43.64472" lon="1.37876">
        <ele>142</ele>
        <time>2025-03-18T18:18:18Z</time>
      </trkpt>
      <trkpt lat="43.64467" lon="1.37884">
        <ele>142</ele>
        <time>2025-03-18T18:18:19Z</time>
      </trkpt>
      <trkpt lat="43.64465" lon="1.37888">
        <ele>141</ele>
        <time>2025-03-18T18:18:20Z</time>
      </trkpt>
      <trkpt lat="43.64463" lon="1.37892">
        <ele>141</ele>
        <time>2025-03-18T18:18:21Z</time>
      </trkpt>
      <trkpt lat="43.64462" lon="1.37897">
        <ele>141</ele>
        <time>2025-03-18T18:18:22Z</time>
      </trkpt>
      <trkpt lat="43.6446" lon="1.37903">
        <ele>141</ele>
        <time>2025-03-18T18:18:23Z</time>
      </trkpt>
      <trkpt lat="43.6446" lon="1.37906">
        <ele>142</ele>
        <time>2025-03-18T18:18:24Z</time>
      </trkpt>
      <trkpt lat="43.64459" lon="1.37916">
        <ele>141</ele>
        <time>2025-03-18T18:18:26Z</time>
      </trkpt>
      <trkpt lat="43.64459" lon="1.37916">
        <ele>141</ele>
        <time>2025-03-18T18:18:27Z</time>
      </trkpt>
      <trkpt lat="43.6446" lon="1.37925">
        <ele>141</ele>
        <time>2025-03-18T18:18:28Z</time>
      </trkpt>
      <trkpt lat="43.64461" lon="1.3793">
        <ele>140</ele>
        <time>2025-03-18T18:18:29Z</time>
      </trkpt>
      <trkpt lat="43.64464" lon="1.37939">
        <ele>141</ele>
        <time>2025-03-18T18:18:31Z</time>
      </trkpt>
      <trkpt lat="43.64468" lon="1.37944">
        <ele>141</ele>
        <time>2025-03-18T18:18:32Z</time>
      </trkpt>
      <trkpt lat="43.64469" lon="1.37946">
        <ele>141</ele>
        <time>2025-03-18T18:18:33Z</time>
      </trkpt>
      <trkpt lat="43.64473" lon="1.37951">
        <ele>141</ele>
        <time>2025-03-18T18:18:34Z</time>
      </trkpt>
      <trkpt lat="43.64475" lon="1.37952">
        <ele>141</ele>
        <time>2025-03-18T18:18:35Z</time>
      </trkpt>
      <trkpt lat="43.64478" lon="1.37954">
        <ele>141</ele>
        <time>2025-03-18T18:18:36Z</time>
      </trkpt>
      <trkpt lat="43.64483" lon="1.37958">
        <ele>141</ele>
        <time>2025-03-18T18:18:37Z</time>
      </trkpt>
      <trkpt lat="43.64485" lon="1.37959">
        <ele>141</ele>
        <time>2025-03-18T18:18:38Z</time>
      </trkpt>
      <trkpt lat="43.64487" lon="1.3796">
        <ele>141</ele>
        <time>2025-03-18T18:18:39Z</time>
      </trkpt>
      <trkpt lat="43.6449" lon="1.37962">
        <ele>141</ele>
        <time>2025-03-18T18:18:40Z</time>
      </trkpt>
      <trkpt lat="43.64493" lon="1.37964">
        <ele>141</ele>
        <time>2025-03-18T18:18:41Z</time>
      </trkpt>
      <trkpt lat="43.64496" lon="1.37966">
        <ele>141</ele>
        <time>2025-03-18T18:18:42Z</time>
      </trkpt>
      <trkpt lat="43.64502" lon="1.37969">
        <ele>141</ele>
        <time>2025-03-18T18:18:43Z</time>
      </trkpt>
      <trkpt lat="43.64504" lon="1.37971">
        <ele>141</ele>
        <time>2025-03-18T18:18:44Z</time>
      </trkpt>
      <trkpt lat="43.64509" lon="1.37974">
        <ele>141</ele>
        <time>2025-03-18T18:18:45Z</time>
      </trkpt>
      <trkpt lat="43.64511" lon="1.37975">
        <ele>141</ele>
        <time>2025-03-18T18:18:46Z</time>
      </trkpt>
      <trkpt lat="43.64517" lon="1.37979">
        <ele>141</ele>
        <time>2025-03-18T18:18:48Z</time>
      </trkpt>
      <trkpt lat="43.64522" lon="1.37983">
        <ele>141</ele>
        <time>2025-03-18T18:18:49Z</time>
      </trkpt>
      <trkpt lat="43.64523" lon="1.37984">
        <ele>141</ele>
        <time>2025-03-18T18:18:50Z</time>
      </trkpt>
      <trkpt lat="43.64527" lon="1.37985">
        <ele>141</ele>
        <time>2025-03-18T18:18:51Z</time>
      </trkpt>
      <trkpt lat="43.64527" lon="1.37986">
        <ele>141</ele>
        <time>2025-03-18T18:18:52Z</time>
      </trkpt>
      <trkpt lat="43.64528" lon="1.37986">
        <ele>141</ele>
        <time>2025-03-18T18:18:53Z</time>
      </trkpt>
      <trkpt lat="43.6453" lon="1.37987">
        <ele>141</ele>
        <time>2025-03-18T18:18:54Z</time>
      </trkpt>
      <trkpt lat="43.6453" lon="1.37987">
        <ele>141</ele>
        <time>2025-03-18T18:18:55Z</time>
      </trkpt>
      <trkpt lat="43.6453" lon="1.37987">
        <ele>141</ele>
        <time>2025-03-18T18:18:56Z</time>
      </trkpt>
      <trkpt lat="43.64528" lon="1.37986">
        <ele>141</ele>
        <time>2025-03-18T18:18:57Z</time>
      </trkpt>
      <trkpt lat="43.64528" lon="1.37986">
        <ele>141</ele>
        <time>2025-03-18T18:18:58Z</time>
      </trkpt>
      <trkpt lat="43.64525" lon="1.37987">
        <ele>141</ele>
        <time>2025-03-18T18:18:59Z</time>
      </trkpt>
      <trkpt lat="43.64525" lon="1.37987">
        <ele>141</ele>
        <time>2025-03-18T18:19:00Z</time>
      </trkpt>
      <trkpt lat="43.64522" lon="1.37988">
        <ele>141</ele>
        <time>2025-03-18T18:19:01Z</time>
      </trkpt>
      <trkpt lat="43.64522" lon="1.37988">
        <ele>141</ele>
        <time>2025-03-18T18:19:02Z</time>
      </trkpt>
      <trkpt lat="43.6452" lon="1.37988">
        <ele>141</ele>
        <time>2025-03-18T18:19:03Z</time>
      </trkpt>
      <trkpt lat="43.6452" lon="1.37988">
        <ele>141</ele>
        <time>2025-03-18T18:19:04Z</time>
      </trkpt>
      <trkpt lat="43.6452" lon="1.37988">
        <ele>141</ele>
        <time>2025-03-18T18:19:05Z</time>
      </trkpt>
      <trkpt lat="43.64518" lon="1.37987">
        <ele>141</ele>
        <time>2025-03-18T18:19:06Z</time>
      </trkpt>
      <trkpt lat="43.64518" lon="1.37987">
        <ele>141</ele>
        <time>2025-03-18T18:19:07Z</time>
      </trkpt>
      <trkpt lat="43.64515" lon="1.37986">
        <ele>141</ele>
        <time>2025-03-18T18:19:08Z</time>
      </trkpt>
      <trkpt lat="43.64515" lon="1.37986">
        <ele>141</ele>
        <time>2025-03-18T18:19:09Z</time>
      </trkpt>
      <trkpt lat="43.64513" lon="1.37985">
        <ele>141</ele>
        <time>2025-03-18T18:19:10Z</time>
      </trkpt>
      <trkpt lat="43.64513" lon="1.37985">
        <ele>141</ele>
        <time>2025-03-18T18:19:11Z</time>
      </trkpt>
      <trkpt lat="43.64511" lon="1.37983">
        <ele>141</ele>
        <time>2025-03-18T18:19:12Z</time>
      </trkpt>
      <trkpt lat="43.64511" lon="1.37983">
        <ele>141</ele>
        <time>2025-03-18T18:19:13Z</time>
      </trkpt>
      <trkpt lat="43.64508" lon="1.37982">
        <ele>142</ele>
        <time>2025-03-18T18:19:15Z</time>
      </trkpt>
      <trkpt lat="43.64508" lon="1.37982">
        <ele>142</ele>
        <time>2025-03-18T18:19:16Z</time>
      </trkpt>
      <trkpt lat="43.64506" lon="1.37981">
        <ele>142</ele>
        <time>2025-03-18T18:19:17Z</time>
      </trkpt>
      <trkpt lat="43.64505" lon="1.37979">
        <ele>142</ele>
        <time>2025-03-18T18:19:18Z</time>
      </trkpt>
      <trkpt lat="43.64505" lon="1.37979">
        <ele>142</ele>
        <time>2025-03-18T18:19:19Z</time>
      </trkpt>
      <trkpt lat="43.64503" lon="1.37977">
        <ele>142</ele>
        <time>2025-03-18T18:19:20Z</time>
      </trkpt>
      <trkpt lat="43.64503" lon="1.37977">
        <ele>142</ele>
        <time>2025-03-18T18:19:21Z</time>
      </trkpt>
      <trkpt lat="43.64501" lon="1.37975">
        <ele>142</ele>
        <time>2025-03-18T18:19:22Z</time>
      </trkpt>
      <trkpt lat="43.64501" lon="1.37975">
        <ele>142</ele>
        <time>2025-03-18T18:19:23Z</time>
      </trkpt>
      <trkpt lat="43.64499" lon="1.37974">
        <ele>142</ele>
        <time>2025-03-18T18:19:24Z</time>
      </trkpt>
      <trkpt lat="43.64499" lon="1.37974">
        <ele>142</ele>
        <time>2025-03-18T18:19:25Z</time>
      </trkpt>
      <trkpt lat="43.64497" lon="1.37973">
        <ele>142</ele>
        <time>2025-03-18T18:19:26Z</time>
      </trkpt>
      <trkpt lat="43.64497" lon="1.37973">
        <ele>142</ele>
        <time>2025-03-18T18:19:28Z</time>
      </trkpt>
      <trkpt lat="43.64495" lon="1.37971">
        <ele>142</ele>
        <time>2025-03-18T18:19:30Z</time>
      </trkpt>
      <trkpt lat="43.64495" lon="1.37971">
        <ele>142</ele>
        <time>2025-03-18T18:19:31Z</time>
      </trkpt>
      <trkpt lat="43.64492" lon="1.3797">
        <ele>142</ele>
        <time>2025-03-18T18:19:32Z</time>
      </trkpt>
      <trkpt lat="43.64492" lon="1.3797">
        <ele>142</ele>
        <time>2025-03-18T18:19:33Z</time>
      </trkpt>
      <trkpt lat="43.64489" lon="1.37968">
        <ele>142</ele>
        <time>2025-03-18T18:19:34Z</time>
      </trkpt>
      <trkpt lat="43.64489" lon="1.37968">
        <ele>142</ele>
        <time>2025-03-18T18:19:35Z</time>
      </trkpt>
      <trkpt lat="43.64486" lon="1.37968">
        <ele>142</ele>
        <time>2025-03-18T18:19:36Z</time>
      </trkpt>
      <trkpt lat="43.64486" lon="1.37968">
        <ele>142</ele>
        <time>2025-03-18T18:19:37Z</time>
      </trkpt>
      <trkpt lat="43.64484" lon="1.37967">
        <ele>142</ele>
        <time>2025-03-18T18:19:38Z</time>
      </trkpt>
      <trkpt lat="43.64484" lon="1.37967">
        <ele>142</ele>
        <time>2025-03-18T18:19:39Z</time>
      </trkpt>
      <trkpt lat="43.64483" lon="1.37966">
        <ele>142</ele>
        <time>2025-03-18T18:19:40Z</time>
      </trkpt>
      <trkpt lat="43.64483" lon="1.37966">
        <ele>142</ele>
        <time>2025-03-18T18:19:41Z</time>
      </trkpt>
      <trkpt lat="43.64481" lon="1.37965">
        <ele>141</ele>
        <time>2025-03-18T18:19:42Z</time>
      </trkpt>
      <trkpt lat="43.64481" lon="1.37965">
        <ele>141</ele>
        <time>2025-03-18T18:19:43Z</time>
      </trkpt>
      <trkpt lat="43.64479" lon="1.37964">
        <ele>141</ele>
        <time>2025-03-18T18:19:44Z</time>
      </trkpt>
      <trkpt lat="43.64479" lon="1.37964">
        <ele>141</ele>
        <time>2025-03-18T18:19:45Z</time>
      </trkpt>
      <trkpt lat="43.64476" lon="1.37963">
        <ele>141</ele>
        <time>2025-03-18T18:19:47Z</time>
      </trkpt>
      <trkpt lat="43.64476" lon="1.37963">
        <ele>141</ele>
        <time>2025-03-18T18:19:48Z</time>
      </trkpt>
      <trkpt lat="43.64476" lon="1.37963">
        <ele>141</ele>
        <time>2025-03-18T18:19:49Z</time>
      </trkpt>
      <trkpt lat="43.64476" lon="1.37963">
        <ele>141</ele>
        <time>2025-03-18T18:19:50Z</time>
      </trkpt>
      <trkpt lat="43.64476" lon="1.37963">
        <ele>141</ele>
        <time>2025-03-18T18:19:51Z</time>
      </trkpt>
      <trkpt lat="43.64476" lon="1.37963">
        <ele>141</ele>
        <time>2025-03-18T18:19:52Z</time>
      </trkpt>
      <trkpt lat="43.64474" lon="1.37963">
        <ele>141</ele>
        <time>2025-03-18T18:19:53Z</time>
      </trkpt>
      <trkpt lat="43.64474" lon="1.37963">
        <ele>141</ele>
        <time>2025-03-18T18:19:54Z</time>
      </trkpt>
      <trkpt lat="43.64473" lon="1.37962">
        <ele>141</ele>
        <time>2025-03-18T18:19:55Z</time>
      </trkpt>
      <trkpt lat="43.64473" lon="1.37962">
        <ele>141</ele>
        <time>2025-03-18T18:19:56Z</time>
      </trkpt>
      <trkpt lat="43.64471" lon="1.37959">
        <ele>141</ele>
        <time>2025-03-18T18:19:57Z</time>
      </trkpt>
      <trkpt lat="43.64471" lon="1.37959">
        <ele>141</ele>
        <time>2025-03-18T18:19:58Z</time>
      </trkpt>
      <trkpt lat="43.64471" lon="1.37955">
        <ele>141</ele>
        <time>2025-03-18T18:19:59Z</time>
      </trkpt>
      <trkpt lat="43.64471" lon="1.37955">
        <ele>142</ele>
        <time>2025-03-18T18:20:00Z</time>
      </trkpt>
      <trkpt lat="43.64471" lon="1.37955">
        <ele>142</ele>
        <time>2025-03-18T18:20:01Z</time>
      </trkpt>
      <trkpt lat="43.64471" lon="1.37955">
        <ele>142</ele>
        <time>2025-03-18T18:20:02Z</time>
      </trkpt>
      <trkpt lat="43.64471" lon="1.37955">
        <ele>142</ele>
        <time>2025-03-18T18:20:03Z</time>
      </trkpt>
      <trkpt lat="43.64471" lon="1.37955">
        <ele>142</ele>
        <time>2025-03-18T18:20:04Z</time>
      </trkpt>
      <trkpt lat="43.64471" lon="1.37955">
        <ele>142</ele>
        <time>2025-03-18T18:20:06Z</time>
      </trkpt>
      <trkpt lat="43.6447" lon="1.37958">
        <ele>142</ele>
        <time>2025-03-18T18:20:07Z</time>
      </trkpt>
      <trkpt lat="43.6447" lon="1.37958">
        <ele>142</ele>
        <time>2025-03-18T18:20:08Z</time>
      </trkpt>
      <trkpt lat="43.64472" lon="1.37959">
        <ele>142</ele>
        <time>2025-03-18T18:20:10Z</time>
      </trkpt>
      <trkpt lat="43.64472" lon="1.37959">
        <ele>142</ele>
        <time>2025-03-18T18:20:11Z</time>
      </trkpt>
      <trkpt lat="43.64472" lon="1.37959">
        <ele>142</ele>
        <time>2025-03-18T18:20:12Z</time>
      </trkpt>
      <trkpt lat="43.64475" lon="1.37959">
        <ele>142</ele>
        <time>2025-03-18T18:20:13Z</time>
      </trkpt>
      <trkpt lat="43.64475" lon="1.37959">
        <ele>142</ele>
        <time>2025-03-18T18:20:14Z</time>
      </trkpt>
      <trkpt lat="43.64475" lon="1.37959">
        <ele>142</ele>
        <time>2025-03-18T18:20:15Z</time>
      </trkpt>
      <trkpt lat="43.64475" lon="1.37959">
        <ele>142</ele>
        <time>2025-03-18T18:20:16Z</time>
      </trkpt>
      <trkpt lat="43.64477" lon="1.37959">
        <ele>141</ele>
        <time>2025-03-18T18:20:17Z</time>
      </trkpt>
      <trkpt lat="43.64477" lon="1.37959">
        <ele>141</ele>
        <time>2025-03-18T18:20:18Z</time>
      </trkpt>
      <trkpt lat="43.64477" lon="1.37959">
        <ele>141</ele>
        <time>2025-03-18T18:20:19Z</time>
      </trkpt>
      <trkpt lat="43.64477" lon="1.37959">
        <ele>141</ele>
        <time>2025-03-18T18:20:20Z</time>
      </trkpt>
      <trkpt lat="43.64477" lon="1.37959">
        <ele>141</ele>
        <time>2025-03-18T18:20:21Z</time>
      </trkpt>
      <trkpt lat="43.64477" lon="1.37959">
        <ele>141</ele>
        <time>2025-03-18T18:20:22Z</time>
      </trkpt>
      <trkpt lat="43.64477" lon="1.37959">
        <ele>141</ele>
        <time>2025-03-18T18:20:23Z</time>
      </trkpt>
      <trkpt lat="43.64477" lon="1.37959">
        <ele>141</ele>
        <time>2025-03-18T18:20:25Z</time>
      </trkpt>
      <trkpt lat="43.64477" lon="1.37959">
        <ele>141</ele>
        <time>2025-03-18T18:20:26Z</time>
      </trkpt>
      <trkpt lat="43.64477" lon="1.37959">
        <ele>141</ele>
        <time>2025-03-18T18:20:27Z</time>
      </trkpt>
      <trkpt lat="43.64477" lon="1.37959">
        <ele>141</ele>
        <time>2025-03-18T18:20:28Z</time>
      </trkpt>
      <trkpt lat="43.64477" lon="1.37959">
        <ele>141</ele>
        <time>2025-03-18T18:20:29Z</time>
      </trkpt>
      <trkpt lat="43.64477" lon="1.37959">
        <ele>141</ele>
        <time>2025-03-18T18:20:30Z</time>
      </trkpt>
      <trkpt lat="43.64477" lon="1.37959">
        <ele>141</ele>
        <time>2025-03-18T18:20:31Z</time>
      </trkpt>
      <trkpt lat="43.64477" lon="1.37959">
        <ele>141</ele>
        <time>2025-03-18T18:20:32Z</time>
      </trkpt>
      <trkpt lat="43.64477" lon="1.37959">
        <ele>141</ele>
        <time>2025-03-18T18:20:33Z</time>
      </trkpt>
      <trkpt lat="43.64477" lon="1.37959">
        <ele>142</ele>
        <time>2025-03-18T18:20:34Z</time>
      </trkpt>
      <trkpt lat="43.64477" lon="1.37959">
        <ele>142</ele>
        <time>2025-03-18T18:20:35Z</time>
      </trkpt>
      <trkpt lat="43.64477" lon="1.37959">
        <ele>142</ele>
        <time>2025-03-18T18:20:36Z</time>
      </trkpt>
      <trkpt lat="43.64477" lon="1.37959">
        <ele>143</ele>
        <time>2025-03-18T18:20:37Z</time>
      </trkpt>
      <trkpt lat="43.64479" lon="1.37958">
        <ele>143</ele>
        <time>2025-03-18T18:20:38Z</time>
      </trkpt>
      <trkpt lat="43.64479" lon="1.37958">
        <ele>143</ele>
        <time>2025-03-18T18:20:39Z</time>
      </trkpt>
      <trkpt lat="43.64479" lon="1.37958">
        <ele>142</ele>
        <time>2025-03-18T18:20:40Z</time>
      </trkpt>
      <trkpt lat="43.64479" lon="1.37958">
        <ele>142</ele>
        <time>2025-03-18T18:20:42Z</time>
      </trkpt>
      <trkpt lat="43.64479" lon="1.37958">
        <ele>142</ele>
        <time>2025-03-18T18:20:44Z</time>
      </trkpt>
      <trkpt lat="43.64479" lon="1.37958">
        <ele>142</ele>
        <time>2025-03-18T18:20:45Z</time>
      </trkpt>
      <trkpt lat="43.64479" lon="1.37958">
        <ele>142</ele>
        <time>2025-03-18T18:20:46Z</time>
      </trkpt>
      <trkpt lat="43.64479" lon="1.37958">
        <ele>142</ele>
        <time>2025-03-18T18:20:47Z</time>
      </trkpt>
      <trkpt lat="43.64479" lon="1.37958">
        <ele>142</ele>
        <time>2025-03-18T18:20:48Z</time>
      </trkpt>
      <trkpt lat="43.64479" lon="1.37958">
        <ele>142</ele>
        <time>2025-03-18T18:20:49Z</time>
      </trkpt>
      <trkpt lat="43.64479" lon="1.37958">
        <ele>142</ele>
        <time>2025-03-18T18:20:50Z</time>
      </trkpt>
      <trkpt lat="43.64479" lon="1.37958">
        <ele>142</ele>
        <time>2025-03-18T18:20:51Z</time>
      </trkpt>
      <trkpt lat="43.64479" lon="1.37958">
        <ele>142</ele>
        <time>2025-03-18T18:20:52Z</time>
      </trkpt>
      <trkpt lat="43.64479" lon="1.37958">
        <ele>142</ele>
        <time>2025-03-18T18:20:53Z</time>
      </trkpt>
      <trkpt lat="43.64479" lon="1.37958">
        <ele>143</ele>
        <time>2025-03-18T18:20:54Z</time>
      </trkpt>
      <trkpt lat="43.64479" lon="1.37958">
        <ele>143</ele>
        <time>2025-03-18T18:20:55Z</time>
      </trkpt>
      <trkpt lat="43.64479" lon="1.37958">
        <ele>143</ele>
        <time>2025-03-18T18:20:56Z</time>
      </trkpt>
      <trkpt lat="43.64479" lon="1.37958">
        <ele>143</ele>
        <time>2025-03-18T18:20:57Z</time>
      </trkpt>
      <trkpt lat="43.64479" lon="1.37958">
        <ele>143</ele>
        <time>2025-03-18T18:20:58Z</time>
      </trkpt>
      <trkpt lat="43.64479" lon="1.37958">
        <ele>143</ele>
        <time>2025-03-18T18:20:59Z</time>
      </trkpt>
      <trkpt lat="43.64479" lon="1.37958">
        <ele>143</ele>
        <time>2025-03-18T18:21:00Z</time>
      </trkpt>
      <trkpt lat="43.64479" lon="1.37958">
        <ele>142</ele>
        <time>2025-03-18T18:21:01Z</time>
      </trkpt>
      <trkpt lat="43.64479" lon="1.37958">
        <ele>142</ele>
        <time>2025-03-18T18:21:03Z</time>
      </trkpt>
      <trkpt lat="43.64479" lon="1.37958">
        <ele>142</ele>
        <time>2025-03-18T18:21:04Z</time>
      </trkpt>
      <trkpt lat="43.64481" lon="1.3796">
        <ele>142</ele>
        <time>2025-03-18T18:21:05Z</time>
      </trkpt>
      <trkpt lat="43.64484" lon="1.37962">
        <ele>142</ele>
        <time>2025-03-18T18:21:06Z</time>
      </trkpt>
      <trkpt lat="43.64484" lon="1.37962">
        <ele>142</ele>
        <time>2025-03-18T18:21:07Z</time>
      </trkpt>
      <trkpt lat="43.64491" lon="1.37966">
        <ele>142</ele>
        <time>2025-03-18T18:21:08Z</time>
      </trkpt>
      <trkpt lat="43.64495" lon="1.37969">
        <ele>142</ele>
        <time>2025-03-18T18:21:09Z</time>
      </trkpt>
      <trkpt lat="43.64502" lon="1.37973">
        <ele>142</ele>
        <time>2025-03-18T18:21:10Z</time>
      </trkpt>
      <trkpt lat="43.64504" lon="1.37974">
        <ele>142</ele>
        <time>2025-03-18T18:21:11Z</time>
      </trkpt>
      <trkpt lat="43.64507" lon="1.37976">
        <ele>143</ele>
        <time>2025-03-18T18:21:12Z</time>
      </trkpt>
      <trkpt lat="43.64514" lon="1.3798">
        <ele>142</ele>
        <time>2025-03-18T18:21:14Z</time>
      </trkpt>
      <trkpt lat="43.64518" lon="1.37983">
        <ele>142</ele>
        <time>2025-03-18T18:21:15Z</time>
      </trkpt>
      <trkpt lat="43.64522" lon="1.37985">
        <ele>142</ele>
        <time>2025-03-18T18:21:16Z</time>
      </trkpt>
      <trkpt lat="43.64529" lon="1.37988">
        <ele>143</ele>
        <time>2025-03-18T18:21:17Z</time>
      </trkpt>
      <trkpt lat="43.64531" lon="1.37989">
        <ele>143</ele>
        <time>2025-03-18T18:21:18Z</time>
      </trkpt>
      <trkpt lat="43.64536" lon="1.37989">
        <ele>143</ele>
        <time>2025-03-18T18:21:19Z</time>
      </trkpt>
      <trkpt lat="43.64548" lon="1.37986">
        <ele>144</ele>
        <time>2025-03-18T18:21:21Z</time>
      </trkpt>
      <trkpt lat="43.6455" lon="1.37985">
        <ele>144</ele>
        <time>2025-03-18T18:21:22Z</time>
      </trkpt>
      <trkpt lat="43.64554" lon="1.37982">
        <ele>144</ele>
        <time>2025-03-18T18:21:23Z</time>
      </trkpt>
      <trkpt lat="43.64559" lon="1.37977">
        <ele>143</ele>
        <time>2025-03-18T18:21:24Z</time>
      </trkpt>
      <trkpt lat="43.64561" lon="1.37975">
        <ele>143</ele>
        <time>2025-03-18T18:21:25Z</time>
      </trkpt>
      <trkpt lat="43.64565" lon="1.37968">
        <ele>143</ele>
        <time>2025-03-18T18:21:26Z</time>
      </trkpt>
      <trkpt lat="43.64567" lon="1.37966">
        <ele>142</ele>
        <time>2025-03-18T18:21:27Z</time>
      </trkpt>
      <trkpt lat="43.64571" lon="1.37955">
        <ele>142</ele>
        <time>2025-03-18T18:21:29Z</time>
      </trkpt>
      <trkpt lat="43.64572" lon="1.37951">
        <ele>142</ele>
        <time>2025-03-18T18:21:30Z</time>
      </trkpt>
      <trkpt lat="43.64572" lon="1.37947">
        <ele>142</ele>
        <time>2025-03-18T18:21:31Z</time>
      </trkpt>
      <trkpt lat="43.64573" lon="1.37943">
        <ele>142</ele>
        <time>2025-03-18T18:21:32Z</time>
      </trkpt>
      <trkpt lat="43.64571" lon="1.37936">
        <ele>142</ele>
        <time>2025-03-18T18:21:33Z</time>
      </trkpt>
      <trkpt lat="43.6457" lon="1.37929">
        <ele>142</ele>
        <time>2025-03-18T18:21:34Z</time>
      </trkpt>
      <trkpt lat="43.64569" lon="1.37923">
        <ele>141</ele>
        <time>2025-03-18T18:21:35Z</time>
      </trkpt>
      <trkpt lat="43.64565" lon="1.37917">
        <ele>141</ele>
        <time>2025-03-18T18:21:36Z</time>
      </trkpt>
      <trkpt lat="43.64563" lon="1.37913">
        <ele>141</ele>
        <time>2025-03-18T18:21:37Z</time>
      </trkpt>
      <trkpt lat="43.64559" lon="1.37909">
        <ele>141</ele>
        <time>2025-03-18T18:21:38Z</time>
      </trkpt>
      <trkpt lat="43.64553" lon="1.37905">
        <ele>141</ele>
        <time>2025-03-18T18:21:39Z</time>
      </trkpt>
      <trkpt lat="43.64551" lon="1.37904">
        <ele>141</ele>
        <time>2025-03-18T18:21:40Z</time>
      </trkpt>
      <trkpt lat="43.64548" lon="1.37903">
        <ele>141</ele>
        <time>2025-03-18T18:21:41Z</time>
      </trkpt>
      <trkpt lat="43.64544" lon="1.37902">
        <ele>141</ele>
        <time>2025-03-18T18:21:42Z</time>
      </trkpt>
      <trkpt lat="43.6454" lon="1.379">
        <ele>141</ele>
        <time>2025-03-18T18:21:43Z</time>
      </trkpt>
      <trkpt lat="43.6454" lon="1.379">
        <ele>141</ele>
        <time>2025-03-18T18:21:44Z</time>
      </trkpt>
      <trkpt lat="43.64532" lon="1.37895">
        <ele>141</ele>
        <time>2025-03-18T18:21:45Z</time>
      </trkpt>
      <trkpt lat="43.6453" lon="1.37894">
        <ele>141</ele>
        <time>2025-03-18T18:21:46Z</time>
      </trkpt>
      <trkpt lat="43.64524" lon="1.37891">
        <ele>141</ele>
        <time>2025-03-18T18:21:47Z</time>
      </trkpt>
      <trkpt lat="43.64522" lon="1.3789">
        <ele>140</ele>
        <time>2025-03-18T18:21:48Z</time>
      </trkpt>
      <trkpt lat="43.64518" lon="1.37888">
        <ele>141</ele>
        <time>2025-03-18T18:21:49Z</time>
      </trkpt>
      <trkpt lat="43.64515" lon="1.37886">
        <ele>141</ele>
        <time>2025-03-18T18:21:50Z</time>
      </trkpt>
      <trkpt lat="43.64511" lon="1.37884">
        <ele>141</ele>
        <time>2025-03-18T18:21:51Z</time>
      </trkpt>
      <trkpt lat="43.64507" lon="1.37882">
        <ele>141</ele>
        <time>2025-03-18T18:21:52Z</time>
      </trkpt>
      <trkpt lat="43.64504" lon="1.37879">
        <ele>141</ele>
        <time>2025-03-18T18:21:53Z</time>
      </trkpt>
      <trkpt lat="43.645" lon="1.37877">
        <ele>141</ele>
        <time>2025-03-18T18:21:54Z</time>
      </trkpt>
      <trkpt lat="43.64496" lon="1.37875">
        <ele>141</ele>
        <time>2025-03-18T18:21:55Z</time>
      </trkpt>
      <trkpt lat="43.64492" lon="1.37875">
        <ele>142</ele>
        <time>2025-03-18T18:21:56Z</time>
      </trkpt>
      <trkpt lat="43.64488" lon="1.37874">
        <ele>142</ele>
        <time>2025-03-18T18:21:57Z</time>
      </trkpt>
      <trkpt lat="43.64488" lon="1.37874">
        <ele>142</ele>
        <time>2025-03-18T18:21:58Z</time>
      </trkpt>
      <trkpt lat="43.64482" lon="1.37875">
        <ele>142</ele>
        <time>2025-03-18T18:21:59Z</time>
      </trkpt>
      <trkpt lat="43.6448" lon="1.37875">
        <ele>143</ele>
        <time>2025-03-18T18:22:00Z</time>
      </trkpt>
      <trkpt lat="43.64473" lon="1.37878">
        <ele>143</ele>
        <time>2025-03-18T18:22:01Z</time>
      </trkpt>
      <trkpt lat="43.6447" lon="1.3788">
        <ele>142</ele>
        <time>2025-03-18T18:22:02Z</time>
      </trkpt>
      <trkpt lat="43.64467" lon="1.37884">
        <ele>141</ele>
        <time>2025-03-18T18:22:03Z</time>
      </trkpt>
      <trkpt lat="43.64464" lon="1.37888">
        <ele>141</ele>
        <time>2025-03-18T18:22:04Z</time>
      </trkpt>
      <trkpt lat="43.64464" lon="1.37888">
        <ele>141</ele>
        <time>2025-03-18T18:22:05Z</time>
      </trkpt>
      <trkpt lat="43.64461" lon="1.37897">
        <ele>142</ele>
        <time>2025-03-18T18:22:06Z</time>
      </trkpt>
      <trkpt lat="43.64459" lon="1.37901">
        <ele>142</ele>
        <time>2025-03-18T18:22:07Z</time>
      </trkpt>
      <trkpt lat="43.64458" lon="1.37905">
        <ele>143</ele>
        <time>2025-03-18T18:22:08Z</time>
      </trkpt>
      <trkpt lat="43.64457" lon="1.3791">
        <ele>143</ele>
        <time>2025-03-18T18:22:09Z</time>
      </trkpt>
      <trkpt lat="43.64457" lon="1.37915">
        <ele>142</ele>
        <time>2025-03-18T18:22:10Z</time>
      </trkpt>
      <trkpt lat="43.64458" lon="1.37925">
        <ele>142</ele>
        <time>2025-03-18T18:22:12Z</time>
      </trkpt>
      <trkpt lat="43.64461" lon="1.37935">
        <ele>142</ele>
        <time>2025-03-18T18:22:14Z</time>
      </trkpt>
      <trkpt lat="43.64461" lon="1.37935">
        <ele>142</ele>
        <time>2025-03-18T18:22:15Z</time>
      </trkpt>
      <trkpt lat="43.64465" lon="1.37943">
        <ele>142</ele>
        <time>2025-03-18T18:22:16Z</time>
      </trkpt>
      <trkpt lat="43.64467" lon="1.37947">
        <ele>142</ele>
        <time>2025-03-18T18:22:17Z</time>
      </trkpt>
      <trkpt lat="43.64473" lon="1.37952">
        <ele>142</ele>
        <time>2025-03-18T18:22:19Z</time>
      </trkpt>
      <trkpt lat="43.64477" lon="1.37954">
        <ele>142</ele>
        <time>2025-03-18T18:22:20Z</time>
      </trkpt>
      <trkpt lat="43.64481" lon="1.37957">
        <ele>143</ele>
        <time>2025-03-18T18:22:21Z</time>
      </trkpt>
      <trkpt lat="43.64485" lon="1.37959">
        <ele>143</ele>
        <time>2025-03-18T18:22:22Z</time>
      </trkpt>
      <trkpt lat="43.6449" lon="1.37963">
        <ele>143</ele>
        <time>2025-03-18T18:22:23Z</time>
      </trkpt>
      <trkpt lat="43.64492" lon="1.37964">
        <ele>143</ele>
        <time>2025-03-18T18:22:24Z</time>
      </trkpt>
      <trkpt lat="43.64493" lon="1.37965">
        <ele>143</ele>
        <time>2025-03-18T18:22:25Z</time>
      </trkpt>
      <trkpt lat="43.64498" lon="1.37968">
        <ele>142</ele>
        <time>2025-03-18T18:22:26Z</time>
      </trkpt>
      <trkpt lat="43.64502" lon="1.3797">
        <ele>142</ele>
        <time>2025-03-18T18:22:27Z</time>
      </trkpt>
      <trkpt lat="43.64505" lon="1.37972">
        <ele>143</ele>
        <time>2025-03-18T18:22:28Z</time>
      </trkpt>
      <trkpt lat="43.64509" lon="1.37974">
        <ele>143</ele>
        <time>2025-03-18T18:22:29Z</time>
      </trkpt>
      <trkpt lat="43.64512" lon="1.37976">
        <ele>143</ele>
        <time>2025-03-18T18:22:30Z</time>
      </trkpt>
      <trkpt lat="43.64517" lon="1.37979">
        <ele>143</ele>
        <time>2025-03-18T18:22:31Z</time>
      </trkpt>
      <trkpt lat="43.64519" lon="1.3798">
        <ele>143</ele>
        <time>2025-03-18T18:22:32Z</time>
      </trkpt>
      <trkpt lat="43.64522" lon="1.37982">
        <ele>143</ele>
        <time>2025-03-18T18:22:33Z</time>
      </trkpt>
      <trkpt lat="43.64526" lon="1.37984">
        <ele>143</ele>
        <time>2025-03-18T18:22:34Z</time>
      </trkpt>
      <trkpt lat="43.64528" lon="1.37986">
        <ele>143</ele>
        <time>2025-03-18T18:22:35Z</time>
      </trkpt>
      <trkpt lat="43.6453" lon="1.37988">
        <ele>142</ele>
        <time>2025-03-18T18:22:36Z</time>
      </trkpt>
      <trkpt lat="43.64532" lon="1.37989">
        <ele>143</ele>
        <time>2025-03-18T18:22:38Z</time>
      </trkpt>
      <trkpt lat="43.64531" lon="1.37988">
        <ele>143</ele>
        <time>2025-03-18T18:22:39Z</time>
      </trkpt>
      <trkpt lat="43.64531" lon="1.37988">
        <ele>143</ele>
        <time>2025-03-18T18:22:40Z</time>
      </trkpt>
      <trkpt lat="43.6453" lon="1.37987">
        <ele>143</ele>
        <time>2025-03-18T18:22:41Z</time>
      </trkpt>
      <trkpt lat="43.6453" lon="1.37986">
        <ele>143</ele>
        <time>2025-03-18T18:22:42Z</time>
      </trkpt>
      <trkpt lat="43.64529" lon="1.37986">
        <ele>143</ele>
        <time>2025-03-18T18:22:44Z</time>
      </trkpt>
      <trkpt lat="43.64529" lon="1.37985">
        <ele>143</ele>
        <time>2025-03-18T18:22:45Z</time>
      </trkpt>
      <trkpt lat="43.64529" lon="1.37985">
        <ele>143</ele>
        <time>2025-03-18T18:22:46Z</time>
      </trkpt>
      <trkpt lat="43.64527" lon="1.37986">
        <ele>143</ele>
        <time>2025-03-18T18:22:47Z</time>
      </trkpt>
      <trkpt lat="43.64527" lon="1.37986">
        <ele>143</ele>
        <time>2025-03-18T18:22:48Z</time>
      </trkpt>
      <trkpt lat="43.64525" lon="1.37985">
        <ele>143</ele>
        <time>2025-03-18T18:22:49Z</time>
      </trkpt>
      <trkpt lat="43.64525" lon="1.37985">
        <ele>143</ele>
        <time>2025-03-18T18:22:50Z</time>
      </trkpt>
      <trkpt lat="43.64522" lon="1.37984">
        <ele>143</ele>
        <time>2025-03-18T18:22:51Z</time>
      </trkpt>
      <trkpt lat="43.64522" lon="1.37984">
        <ele>143</ele>
        <time>2025-03-18T18:22:52Z</time>
      </trkpt>
      <trkpt lat="43.6452" lon="1.37984">
        <ele>143</ele>
        <time>2025-03-18T18:22:53Z</time>
      </trkpt>
      <trkpt lat="43.6452" lon="1.37984">
        <ele>143</ele>
        <time>2025-03-18T18:22:54Z</time>
      </trkpt>
      <trkpt lat="43.64519" lon="1.37984">
        <ele>142</ele>
        <time>2025-03-18T18:22:55Z</time>
      </trkpt>
      <trkpt lat="43.64516" lon="1.37984">
        <ele>142</ele>
        <time>2025-03-18T18:22:57Z</time>
      </trkpt>
      <trkpt lat="43.64516" lon="1.37984">
        <ele>142</ele>
        <time>2025-03-18T18:22:58Z</time>
      </trkpt>
      <trkpt lat="43.64514" lon="1.37984">
        <ele>142</ele>
        <time>2025-03-18T18:22:59Z</time>
      </trkpt>
      <trkpt lat="43.64514" lon="1.37984">
        <ele>142</ele>
        <time>2025-03-18T18:23:00Z</time>
      </trkpt>
      <trkpt lat="43.64514" lon="1.37984">
        <ele>143</ele>
        <time>2025-03-18T18:23:01Z</time>
      </trkpt>
      <trkpt lat="43.64514" lon="1.37984">
        <ele>143</ele>
        <time>2025-03-18T18:23:02Z</time>
      </trkpt>
      <trkpt lat="43.64511" lon="1.37983">
        <ele>143</ele>
        <time>2025-03-18T18:23:03Z</time>
      </trkpt>
      <trkpt lat="43.64511" lon="1.37983">
        <ele>143</ele>
        <time>2025-03-18T18:23:04Z</time>
      </trkpt>
      <trkpt lat="43.64509" lon="1.37982">
        <ele>143</ele>
        <time>2025-03-18T18:23:05Z</time>
      </trkpt>
      <trkpt lat="43.64508" lon="1.3798">
        <ele>142</ele>
        <time>2025-03-18T18:23:06Z</time>
      </trkpt>
      <trkpt lat="43.64508" lon="1.3798">
        <ele>142</ele>
        <time>2025-03-18T18:23:07Z</time>
      </trkpt>
      <trkpt lat="43.64506" lon="1.37979">
        <ele>142</ele>
        <time>2025-03-18T18:23:08Z</time>
      </trkpt>
      <trkpt lat="43.64506" lon="1.37979">
        <ele>143</ele>
        <time>2025-03-18T18:23:09Z</time>
      </trkpt>
      <trkpt lat="43.64504" lon="1.37977">
        <ele>143</ele>
        <time>2025-03-18T18:23:10Z</time>
      </trkpt>
      <trkpt lat="43.64504" lon="1.37977">
        <ele>143</ele>
        <time>2025-03-18T18:23:11Z</time>
      </trkpt>
      <trkpt lat="43.64502" lon="1.37976">
        <ele>143</ele>
        <time>2025-03-18T18:23:12Z</time>
      </trkpt>
      <trkpt lat="43.64502" lon="1.37976">
        <ele>143</ele>
        <time>2025-03-18T18:23:13Z</time>
      </trkpt>
      <trkpt lat="43.64499" lon="1.37975">
        <ele>144</ele>
        <time>2025-03-18T18:23:14Z</time>
      </trkpt>
      <trkpt lat="43.64497" lon="1.37975">
        <ele>144</ele>
        <time>2025-03-18T18:23:16Z</time>
      </trkpt>
      <trkpt lat="43.64497" lon="1.37975">
        <ele>144</ele>
        <time>2025-03-18T18:23:17Z</time>
      </trkpt>
      <trkpt lat="43.64494" lon="1.37973">
        <ele>144</ele>
        <time>2025-03-18T18:23:18Z</time>
      </trkpt>
      <trkpt lat="43.64494" lon="1.37973">
        <ele>144</ele>
        <time>2025-03-18T18:23:19Z</time>
      </trkpt>
      <trkpt lat="43.64492" lon="1.37972">
        <ele>144</ele>
        <time>2025-03-18T18:23:20Z</time>
      </trkpt>
      <trkpt lat="43.64492" lon="1.37972">
        <ele>144</ele>
        <time>2025-03-18T18:23:21Z</time>
      </trkpt>
      <trkpt lat="43.6449" lon="1.37971">
        <ele>144</ele>
        <time>2025-03-18T18:23:22Z</time>
      </trkpt>
      <trkpt lat="43.6449" lon="1.37971">
        <ele>144</ele>
        <time>2025-03-18T18:23:23Z</time>
      </trkpt>
      <trkpt lat="43.6449" lon="1.37971">
        <ele>143</ele>
        <time>2025-03-18T18:23:24Z</time>
      </trkpt>
      <trkpt lat="43.64488" lon="1.37969">
        <ele>143</ele>
        <time>2025-03-18T18:23:25Z</time>
      </trkpt>
      <trkpt lat="43.64488" lon="1.37969">
        <ele>143</ele>
        <time>2025-03-18T18:23:26Z</time>
      </trkpt>
      <trkpt lat="43.64488" lon="1.37969">
        <ele>143</ele>
        <time>2025-03-18T18:23:27Z</time>
      </trkpt>
      <trkpt lat="43.64486" lon="1.37971">
        <ele>143</ele>
        <time>2025-03-18T18:23:28Z</time>
      </trkpt>
      <trkpt lat="43.64486" lon="1.37971">
        <ele>143</ele>
        <time>2025-03-18T18:23:29Z</time>
      </trkpt>
      <trkpt lat="43.64486" lon="1.37971">
        <ele>143</ele>
        <time>2025-03-18T18:23:30Z</time>
      </trkpt>
      <trkpt lat="43.64486" lon="1.37971">
        <ele>143</ele>
        <time>2025-03-18T18:23:31Z</time>
      </trkpt>
      <trkpt lat="43.64485" lon="1.37971">
        <ele>143</ele>
        <time>2025-03-18T18:23:32Z</time>
      </trkpt>
      <trkpt lat="43.64483" lon="1.37968">
        <ele>143</ele>
        <time>2025-03-18T18:23:33Z</time>
      </trkpt>
      <trkpt lat="43.64481" lon="1.37966">
        <ele>144</ele>
        <time>2025-03-18T18:23:35Z</time>
      </trkpt>
      <trkpt lat="43.64481" lon="1.37966">
        <ele>144</ele>
        <time>2025-03-18T18:23:36Z</time>
      </trkpt>
      <trkpt lat="43.64479" lon="1.37965">
        <ele>144</ele>
        <time>2025-03-18T18:23:37Z</time>
      </trkpt>
      <trkpt lat="43.64479" lon="1.37965">
        <ele>144</ele>
        <time>2025-03-18T18:23:38Z</time>
      </trkpt>
      <trkpt lat="43.64477" lon="1.37963">
        <ele>144</ele>
        <time>2025-03-18T18:23:39Z</time>
      </trkpt>
      <trkpt lat="43.64475" lon="1.37962">
        <ele>144</ele>
        <time>2025-03-18T18:23:41Z</time>
      </trkpt>
      <trkpt lat="43.64475" lon="1.37962">
        <ele>143</ele>
        <time>2025-03-18T18:23:42Z</time>
      </trkpt>
      <trkpt lat="43.64473" lon="1.37963">
        <ele>143</ele>
        <time>2025-03-18T18:23:43Z</time>
      </trkpt>
      <trkpt lat="43.64473" lon="1.37963">
        <ele>143</ele>
        <time>2025-03-18T18:23:44Z</time>
      </trkpt>
      <trkpt lat="43.64471" lon="1.37963">
        <ele>143</ele>
        <time>2025-03-18T18:23:45Z</time>
      </trkpt>
      <trkpt lat="43.64471" lon="1.37963">
        <ele>143</ele>
        <time>2025-03-18T18:23:46Z</time>
      </trkpt>
      <trkpt lat="43.64471" lon="1.37963">
        <ele>143</ele>
        <time>2025-03-18T18:23:47Z</time>
      </trkpt>
      <trkpt lat="43.64471" lon="1.37963">
        <ele>143</ele>
        <time>2025-03-18T18:23:48Z</time>
      </trkpt>
      <trkpt lat="43.64471" lon="1.37963">
        <ele>143</ele>
        <time>2025-03-18T18:23:49Z</time>
      </trkpt>
      <trkpt lat="43.64471" lon="1.37963">
        <ele>143</ele>
        <time>2025-03-18T18:23:50Z</time>
      </trkpt>
      <trkpt lat="43.64471" lon="1.37963">
        <ele>143</ele>
        <time>2025-03-18T18:23:51Z</time>
      </trkpt>
      <trkpt lat="43.64471" lon="1.37963">
        <ele>144</ele>
        <time>2025-03-18T18:23:52Z</time>
      </trkpt>
      <trkpt lat="43.64471" lon="1.37963">
        <ele>144</ele>
        <time>2025-03-18T18:23:54Z</time>
      </trkpt>
      <trkpt lat="43.64471" lon="1.37963">
        <ele>144</ele>
        <time>2025-03-18T18:23:55Z</time>
      </trkpt>
      <trkpt lat="43.64471" lon="1.37963">
        <ele>144</ele>
        <time>2025-03-18T18:23:56Z</time>
      </trkpt>
      <trkpt lat="43.64473" lon="1.37963">
        <ele>144</ele>
        <time>2025-03-18T18:23:57Z</time>
      </trkpt>
      <trkpt lat="43.64473" lon="1.37963">
        <ele>144</ele>
        <time>2025-03-18T18:23:58Z</time>
      </trkpt>
      <trkpt lat="43.64473" lon="1.37963">
        <ele>144</ele>
        <time>2025-03-18T18:23:59Z</time>
      </trkpt>
      <trkpt lat="43.64475" lon="1.37961">
        <ele>144</ele>
        <time>2025-03-18T18:24:00Z</time>
      </trkpt>
      <trkpt lat="43.64476" lon="1.37959">
        <ele>143</ele>
        <time>2025-03-18T18:24:01Z</time>
      </trkpt>
      <trkpt lat="43.64476" lon="1.37959">
        <ele>144</ele>
        <time>2025-03-18T18:24:02Z</time>
      </trkpt>
      <trkpt lat="43.64478" lon="1.37957">
        <ele>144</ele>
        <time>2025-03-18T18:24:03Z</time>
      </trkpt>
      <trkpt lat="43.64478" lon="1.37957">
        <ele>144</ele>
        <time>2025-03-18T18:24:04Z</time>
      </trkpt>
      <trkpt lat="43.6448" lon="1.37957">
        <ele>144</ele>
        <time>2025-03-18T18:24:05Z</time>
      </trkpt>
      <trkpt lat="43.6448" lon="1.37957">
        <ele>143</ele>
        <time>2025-03-18T18:24:06Z</time>
      </trkpt>
      <trkpt lat="43.64481" lon="1.37957">
        <ele>143</ele>
        <time>2025-03-18T18:24:07Z</time>
      </trkpt>
      <trkpt lat="43.64481" lon="1.37957">
        <ele>143</ele>
        <time>2025-03-18T18:24:08Z</time>
      </trkpt>
      <trkpt lat="43.64481" lon="1.37957">
        <ele>143</ele>
        <time>2025-03-18T18:24:09Z</time>
      </trkpt>
      <trkpt lat="43.64481" lon="1.37957">
        <ele>143</ele>
        <time>2025-03-18T18:24:10Z</time>
      </trkpt>
      <trkpt lat="43.64481" lon="1.37957">
        <ele>143</ele>
        <time>2025-03-18T18:24:12Z</time>
      </trkpt>
      <trkpt lat="43.6448" lon="1.37959">
        <ele>143</ele>
        <time>2025-03-18T18:24:13Z</time>
      </trkpt>
      <trkpt lat="43.6448" lon="1.37959">
        <ele>143</ele>
        <time>2025-03-18T18:24:14Z</time>
      </trkpt>
      <trkpt lat="43.6448" lon="1.37959">
        <ele>143</ele>
        <time>2025-03-18T18:24:15Z</time>
      </trkpt>
      <trkpt lat="43.6448" lon="1.37959">
        <ele>143</ele>
        <time>2025-03-18T18:24:16Z</time>
      </trkpt>
      <trkpt lat="43.6448" lon="1.37959">
        <ele>143</ele>
        <time>2025-03-18T18:24:17Z</time>
      </trkpt>
      <trkpt lat="43.6448" lon="1.37959">
        <ele>143</ele>
        <time>2025-03-18T18:24:18Z</time>
      </trkpt>
      <trkpt lat="43.6448" lon="1.37959">
        <ele>143</ele>
        <time>2025-03-18T18:24:19Z</time>
      </trkpt>
      <trkpt lat="43.6448" lon="1.37959">
        <ele>143</ele>
        <time>2025-03-18T18:24:20Z</time>
      </trkpt>
      <trkpt lat="43.6448" lon="1.37959">
        <ele>143</ele>
        <time>2025-03-18T18:24:21Z</time>
      </trkpt>
      <trkpt lat="43.6448" lon="1.37959">
        <ele>143</ele>
        <time>2025-03-18T18:24:22Z</time>
      </trkpt>
      <trkpt lat="43.6448" lon="1.37959">
        <ele>143</ele>
        <time>2025-03-18T18:24:23Z</time>
      </trkpt>
      <trkpt lat="43.6448" lon="1.37959">
        <ele>143</ele>
        <time>2025-03-18T18:24:24Z</time>
      </trkpt>
      <trkpt lat="43.6448" lon="1.37959">
        <ele>143</ele>
        <time>2025-03-18T18:24:25Z</time>
      </trkpt>
      <trkpt lat="43.6448" lon="1.37959">
        <ele>143</ele>
        <time>2025-03-18T18:24:26Z</time>
      </trkpt>
      <trkpt lat="43.6448" lon="1.37959">
        <ele>143</ele>
        <time>2025-03-18T18:24:27Z</time>
      </trkpt>
      <trkpt lat="43.6448" lon="1.37959">
        <ele>143</ele>
        <time>2025-03-18T18:24:29Z</time>
      </trkpt>
      <trkpt lat="43.6448" lon="1.37959">
        <ele>143</ele>
        <time>2025-03-18T18:24:30Z</time>
      </trkpt>
      <trkpt lat="43.6448" lon="1.37959">
        <ele>143</ele>
        <time>2025-03-18T18:24:32Z</time>
      </trkpt>
      <trkpt lat="43.6448" lon="1.37959">
        <ele>143</ele>
        <time>2025-03-18T18:24:33Z</time>
      </trkpt>
      <trkpt lat="43.6448" lon="1.37959">
        <ele>143</ele>
        <time>2025-03-18T18:24:34Z</time>
      </trkpt>
      <trkpt lat="43.6448" lon="1.37959">
        <ele>143</ele>
        <time>2025-03-18T18:24:35Z</time>
      </trkpt>
      <trkpt lat="43.6448" lon="1.37959">
        <ele>143</ele>
        <time>2025-03-18T18:24:36Z</time>
      </trkpt>
      <trkpt lat="43.6448" lon="1.37959">
        <ele>143</ele>
        <time>2025-03-18T18:24:37Z</time>
      </trkpt>
      <trkpt lat="43.6448" lon="1.37959">
        <ele>143</ele>
        <time>2025-03-18T18:24:38Z</time>
      </trkpt>
      <trkpt lat="43.6448" lon="1.37959">
        <ele>143</ele>
        <time>2025-03-18T18:24:39Z</time>
      </trkpt>
      <trkpt lat="43.6448" lon="1.37959">
        <ele>143</ele>
        <time>2025-03-18T18:24:40Z</time>
      </trkpt>
      <trkpt lat="43.6448" lon="1.37959">
        <ele>143</ele>
        <time>2025-03-18T18:24:41Z</time>
      </trkpt>
      <trkpt lat="43.6448" lon="1.37959">
        <ele>143</ele>
        <time>2025-03-18T18:24:42Z</time>
      </trkpt>
      <trkpt lat="43.6448" lon="1.37959">
        <ele>143</ele>
        <time>2025-03-18T18:24:43Z</time>
      </trkpt>
      <trkpt lat="43.64485" lon="1.37965">
        <ele>143</ele>
        <time>2025-03-18T18:24:44Z</time>
      </trkpt>
      <trkpt lat="43.64488" lon="1.37968">
        <ele>143</ele>
        <time>2025-03-18T18:24:45Z</time>
      </trkpt>
      <trkpt lat="43.64493" lon="1.37972">
        <ele>143</ele>
        <time>2025-03-18T18:24:46Z</time>
      </trkpt>
      <trkpt lat="43.64495" lon="1.37973">
        <ele>143</ele>
        <time>2025-03-18T18:24:47Z</time>
      </trkpt>
      <trkpt lat="43.64502" lon="1.37978">
        <ele>143</ele>
        <time>2025-03-18T18:24:49Z</time>
      </trkpt>
      <trkpt lat="43.64502" lon="1.37978">
        <ele>143</ele>
        <time>2025-03-18T18:24:50Z</time>
      </trkpt>
      <trkpt lat="43.6451" lon="1.37983">
        <ele>144</ele>
        <time>2025-03-18T18:24:51Z</time>
      </trkpt>
      <trkpt lat="43.64518" lon="1.37988">
        <ele>144</ele>
        <time>2025-03-18T18:24:53Z</time>
      </trkpt>
      <trkpt lat="43.64518" lon="1.37988">
        <ele>143</ele>
        <time>2025-03-18T18:24:54Z</time>
      </trkpt>
      <trkpt lat="43.64527" lon="1.3799">
        <ele>143</ele>
        <time>2025-03-18T18:24:55Z</time>
      </trkpt>
      <trkpt lat="43.64532" lon="1.3799">
        <ele>143</ele>
        <time>2025-03-18T18:24:56Z</time>
      </trkpt>
      <trkpt lat="43.64532" lon="1.3799">
        <ele>144</ele>
        <time>2025-03-18T18:24:57Z</time>
      </trkpt>
      <trkpt lat="43.6454" lon="1.37988">
        <ele>145</ele>
        <time>2025-03-18T18:24:58Z</time>
      </trkpt>
      <trkpt lat="43.6454" lon="1.37988">
        <ele>144</ele>
        <time>2025-03-18T18:24:59Z</time>
      </trkpt>
      <trkpt lat="43.64546" lon="1.37984">
        <ele>144</ele>
        <time>2025-03-18T18:25:00Z</time>
      </trkpt>
      <trkpt lat="43.64548" lon="1.37983">
        <ele>144</ele>
        <time>2025-03-18T18:25:01Z</time>
      </trkpt>
      <trkpt lat="43.64552" lon="1.37979">
        <ele>144</ele>
        <time>2025-03-18T18:25:02Z</time>
      </trkpt>
      <trkpt lat="43.6456" lon="1.37969">
        <ele>144</ele>
        <time>2025-03-18T18:25:03Z</time>
      </trkpt>
      <trkpt lat="43.6456" lon="1.37969">
        <ele>143</ele>
        <time>2025-03-18T18:25:04Z</time>
      </trkpt>
      <trkpt lat="43.64568" lon="1.3796">
        <ele>143</ele>
        <time>2025-03-18T18:25:05Z</time>
      </trkpt>
      <trkpt lat="43.64568" lon="1.3796">
        <ele>143</ele>
        <time>2025-03-18T18:25:06Z</time>
      </trkpt>
      <trkpt lat="43.64571" lon="1.3795">
        <ele>143</ele>
        <time>2025-03-18T18:25:07Z</time>
      </trkpt>
      <trkpt lat="43.64572" lon="1.37944">
        <ele>143</ele>
        <time>2025-03-18T18:25:08Z</time>
      </trkpt>
      <trkpt lat="43.64571" lon="1.37932">
        <ele>143</ele>
        <time>2025-03-18T18:25:10Z</time>
      </trkpt>
      <trkpt lat="43.64571" lon="1.37932">
        <ele>142</ele>
        <time>2025-03-18T18:25:12Z</time>
      </trkpt>
      <trkpt lat="43.64565" lon="1.37917">
        <ele>142</ele>
        <time>2025-03-18T18:25:14Z</time>
      </trkpt>
      <trkpt lat="43.6456" lon="1.37913">
        <ele>142</ele>
        <time>2025-03-18T18:25:15Z</time>
      </trkpt>
      <trkpt lat="43.64555" lon="1.37908">
        <ele>143</ele>
        <time>2025-03-18T18:25:16Z</time>
      </trkpt>
      <trkpt lat="43.64551" lon="1.37906">
        <ele>143</ele>
        <time>2025-03-18T18:25:17Z</time>
      </trkpt>
      <trkpt lat="43.64548" lon="1.37904">
        <ele>144</ele>
        <time>2025-03-18T18:25:18Z</time>
      </trkpt>
      <trkpt lat="43.64548" lon="1.37904">
        <ele>144</ele>
        <time>2025-03-18T18:25:19Z</time>
      </trkpt>
      <trkpt lat="43.64543" lon="1.37901">
        <ele>144</ele>
        <time>2025-03-18T18:25:20Z</time>
      </trkpt>
      <trkpt lat="43.64541" lon="1.37901">
        <ele>143</ele>
        <time>2025-03-18T18:25:21Z</time>
      </trkpt>
      <trkpt lat="43.64537" lon="1.37899">
        <ele>143</ele>
        <time>2025-03-18T18:25:22Z</time>
      </trkpt>
      <trkpt lat="43.64531" lon="1.37895">
        <ele>143</ele>
        <time>2025-03-18T18:25:23Z</time>
      </trkpt>
      <trkpt lat="43.64527" lon="1.37893">
        <ele>142</ele>
        <time>2025-03-18T18:25:24Z</time>
      </trkpt>
      <trkpt lat="43.64527" lon="1.37893">
        <ele>142</ele>
        <time>2025-03-18T18:25:25Z</time>
      </trkpt>
      <trkpt lat="43.64524" lon="1.3789">
        <ele>142</ele>
        <time>2025-03-18T18:25:26Z</time>
      </trkpt>
      <trkpt lat="43.6452" lon="1.37889">
        <ele>142</ele>
        <time>2025-03-18T18:25:27Z</time>
      </trkpt>
      <trkpt lat="43.64514" lon="1.37886">
        <ele>142</ele>
        <time>2025-03-18T18:25:28Z</time>
      </trkpt>
      <trkpt lat="43.64512" lon="1.37885">
        <ele>142</ele>
        <time>2025-03-18T18:25:29Z</time>
      </trkpt>
      <trkpt lat="43.64504" lon="1.37881">
        <ele>142</ele>
        <time>2025-03-18T18:25:30Z</time>
      </trkpt>
      <trkpt lat="43.645" lon="1.37879">
        <ele>142</ele>
        <time>2025-03-18T18:25:31Z</time>
      </trkpt>
      <trkpt lat="43.645" lon="1.37879">
        <ele>142</ele>
        <time>2025-03-18T18:25:32Z</time>
      </trkpt>
      <trkpt lat="43.64493" lon="1.37876">
        <ele>141</ele>
        <time>2025-03-18T18:25:33Z</time>
      </trkpt>
      <trkpt lat="43.64493" lon="1.37876">
        <ele>141</ele>
        <time>2025-03-18T18:25:34Z</time>
      </trkpt>
      <trkpt lat="43.64486" lon="1.37874">
        <ele>142</ele>
        <time>2025-03-18T18:25:35Z</time>
      </trkpt>
      <trkpt lat="43.64486" lon="1.37874">
        <ele>142</ele>
        <time>2025-03-18T18:25:37Z</time>
      </trkpt>
      <trkpt lat="43.64482" lon="1.37876">
        <ele>142</ele>
        <time>2025-03-18T18:25:38Z</time>
      </trkpt>
      <trkpt lat="43.64479" lon="1.37877">
        <ele>142</ele>
        <time>2025-03-18T18:25:39Z</time>
      </trkpt>
      <trkpt lat="43.64471" lon="1.37881">
        <ele>143</ele>
        <time>2025-03-18T18:25:40Z</time>
      </trkpt>
      <trkpt lat="43.64466" lon="1.37888">
        <ele>143</ele>
        <time>2025-03-18T18:25:41Z</time>
      </trkpt>
      <trkpt lat="43.64466" lon="1.37888">
        <ele>142</ele>
        <time>2025-03-18T18:25:42Z</time>
      </trkpt>
      <trkpt lat="43.64463" lon="1.37896">
        <ele>142</ele>
        <time>2025-03-18T18:25:43Z</time>
      </trkpt>
      <trkpt lat="43.64461" lon="1.379">
        <ele>142</ele>
        <time>2025-03-18T18:25:44Z</time>
      </trkpt>
      <trkpt lat="43.6446" lon="1.3791">
        <ele>142</ele>
        <time>2025-03-18T18:25:46Z</time>
      </trkpt>
      <trkpt lat="43.6446" lon="1.37915">
        <ele>142</ele>
        <time>2025-03-18T18:25:48Z</time>
      </trkpt>
      <trkpt lat="43.64459" lon="1.3792">
        <ele>142</ele>
        <time>2025-03-18T18:25:49Z</time>
      </trkpt>
      <trkpt lat="43.64461" lon="1.3793">
        <ele>142</ele>
        <time>2025-03-18T18:25:50Z</time>
      </trkpt>
      <trkpt lat="43.64462" lon="1.37935">
        <ele>142</ele>
        <time>2025-03-18T18:25:51Z</time>
      </trkpt>
      <trkpt lat="43.64467" lon="1.37944">
        <ele>142</ele>
        <time>2025-03-18T18:25:53Z</time>
      </trkpt>
      <trkpt lat="43.64471" lon="1.37947">
        <ele>142</ele>
        <time>2025-03-18T18:25:54Z</time>
      </trkpt>
      <trkpt lat="43.64473" lon="1.37949">
        <ele>141</ele>
        <time>2025-03-18T18:25:55Z</time>
      </trkpt>
      <trkpt lat="43.64477" lon="1.37951">
        <ele>141</ele>
        <time>2025-03-18T18:25:56Z</time>
      </trkpt>
      <trkpt lat="43.6448" lon="1.37954">
        <ele>142</ele>
        <time>2025-03-18T18:25:58Z</time>
      </trkpt>
      <trkpt lat="43.64484" lon="1.37956">
        <ele>142</ele>
        <time>2025-03-18T18:25:59Z</time>
      </trkpt>
      <trkpt lat="43.6449" lon="1.3796">
        <ele>142</ele>
        <time>2025-03-18T18:26:00Z</time>
      </trkpt>
      <trkpt lat="43.6449" lon="1.3796">
        <ele>142</ele>
        <time>2025-03-18T18:26:01Z</time>
      </trkpt>
      <trkpt lat="43.64497" lon="1.37963">
        <ele>142</ele>
        <time>2025-03-18T18:26:02Z</time>
      </trkpt>
      <trkpt lat="43.645" lon="1.37965">
        <ele>143</ele>
        <time>2025-03-18T18:26:04Z</time>
      </trkpt>
      <trkpt lat="43.64504" lon="1.37967">
        <ele>143</ele>
        <time>2025-03-18T18:26:05Z</time>
      </trkpt>
      <trkpt lat="43.64509" lon="1.37971">
        <ele>143</ele>
        <time>2025-03-18T18:26:06Z</time>
      </trkpt>
      <trkpt lat="43.64511" lon="1.37972">
        <ele>142</ele>
        <time>2025-03-18T18:26:07Z</time>
      </trkpt>
      <trkpt lat="43.64517" lon="1.37976">
        <ele>142</ele>
        <time>2025-03-18T18:26:08Z</time>
      </trkpt>
      <trkpt lat="43.64517" lon="1.37976">
        <ele>143</ele>
        <time>2025-03-18T18:26:09Z</time>
      </trkpt>
      <trkpt lat="43.64523" lon="1.3798">
        <ele>143</ele>
        <time>2025-03-18T18:26:10Z</time>
      </trkpt>
      <trkpt lat="43.64526" lon="1.37982">
        <ele>143</ele>
        <time>2025-03-18T18:26:11Z</time>
      </trkpt>
      <trkpt lat="43.64526" lon="1.37982">
        <ele>143</ele>
        <time>2025-03-18T18:26:12Z</time>
      </trkpt>
      <trkpt lat="43.64531" lon="1.37986">
        <ele>143</ele>
        <time>2025-03-18T18:26:13Z</time>
      </trkpt>
      <trkpt lat="43.64531" lon="1.37986">
        <ele>144</ele>
        <time>2025-03-18T18:26:14Z</time>
      </trkpt>
      <trkpt lat="43.64533" lon="1.37988">
        <ele>144</ele>
        <time>2025-03-18T18:26:15Z</time>
      </trkpt>
      <trkpt lat="43.64533" lon="1.37988">
        <ele>144</ele>
        <time>2025-03-18T18:26:16Z</time>
      </trkpt>
      <trkpt lat="43.64533" lon="1.37988">
        <ele>144</ele>
        <time>2025-03-18T18:26:17Z</time>
      </trkpt>
      <trkpt lat="43.64533" lon="1.37988">
        <ele>144</ele>
        <time>2025-03-18T18:26:18Z</time>
      </trkpt>
      <trkpt lat="43.64533" lon="1.37988">
        <ele>144</ele>
        <time>2025-03-18T18:26:19Z</time>
      </trkpt>
      <trkpt lat="43.64532" lon="1.37985">
        <ele>144</ele>
        <time>2025-03-18T18:26:20Z</time>
      </trkpt>
      <trkpt lat="43.64532" lon="1.37985">
        <ele>144</ele>
        <time>2025-03-18T18:26:21Z</time>
      </trkpt>
      <trkpt lat="43.64529" lon="1.37985">
        <ele>144</ele>
        <time>2025-03-18T18:26:22Z</time>
      </trkpt>
      <trkpt lat="43.64528" lon="1.37984">
        <ele>144</ele>
        <time>2025-03-18T18:26:23Z</time>
      </trkpt>
      <trkpt lat="43.64528" lon="1.37984">
        <ele>144</ele>
        <time>2025-03-18T18:26:24Z</time>
      </trkpt>
      <trkpt lat="43.64526" lon="1.37983">
        <ele>143</ele>
        <time>2025-03-18T18:26:26Z</time>
      </trkpt>
      <trkpt lat="43.64523" lon="1.37983">
        <ele>143</ele>
        <time>2025-03-18T18:26:28Z</time>
      </trkpt>
      <trkpt lat="43.64523" lon="1.37983">
        <ele>143</ele>
        <time>2025-03-18T18:26:29Z</time>
      </trkpt>
      <trkpt lat="43.64521" lon="1.37983">
        <ele>143</ele>
        <time>2025-03-18T18:26:30Z</time>
      </trkpt>
      <trkpt lat="43.64521" lon="1.37983">
        <ele>143</ele>
        <time>2025-03-18T18:26:31Z</time>
      </trkpt>
      <trkpt lat="43.64519" lon="1.37984">
        <ele>143</ele>
        <time>2025-03-18T18:26:32Z</time>
      </trkpt>
      <trkpt lat="43.64519" lon="1.37984">
        <ele>143</ele>
        <time>2025-03-18T18:26:33Z</time>
      </trkpt>
      <trkpt lat="43.64517" lon="1.37984">
        <ele>143</ele>
        <time>2025-03-18T18:26:34Z</time>
      </trkpt>
      <trkpt lat="43.64517" lon="1.37984">
        <ele>143</ele>
        <time>2025-03-18T18:26:35Z</time>
      </trkpt>
      <trkpt lat="43.64517" lon="1.37984">
        <ele>143</ele>
        <time>2025-03-18T18:26:36Z</time>
      </trkpt>
      <trkpt lat="43.64515" lon="1.37984">
        <ele>143</ele>
        <time>2025-03-18T18:26:37Z</time>
      </trkpt>
      <trkpt lat="43.64515" lon="1.37984">
        <ele>143</ele>
        <time>2025-03-18T18:26:39Z</time>
      </trkpt>
      <trkpt lat="43.64512" lon="1.37983">
        <ele>143</ele>
        <time>2025-03-18T18:26:40Z</time>
      </trkpt>
      <trkpt lat="43.6451" lon="1.37982">
        <ele>143</ele>
        <time>2025-03-18T18:26:41Z</time>
      </trkpt>
      <trkpt lat="43.6451" lon="1.37982">
        <ele>143</ele>
        <time>2025-03-18T18:26:42Z</time>
      </trkpt>
      <trkpt lat="43.6451" lon="1.37982">
        <ele>143</ele>
        <time>2025-03-18T18:26:43Z</time>
      </trkpt>
      <trkpt lat="43.6451" lon="1.37982">
        <ele>144</ele>
        <time>2025-03-18T18:26:45Z</time>
      </trkpt>
      <trkpt lat="43.64508" lon="1.37981">
        <ele>144</ele>
        <time>2025-03-18T18:26:46Z</time>
      </trkpt>
      <trkpt lat="43.64505" lon="1.3798">
        <ele>144</ele>
        <time>2025-03-18T18:26:47Z</time>
      </trkpt>
      <trkpt lat="43.64505" lon="1.3798">
        <ele>144</ele>
        <time>2025-03-18T18:26:48Z</time>
      </trkpt>
      <trkpt lat="43.64503" lon="1.37979">
        <ele>144</ele>
        <time>2025-03-18T18:26:49Z</time>
      </trkpt>
      <trkpt lat="43.64503" lon="1.37979">
        <ele>143</ele>
        <time>2025-03-18T18:26:50Z</time>
      </trkpt>
      <trkpt lat="43.64501" lon="1.37978">
        <ele>143</ele>
        <time>2025-03-18T18:26:51Z</time>
      </trkpt>
      <trkpt lat="43.64501" lon="1.37978">
        <ele>143</ele>
        <time>2025-03-18T18:26:52Z</time>
      </trkpt>
      <trkpt lat="43.64501" lon="1.37978">
        <ele>143</ele>
        <time>2025-03-18T18:26:53Z</time>
      </trkpt>
      <trkpt lat="43.64498" lon="1.37976">
        <ele>143</ele>
        <time>2025-03-18T18:26:54Z</time>
      </trkpt>
      <trkpt lat="43.64498" lon="1.37976">
        <ele>143</ele>
        <time>2025-03-18T18:26:55Z</time>
      </trkpt>
      <trkpt lat="43.64496" lon="1.37975">
        <ele>143</ele>
        <time>2025-03-18T18:26:56Z</time>
      </trkpt>
      <trkpt lat="43.64496" lon="1.37975">
        <ele>143</ele>
        <time>2025-03-18T18:26:57Z</time>
      </trkpt>
      <trkpt lat="43.64494" lon="1.37974">
        <ele>143</ele>
        <time>2025-03-18T18:26:58Z</time>
      </trkpt>
      <trkpt lat="43.64494" lon="1.37974">
        <ele>143</ele>
        <time>2025-03-18T18:26:59Z</time>
      </trkpt>
      <trkpt lat="43.64491" lon="1.37972">
        <ele>143</ele>
        <time>2025-03-18T18:27:00Z</time>
      </trkpt>
      <trkpt lat="43.64489" lon="1.37971">
        <ele>143</ele>
        <time>2025-03-18T18:27:01Z</time>
      </trkpt>
      <trkpt lat="43.64489" lon="1.37971">
        <ele>143</ele>
        <time>2025-03-18T18:27:02Z</time>
      </trkpt>
      <trkpt lat="43.64489" lon="1.37971">
        <ele>143</ele>
        <time>2025-03-18T18:27:04Z</time>
      </trkpt>
      <trkpt lat="43.64487" lon="1.3797">
        <ele>143</ele>
        <time>2025-03-18T18:27:05Z</time>
      </trkpt>
      <trkpt lat="43.64487" lon="1.3797">
        <ele>143</ele>
        <time>2025-03-18T18:27:06Z</time>
      </trkpt>
      <trkpt lat="43.64487" lon="1.3797">
        <ele>143</ele>
        <time>2025-03-18T18:27:07Z</time>
      </trkpt>
      <trkpt lat="43.64486" lon="1.37967">
        <ele>143</ele>
        <time>2025-03-18T18:27:08Z</time>
      </trkpt>
      <trkpt lat="43.64486" lon="1.37967">
        <ele>143</ele>
        <time>2025-03-18T18:27:09Z</time>
      </trkpt>
      <trkpt lat="43.64484" lon="1.37965">
        <ele>143</ele>
        <time>2025-03-18T18:27:10Z</time>
      </trkpt>
      <trkpt lat="43.64481" lon="1.37964">
        <ele>143</ele>
        <time>2025-03-18T18:27:11Z</time>
      </trkpt>
      <trkpt lat="43.64481" lon="1.37964">
        <ele>143</ele>
        <time>2025-03-18T18:27:12Z</time>
      </trkpt>
      <trkpt lat="43.64481" lon="1.37964">
        <ele>143</ele>
        <time>2025-03-18T18:27:13Z</time>
      </trkpt>
      <trkpt lat="43.64479" lon="1.37962">
        <ele>143</ele>
        <time>2025-03-18T18:27:14Z</time>
      </trkpt>
      <trkpt lat="43.64479" lon="1.37962">
        <ele>143</ele>
        <time>2025-03-18T18:27:15Z</time>
      </trkpt>
      <trkpt lat="43.64478" lon="1.3796">
        <ele>143</ele>
        <time>2025-03-18T18:27:16Z</time>
      </trkpt>
      <trkpt lat="43.64478" lon="1.3796">
        <ele>143</ele>
        <time>2025-03-18T18:27:17Z</time>
      </trkpt>
      <trkpt lat="43.64478" lon="1.37956">
        <ele>143</ele>
        <time>2025-03-18T18:27:18Z</time>
      </trkpt>
      <trkpt lat="43.64478" lon="1.37956">
        <ele>143</ele>
        <time>2025-03-18T18:27:19Z</time>
      </trkpt>
      <trkpt lat="43.64478" lon="1.37956">
        <ele>143</ele>
        <time>2025-03-18T18:27:20Z</time>
      </trkpt>
      <trkpt lat="43.64478" lon="1.37956">
        <ele>143</ele>
        <time>2025-03-18T18:27:21Z</time>
      </trkpt>
      <trkpt lat="43.64478" lon="1.37956">
        <ele>143</ele>
        <time>2025-03-18T18:27:23Z</time>
      </trkpt>
      <trkpt lat="43.64478" lon="1.37956">
        <ele>143</ele>
        <time>2025-03-18T18:27:24Z</time>
      </trkpt>
      <trkpt lat="43.64478" lon="1.37956">
        <ele>144</ele>
        <time>2025-03-18T18:27:25Z</time>
      </trkpt>
      <trkpt lat="43.64478" lon="1.37956">
        <ele>144</ele>
        <time>2025-03-18T18:27:26Z</time>
      </trkpt>
      <trkpt lat="43.64478" lon="1.37956">
        <ele>144</ele>
        <time>2025-03-18T18:27:27Z</time>
      </trkpt>
      <trkpt lat="43.64478" lon="1.37956">
        <ele>144</ele>
        <time>2025-03-18T18:27:28Z</time>
      </trkpt>
      <trkpt lat="43.64475" lon="1.37956">
        <ele>144</ele>
        <time>2025-03-18T18:27:29Z</time>
      </trkpt>
      <trkpt lat="43.64475" lon="1.37956">
        <ele>144</ele>
        <time>2025-03-18T18:27:30Z</time>
      </trkpt>
      <trkpt lat="43.64475" lon="1.37956">
        <ele>144</ele>
        <time>2025-03-18T18:27:31Z</time>
      </trkpt>
      <trkpt lat="43.64474" lon="1.37958">
        <ele>144</ele>
        <time>2025-03-18T18:27:32Z</time>
      </trkpt>
      <trkpt lat="43.64474" lon="1.37958">
        <ele>144</ele>
        <time>2025-03-18T18:27:33Z</time>
      </trkpt>
      <trkpt lat="43.64474" lon="1.37958">
        <ele>144</ele>
        <time>2025-03-18T18:27:34Z</time>
      </trkpt>
      <trkpt lat="43.64474" lon="1.37958">
        <ele>144</ele>
        <time>2025-03-18T18:27:35Z</time>
      </trkpt>
      <trkpt lat="43.64474" lon="1.37958">
        <ele>144</ele>
        <time>2025-03-18T18:27:36Z</time>
      </trkpt>
      <trkpt lat="43.64474" lon="1.37958">
        <ele>144</ele>
        <time>2025-03-18T18:27:37Z</time>
      </trkpt>
      <trkpt lat="43.64474" lon="1.37958">
        <ele>144</ele>
        <time>2025-03-18T18:27:38Z</time>
      </trkpt>
      <trkpt lat="43.64474" lon="1.37958">
        <ele>144</ele>
        <time>2025-03-18T18:27:39Z</time>
      </trkpt>
      <trkpt lat="43.64474" lon="1.37958">
        <ele>144</ele>
        <time>2025-03-18T18:27:40Z</time>
      </trkpt>
      <trkpt lat="43.64476" lon="1.37958">
        <ele>144</ele>
        <time>2025-03-18T18:27:41Z</time>
      </trkpt>
      <trkpt lat="43.64476" lon="1.37958">
        <ele>144</ele>
        <time>2025-03-18T18:27:42Z</time>
      </trkpt>
      <trkpt lat="43.64476" lon="1.37958">
        <ele>144</ele>
        <time>2025-03-18T18:27:43Z</time>
      </trkpt>
      <trkpt lat="43.64478" lon="1.3796">
        <ele>144</ele>
        <time>2025-03-18T18:27:44Z</time>
      </trkpt>
      <trkpt lat="43.64478" lon="1.3796">
        <ele>144</ele>
        <time>2025-03-18T18:27:45Z</time>
      </trkpt>
      <trkpt lat="43.64478" lon="1.3796">
        <ele>144</ele>
        <time>2025-03-18T18:27:46Z</time>
      </trkpt>
      <trkpt lat="43.64478" lon="1.3796">
        <ele>144</ele>
        <time>2025-03-18T18:27:47Z</time>
      </trkpt>
      <trkpt lat="43.64478" lon="1.3796">
        <ele>144</ele>
        <time>2025-03-18T18:27:48Z</time>
      </trkpt>
      <trkpt lat="43.64478" lon="1.3796">
        <ele>144</ele>
        <time>2025-03-18T18:27:49Z</time>
      </trkpt>
      <trkpt lat="43.64478" lon="1.3796">
        <ele>144</ele>
        <time>2025-03-18T18:27:50Z</time>
      </trkpt>
      <trkpt lat="43.64478" lon="1.3796">
        <ele>144</ele>
        <time>2025-03-18T18:27:51Z</time>
      </trkpt>
      <trkpt lat="43.64478" lon="1.3796">
        <ele>144</ele>
        <time>2025-03-18T18:27:52Z</time>
      </trkpt>
      <trkpt lat="43.64478" lon="1.3796">
        <ele>144</ele>
        <time>2025-03-18T18:27:53Z</time>
      </trkpt>
      <trkpt lat="43.64478" lon="1.3796">
        <ele>144</ele>
        <time>2025-03-18T18:27:54Z</time>
      </trkpt>
      <trkpt lat="43.64478" lon="1.3796">
        <ele>144</ele>
        <time>2025-03-18T18:27:55Z</time>
      </trkpt>
      <trkpt lat="43.64479" lon="1.37958">
        <ele>144</ele>
        <time>2025-03-18T18:27:56Z</time>
      </trkpt>
      <trkpt lat="43.64479" lon="1.37958">
        <ele>144</ele>
        <time>2025-03-18T18:27:57Z</time>
      </trkpt>
      <trkpt lat="43.64479" lon="1.37958">
        <ele>144</ele>
        <time>2025-03-18T18:27:58Z</time>
      </trkpt>
      <trkpt lat="43.64479" lon="1.37958">
        <ele>144</ele>
        <time>2025-03-18T18:27:59Z</time>
      </trkpt>
      <trkpt lat="43.64479" lon="1.37958">
        <ele>143</ele>
        <time>2025-03-18T18:28:01Z</time>
      </trkpt>
      <trkpt lat="43.64479" lon="1.37958">
        <ele>143</ele>
        <time>2025-03-18T18:28:02Z</time>
      </trkpt>
      <trkpt lat="43.64479" lon="1.37958">
        <ele>143</ele>
        <time>2025-03-18T18:28:03Z</time>
      </trkpt>
      <trkpt lat="43.64479" lon="1.37958">
        <ele>143</ele>
        <time>2025-03-18T18:28:04Z</time>
      </trkpt>
      <trkpt lat="43.64479" lon="1.37958">
        <ele>143</ele>
        <time>2025-03-18T18:28:05Z</time>
      </trkpt>
      <trkpt lat="43.64481" lon="1.37959">
        <ele>143</ele>
        <time>2025-03-18T18:28:07Z</time>
      </trkpt>
      <trkpt lat="43.64484" lon="1.3796">
        <ele>143</ele>
        <time>2025-03-18T18:28:08Z</time>
      </trkpt>
      <trkpt lat="43.64492" lon="1.37964">
        <ele>143</ele>
        <time>2025-03-18T18:28:09Z</time>
      </trkpt>
      <trkpt lat="43.64496" lon="1.37967">
        <ele>143</ele>
        <time>2025-03-18T18:28:10Z</time>
      </trkpt>
      <trkpt lat="43.645" lon="1.37969">
        <ele>143</ele>
        <time>2025-03-18T18:28:11Z</time>
      </trkpt>
      <trkpt lat="43.645" lon="1.37969">
        <ele>143</ele>
        <time>2025-03-18T18:28:12Z</time>
      </trkpt>
      <trkpt lat="43.64504" lon="1.37971">
        <ele>143</ele>
        <time>2025-03-18T18:28:13Z</time>
      </trkpt>
      <trkpt lat="43.64508" lon="1.37974">
        <ele>143</ele>
        <time>2025-03-18T18:28:14Z</time>
      </trkpt>
      <trkpt lat="43.64514" lon="1.37977">
        <ele>143</ele>
        <time>2025-03-18T18:28:15Z</time>
      </trkpt>
      <trkpt lat="43.64516" lon="1.37978">
        <ele>143</ele>
        <time>2025-03-18T18:28:16Z</time>
      </trkpt>
      <trkpt lat="43.6452" lon="1.3798">
        <ele>143</ele>
        <time>2025-03-18T18:28:17Z</time>
      </trkpt>
      <trkpt lat="43.64524" lon="1.37983">
        <ele>143</ele>
        <time>2025-03-18T18:28:18Z</time>
      </trkpt>
      <trkpt lat="43.64531" lon="1.37986">
        <ele>143</ele>
        <time>2025-03-18T18:28:19Z</time>
      </trkpt>
      <trkpt lat="43.64533" lon="1.37986">
        <ele>144</ele>
        <time>2025-03-18T18:28:20Z</time>
      </trkpt>
      <trkpt lat="43.64537" lon="1.37987">
        <ele>145</ele>
        <time>2025-03-18T18:28:21Z</time>
      </trkpt>
      <trkpt lat="43.64539" lon="1.37986">
        <ele>145</ele>
        <time>2025-03-18T18:28:22Z</time>
      </trkpt>
      <trkpt lat="43.64541" lon="1.37986">
        <ele>145</ele>
        <time>2025-03-18T18:28:23Z</time>
      </trkpt>
      <trkpt lat="43.64543" lon="1.37986">
        <ele>145</ele>
        <time>2025-03-18T18:28:24Z</time>
      </trkpt>
      <trkpt lat="43.64554" lon="1.37981">
        <ele>145</ele>
        <time>2025-03-18T18:28:25Z</time>
      </trkpt>
      <trkpt lat="43.64559" lon="1.37977">
        <ele>144</ele>
        <time>2025-03-18T18:28:26Z</time>
      </trkpt>
      <trkpt lat="43.64564" lon="1.37973">
        <ele>143</ele>
        <time>2025-03-18T18:28:28Z</time>
      </trkpt>
      <trkpt lat="43.64567" lon="1.37969">
        <ele>143</ele>
        <time>2025-03-18T18:28:29Z</time>
      </trkpt>
      <trkpt lat="43.6457" lon="1.37964">
        <ele>142</ele>
        <time>2025-03-18T18:28:30Z</time>
      </trkpt>
      <trkpt lat="43.64572" lon="1.3796">
        <ele>142</ele>
        <time>2025-03-18T18:28:31Z</time>
      </trkpt>
      <trkpt lat="43.64573" lon="1.37954">
        <ele>142</ele>
        <time>2025-03-18T18:28:32Z</time>
      </trkpt>
      <trkpt lat="43.64573" lon="1.37948">
        <ele>141</ele>
        <time>2025-03-18T18:28:33Z</time>
      </trkpt>
      <trkpt lat="43.64573" lon="1.37942">
        <ele>141</ele>
        <time>2025-03-18T18:28:34Z</time>
      </trkpt>
      <trkpt lat="43.64573" lon="1.37936">
        <ele>141</ele>
        <time>2025-03-18T18:28:35Z</time>
      </trkpt>
      <trkpt lat="43.64572" lon="1.37931">
        <ele>141</ele>
        <time>2025-03-18T18:28:36Z</time>
      </trkpt>
      <trkpt lat="43.6457" lon="1.37925">
        <ele>142</ele>
        <time>2025-03-18T18:28:37Z</time>
      </trkpt>
      <trkpt lat="43.64567" lon="1.37918">
        <ele>142</ele>
        <time>2025-03-18T18:28:38Z</time>
      </trkpt>
      <trkpt lat="43.64566" lon="1.37916">
        <ele>142</ele>
        <time>2025-03-18T18:28:39Z</time>
      </trkpt>
      <trkpt lat="43.6456" lon="1.3791">
        <ele>142</ele>
        <time>2025-03-18T18:28:40Z</time>
      </trkpt>
      <trkpt lat="43.6456" lon="1.3791">
        <ele>142</ele>
        <time>2025-03-18T18:28:41Z</time>
      </trkpt>
      <trkpt lat="43.64552" lon="1.37907">
        <ele>143</ele>
        <time>2025-03-18T18:28:42Z</time>
      </trkpt>
      <trkpt lat="43.64552" lon="1.37907">
        <ele>144</ele>
        <time>2025-03-18T18:28:43Z</time>
      </trkpt>
      <trkpt lat="43.64545" lon="1.37904">
        <ele>144</ele>
        <time>2025-03-18T18:28:44Z</time>
      </trkpt>
      <trkpt lat="43.64545" lon="1.37904">
        <ele>144</ele>
        <time>2025-03-18T18:28:45Z</time>
      </trkpt>
      <trkpt lat="43.64537" lon="1.37901">
        <ele>144</ele>
        <time>2025-03-18T18:28:46Z</time>
      </trkpt>
      <trkpt lat="43.64533" lon="1.37899">
        <ele>143</ele>
        <time>2025-03-18T18:28:47Z</time>
      </trkpt>
      <trkpt lat="43.64533" lon="1.37899">
        <ele>143</ele>
        <time>2025-03-18T18:28:48Z</time>
      </trkpt>
      <trkpt lat="43.64529" lon="1.37897">
        <ele>143</ele>
        <time>2025-03-18T18:28:49Z</time>
      </trkpt>
      <trkpt lat="43.64525" lon="1.37895">
        <ele>143</ele>
        <time>2025-03-18T18:28:50Z</time>
      </trkpt>
      <trkpt lat="43.64519" lon="1.37891">
        <ele>143</ele>
        <time>2025-03-18T18:28:51Z</time>
      </trkpt>
      <trkpt lat="43.64515" lon="1.37888">
        <ele>143</ele>
        <time>2025-03-18T18:28:52Z</time>
      </trkpt>
      <trkpt lat="43.64512" lon="1.37886">
        <ele>143</ele>
        <time>2025-03-18T18:28:54Z</time>
      </trkpt>
      <trkpt lat="43.64508" lon="1.37884">
        <ele>143</ele>
        <time>2025-03-18T18:28:55Z</time>
      </trkpt>
      <trkpt lat="43.64501" lon="1.37879">
        <ele>143</ele>
        <time>2025-03-18T18:28:56Z</time>
      </trkpt>
      <trkpt lat="43.64498" lon="1.37877">
        <ele>143</ele>
        <time>2025-03-18T18:28:58Z</time>
      </trkpt>
      <trkpt lat="43.6449" lon="1.37875">
        <ele>143</ele>
        <time>2025-03-18T18:28:59Z</time>
      </trkpt>
      <trkpt lat="43.6449" lon="1.37875">
        <ele>143</ele>
        <time>2025-03-18T18:29:00Z</time>
      </trkpt>
      <trkpt lat="43.64483" lon="1.37873">
        <ele>143</ele>
        <time>2025-03-18T18:29:01Z</time>
      </trkpt>
      <trkpt lat="43.64483" lon="1.37873">
        <ele>143</ele>
        <time>2025-03-18T18:29:02Z</time>
      </trkpt>
      <trkpt lat="43.64472" lon="1.37878">
        <ele>143</ele>
        <time>2025-03-18T18:29:04Z</time>
      </trkpt>
      <trkpt lat="43.64469" lon="1.37881">
        <ele>144</ele>
        <time>2025-03-18T18:29:06Z</time>
      </trkpt>
      <trkpt lat="43.64466" lon="1.37885">
        <ele>144</ele>
        <time>2025-03-18T18:29:07Z</time>
      </trkpt>
      <trkpt lat="43.64464" lon="1.37889">
        <ele>144</ele>
        <time>2025-03-18T18:29:08Z</time>
      </trkpt>
      <trkpt lat="43.64463" lon="1.37893">
        <ele>144</ele>
        <time>2025-03-18T18:29:09Z</time>
      </trkpt>
      <trkpt lat="43.64461" lon="1.37902">
        <ele>144</ele>
        <time>2025-03-18T18:29:10Z</time>
      </trkpt>
      <trkpt lat="43.6446" lon="1.37907">
        <ele>144</ele>
        <time>2025-03-18T18:29:11Z</time>
      </trkpt>
      <trkpt lat="43.64459" lon="1.37912">
        <ele>144</ele>
        <time>2025-03-18T18:29:12Z</time>
      </trkpt>
      <trkpt lat="43.64459" lon="1.37917">
        <ele>144</ele>
        <time>2025-03-18T18:29:13Z</time>
      </trkpt>
      <trkpt lat="43.64459" lon="1.37917">
        <ele>144</ele>
        <time>2025-03-18T18:29:14Z</time>
      </trkpt>
      <trkpt lat="43.64459" lon="1.37922">
        <ele>144</ele>
        <time>2025-03-18T18:29:15Z</time>
      </trkpt>
      <trkpt lat="43.64461" lon="1.3793">
        <ele>144</ele>
        <time>2025-03-18T18:29:16Z</time>
      </trkpt>
      <trkpt lat="43.64461" lon="1.37933">
        <ele>144</ele>
        <time>2025-03-18T18:29:17Z</time>
      </trkpt>
      <trkpt lat="43.64465" lon="1.3794">
        <ele>144</ele>
        <time>2025-03-18T18:29:18Z</time>
      </trkpt>
      <trkpt lat="43.64466" lon="1.37942">
        <ele>144</ele>
        <time>2025-03-18T18:29:19Z</time>
      </trkpt>
      <trkpt lat="43.64469" lon="1.37946">
        <ele>144</ele>
        <time>2025-03-18T18:29:20Z</time>
      </trkpt>
      <trkpt lat="43.64476" lon="1.37951">
        <ele>144</ele>
        <time>2025-03-18T18:29:21Z</time>
      </trkpt>
      <trkpt lat="43.64476" lon="1.37951">
        <ele>144</ele>
        <time>2025-03-18T18:29:22Z</time>
      </trkpt>
      <trkpt lat="43.64483" lon="1.37955">
        <ele>144</ele>
        <time>2025-03-18T18:29:23Z</time>
      </trkpt>
      <trkpt lat="43.64487" lon="1.37957">
        <ele>144</ele>
        <time>2025-03-18T18:29:24Z</time>
      </trkpt>
      <trkpt lat="43.64487" lon="1.37957">
        <ele>144</ele>
        <time>2025-03-18T18:29:25Z</time>
      </trkpt>
      <trkpt lat="43.64491" lon="1.3796">
        <ele>144</ele>
        <time>2025-03-18T18:29:26Z</time>
      </trkpt>
      <trkpt lat="43.64494" lon="1.37962">
        <ele>144</ele>
        <time>2025-03-18T18:29:27Z</time>
      </trkpt>
      <trkpt lat="43.64502" lon="1.37966">
        <ele>144</ele>
        <time>2025-03-18T18:29:28Z</time>
      </trkpt>
      <trkpt lat="43.64502" lon="1.37966">
        <ele>144</ele>
        <time>2025-03-18T18:29:29Z</time>
      </trkpt>
      <trkpt lat="43.64505" lon="1.37967">
        <ele>144</ele>
        <time>2025-03-18T18:29:30Z</time>
      </trkpt>
      <trkpt lat="43.64511" lon="1.37971">
        <ele>144</ele>
        <time>2025-03-18T18:29:31Z</time>
      </trkpt>
      <trkpt lat="43.64514" lon="1.37974">
        <ele>144</ele>
        <time>2025-03-18T18:29:32Z</time>
      </trkpt>
      <trkpt lat="43.64514" lon="1.37974">
        <ele>144</ele>
        <time>2025-03-18T18:29:33Z</time>
      </trkpt>
      <trkpt lat="43.64519" lon="1.37977">
        <ele>144</ele>
        <time>2025-03-18T18:29:34Z</time>
      </trkpt>
      <trkpt lat="43.64523" lon="1.3798">
        <ele>144</ele>
        <time>2025-03-18T18:29:36Z</time>
      </trkpt>
      <trkpt lat="43.64528" lon="1.37983">
        <ele>144</ele>
        <time>2025-03-18T18:29:37Z</time>
      </trkpt>
      <trkpt lat="43.6453" lon="1.37985">
        <ele>144</ele>
        <time>2025-03-18T18:29:38Z</time>
      </trkpt>
      <trkpt lat="43.6453" lon="1.37985">
        <ele>144</ele>
        <time>2025-03-18T18:29:39Z</time>
      </trkpt>
      <trkpt lat="43.6453" lon="1.37985">
        <ele>144</ele>
        <time>2025-03-18T18:29:40Z</time>
      </trkpt>
      <trkpt lat="43.64532" lon="1.37986">
        <ele>144</ele>
        <time>2025-03-18T18:29:41Z</time>
      </trkpt>
      <trkpt lat="43.64532" lon="1.37986">
        <ele>144</ele>
        <time>2025-03-18T18:29:42Z</time>
      </trkpt>
      <trkpt lat="43.64532" lon="1.37986">
        <ele>144</ele>
        <time>2025-03-18T18:29:43Z</time>
      </trkpt>
      <trkpt lat="43.64531" lon="1.37984">
        <ele>144</ele>
        <time>2025-03-18T18:29:44Z</time>
      </trkpt>
      <trkpt lat="43.64531" lon="1.37984">
        <ele>144</ele>
        <time>2025-03-18T18:29:45Z</time>
      </trkpt>
      <trkpt lat="43.64529" lon="1.37984">
        <ele>144</ele>
        <time>2025-03-18T18:29:46Z</time>
      </trkpt>
      <trkpt lat="43.64529" lon="1.37984">
        <ele>144</ele>
        <time>2025-03-18T18:29:47Z</time>
      </trkpt>
      <trkpt lat="43.64526" lon="1.37984">
        <ele>144</ele>
        <time>2025-03-18T18:29:48Z</time>
      </trkpt>
      <trkpt lat="43.64526" lon="1.37984">
        <ele>144</ele>
        <time>2025-03-18T18:29:49Z</time>
      </trkpt>
      <trkpt lat="43.64523" lon="1.37984">
        <ele>144</ele>
        <time>2025-03-18T18:29:50Z</time>
      </trkpt>
      <trkpt lat="43.64523" lon="1.37984">
        <ele>144</ele>
        <time>2025-03-18T18:29:51Z</time>
      </trkpt>
      <trkpt lat="43.6452" lon="1.37984">
        <ele>144</ele>
        <time>2025-03-18T18:29:52Z</time>
      </trkpt>
      <trkpt lat="43.64518" lon="1.37983">
        <ele>144</ele>
        <time>2025-03-18T18:29:53Z</time>
      </trkpt>
      <trkpt lat="43.64514" lon="1.37983">
        <ele>143</ele>
        <time>2025-03-18T18:29:55Z</time>
      </trkpt>
      <trkpt lat="43.64514" lon="1.37983">
        <ele>143</ele>
        <time>2025-03-18T18:29:57Z</time>
      </trkpt>
      <trkpt lat="43.64512" lon="1.37983">
        <ele>143</ele>
        <time>2025-03-18T18:29:58Z</time>
      </trkpt>
      <trkpt lat="43.64512" lon="1.37983">
        <ele>142</ele>
        <time>2025-03-18T18:29:59Z</time>
      </trkpt>
      <trkpt lat="43.64512" lon="1.37983">
        <ele>142</ele>
        <time>2025-03-18T18:30:00Z</time>
      </trkpt>
      <trkpt lat="43.64512" lon="1.37983">
        <ele>142</ele>
        <time>2025-03-18T18:30:01Z</time>
      </trkpt>
      <trkpt lat="43.6451" lon="1.37983">
        <ele>143</ele>
        <time>2025-03-18T18:30:02Z</time>
      </trkpt>
      <trkpt lat="43.6451" lon="1.37983">
        <ele>143</ele>
        <time>2025-03-18T18:30:03Z</time>
      </trkpt>
      <trkpt lat="43.64507" lon="1.37982">
        <ele>143</ele>
        <time>2025-03-18T18:30:04Z</time>
      </trkpt>
      <trkpt lat="43.64507" lon="1.37982">
        <ele>143</ele>
        <time>2025-03-18T18:30:05Z</time>
      </trkpt>
      <trkpt lat="43.64505" lon="1.37981">
        <ele>143</ele>
        <time>2025-03-18T18:30:06Z</time>
      </trkpt>
      <trkpt lat="43.64505" lon="1.37981">
        <ele>143</ele>
        <time>2025-03-18T18:30:07Z</time>
      </trkpt>
      <trkpt lat="43.64503" lon="1.37981">
        <ele>143</ele>
        <time>2025-03-18T18:30:08Z</time>
      </trkpt>
      <trkpt lat="43.64503" lon="1.37981">
        <ele>143</ele>
        <time>2025-03-18T18:30:09Z</time>
      </trkpt>
      <trkpt lat="43.64503" lon="1.37981">
        <ele>143</ele>
        <time>2025-03-18T18:30:10Z</time>
      </trkpt>
      <trkpt lat="43.64501" lon="1.3798">
        <ele>143</ele>
        <time>2025-03-18T18:30:11Z</time>
      </trkpt>
      <trkpt lat="43.64499" lon="1.37979">
        <ele>143</ele>
        <time>2025-03-18T18:30:12Z</time>
      </trkpt>
      <trkpt lat="43.64497" lon="1.37978">
        <ele>143</ele>
        <time>2025-03-18T18:30:14Z</time>
      </trkpt>
      <trkpt lat="43.64497" lon="1.37978">
        <ele>143</ele>
        <time>2025-03-18T18:30:15Z</time>
      </trkpt>
      <trkpt lat="43.64497" lon="1.37978">
        <ele>143</ele>
        <time>2025-03-18T18:30:16Z</time>
      </trkpt>
      <trkpt lat="43.64497" lon="1.37978">
        <ele>143</ele>
        <time>2025-03-18T18:30:17Z</time>
      </trkpt>
      <trkpt lat="43.64495" lon="1.37977">
        <ele>143</ele>
        <time>2025-03-18T18:30:18Z</time>
      </trkpt>
      <trkpt lat="43.64495" lon="1.37977">
        <ele>143</ele>
        <time>2025-03-18T18:30:19Z</time>
      </trkpt>
      <trkpt lat="43.64493" lon="1.37976">
        <ele>143</ele>
        <time>2025-03-18T18:30:20Z</time>
      </trkpt>
      <trkpt lat="43.64492" lon="1.37974">
        <ele>143</ele>
        <time>2025-03-18T18:30:21Z</time>
      </trkpt>
      <trkpt lat="43.64492" lon="1.37974">
        <ele>143</ele>
        <time>2025-03-18T18:30:22Z</time>
      </trkpt>
      <trkpt lat="43.64492" lon="1.37974">
        <ele>143</ele>
        <time>2025-03-18T18:30:23Z</time>
      </trkpt>
      <trkpt lat="43.6449" lon="1.37973">
        <ele>143</ele>
        <time>2025-03-18T18:30:24Z</time>
      </trkpt>
      <trkpt lat="43.64488" lon="1.37971">
        <ele>143</ele>
        <time>2025-03-18T18:30:25Z</time>
      </trkpt>
      <trkpt lat="43.64488" lon="1.37971">
        <ele>143</ele>
        <time>2025-03-18T18:30:26Z</time>
      </trkpt>
      <trkpt lat="43.64488" lon="1.37971">
        <ele>143</ele>
        <time>2025-03-18T18:30:27Z</time>
      </trkpt>
      <trkpt lat="43.64486" lon="1.37969">
        <ele>143</ele>
        <time>2025-03-18T18:30:28Z</time>
      </trkpt>
      <trkpt lat="43.64486" lon="1.37969">
        <ele>143</ele>
        <time>2025-03-18T18:30:29Z</time>
      </trkpt>
      <trkpt lat="43.64483" lon="1.37968">
        <ele>143</ele>
        <time>2025-03-18T18:30:30Z</time>
      </trkpt>
      <trkpt lat="43.64483" lon="1.37968">
        <ele>143</ele>
        <time>2025-03-18T18:30:31Z</time>
      </trkpt>
      <trkpt lat="43.64481" lon="1.37967">
        <ele>143</ele>
        <time>2025-03-18T18:30:32Z</time>
      </trkpt>
      <trkpt lat="43.64481" lon="1.37967">
        <ele>144</ele>
        <time>2025-03-18T18:30:33Z</time>
      </trkpt>
      <trkpt lat="43.64479" lon="1.37965">
        <ele>144</ele>
        <time>2025-03-18T18:30:34Z</time>
      </trkpt>
      <trkpt lat="43.64479" lon="1.37965">
        <ele>144</ele>
        <time>2025-03-18T18:30:35Z</time>
      </trkpt>
      <trkpt lat="43.64477" lon="1.37964">
        <ele>144</ele>
        <time>2025-03-18T18:30:36Z</time>
      </trkpt>
      <trkpt lat="43.64477" lon="1.37964">
        <ele>144</ele>
        <time>2025-03-18T18:30:37Z</time>
      </trkpt>
      <trkpt lat="43.64477" lon="1.37964">
        <ele>144</ele>
        <time>2025-03-18T18:30:38Z</time>
      </trkpt>
      <trkpt lat="43.64475" lon="1.37962">
        <ele>144</ele>
        <time>2025-03-18T18:30:39Z</time>
      </trkpt>
      <trkpt lat="43.64475" lon="1.37962">
        <ele>144</ele>
        <time>2025-03-18T18:30:40Z</time>
      </trkpt>
      <trkpt lat="43.64475" lon="1.37962">
        <ele>144</ele>
        <time>2025-03-18T18:30:41Z</time>
      </trkpt>
      <trkpt lat="43.64472" lon="1.37962">
        <ele>144</ele>
        <time>2025-03-18T18:30:42Z</time>
      </trkpt>
      <trkpt lat="43.64472" lon="1.37962">
        <ele>144</ele>
        <time>2025-03-18T18:30:43Z</time>
      </trkpt>
      <trkpt lat="43.64472" lon="1.37962">
        <ele>144</ele>
        <time>2025-03-18T18:30:44Z</time>
      </trkpt>
      <trkpt lat="43.64472" lon="1.37962">
        <ele>144</ele>
        <time>2025-03-18T18:30:45Z</time>
      </trkpt>
      <trkpt lat="43.64472" lon="1.37962">
        <ele>144</ele>
        <time>2025-03-18T18:30:46Z</time>
      </trkpt>
      <trkpt lat="43.64472" lon="1.37962">
        <ele>144</ele>
        <time>2025-03-18T18:30:47Z</time>
      </trkpt>
      <trkpt lat="43.64472" lon="1.37962">
        <ele>144</ele>
        <time>2025-03-18T18:30:48Z</time>
      </trkpt>
      <trkpt lat="43.64472" lon="1.37962">
        <ele>144</ele>
        <time>2025-03-18T18:30:49Z</time>
      </trkpt>
      <trkpt lat="43.64472" lon="1.37962">
        <ele>144</ele>
        <time>2025-03-18T18:30:50Z</time>
      </trkpt>
      <trkpt lat="43.64472" lon="1.37962">
        <ele>145</ele>
        <time>2025-03-18T18:30:52Z</time>
      </trkpt>
      <trkpt lat="43.64472" lon="1.37962">
        <ele>145</ele>
        <time>2025-03-18T18:30:53Z</time>
      </trkpt>
      <trkpt lat="43.64472" lon="1.37962">
        <ele>145</ele>
        <time>2025-03-18T18:30:54Z</time>
      </trkpt>
      <trkpt lat="43.64474" lon="1.3796">
        <ele>144</ele>
        <time>2025-03-18T18:30:55Z</time>
      </trkpt>
      <trkpt lat="43.64474" lon="1.3796">
        <ele>144</ele>
        <time>2025-03-18T18:30:56Z</time>
      </trkpt>
      <trkpt lat="43.64475" lon="1.37957">
        <ele>144</ele>
        <time>2025-03-18T18:30:57Z</time>
      </trkpt>
      <trkpt lat="43.64475" lon="1.37957">
        <ele>144</ele>
        <time>2025-03-18T18:30:59Z</time>
      </trkpt>
      <trkpt lat="43.64476" lon="1.37955">
        <ele>144</ele>
        <time>2025-03-18T18:31:00Z</time>
      </trkpt>
      <trkpt lat="43.64476" lon="1.37955">
        <ele>144</ele>
        <time>2025-03-18T18:31:01Z</time>
      </trkpt>
      <trkpt lat="43.64476" lon="1.37955">
        <ele>144</ele>
        <time>2025-03-18T18:31:02Z</time>
      </trkpt>
      <trkpt lat="43.64478" lon="1.37952">
        <ele>144</ele>
        <time>2025-03-18T18:31:03Z</time>
      </trkpt>
      <trkpt lat="43.64478" lon="1.37952">
        <ele>144</ele>
        <time>2025-03-18T18:31:04Z</time>
      </trkpt>
      <trkpt lat="43.64478" lon="1.37952">
        <ele>144</ele>
        <time>2025-03-18T18:31:05Z</time>
      </trkpt>
      <trkpt lat="43.64478" lon="1.37952">
        <ele>144</ele>
        <time>2025-03-18T18:31:06Z</time>
      </trkpt>
      <trkpt lat="43.64478" lon="1.37952">
        <ele>145</ele>
        <time>2025-03-18T18:31:08Z</time>
      </trkpt>
      <trkpt lat="43.64478" lon="1.37952">
        <ele>145</ele>
        <time>2025-03-18T18:31:09Z</time>
      </trkpt>
      <trkpt lat="43.64476" lon="1.37954">
        <ele>145</ele>
        <time>2025-03-18T18:31:10Z</time>
      </trkpt>
      <trkpt lat="43.64476" lon="1.37954">
        <ele>144</ele>
        <time>2025-03-18T18:31:11Z</time>
      </trkpt>
      <trkpt lat="43.64476" lon="1.37954">
        <ele>144</ele>
        <time>2025-03-18T18:31:12Z</time>
      </trkpt>
      <trkpt lat="43.64476" lon="1.37954">
        <ele>144</ele>
        <time>2025-03-18T18:31:13Z</time>
      </trkpt>
      <trkpt lat="43.64476" lon="1.37954">
        <ele>144</ele>
        <time>2025-03-18T18:31:14Z</time>
      </trkpt>
      <trkpt lat="43.64476" lon="1.37954">
        <ele>144</ele>
        <time>2025-03-18T18:31:15Z</time>
      </trkpt>
      <trkpt lat="43.64476" lon="1.37954">
        <ele>144</ele>
        <time>2025-03-18T18:31:16Z</time>
      </trkpt>
      <trkpt lat="43.64476" lon="1.37954">
        <ele>144</ele>
        <time>2025-03-18T18:31:17Z</time>
      </trkpt>
      <trkpt lat="43.64476" lon="1.37954">
        <ele>144</ele>
        <time>2025-03-18T18:31:18Z</time>
      </trkpt>
      <trkpt lat="43.64476" lon="1.37954">
        <ele>145</ele>
        <time>2025-03-18T18:31:19Z</time>
      </trkpt>
      <trkpt lat="43.64476" lon="1.37954">
        <ele>145</ele>
        <time>2025-03-18T18:31:20Z</time>
      </trkpt>
      <trkpt lat="43.64476" lon="1.37954">
        <ele>145</ele>
        <time>2025-03-18T18:31:21Z</time>
      </trkpt>
      <trkpt lat="43.64476" lon="1.37954">
        <ele>145</ele>
        <time>2025-03-18T18:31:22Z</time>
      </trkpt>
      <trkpt lat="43.64476" lon="1.37954">
        <ele>145</ele>
        <time>2025-03-18T18:31:23Z</time>
      </trkpt>
      <trkpt lat="43.64476" lon="1.37954">
        <ele>145</ele>
        <time>2025-03-18T18:31:24Z</time>
      </trkpt>
      <trkpt lat="43.64476" lon="1.37954">
        <ele>145</ele>
        <time>2025-03-18T18:31:25Z</time>
      </trkpt>
      <trkpt lat="43.64476" lon="1.37954">
        <ele>145</ele>
        <time>2025-03-18T18:31:26Z</time>
      </trkpt>
      <trkpt lat="43.64476" lon="1.37954">
        <ele>145</ele>
        <time>2025-03-18T18:31:27Z</time>
      </trkpt>
      <trkpt lat="43.64476" lon="1.37954">
        <ele>144</ele>
        <time>2025-03-18T18:31:28Z</time>
      </trkpt>
      <trkpt lat="43.64476" lon="1.37954">
        <ele>144</ele>
        <time>2025-03-18T18:31:30Z</time>
      </trkpt>
      <trkpt lat="43.64476" lon="1.37954">
        <ele>145</ele>
        <time>2025-03-18T18:31:32Z</time>
      </trkpt>
      <trkpt lat="43.64476" lon="1.37954">
        <ele>145</ele>
        <time>2025-03-18T18:31:33Z</time>
      </trkpt>
      <trkpt lat="43.64476" lon="1.37954">
        <ele>145</ele>
        <time>2025-03-18T18:31:34Z</time>
      </trkpt>
      <trkpt lat="43.64476" lon="1.37954">
        <ele>145</ele>
        <time>2025-03-18T18:31:35Z</time>
      </trkpt>
      <trkpt lat="43.64476" lon="1.37954">
        <ele>145</ele>
        <time>2025-03-18T18:31:36Z</time>
      </trkpt>
      <trkpt lat="43.64476" lon="1.37954">
        <ele>145</ele>
        <time>2025-03-18T18:31:37Z</time>
      </trkpt>
      <trkpt lat="43.64476" lon="1.37954">
        <ele>145</ele>
        <time>2025-03-18T18:31:38Z</time>
      </trkpt>
      <trkpt lat="43.64476" lon="1.37954">
        <ele>145</ele>
        <time>2025-03-18T18:31:39Z</time>
      </trkpt>
      <trkpt lat="43.64476" lon="1.37954">
        <ele>145</ele>
        <time>2025-03-18T18:31:40Z</time>
      </trkpt>
      <trkpt lat="43.64476" lon="1.37954">
        <ele>145</ele>
        <time>2025-03-18T18:31:41Z</time>
      </trkpt>
      <trkpt lat="43.64476" lon="1.37954">
        <ele>145</ele>
        <time>2025-03-18T18:31:42Z</time>
      </trkpt>
      <trkpt lat="43.64476" lon="1.37954">
        <ele>145</ele>
        <time>2025-03-18T18:31:43Z</time>
      </trkpt>
      <trkpt lat="43.64476" lon="1.37954">
        <ele>145</ele>
        <time>2025-03-18T18:31:45Z</time>
      </trkpt>
      <trkpt lat="43.64476" lon="1.37954">
        <ele>145</ele>
        <time>2025-03-18T18:31:46Z</time>
      </trkpt>
      <trkpt lat="43.64476" lon="1.37954">
        <ele>145</ele>
        <time>2025-03-18T18:31:47Z</time>
      </trkpt>
      <trkpt lat="43.64476" lon="1.37954">
        <ele>145</ele>
        <time>2025-03-18T18:31:49Z</time>
      </trkpt>
      <trkpt lat="43.64476" lon="1.37954">
        <ele>145</ele>
        <time>2025-03-18T18:31:50Z</time>
      </trkpt>
      <trkpt lat="43.64476" lon="1.37954">
        <ele>145</ele>
        <time>2025-03-18T18:31:51Z</time>
      </trkpt>
      <trkpt lat="43.64476" lon="1.37954">
        <ele>145</ele>
        <time>2025-03-18T18:31:52Z</time>
      </trkpt>
      <trkpt lat="43.64476" lon="1.37954">
        <ele>145</ele>
        <time>2025-03-18T18:31:53Z</time>
      </trkpt>
      <trkpt lat="43.64476" lon="1.37954">
        <ele>145</ele>
        <time>2025-03-18T18:31:54Z</time>
      </trkpt>
      <trkpt lat="43.64476" lon="1.37954">
        <ele>145</ele>
        <time>2025-03-18T18:31:55Z</time>
      </trkpt>
      <trkpt lat="43.64476" lon="1.37954">
        <ele>145</ele>
        <time>2025-03-18T18:31:56Z</time>
      </trkpt>
      <trkpt lat="43.64478" lon="1.37955">
        <ele>145</ele>
        <time>2025-03-18T18:31:57Z</time>
      </trkpt>
      <trkpt lat="43.64478" lon="1.37955">
        <ele>145</ele>
        <time>2025-03-18T18:31:59Z</time>
      </trkpt>
      <trkpt lat="43.64478" lon="1.37955">
        <ele>145</ele>
        <time>2025-03-18T18:32:00Z</time>
      </trkpt>
      <trkpt lat="43.64478" lon="1.37955">
        <ele>145</ele>
        <time>2025-03-18T18:32:01Z</time>
      </trkpt>
      <trkpt lat="43.64478" lon="1.37955">
        <ele>145</ele>
        <time>2025-03-18T18:32:02Z</time>
      </trkpt>
      <trkpt lat="43.64478" lon="1.37955">
        <ele>145</ele>
        <time>2025-03-18T18:32:03Z</time>
      </trkpt>
      <trkpt lat="43.64479" lon="1.37957">
        <ele>145</ele>
        <time>2025-03-18T18:32:04Z</time>
      </trkpt>
      <trkpt lat="43.64479" lon="1.37958">
        <ele>144</ele>
        <time>2025-03-18T18:33:26Z</time>
      </trkpt>
      <trkpt lat="43.64479" lon="1.37958">
        <ele>144</ele>
        <time>2025-03-18T18:33:27Z</time>
      </trkpt>
      <trkpt lat="43.64479" lon="1.37958">
        <ele>144</ele>
        <time>2025-03-18T18:33:28Z</time>
      </trkpt>
      <trkpt lat="43.64479" lon="1.37958">
        <ele>144</ele>
        <time>2025-03-18T18:33:29Z</time>
      </trkpt>
      <trkpt lat="43.64479" lon="1.37958">
        <ele>144</ele>
        <time>2025-03-18T18:33:30Z</time>
      </trkpt>
      <trkpt lat="43.64479" lon="1.37958">
        <ele>144</ele>
        <time>2025-03-18T18:33:31Z</time>
      </trkpt>
      <trkpt lat="43.64479" lon="1.37958">
        <ele>144</ele>
        <time>2025-03-18T18:33:32Z</time>
      </trkpt>
      <trkpt lat="43.64479" lon="1.37958">
        <ele>144</ele>
        <time>2025-03-18T18:33:33Z</time>
      </trkpt>
      <trkpt lat="43.64479" lon="1.37958">
        <ele>144</ele>
        <time>2025-03-18T18:33:34Z</time>
      </trkpt>
      <trkpt lat="43.64481" lon="1.37959">
        <ele>144</ele>
        <time>2025-03-18T18:33:35Z</time>
      </trkpt>
      <trkpt lat="43.64481" lon="1.37959">
        <ele>144</ele>
        <time>2025-03-18T18:33:36Z</time>
      </trkpt>
      <trkpt lat="43.64486" lon="1.37963">
        <ele>144</ele>
        <time>2025-03-18T18:33:37Z</time>
      </trkpt>
      <trkpt lat="43.64486" lon="1.37963">
        <ele>144</ele>
        <time>2025-03-18T18:33:38Z</time>
      </trkpt>
      <trkpt lat="43.64493" lon="1.37967">
        <ele>144</ele>
        <time>2025-03-18T18:33:39Z</time>
      </trkpt>
      <trkpt lat="43.64497" lon="1.37969">
        <ele>144</ele>
        <time>2025-03-18T18:33:40Z</time>
      </trkpt>
      <trkpt lat="43.64505" lon="1.37973">
        <ele>144</ele>
        <time>2025-03-18T18:33:42Z</time>
      </trkpt>
      <trkpt lat="43.64505" lon="1.37973">
        <ele>144</ele>
        <time>2025-03-18T18:33:43Z</time>
      </trkpt>
      <trkpt lat="43.64512" lon="1.37978">
        <ele>144</ele>
        <time>2025-03-18T18:33:44Z</time>
      </trkpt>
      <trkpt lat="43.64516" lon="1.3798">
        <ele>144</ele>
        <time>2025-03-18T18:33:46Z</time>
      </trkpt>
      <trkpt lat="43.64524" lon="1.37985">
        <ele>144</ele>
        <time>2025-03-18T18:33:47Z</time>
      </trkpt>
      <trkpt lat="43.64524" lon="1.37985">
        <ele>144</ele>
        <time>2025-03-18T18:33:48Z</time>
      </trkpt>
      <trkpt lat="43.64531" lon="1.37988">
        <ele>144</ele>
        <time>2025-03-18T18:33:49Z</time>
      </trkpt>
      <trkpt lat="43.64533" lon="1.37988">
        <ele>145</ele>
        <time>2025-03-18T18:33:50Z</time>
      </trkpt>
      <trkpt lat="43.64538" lon="1.37988">
        <ele>145</ele>
        <time>2025-03-18T18:33:51Z</time>
      </trkpt>
      <trkpt lat="43.64547" lon="1.37986">
        <ele>145</ele>
        <time>2025-03-18T18:33:52Z</time>
      </trkpt>
      <trkpt lat="43.64547" lon="1.37986">
        <ele>145</ele>
        <time>2025-03-18T18:33:53Z</time>
      </trkpt>
      <trkpt lat="43.64551" lon="1.37983">
        <ele>145</ele>
        <time>2025-03-18T18:33:54Z</time>
      </trkpt>
      <trkpt lat="43.64556" lon="1.3798">
        <ele>145</ele>
        <time>2025-03-18T18:33:55Z</time>
      </trkpt>
      <trkpt lat="43.64561" lon="1.37974">
        <ele>145</ele>
        <time>2025-03-18T18:33:56Z</time>
      </trkpt>
      <trkpt lat="43.64563" lon="1.37971">
        <ele>144</ele>
        <time>2025-03-18T18:33:57Z</time>
      </trkpt>
      <trkpt lat="43.64568" lon="1.37961">
        <ele>144</ele>
        <time>2025-03-18T18:33:58Z</time>
      </trkpt>
      <trkpt lat="43.64568" lon="1.37961">
        <ele>142</ele>
        <time>2025-03-18T18:33:59Z</time>
      </trkpt>
      <trkpt lat="43.6457" lon="1.3795">
        <ele>142</ele>
        <time>2025-03-18T18:34:00Z</time>
      </trkpt>
      <trkpt lat="43.6457" lon="1.3795">
        <ele>142</ele>
        <time>2025-03-18T18:34:01Z</time>
      </trkpt>
      <trkpt lat="43.64571" lon="1.37938">
        <ele>142</ele>
        <time>2025-03-18T18:34:02Z</time>
      </trkpt>
      <trkpt lat="43.64571" lon="1.37938">
        <ele>142</ele>
        <time>2025-03-18T18:34:03Z</time>
      </trkpt>
      <trkpt lat="43.64569" lon="1.37928">
        <ele>142</ele>
        <time>2025-03-18T18:34:04Z</time>
      </trkpt>
      <trkpt lat="43.64568" lon="1.37923">
        <ele>141</ele>
        <time>2025-03-18T18:34:05Z</time>
      </trkpt>
      <trkpt lat="43.64568" lon="1.37923">
        <ele>141</ele>
        <time>2025-03-18T18:34:06Z</time>
      </trkpt>
      <trkpt lat="43.64562" lon="1.37914">
        <ele>142</ele>
        <time>2025-03-18T18:34:07Z</time>
      </trkpt>
      <trkpt lat="43.64562" lon="1.37914">
        <ele>142</ele>
        <time>2025-03-18T18:34:08Z</time>
      </trkpt>
      <trkpt lat="43.64555" lon="1.37909">
        <ele>142</ele>
        <time>2025-03-18T18:34:09Z</time>
      </trkpt>
      <trkpt lat="43.64552" lon="1.37906">
        <ele>142</ele>
        <time>2025-03-18T18:34:10Z</time>
      </trkpt>
      <trkpt lat="43.64552" lon="1.37906">
        <ele>143</ele>
        <time>2025-03-18T18:34:11Z</time>
      </trkpt>
      <trkpt lat="43.64544" lon="1.37901">
        <ele>143</ele>
        <time>2025-03-18T18:34:12Z</time>
      </trkpt>
      <trkpt lat="43.64544" lon="1.37901">
        <ele>142</ele>
        <time>2025-03-18T18:34:13Z</time>
      </trkpt>
      <trkpt lat="43.64535" lon="1.37898">
        <ele>142</ele>
        <time>2025-03-18T18:34:14Z</time>
      </trkpt>
      <trkpt lat="43.64535" lon="1.37898">
        <ele>142</ele>
        <time>2025-03-18T18:34:15Z</time>
      </trkpt>
      <trkpt lat="43.64527" lon="1.37893">
        <ele>142</ele>
        <time>2025-03-18T18:34:16Z</time>
      </trkpt>
      <trkpt lat="43.64524" lon="1.37891">
        <ele>143</ele>
        <time>2025-03-18T18:34:17Z</time>
      </trkpt>
      <trkpt lat="43.64524" lon="1.37891">
        <ele>143</ele>
        <time>2025-03-18T18:34:18Z</time>
      </trkpt>
      <trkpt lat="43.64516" lon="1.37887">
        <ele>143</ele>
        <time>2025-03-18T18:34:19Z</time>
      </trkpt>
      <trkpt lat="43.64516" lon="1.37887">
        <ele>142</ele>
        <time>2025-03-18T18:34:20Z</time>
      </trkpt>
      <trkpt lat="43.64508" lon="1.37883">
        <ele>142</ele>
        <time>2025-03-18T18:34:21Z</time>
      </trkpt>
      <trkpt lat="43.64504" lon="1.37881">
        <ele>143</ele>
        <time>2025-03-18T18:34:22Z</time>
      </trkpt>
      <trkpt lat="43.64501" lon="1.37878">
        <ele>143</ele>
        <time>2025-03-18T18:34:24Z</time>
      </trkpt>
      <trkpt lat="43.64494" lon="1.37874">
        <ele>143</ele>
        <time>2025-03-18T18:34:25Z</time>
      </trkpt>
      <trkpt lat="43.64491" lon="1.37873">
        <ele>143</ele>
        <time>2025-03-18T18:34:26Z</time>
      </trkpt>
      <trkpt lat="43.64487" lon="1.37873">
        <ele>143</ele>
        <time>2025-03-18T18:34:27Z</time>
      </trkpt>
      <trkpt lat="43.64484" lon="1.37873">
        <ele>143</ele>
        <time>2025-03-18T18:34:28Z</time>
      </trkpt>
      <trkpt lat="43.64484" lon="1.37873">
        <ele>143</ele>
        <time>2025-03-18T18:34:29Z</time>
      </trkpt>
      <trkpt lat="43.6448" lon="1.37874">
        <ele>143</ele>
        <time>2025-03-18T18:34:30Z</time>
      </trkpt>
      <trkpt lat="43.64477" lon="1.37876">
        <ele>144</ele>
        <time>2025-03-18T18:34:31Z</time>
      </trkpt>
      <trkpt lat="43.64474" lon="1.37878">
        <ele>144</ele>
        <time>2025-03-18T18:34:32Z</time>
      </trkpt>
      <trkpt lat="43.6447" lon="1.37881">
        <ele>144</ele>
        <time>2025-03-18T18:34:33Z</time>
      </trkpt>
      <trkpt lat="43.64466" lon="1.37889">
        <ele>144</ele>
        <time>2025-03-18T18:34:34Z</time>
      </trkpt>
      <trkpt lat="43.64464" lon="1.37892">
        <ele>144</ele>
        <time>2025-03-18T18:34:35Z</time>
      </trkpt>
      <trkpt lat="43.64464" lon="1.37892">
        <ele>144</ele>
        <time>2025-03-18T18:34:36Z</time>
      </trkpt>
      <trkpt lat="43.6446" lon="1.37902">
        <ele>144</ele>
        <time>2025-03-18T18:34:37Z</time>
      </trkpt>
      <trkpt lat="43.6446" lon="1.37907">
        <ele>145</ele>
        <time>2025-03-18T18:34:38Z</time>
      </trkpt>
      <trkpt lat="43.64459" lon="1.37912">
        <ele>145</ele>
        <time>2025-03-18T18:34:39Z</time>
      </trkpt>
      <trkpt lat="43.64459" lon="1.37912">
        <ele>144</ele>
        <time>2025-03-18T18:34:40Z</time>
      </trkpt>
      <trkpt lat="43.64459" lon="1.37916">
        <ele>144</ele>
        <time>2025-03-18T18:34:41Z</time>
      </trkpt>
      <trkpt lat="43.64459" lon="1.37921">
        <ele>144</ele>
        <time>2025-03-18T18:34:42Z</time>
      </trkpt>
      <trkpt lat="43.6446" lon="1.37926">
        <ele>144</ele>
        <time>2025-03-18T18:34:43Z</time>
      </trkpt>
      <trkpt lat="43.64462" lon="1.37934">
        <ele>144</ele>
        <time>2025-03-18T18:34:44Z</time>
      </trkpt>
      <trkpt lat="43.64463" lon="1.37936">
        <ele>143</ele>
        <time>2025-03-18T18:34:45Z</time>
      </trkpt>
      <trkpt lat="43.64465" lon="1.37941">
        <ele>143</ele>
        <time>2025-03-18T18:34:46Z</time>
      </trkpt>
      <trkpt lat="43.64472" lon="1.37949">
        <ele>143</ele>
        <time>2025-03-18T18:34:47Z</time>
      </trkpt>
      <trkpt lat="43.64473" lon="1.37951">
        <ele>144</ele>
        <time>2025-03-18T18:34:48Z</time>
      </trkpt>
      <trkpt lat="43.64473" lon="1.37951">
        <ele>144</ele>
        <time>2025-03-18T18:34:49Z</time>
      </trkpt>
      <trkpt lat="43.6448" lon="1.37956">
        <ele>144</ele>
        <time>2025-03-18T18:34:50Z</time>
      </trkpt>
      <trkpt lat="43.6448" lon="1.37956">
        <ele>144</ele>
        <time>2025-03-18T18:34:51Z</time>
      </trkpt>
      <trkpt lat="43.64488" lon="1.37959">
        <ele>144</ele>
        <time>2025-03-18T18:34:52Z</time>
      </trkpt>
      <trkpt lat="43.64491" lon="1.37961">
        <ele>144</ele>
        <time>2025-03-18T18:34:53Z</time>
      </trkpt>
      <trkpt lat="43.64491" lon="1.37961">
        <ele>144</ele>
        <time>2025-03-18T18:34:54Z</time>
      </trkpt>
      <trkpt lat="43.64498" lon="1.37967">
        <ele>144</ele>
        <time>2025-03-18T18:34:55Z</time>
      </trkpt>
      <trkpt lat="43.64498" lon="1.37967">
        <ele>144</ele>
        <time>2025-03-18T18:34:56Z</time>
      </trkpt>
      <trkpt lat="43.64504" lon="1.37971">
        <ele>144</ele>
        <time>2025-03-18T18:34:57Z</time>
      </trkpt>
      <trkpt lat="43.64507" lon="1.37973">
        <ele>144</ele>
        <time>2025-03-18T18:34:58Z</time>
      </trkpt>
      <trkpt lat="43.64507" lon="1.37973">
        <ele>144</ele>
        <time>2025-03-18T18:34:59Z</time>
      </trkpt>
      <trkpt lat="43.64511" lon="1.37975">
        <ele>144</ele>
        <time>2025-03-18T18:35:00Z</time>
      </trkpt>
      <trkpt lat="43.64516" lon="1.37978">
        <ele>144</ele>
        <time>2025-03-18T18:35:01Z</time>
      </trkpt>
      <trkpt lat="43.64518" lon="1.3798">
        <ele>143</ele>
        <time>2025-03-18T18:35:02Z</time>
      </trkpt>
      <trkpt lat="43.64524" lon="1.37984">
        <ele>143</ele>
        <time>2025-03-18T18:35:03Z</time>
      </trkpt>
      <trkpt lat="43.64524" lon="1.37984">
        <ele>143</ele>
        <time>2025-03-18T18:35:04Z</time>
      </trkpt>
      <trkpt lat="43.64529" lon="1.37985">
        <ele>143</ele>
        <time>2025-03-18T18:35:05Z</time>
      </trkpt>
      <trkpt lat="43.64529" lon="1.37985">
        <ele>144</ele>
        <time>2025-03-18T18:35:06Z</time>
      </trkpt>
      <trkpt lat="43.64529" lon="1.37985">
        <ele>144</ele>
        <time>2025-03-18T18:35:07Z</time>
      </trkpt>
      <trkpt lat="43.64529" lon="1.37985">
        <ele>144</ele>
        <time>2025-03-18T18:35:08Z</time>
      </trkpt>
      <trkpt lat="43.64529" lon="1.37985">
        <ele>144</ele>
        <time>2025-03-18T18:35:09Z</time>
      </trkpt>
      <trkpt lat="43.64527" lon="1.37986">
        <ele>144</ele>
        <time>2025-03-18T18:35:10Z</time>
      </trkpt>
      <trkpt lat="43.64527" lon="1.37986">
        <ele>144</ele>
        <time>2025-03-18T18:35:11Z</time>
      </trkpt>
      <trkpt lat="43.64527" lon="1.37986">
        <ele>144</ele>
        <time>2025-03-18T18:35:12Z</time>
      </trkpt>
      <trkpt lat="43.64527" lon="1.37986">
        <ele>144</ele>
        <time>2025-03-18T18:35:13Z</time>
      </trkpt>
      <trkpt lat="43.64525" lon="1.37987">
        <ele>144</ele>
        <time>2025-03-18T18:35:14Z</time>
      </trkpt>
      <trkpt lat="43.64525" lon="1.37987">
        <ele>144</ele>
        <time>2025-03-18T18:35:15Z</time>
      </trkpt>
      <trkpt lat="43.64525" lon="1.37987">
        <ele>144</ele>
        <time>2025-03-18T18:35:16Z</time>
      </trkpt>
      <trkpt lat="43.64523" lon="1.37987">
        <ele>144</ele>
        <time>2025-03-18T18:35:17Z</time>
      </trkpt>
      <trkpt lat="43.64523" lon="1.37987">
        <ele>144</ele>
        <time>2025-03-18T18:35:18Z</time>
      </trkpt>
      <trkpt lat="43.64521" lon="1.37986">
        <ele>144</ele>
        <time>2025-03-18T18:35:19Z</time>
      </trkpt>
      <trkpt lat="43.64518" lon="1.37985">
        <ele>144</ele>
        <time>2025-03-18T18:35:21Z</time>
      </trkpt>
      <trkpt lat="43.64516" lon="1.37985">
        <ele>144</ele>
        <time>2025-03-18T18:35:22Z</time>
      </trkpt>
      <trkpt lat="43.64516" lon="1.37985">
        <ele>144</ele>
        <time>2025-03-18T18:35:23Z</time>
      </trkpt>
      <trkpt lat="43.64516" lon="1.37985">
        <ele>144</ele>
        <time>2025-03-18T18:35:24Z</time>
      </trkpt>
      <trkpt lat="43.64516" lon="1.37985">
        <ele>144</ele>
        <time>2025-03-18T18:35:25Z</time>
      </trkpt>
      <trkpt lat="43.64513" lon="1.37985">
        <ele>144</ele>
        <time>2025-03-18T18:35:26Z</time>
      </trkpt>
      <trkpt lat="43.64513" lon="1.37985">
        <ele>144</ele>
        <time>2025-03-18T18:35:27Z</time>
      </trkpt>
      <trkpt lat="43.64512" lon="1.37985">
        <ele>144</ele>
        <time>2025-03-18T18:35:28Z</time>
      </trkpt>
      <trkpt lat="43.64509" lon="1.37984">
        <ele>144</ele>
        <time>2025-03-18T18:35:29Z</time>
      </trkpt>
      <trkpt lat="43.64509" lon="1.37984">
        <ele>144</ele>
        <time>2025-03-18T18:35:30Z</time>
      </trkpt>
      <trkpt lat="43.64507" lon="1.37984">
        <ele>143</ele>
        <time>2025-03-18T18:35:31Z</time>
      </trkpt>
      <trkpt lat="43.64507" lon="1.37984">
        <ele>143</ele>
        <time>2025-03-18T18:35:32Z</time>
      </trkpt>
      <trkpt lat="43.64507" lon="1.37984">
        <ele>144</ele>
        <time>2025-03-18T18:35:33Z</time>
      </trkpt>
      <trkpt lat="43.64507" lon="1.37984">
        <ele>144</ele>
        <time>2025-03-18T18:35:34Z</time>
      </trkpt>
      <trkpt lat="43.64505" lon="1.37982">
        <ele>144</ele>
        <time>2025-03-18T18:35:35Z</time>
      </trkpt>
      <trkpt lat="43.64503" lon="1.37981">
        <ele>144</ele>
        <time>2025-03-18T18:35:36Z</time>
      </trkpt>
      <trkpt lat="43.64503" lon="1.37981">
        <ele>144</ele>
        <time>2025-03-18T18:35:37Z</time>
      </trkpt>
      <trkpt lat="43.64502" lon="1.3798">
        <ele>144</ele>
        <time>2025-03-18T18:35:38Z</time>
      </trkpt>
      <trkpt lat="43.64502" lon="1.3798">
        <ele>144</ele>
        <time>2025-03-18T18:35:40Z</time>
      </trkpt>
      <trkpt lat="43.64499" lon="1.37979">
        <ele>144</ele>
        <time>2025-03-18T18:35:41Z</time>
      </trkpt>
      <trkpt lat="43.64499" lon="1.37979">
        <ele>144</ele>
        <time>2025-03-18T18:35:42Z</time>
      </trkpt>
      <trkpt lat="43.64497" lon="1.37977">
        <ele>144</ele>
        <time>2025-03-18T18:35:43Z</time>
      </trkpt>
      <trkpt lat="43.64497" lon="1.37977">
        <ele>144</ele>
        <time>2025-03-18T18:35:44Z</time>
      </trkpt>
      <trkpt lat="43.64496" lon="1.37976">
        <ele>144</ele>
        <time>2025-03-18T18:35:45Z</time>
      </trkpt>
      <trkpt lat="43.64496" lon="1.37976">
        <ele>144</ele>
        <time>2025-03-18T18:35:46Z</time>
      </trkpt>
      <trkpt lat="43.64494" lon="1.37976">
        <ele>144</ele>
        <time>2025-03-18T18:35:47Z</time>
      </trkpt>
      <trkpt lat="43.64494" lon="1.37976">
        <ele>144</ele>
        <time>2025-03-18T18:35:48Z</time>
      </trkpt>
      <trkpt lat="43.64491" lon="1.37974">
        <ele>144</ele>
        <time>2025-03-18T18:35:49Z</time>
      </trkpt>
      <trkpt lat="43.64489" lon="1.37973">
        <ele>144</ele>
        <time>2025-03-18T18:35:50Z</time>
      </trkpt>
      <trkpt lat="43.64489" lon="1.37973">
        <ele>144</ele>
        <time>2025-03-18T18:35:51Z</time>
      </trkpt>
      <trkpt lat="43.64486" lon="1.37971">
        <ele>144</ele>
        <time>2025-03-18T18:35:52Z</time>
      </trkpt>
      <trkpt lat="43.64486" lon="1.37971">
        <ele>144</ele>
        <time>2025-03-18T18:35:53Z</time>
      </trkpt>
      <trkpt lat="43.64484" lon="1.37968">
        <ele>144</ele>
        <time>2025-03-18T18:35:54Z</time>
      </trkpt>
      <trkpt lat="43.64484" lon="1.37968">
        <ele>144</ele>
        <time>2025-03-18T18:35:55Z</time>
      </trkpt>
      <trkpt lat="43.64484" lon="1.37968">
        <ele>144</ele>
        <time>2025-03-18T18:35:56Z</time>
      </trkpt>
      <trkpt lat="43.64482" lon="1.37966">
        <ele>144</ele>
        <time>2025-03-18T18:35:57Z</time>
      </trkpt>
      <trkpt lat="43.6448" lon="1.37965">
        <ele>145</ele>
        <time>2025-03-18T18:35:59Z</time>
      </trkpt>
      <trkpt lat="43.64479" lon="1.37963">
        <ele>145</ele>
        <time>2025-03-18T18:36:00Z</time>
      </trkpt>
      <trkpt lat="43.64479" lon="1.37963">
        <ele>145</ele>
        <time>2025-03-18T18:36:01Z</time>
      </trkpt>
      <trkpt lat="43.64477" lon="1.37962">
        <ele>145</ele>
        <time>2025-03-18T18:36:02Z</time>
      </trkpt>
      <trkpt lat="43.64477" lon="1.37962">
        <ele>145</ele>
        <time>2025-03-18T18:36:03Z</time>
      </trkpt>
      <trkpt lat="43.64475" lon="1.3796">
        <ele>145</ele>
        <time>2025-03-18T18:36:04Z</time>
      </trkpt>
      <trkpt lat="43.64475" lon="1.3796">
        <ele>145</ele>
        <time>2025-03-18T18:36:05Z</time>
      </trkpt>
      <trkpt lat="43.64475" lon="1.3796">
        <ele>145</ele>
        <time>2025-03-18T18:36:06Z</time>
      </trkpt>
      <trkpt lat="43.64473" lon="1.37959">
        <ele>145</ele>
        <time>2025-03-18T18:36:07Z</time>
      </trkpt>
      <trkpt lat="43.64473" lon="1.37959">
        <ele>144</ele>
        <time>2025-03-18T18:36:08Z</time>
      </trkpt>
      <trkpt lat="43.64473" lon="1.37959">
        <ele>144</ele>
        <time>2025-03-18T18:36:09Z</time>
      </trkpt>
      <trkpt lat="43.64473" lon="1.37959">
        <ele>144</ele>
        <time>2025-03-18T18:36:10Z</time>
      </trkpt>
      <trkpt lat="43.64473" lon="1.37959">
        <ele>144</ele>
        <time>2025-03-18T18:36:11Z</time>
      </trkpt>
      <trkpt lat="43.64473" lon="1.37959">
        <ele>144</ele>
        <time>2025-03-18T18:36:12Z</time>
      </trkpt>
      <trkpt lat="43.64473" lon="1.37959">
        <ele>143</ele>
        <time>2025-03-18T18:36:13Z</time>
      </trkpt>
      <trkpt lat="43.64475" lon="1.37958">
        <ele>143</ele>
        <time>2025-03-18T18:36:14Z</time>
      </trkpt>
      <trkpt lat="43.64475" lon="1.37958">
        <ele>143</ele>
        <time>2025-03-18T18:36:15Z</time>
      </trkpt>
      <trkpt lat="43.64477" lon="1.37956">
        <ele>143</ele>
        <time>2025-03-18T18:36:16Z</time>
      </trkpt>
      <trkpt lat="43.64479" lon="1.37954">
        <ele>143</ele>
        <time>2025-03-18T18:36:18Z</time>
      </trkpt>
      <trkpt lat="43.6448" lon="1.37952">
        <ele>143</ele>
        <time>2025-03-18T18:36:19Z</time>
      </trkpt>
      <trkpt lat="43.6448" lon="1.37952">
        <ele>143</ele>
        <time>2025-03-18T18:36:20Z</time>
      </trkpt>
      <trkpt lat="43.6448" lon="1.37952">
        <ele>143</ele>
        <time>2025-03-18T18:36:21Z</time>
      </trkpt>
      <trkpt lat="43.6448" lon="1.37952">
        <ele>144</ele>
        <time>2025-03-18T18:36:22Z</time>
      </trkpt>
      <trkpt lat="43.6448" lon="1.37952">
        <ele>144</ele>
        <time>2025-03-18T18:36:23Z</time>
      </trkpt>
      <trkpt lat="43.6448" lon="1.37952">
        <ele>144</ele>
        <time>2025-03-18T18:36:24Z</time>
      </trkpt>
      <trkpt lat="43.6448" lon="1.37952">
        <ele>144</ele>
        <time>2025-03-18T18:36:25Z</time>
      </trkpt>
      <trkpt lat="43.6448" lon="1.37952">
        <ele>144</ele>
        <time>2025-03-18T18:36:26Z</time>
      </trkpt>
      <trkpt lat="43.6448" lon="1.37952">
        <ele>144</ele>
        <time>2025-03-18T18:36:27Z</time>
      </trkpt>
      <trkpt lat="43.6448" lon="1.37956">
        <ele>144</ele>
        <time>2025-03-18T18:36:28Z</time>
      </trkpt>
      <trkpt lat="43.6448" lon="1.37956">
        <ele>144</ele>
        <time>2025-03-18T18:36:29Z</time>
      </trkpt>
      <trkpt lat="43.6448" lon="1.37956">
        <ele>144</ele>
        <time>2025-03-18T18:36:30Z</time>
      </trkpt>
      <trkpt lat="43.64481" lon="1.37958">
        <ele>144</ele>
        <time>2025-03-18T18:36:31Z</time>
      </trkpt>
      <trkpt lat="43.64481" lon="1.37958">
        <ele>144</ele>
        <time>2025-03-18T18:36:32Z</time>
      </trkpt>
      <trkpt lat="43.64482" lon="1.3796">
        <ele>144</ele>
        <time>2025-03-18T18:36:33Z</time>
      </trkpt>
      <trkpt lat="43.64482" lon="1.3796">
        <ele>144</ele>
        <time>2025-03-18T18:36:34Z</time>
      </trkpt>
      <trkpt lat="43.64482" lon="1.3796">
        <ele>144</ele>
        <time>2025-03-18T18:36:35Z</time>
      </trkpt>
      <trkpt lat="43.64482" lon="1.3796">
        <ele>145</ele>
        <time>2025-03-18T18:36:37Z</time>
      </trkpt>
      <trkpt lat="43.64479" lon="1.3796">
        <ele>145</ele>
        <time>2025-03-18T18:36:38Z</time>
      </trkpt>
      <trkpt lat="43.64479" lon="1.3796">
        <ele>145</ele>
        <time>2025-03-18T18:36:39Z</time>
      </trkpt>
      <trkpt lat="43.64479" lon="1.3796">
        <ele>144</ele>
        <time>2025-03-18T18:36:40Z</time>
      </trkpt>
      <trkpt lat="43.64479" lon="1.3796">
        <ele>144</ele>
        <time>2025-03-18T18:36:41Z</time>
      </trkpt>
      <trkpt lat="43.64479" lon="1.3796">
        <ele>144</ele>
        <time>2025-03-18T18:36:42Z</time>
      </trkpt>
      <trkpt lat="43.64479" lon="1.3796">
        <ele>144</ele>
        <time>2025-03-18T18:36:43Z</time>
      </trkpt>
      <trkpt lat="43.64479" lon="1.3796">
        <ele>144</ele>
        <time>2025-03-18T18:36:44Z</time>
      </trkpt>
      <trkpt lat="43.64479" lon="1.3796">
        <ele>144</ele>
        <time>2025-03-18T18:36:45Z</time>
      </trkpt>
      <trkpt lat="43.64479" lon="1.3796">
        <ele>144</ele>
        <time>2025-03-18T18:36:46Z</time>
      </trkpt>
      <trkpt lat="43.64479" lon="1.3796">
        <ele>144</ele>
        <time>2025-03-18T18:36:47Z</time>
      </trkpt>
      <trkpt lat="43.64479" lon="1.3796">
        <ele>144</ele>
        <time>2025-03-18T18:36:48Z</time>
      </trkpt>
      <trkpt lat="43.64479" lon="1.3796">
        <ele>144</ele>
        <time>2025-03-18T18:36:49Z</time>
      </trkpt>
      <trkpt lat="43.64479" lon="1.3796">
        <ele>144</ele>
        <time>2025-03-18T18:36:50Z</time>
      </trkpt>
      <trkpt lat="43.64479" lon="1.3796">
        <ele>144</ele>
        <time>2025-03-18T18:36:51Z</time>
      </trkpt>
      <trkpt lat="43.64479" lon="1.3796">
        <ele>144</ele>
        <time>2025-03-18T18:36:52Z</time>
      </trkpt>
      <trkpt lat="43.64479" lon="1.3796">
        <ele>144</ele>
        <time>2025-03-18T18:36:53Z</time>
      </trkpt>
      <trkpt lat="43.64479" lon="1.3796">
        <ele>144</ele>
        <time>2025-03-18T18:36:54Z</time>
      </trkpt>
      <trkpt lat="43.64479" lon="1.3796">
        <ele>144</ele>
        <time>2025-03-18T18:36:56Z</time>
      </trkpt>
      <trkpt lat="43.64479" lon="1.3796">
        <ele>144</ele>
        <time>2025-03-18T18:36:57Z</time>
      </trkpt>
      <trkpt lat="43.64479" lon="1.3796">
        <ele>144</ele>
        <time>2025-03-18T18:36:58Z</time>
      </trkpt>
      <trkpt lat="43.64479" lon="1.3796">
        <ele>144</ele>
        <time>2025-03-18T18:36:59Z</time>
      </trkpt>
      <trkpt lat="43.64479" lon="1.3796">
        <ele>144</ele>
        <time>2025-03-18T18:37:00Z</time>
      </trkpt>
      <trkpt lat="43.64479" lon="1.3796">
        <ele>144</ele>
        <time>2025-03-18T18:37:01Z</time>
      </trkpt>
      <trkpt lat="43.64479" lon="1.3796">
        <ele>144</ele>
        <time>2025-03-18T18:37:02Z</time>
      </trkpt>
      <trkpt lat="43.64479" lon="1.3796">
        <ele>144</ele>
        <time>2025-03-18T18:37:03Z</time>
      </trkpt>
      <trkpt lat="43.64479" lon="1.3796">
        <ele>144</ele>
        <time>2025-03-18T18:37:04Z</time>
      </trkpt>
      <trkpt lat="43.64479" lon="1.3796">
        <ele>144</ele>
        <time>2025-03-18T18:37:05Z</time>
      </trkpt>
      <trkpt lat="43.64479" lon="1.3796">
        <ele>144</ele>
        <time>2025-03-18T18:37:06Z</time>
      </trkpt>
      <trkpt lat="43.64479" lon="1.3796">
        <ele>144</ele>
        <time>2025-03-18T18:37:07Z</time>
      </trkpt>
      <trkpt lat="43.64479" lon="1.3796">
        <ele>144</ele>
        <time>2025-03-18T18:37:08Z</time>
      </trkpt>
      <trkpt lat="43.64484" lon="1.37963">
        <ele>144</ele>
        <time>2025-03-18T18:37:09Z</time>
      </trkpt>
      <trkpt lat="43.64492" lon="1.37967">
        <ele>144</ele>
        <time>2025-03-18T18:37:11Z</time>
      </trkpt>
      <trkpt lat="43.64492" lon="1.37967">
        <ele>144</ele>
        <time>2025-03-18T18:37:12Z</time>
      </trkpt>
      <trkpt lat="43.645" lon="1.37971">
        <ele>144</ele>
        <time>2025-03-18T18:37:13Z</time>
      </trkpt>
      <trkpt lat="43.64504" lon="1.37974">
        <ele>144</ele>
        <time>2025-03-18T18:37:15Z</time>
      </trkpt>
      <trkpt lat="43.64511" lon="1.37978">
        <ele>144</ele>
        <time>2025-03-18T18:37:16Z</time>
      </trkpt>
      <trkpt lat="43.64515" lon="1.3798">
        <ele>144</ele>
        <time>2025-03-18T18:37:17Z</time>
      </trkpt>
      <trkpt lat="43.64515" lon="1.3798">
        <ele>144</ele>
        <time>2025-03-18T18:37:18Z</time>
      </trkpt>
      <trkpt lat="43.64519" lon="1.37982">
        <ele>144</ele>
        <time>2025-03-18T18:37:19Z</time>
      </trkpt>
      <trkpt lat="43.64525" lon="1.37985">
        <ele>144</ele>
        <time>2025-03-18T18:37:20Z</time>
      </trkpt>
      <trkpt lat="43.64527" lon="1.37986">
        <ele>145</ele>
        <time>2025-03-18T18:37:21Z</time>
      </trkpt>
      <trkpt lat="43.64535" lon="1.37988">
        <ele>145</ele>
        <time>2025-03-18T18:37:22Z</time>
      </trkpt>
      <trkpt lat="43.64539" lon="1.37988">
        <ele>145</ele>
        <time>2025-03-18T18:37:23Z</time>
      </trkpt>
      <trkpt lat="43.64539" lon="1.37988">
        <ele>145</ele>
        <time>2025-03-18T18:37:24Z</time>
      </trkpt>
      <trkpt lat="43.64547" lon="1.37985">
        <ele>145</ele>
        <time>2025-03-18T18:37:25Z</time>
      </trkpt>
      <trkpt lat="43.64553" lon="1.37981">
        <ele>145</ele>
        <time>2025-03-18T18:37:26Z</time>
      </trkpt>
      <trkpt lat="43.64555" lon="1.37979">
        <ele>145</ele>
        <time>2025-03-18T18:37:27Z</time>
      </trkpt>
      <trkpt lat="43.64555" lon="1.37979">
        <ele>144</ele>
        <time>2025-03-18T18:37:28Z</time>
      </trkpt>
      <trkpt lat="43.64562" lon="1.37971">
        <ele>144</ele>
        <time>2025-03-18T18:37:29Z</time>
      </trkpt>
      <trkpt lat="43.64565" lon="1.37967">
        <ele>144</ele>
        <time>2025-03-18T18:37:30Z</time>
      </trkpt>
      <trkpt lat="43.64565" lon="1.37967">
        <ele>144</ele>
        <time>2025-03-18T18:37:31Z</time>
      </trkpt>
      <trkpt lat="43.64569" lon="1.37956">
        <ele>144</ele>
        <time>2025-03-18T18:37:32Z</time>
      </trkpt>
      <trkpt lat="43.6457" lon="1.37951">
        <ele>144</ele>
        <time>2025-03-18T18:37:34Z</time>
      </trkpt>
      <trkpt lat="43.64571" lon="1.37945">
        <ele>144</ele>
        <time>2025-03-18T18:37:35Z</time>
      </trkpt>
      <trkpt lat="43.64571" lon="1.3794">
        <ele>144</ele>
        <time>2025-03-18T18:37:36Z</time>
      </trkpt>
      <trkpt lat="43.6457" lon="1.37935">
        <ele>144</ele>
        <time>2025-03-18T18:37:37Z</time>
      </trkpt>
      <trkpt lat="43.64569" lon="1.37929">
        <ele>144</ele>
        <time>2025-03-18T18:37:38Z</time>
      </trkpt>
      <trkpt lat="43.64565" lon="1.37919">
        <ele>144</ele>
        <time>2025-03-18T18:37:39Z</time>
      </trkpt>
      <trkpt lat="43.64562" lon="1.37915">
        <ele>144</ele>
        <time>2025-03-18T18:37:40Z</time>
      </trkpt>
      <trkpt lat="43.64559" lon="1.37911">
        <ele>144</ele>
        <time>2025-03-18T18:37:41Z</time>
      </trkpt>
      <trkpt lat="43.64559" lon="1.37911">
        <ele>144</ele>
        <time>2025-03-18T18:37:42Z</time>
      </trkpt>
      <trkpt lat="43.64554" lon="1.37907">
        <ele>144</ele>
        <time>2025-03-18T18:37:43Z</time>
      </trkpt>
      <trkpt lat="43.64552" lon="1.37905">
        <ele>143</ele>
        <time>2025-03-18T18:37:44Z</time>
      </trkpt>
      <trkpt lat="43.64548" lon="1.37903">
        <ele>143</ele>
        <time>2025-03-18T18:37:45Z</time>
      </trkpt>
      <trkpt lat="43.64543" lon="1.37899">
        <ele>143</ele>
        <time>2025-03-18T18:37:46Z</time>
      </trkpt>
      <trkpt lat="43.64541" lon="1.37898">
        <ele>144</ele>
        <time>2025-03-18T18:37:47Z</time>
      </trkpt>
      <trkpt lat="43.64537" lon="1.37896">
        <ele>144</ele>
        <time>2025-03-18T18:37:48Z</time>
      </trkpt>
      <trkpt lat="43.64529" lon="1.37892">
        <ele>143</ele>
        <time>2025-03-18T18:37:49Z</time>
      </trkpt>
      <trkpt lat="43.64529" lon="1.37892">
        <ele>143</ele>
        <time>2025-03-18T18:37:50Z</time>
      </trkpt>
      <trkpt lat="43.64521" lon="1.3789">
        <ele>143</ele>
        <time>2025-03-18T18:37:51Z</time>
      </trkpt>
      <trkpt lat="43.64518" lon="1.37889">
        <ele>144</ele>
        <time>2025-03-18T18:37:53Z</time>
      </trkpt>
      <trkpt lat="43.6451" lon="1.37886">
        <ele>144</ele>
        <time>2025-03-18T18:37:54Z</time>
      </trkpt>
      <trkpt lat="43.64507" lon="1.37883">
        <ele>144</ele>
        <time>2025-03-18T18:37:55Z</time>
      </trkpt>
      <trkpt lat="43.64507" lon="1.37883">
        <ele>144</ele>
        <time>2025-03-18T18:37:56Z</time>
      </trkpt>
      <trkpt lat="43.645" lon="1.37879">
        <ele>144</ele>
        <time>2025-03-18T18:37:57Z</time>
      </trkpt>
      <trkpt lat="43.64492" lon="1.37876">
        <ele>143</ele>
        <time>2025-03-18T18:37:59Z</time>
      </trkpt>
      <trkpt lat="43.64492" lon="1.37876">
        <ele>143</ele>
        <time>2025-03-18T18:38:00Z</time>
      </trkpt>
      <trkpt lat="43.64485" lon="1.37874">
        <ele>143</ele>
        <time>2025-03-18T18:38:01Z</time>
      </trkpt>
      <trkpt lat="43.64482" lon="1.37875">
        <ele>142</ele>
        <time>2025-03-18T18:38:02Z</time>
      </trkpt>
      <trkpt lat="43.64482" lon="1.37875">
        <ele>142</ele>
        <time>2025-03-18T18:38:03Z</time>
      </trkpt>
      <trkpt lat="43.64475" lon="1.37879">
        <ele>142</ele>
        <time>2025-03-18T18:38:04Z</time>
      </trkpt>
      <trkpt lat="43.64475" lon="1.37879">
        <ele>143</ele>
        <time>2025-03-18T18:38:05Z</time>
      </trkpt>
      <trkpt lat="43.6447" lon="1.37883">
        <ele>144</ele>
        <time>2025-03-18T18:38:06Z</time>
      </trkpt>
      <trkpt lat="43.64467" lon="1.37886">
        <ele>144</ele>
        <time>2025-03-18T18:38:07Z</time>
      </trkpt>
      <trkpt lat="43.64467" lon="1.37886">
        <ele>144</ele>
        <time>2025-03-18T18:38:08Z</time>
      </trkpt>
      <trkpt lat="43.64465" lon="1.3789">
        <ele>144</ele>
        <time>2025-03-18T18:38:09Z</time>
      </trkpt>
      <trkpt lat="43.64464" lon="1.37895">
        <ele>144</ele>
        <time>2025-03-18T18:38:10Z</time>
      </trkpt>
      <trkpt lat="43.64462" lon="1.37899">
        <ele>144</ele>
        <time>2025-03-18T18:38:11Z</time>
      </trkpt>
      <trkpt lat="43.64461" lon="1.37904">
        <ele>144</ele>
        <time>2025-03-18T18:38:12Z</time>
      </trkpt>
      <trkpt lat="43.6446" lon="1.37915">
        <ele>144</ele>
        <time>2025-03-18T18:38:13Z</time>
      </trkpt>
      <trkpt lat="43.6446" lon="1.37915">
        <ele>144</ele>
        <time>2025-03-18T18:38:14Z</time>
      </trkpt>
      <trkpt lat="43.64461" lon="1.37925">
        <ele>143</ele>
        <time>2025-03-18T18:38:15Z</time>
      </trkpt>
      <trkpt lat="43.64461" lon="1.37925">
        <ele>144</ele>
        <time>2025-03-18T18:38:16Z</time>
      </trkpt>
      <trkpt lat="43.64463" lon="1.37935">
        <ele>144</ele>
        <time>2025-03-18T18:38:17Z</time>
      </trkpt>
      <trkpt lat="43.64463" lon="1.37935">
        <ele>144</ele>
        <time>2025-03-18T18:38:18Z</time>
      </trkpt>
      <trkpt lat="43.64464" lon="1.37939">
        <ele>144</ele>
        <time>2025-03-18T18:38:19Z</time>
      </trkpt>
      <trkpt lat="43.64469" lon="1.37946">
        <ele>144</ele>
        <time>2025-03-18T18:38:20Z</time>
      </trkpt>
      <trkpt lat="43.64469" lon="1.37946">
        <ele>144</ele>
        <time>2025-03-18T18:38:21Z</time>
      </trkpt>
      <trkpt lat="43.64475" lon="1.37952">
        <ele>144</ele>
        <time>2025-03-18T18:38:22Z</time>
      </trkpt>
      <trkpt lat="43.64475" lon="1.37952">
        <ele>144</ele>
        <time>2025-03-18T18:38:23Z</time>
      </trkpt>
      <trkpt lat="43.64481" lon="1.37956">
        <ele>144</ele>
        <time>2025-03-18T18:38:24Z</time>
      </trkpt>
      <trkpt lat="43.64481" lon="1.37956">
        <ele>144</ele>
        <time>2025-03-18T18:38:25Z</time>
      </trkpt>
      <trkpt lat="43.64487" lon="1.37959">
        <ele>144</ele>
        <time>2025-03-18T18:38:26Z</time>
      </trkpt>
      <trkpt lat="43.64488" lon="1.3796">
        <ele>144</ele>
        <time>2025-03-18T18:38:27Z</time>
      </trkpt>
      <trkpt lat="43.64492" lon="1.37962">
        <ele>144</ele>
        <time>2025-03-18T18:38:28Z</time>
      </trkpt>
      <trkpt lat="43.64498" lon="1.37966">
        <ele>144</ele>
        <time>2025-03-18T18:38:29Z</time>
      </trkpt>
      <trkpt lat="43.64505" lon="1.3797">
        <ele>144</ele>
        <time>2025-03-18T18:38:31Z</time>
      </trkpt>
      <trkpt lat="43.64505" lon="1.3797">
        <ele>144</ele>
        <time>2025-03-18T18:38:32Z</time>
      </trkpt>
      <trkpt lat="43.64511" lon="1.37975">
        <ele>144</ele>
        <time>2025-03-18T18:38:33Z</time>
      </trkpt>
      <trkpt lat="43.64511" lon="1.37975">
        <ele>144</ele>
        <time>2025-03-18T18:38:34Z</time>
      </trkpt>
      <trkpt lat="43.64518" lon="1.3798">
        <ele>144</ele>
        <time>2025-03-18T18:38:35Z</time>
      </trkpt>
      <trkpt lat="43.64521" lon="1.37982">
        <ele>144</ele>
        <time>2025-03-18T18:38:36Z</time>
      </trkpt>
      <trkpt lat="43.64521" lon="1.37982">
        <ele>144</ele>
        <time>2025-03-18T18:38:37Z</time>
      </trkpt>
      <trkpt lat="43.64527" lon="1.37985">
        <ele>144</ele>
        <time>2025-03-18T18:38:38Z</time>
      </trkpt>
      <trkpt lat="43.64527" lon="1.37985">
        <ele>144</ele>
        <time>2025-03-18T18:38:39Z</time>
      </trkpt>
      <trkpt lat="43.64529" lon="1.37986">
        <ele>144</ele>
        <time>2025-03-18T18:38:40Z</time>
      </trkpt>
      <trkpt lat="43.64529" lon="1.37986">
        <ele>144</ele>
        <time>2025-03-18T18:38:41Z</time>
      </trkpt>
      <trkpt lat="43.64531" lon="1.37988">
        <ele>144</ele>
        <time>2025-03-18T18:38:42Z</time>
      </trkpt>
      <trkpt lat="43.64531" lon="1.37988">
        <ele>144</ele>
        <time>2025-03-18T18:38:43Z</time>
      </trkpt>
      <trkpt lat="43.64531" lon="1.37988">
        <ele>144</ele>
        <time>2025-03-18T18:38:44Z</time>
      </trkpt>
      <trkpt lat="43.64531" lon="1.37988">
        <ele>144</ele>
        <time>2025-03-18T18:38:45Z</time>
      </trkpt>
      <trkpt lat="43.64531" lon="1.37988">
        <ele>144</ele>
        <time>2025-03-18T18:38:46Z</time>
      </trkpt>
      <trkpt lat="43.64529" lon="1.37987">
        <ele>144</ele>
        <time>2025-03-18T18:38:47Z</time>
      </trkpt>
      <trkpt lat="43.64529" lon="1.37987">
        <ele>144</ele>
        <time>2025-03-18T18:38:48Z</time>
      </trkpt>
      <trkpt lat="43.64526" lon="1.37986">
        <ele>144</ele>
        <time>2025-03-18T18:38:50Z</time>
      </trkpt>
      <trkpt lat="43.64526" lon="1.37986">
        <ele>144</ele>
        <time>2025-03-18T18:38:51Z</time>
      </trkpt>
      <trkpt lat="43.64526" lon="1.37986">
        <ele>144</ele>
        <time>2025-03-18T18:38:52Z</time>
      </trkpt>
      <trkpt lat="43.64525" lon="1.37984">
        <ele>144</ele>
        <time>2025-03-18T18:38:53Z</time>
      </trkpt>
      <trkpt lat="43.64525" lon="1.37984">
        <ele>144</ele>
        <time>2025-03-18T18:38:54Z</time>
      </trkpt>
      <trkpt lat="43.64523" lon="1.37983">
        <ele>145</ele>
        <time>2025-03-18T18:38:55Z</time>
      </trkpt>
      <trkpt lat="43.64523" lon="1.37983">
        <ele>145</ele>
        <time>2025-03-18T18:38:56Z</time>
      </trkpt>
      <trkpt lat="43.6452" lon="1.37982">
        <ele>145</ele>
        <time>2025-03-18T18:38:57Z</time>
      </trkpt>
      <trkpt lat="43.6452" lon="1.37982">
        <ele>145</ele>
        <time>2025-03-18T18:38:58Z</time>
      </trkpt>
      <trkpt lat="43.64518" lon="1.3798">
        <ele>144</ele>
        <time>2025-03-18T18:38:59Z</time>
      </trkpt>
      <trkpt lat="43.64516" lon="1.3798">
        <ele>144</ele>
        <time>2025-03-18T18:39:00Z</time>
      </trkpt>
      <trkpt lat="43.64516" lon="1.3798">
        <ele>144</ele>
        <time>2025-03-18T18:39:02Z</time>
      </trkpt>
      <trkpt lat="43.64513" lon="1.37979">
        <ele>144</ele>
        <time>2025-03-18T18:39:03Z</time>
      </trkpt>
      <trkpt lat="43.64511" lon="1.37978">
        <ele>144</ele>
        <time>2025-03-18T18:39:04Z</time>
      </trkpt>
      <trkpt lat="43.64511" lon="1.37978">
        <ele>144</ele>
        <time>2025-03-18T18:39:05Z</time>
      </trkpt>
      <trkpt lat="43.64511" lon="1.37978">
        <ele>144</ele>
        <time>2025-03-18T18:39:06Z</time>
      </trkpt>
      <trkpt lat="43.64509" lon="1.37978">
        <ele>144</ele>
        <time>2025-03-18T18:39:07Z</time>
      </trkpt>
      <trkpt lat="43.64506" lon="1.37976">
        <ele>144</ele>
        <time>2025-03-18T18:39:09Z</time>
      </trkpt>
      <trkpt lat="43.64506" lon="1.37976">
        <ele>144</ele>
        <time>2025-03-18T18:39:10Z</time>
      </trkpt>
      <trkpt lat="43.64503" lon="1.37975">
        <ele>144</ele>
        <time>2025-03-18T18:39:11Z</time>
      </trkpt>
      <trkpt lat="43.64503" lon="1.37975">
        <ele>144</ele>
        <time>2025-03-18T18:39:12Z</time>
      </trkpt>
      <trkpt lat="43.64499" lon="1.37974">
        <ele>144</ele>
        <time>2025-03-18T18:39:14Z</time>
      </trkpt>
      <trkpt lat="43.64499" lon="1.37974">
        <ele>144</ele>
        <time>2025-03-18T18:39:15Z</time>
      </trkpt>
      <trkpt lat="43.64497" lon="1.37973">
        <ele>144</ele>
        <time>2025-03-18T18:39:16Z</time>
      </trkpt>
      <trkpt lat="43.64497" lon="1.37973">
        <ele>144</ele>
        <time>2025-03-18T18:39:17Z</time>
      </trkpt>
      <trkpt lat="43.64495" lon="1.37972">
        <ele>144</ele>
        <time>2025-03-18T18:39:18Z</time>
      </trkpt>
      <trkpt lat="43.64495" lon="1.37972">
        <ele>144</ele>
        <time>2025-03-18T18:39:19Z</time>
      </trkpt>
      <trkpt lat="43.64495" lon="1.37972">
        <ele>144</ele>
        <time>2025-03-18T18:39:20Z</time>
      </trkpt>
      <trkpt lat="43.64495" lon="1.37972">
        <ele>144</ele>
        <time>2025-03-18T18:39:21Z</time>
      </trkpt>
      <trkpt lat="43.64493" lon="1.37972">
        <ele>145</ele>
        <time>2025-03-18T18:39:22Z</time>
      </trkpt>
      <trkpt lat="43.64491" lon="1.37972">
        <ele>145</ele>
        <time>2025-03-18T18:39:23Z</time>
      </trkpt>
      <trkpt lat="43.64491" lon="1.37972">
        <ele>145</ele>
        <time>2025-03-18T18:39:24Z</time>
      </trkpt>
      <trkpt lat="43.64489" lon="1.37972">
        <ele>145</ele>
        <time>2025-03-18T18:39:25Z</time>
      </trkpt>
      <trkpt lat="43.64489" lon="1.37972">
        <ele>145</ele>
        <time>2025-03-18T18:39:26Z</time>
      </trkpt>
      <trkpt lat="43.64487" lon="1.37971">
        <ele>145</ele>
        <time>2025-03-18T18:39:28Z</time>
      </trkpt>
      <trkpt lat="43.64487" lon="1.37971">
        <ele>145</ele>
        <time>2025-03-18T18:39:29Z</time>
      </trkpt>
      <trkpt lat="43.64484" lon="1.3797">
        <ele>145</ele>
        <time>2025-03-18T18:39:30Z</time>
      </trkpt>
      <trkpt lat="43.64482" lon="1.37968">
        <ele>144</ele>
        <time>2025-03-18T18:39:31Z</time>
      </trkpt>
      <trkpt lat="43.64482" lon="1.37968">
        <ele>144</ele>
        <time>2025-03-18T18:39:32Z</time>
      </trkpt>
      <trkpt lat="43.64481" lon="1.37967">
        <ele>144</ele>
        <time>2025-03-18T18:39:33Z</time>
      </trkpt>
      <trkpt lat="43.64481" lon="1.37967">
        <ele>144</ele>
        <time>2025-03-18T18:39:34Z</time>
      </trkpt>
      <trkpt lat="43.64479" lon="1.37966">
        <ele>144</ele>
        <time>2025-03-18T18:39:35Z</time>
      </trkpt>
      <trkpt lat="43.64479" lon="1.37966">
        <ele>144</ele>
        <time>2025-03-18T18:39:36Z</time>
      </trkpt>
      <trkpt lat="43.64477" lon="1.37964">
        <ele>144</ele>
        <time>2025-03-18T18:39:37Z</time>
      </trkpt>
      <trkpt lat="43.64477" lon="1.37964">
        <ele>144</ele>
        <time>2025-03-18T18:39:38Z</time>
      </trkpt>
      <trkpt lat="43.64477" lon="1.37964">
        <ele>144</ele>
        <time>2025-03-18T18:39:39Z</time>
      </trkpt>
      <trkpt lat="43.64474" lon="1.37963">
        <ele>145</ele>
        <time>2025-03-18T18:39:40Z</time>
      </trkpt>
      <trkpt lat="43.64474" lon="1.37963">
        <ele>145</ele>
        <time>2025-03-18T18:39:41Z</time>
      </trkpt>
      <trkpt lat="43.64474" lon="1.37963">
        <ele>145</ele>
        <time>2025-03-18T18:39:42Z</time>
      </trkpt>
      <trkpt lat="43.64474" lon="1.37963">
        <ele>145</ele>
        <time>2025-03-18T18:39:43Z</time>
      </trkpt>
      <trkpt lat="43.64472" lon="1.37962">
        <ele>145</ele>
        <time>2025-03-18T18:39:44Z</time>
      </trkpt>
      <trkpt lat="43.64471" lon="1.3796">
        <ele>145</ele>
        <time>2025-03-18T18:39:45Z</time>
      </trkpt>
      <trkpt lat="43.64471" lon="1.3796">
        <ele>145</ele>
        <time>2025-03-18T18:39:47Z</time>
      </trkpt>
      <trkpt lat="43.64469" lon="1.37958">
        <ele>145</ele>
        <time>2025-03-18T18:39:49Z</time>
      </trkpt>
      <trkpt lat="43.64469" lon="1.37958">
        <ele>144</ele>
        <time>2025-03-18T18:39:50Z</time>
      </trkpt>
      <trkpt lat="43.6447" lon="1.37956">
        <ele>144</ele>
        <time>2025-03-18T18:39:51Z</time>
      </trkpt>
      <trkpt lat="43.6447" lon="1.37956">
        <ele>144</ele>
        <time>2025-03-18T18:39:52Z</time>
      </trkpt>
      <trkpt lat="43.64473" lon="1.37957">
        <ele>144</ele>
        <time>2025-03-18T18:39:53Z</time>
      </trkpt>
      <trkpt lat="43.64474" lon="1.37959">
        <ele>144</ele>
        <time>2025-03-18T18:39:54Z</time>
      </trkpt>
      <trkpt lat="43.64474" lon="1.37959">
        <ele>144</ele>
        <time>2025-03-18T18:39:56Z</time>
      </trkpt>
      <trkpt lat="43.64474" lon="1.37959">
        <ele>144</ele>
        <time>2025-03-18T18:39:57Z</time>
      </trkpt>
      <trkpt lat="43.64474" lon="1.37959">
        <ele>144</ele>
        <time>2025-03-18T18:39:58Z</time>
      </trkpt>
      <trkpt lat="43.64474" lon="1.37959">
        <ele>144</ele>
        <time>2025-03-18T18:39:59Z</time>
      </trkpt>
      <trkpt lat="43.64476" lon="1.37959">
        <ele>144</ele>
        <time>2025-03-18T18:40:00Z</time>
      </trkpt>
      <trkpt lat="43.64476" lon="1.37959">
        <ele>144</ele>
        <time>2025-03-18T18:40:01Z</time>
      </trkpt>
      <trkpt lat="43.64476" lon="1.37959">
        <ele>144</ele>
        <time>2025-03-18T18:40:02Z</time>
      </trkpt>
      <trkpt lat="43.64476" lon="1.37959">
        <ele>144</ele>
        <time>2025-03-18T18:40:03Z</time>
      </trkpt>
      <trkpt lat="43.64479" lon="1.37958">
        <ele>144</ele>
        <time>2025-03-18T18:40:04Z</time>
      </trkpt>
      <trkpt lat="43.64479" lon="1.37958">
        <ele>144</ele>
        <time>2025-03-18T18:40:06Z</time>
      </trkpt>
      <trkpt lat="43.64479" lon="1.37958">
        <ele>144</ele>
        <time>2025-03-18T18:40:08Z</time>
      </trkpt>
      <trkpt lat="43.64479" lon="1.37958">
        <ele>144</ele>
        <time>2025-03-18T18:40:09Z</time>
      </trkpt>
      <trkpt lat="43.64479" lon="1.37958">
        <ele>144</ele>
        <time>2025-03-18T18:40:10Z</time>
      </trkpt>
      <trkpt lat="43.64479" lon="1.37958">
        <ele>144</ele>
        <time>2025-03-18T18:40:11Z</time>
      </trkpt>
      <trkpt lat="43.64479" lon="1.37958">
        <ele>144</ele>
        <time>2025-03-18T18:40:12Z</time>
      </trkpt>
      <trkpt lat="43.64479" lon="1.37958">
        <ele>144</ele>
        <time>2025-03-18T18:40:13Z</time>
      </trkpt>
      <trkpt lat="43.64479" lon="1.37958">
        <ele>144</ele>
        <time>2025-03-18T18:40:14Z</time>
      </trkpt>
      <trkpt lat="43.64481" lon="1.37958">
        <ele>144</ele>
        <time>2025-03-18T18:40:15Z</time>
      </trkpt>
      <trkpt lat="43.64481" lon="1.37958">
        <ele>144</ele>
        <time>2025-03-18T18:40:16Z</time>
      </trkpt>
      <trkpt lat="43.64481" lon="1.37959">
        <ele>144</ele>
        <time>2025-03-18T18:40:17Z</time>
      </trkpt>
      <trkpt lat="43.64482" lon="1.37959">
        <ele>144</ele>
        <time>2025-03-18T18:40:18Z</time>
      </trkpt>
      <trkpt lat="43.64482" lon="1.37959">
        <ele>144</ele>
        <time>2025-03-18T18:40:19Z</time>
      </trkpt>
      <trkpt lat="43.64482" lon="1.37959">
        <ele>144</ele>
        <time>2025-03-18T18:40:20Z</time>
      </trkpt>
      <trkpt lat="43.64482" lon="1.37959">
        <ele>145</ele>
        <time>2025-03-18T18:40:21Z</time>
      </trkpt>
      <trkpt lat="43.64483" lon="1.37959">
        <ele>145</ele>
        <time>2025-03-18T18:40:22Z</time>
      </trkpt>
      <trkpt lat="43.64483" lon="1.37959">
        <ele>145</ele>
        <time>2025-03-18T18:40:23Z</time>
      </trkpt>
      <trkpt lat="43.64483" lon="1.37959">
        <ele>144</ele>
        <time>2025-03-18T18:40:25Z</time>
      </trkpt>
      <trkpt lat="43.64483" lon="1.3796">
        <ele>144</ele>
        <time>2025-03-18T18:40:26Z</time>
      </trkpt>
      <trkpt lat="43.64484" lon="1.3796">
        <ele>144</ele>
        <time>2025-03-18T18:40:27Z</time>
      </trkpt>
      <trkpt lat="43.64484" lon="1.3796">
        <ele>144</ele>
        <time>2025-03-18T18:40:28Z</time>
      </trkpt>
      <trkpt lat="43.64484" lon="1.3796">
        <ele>144</ele>
        <time>2025-03-18T18:40:29Z</time>
      </trkpt>
      <trkpt lat="43.64484" lon="1.3796">
        <ele>144</ele>
        <time>2025-03-18T18:40:30Z</time>
      </trkpt>
      <trkpt lat="43.64485" lon="1.3796">
        <ele>144</ele>
        <time>2025-03-18T18:40:31Z</time>
      </trkpt>
      <trkpt lat="43.64485" lon="1.3796">
        <ele>144</ele>
        <time>2025-03-18T18:40:32Z</time>
      </trkpt>
      <trkpt lat="43.64485" lon="1.37961">
        <ele>144</ele>
        <time>2025-03-18T18:40:33Z</time>
      </trkpt>
      <trkpt lat="43.64485" lon="1.37961">
        <ele>144</ele>
        <time>2025-03-18T18:40:34Z</time>
      </trkpt>
      <trkpt lat="43.64486" lon="1.37961">
        <ele>144</ele>
        <time>2025-03-18T18:40:35Z</time>
      </trkpt>
      <trkpt lat="43.64486" lon="1.37961">
        <ele>144</ele>
        <time>2025-03-18T18:40:36Z</time>
      </trkpt>
      <trkpt lat="43.64486" lon="1.37961">
        <ele>144</ele>
        <time>2025-03-18T18:40:37Z</time>
      </trkpt>
      <trkpt lat="43.64486" lon="1.37961">
        <ele>144</ele>
        <time>2025-03-18T18:40:38Z</time>
      </trkpt>
      <trkpt lat="43.64487" lon="1.37961">
        <ele>145</ele>
        <time>2025-03-18T18:40:39Z</time>
      </trkpt>
      <trkpt lat="43.64487" lon="1.37962">
        <ele>145</ele>
        <time>2025-03-18T18:40:40Z</time>
      </trkpt>
      <trkpt lat="43.64487" lon="1.37962">
        <ele>145</ele>
        <time>2025-03-18T18:40:41Z</time>
      </trkpt>
      <trkpt lat="43.64487" lon="1.37962">
        <ele>145</ele>
        <time>2025-03-18T18:40:42Z</time>
      </trkpt>
      <trkpt lat="43.64488" lon="1.37962">
        <ele>145</ele>
        <time>2025-03-18T18:40:43Z</time>
      </trkpt>
      <trkpt lat="43.64488" lon="1.37962">
        <ele>144</ele>
        <time>2025-03-18T18:40:44Z</time>
      </trkpt>
      <trkpt lat="43.64495" lon="1.37967">
        <ele>144</ele>
        <time>2025-03-18T18:40:45Z</time>
      </trkpt>
      <trkpt lat="43.64499" lon="1.3797">
        <ele>144</ele>
        <time>2025-03-18T18:40:46Z</time>
      </trkpt>
      <trkpt lat="43.64503" lon="1.37972">
        <ele>144</ele>
        <time>2025-03-18T18:40:48Z</time>
      </trkpt>
      <trkpt lat="43.64509" lon="1.37976">
        <ele>144</ele>
        <time>2025-03-18T18:40:49Z</time>
      </trkpt>
      <trkpt lat="43.64511" lon="1.37977">
        <ele>144</ele>
        <time>2025-03-18T18:40:50Z</time>
      </trkpt>
      <trkpt lat="43.64515" lon="1.3798">
        <ele>144</ele>
        <time>2025-03-18T18:40:51Z</time>
      </trkpt>
      <trkpt lat="43.64522" lon="1.37984">
        <ele>143</ele>
        <time>2025-03-18T18:40:52Z</time>
      </trkpt>
      <trkpt lat="43.64526" lon="1.37986">
        <ele>143</ele>
        <time>2025-03-18T18:40:53Z</time>
      </trkpt>
      <trkpt lat="43.64531" lon="1.37988">
        <ele>143</ele>
        <time>2025-03-18T18:40:54Z</time>
      </trkpt>
      <trkpt lat="43.64531" lon="1.37988">
        <ele>143</ele>
        <time>2025-03-18T18:40:55Z</time>
      </trkpt>
      <trkpt lat="43.64535" lon="1.37988">
        <ele>143</ele>
        <time>2025-03-18T18:40:56Z</time>
      </trkpt>
      <trkpt lat="43.64539" lon="1.37988">
        <ele>143</ele>
        <time>2025-03-18T18:40:57Z</time>
      </trkpt>
      <trkpt lat="43.64543" lon="1.37987">
        <ele>143</ele>
        <time>2025-03-18T18:40:58Z</time>
      </trkpt>
      <trkpt lat="43.64551" lon="1.37982">
        <ele>143</ele>
        <time>2025-03-18T18:40:59Z</time>
      </trkpt>
      <trkpt lat="43.64555" lon="1.37979">
        <ele>143</ele>
        <time>2025-03-18T18:41:00Z</time>
      </trkpt>
      <trkpt lat="43.64559" lon="1.37976">
        <ele>143</ele>
        <time>2025-03-18T18:41:02Z</time>
      </trkpt>
      <trkpt lat="43.64561" lon="1.37972">
        <ele>142</ele>
        <time>2025-03-18T18:41:03Z</time>
      </trkpt>
      <trkpt lat="43.64566" lon="1.37963">
        <ele>142</ele>
        <time>2025-03-18T18:41:04Z</time>
      </trkpt>
      <trkpt lat="43.64567" lon="1.37958">
        <ele>142</ele>
        <time>2025-03-18T18:41:05Z</time>
      </trkpt>
      <trkpt lat="43.64567" lon="1.37958">
        <ele>141</ele>
        <time>2025-03-18T18:41:06Z</time>
      </trkpt>
      <trkpt lat="43.64568" lon="1.37952">
        <ele>141</ele>
        <time>2025-03-18T18:41:07Z</time>
      </trkpt>
      <trkpt lat="43.64569" lon="1.37947">
        <ele>141</ele>
        <time>2025-03-18T18:41:08Z</time>
      </trkpt>
      <trkpt lat="43.64568" lon="1.37935">
        <ele>141</ele>
        <time>2025-03-18T18:41:09Z</time>
      </trkpt>
      <trkpt lat="43.64568" lon="1.37935">
        <ele>141</ele>
        <time>2025-03-18T18:41:10Z</time>
      </trkpt>
      <trkpt lat="43.64566" lon="1.37926">
        <ele>141</ele>
        <time>2025-03-18T18:41:11Z</time>
      </trkpt>
      <trkpt lat="43.64564" lon="1.37921">
        <ele>142</ele>
        <time>2025-03-18T18:41:12Z</time>
      </trkpt>
      <trkpt lat="43.64564" lon="1.37921">
        <ele>142</ele>
        <time>2025-03-18T18:41:13Z</time>
      </trkpt>
      <trkpt lat="43.64559" lon="1.37913">
        <ele>142</ele>
        <time>2025-03-18T18:41:14Z</time>
      </trkpt>
      <trkpt lat="43.64559" lon="1.37913">
        <ele>142</ele>
        <time>2025-03-18T18:41:15Z</time>
      </trkpt>
      <trkpt lat="43.64554" lon="1.37907">
        <ele>142</ele>
        <time>2025-03-18T18:41:16Z</time>
      </trkpt>
      <trkpt lat="43.64554" lon="1.37907">
        <ele>144</ele>
        <time>2025-03-18T18:41:17Z</time>
      </trkpt>
      <trkpt lat="43.64547" lon="1.37902">
        <ele>144</ele>
        <time>2025-03-18T18:41:18Z</time>
      </trkpt>
      <trkpt lat="43.64544" lon="1.379">
        <ele>143</ele>
        <time>2025-03-18T18:41:19Z</time>
      </trkpt>
      <trkpt lat="43.6454" lon="1.37898">
        <ele>144</ele>
        <time>2025-03-18T18:41:21Z</time>
      </trkpt>
      <trkpt lat="43.64532" lon="1.37895">
        <ele>144</ele>
        <time>2025-03-18T18:41:22Z</time>
      </trkpt>
      <trkpt lat="43.64532" lon="1.37895">
        <ele>144</ele>
        <time>2025-03-18T18:41:23Z</time>
      </trkpt>
      <trkpt lat="43.64526" lon="1.37894">
        <ele>144</ele>
        <time>2025-03-18T18:41:24Z</time>
      </trkpt>
      <trkpt lat="43.64525" lon="1.37893">
        <ele>144</ele>
        <time>2025-03-18T18:41:25Z</time>
      </trkpt>
      <trkpt lat="43.64518" lon="1.37889">
        <ele>144</ele>
        <time>2025-03-18T18:41:26Z</time>
      </trkpt>
      <trkpt lat="43.64514" lon="1.37888">
        <ele>144</ele>
        <time>2025-03-18T18:41:27Z</time>
      </trkpt>
      <trkpt lat="43.64514" lon="1.37888">
        <ele>143</ele>
        <time>2025-03-18T18:41:28Z</time>
      </trkpt>
      <trkpt lat="43.64508" lon="1.37883">
        <ele>143</ele>
        <time>2025-03-18T18:41:29Z</time>
      </trkpt>
      <trkpt lat="43.64508" lon="1.37883">
        <ele>143</ele>
        <time>2025-03-18T18:41:30Z</time>
      </trkpt>
      <trkpt lat="43.645" lon="1.37879">
        <ele>143</ele>
        <time>2025-03-18T18:41:31Z</time>
      </trkpt>
      <trkpt lat="43.64497" lon="1.37877">
        <ele>142</ele>
        <time>2025-03-18T18:41:32Z</time>
      </trkpt>
      <trkpt lat="43.64493" lon="1.37875">
        <ele>141</ele>
        <time>2025-03-18T18:41:34Z</time>
      </trkpt>
      <trkpt lat="43.6449" lon="1.37874">
        <ele>142</ele>
        <time>2025-03-18T18:41:35Z</time>
      </trkpt>
      <trkpt lat="43.64484" lon="1.37872">
        <ele>142</ele>
        <time>2025-03-18T18:41:36Z</time>
      </trkpt>
      <trkpt lat="43.64481" lon="1.37872">
        <ele>143</ele>
        <time>2025-03-18T18:41:37Z</time>
      </trkpt>
      <trkpt lat="43.64478" lon="1.37874">
        <ele>142</ele>
        <time>2025-03-18T18:41:39Z</time>
      </trkpt>
      <trkpt lat="43.64474" lon="1.37876">
        <ele>142</ele>
        <time>2025-03-18T18:41:40Z</time>
      </trkpt>
      <trkpt lat="43.64472" lon="1.37878">
        <ele>141</ele>
        <time>2025-03-18T18:41:41Z</time>
      </trkpt>
      <trkpt lat="43.64469" lon="1.37883">
        <ele>141</ele>
        <time>2025-03-18T18:41:42Z</time>
      </trkpt>
      <trkpt lat="43.64468" lon="1.37885">
        <ele>142</ele>
        <time>2025-03-18T18:41:43Z</time>
      </trkpt>
      <trkpt lat="43.64466" lon="1.37889">
        <ele>143</ele>
        <time>2025-03-18T18:41:44Z</time>
      </trkpt>
      <trkpt lat="43.64463" lon="1.37898">
        <ele>143</ele>
        <time>2025-03-18T18:41:45Z</time>
      </trkpt>
      <trkpt lat="43.64462" lon="1.37903">
        <ele>143</ele>
        <time>2025-03-18T18:41:46Z</time>
      </trkpt>
      <trkpt lat="43.64462" lon="1.37908">
        <ele>143</ele>
        <time>2025-03-18T18:41:47Z</time>
      </trkpt>
      <trkpt lat="43.64462" lon="1.37908">
        <ele>143</ele>
        <time>2025-03-18T18:41:48Z</time>
      </trkpt>
      <trkpt lat="43.64462" lon="1.37914">
        <ele>143</ele>
        <time>2025-03-18T18:41:49Z</time>
      </trkpt>
      <trkpt lat="43.64462" lon="1.37919">
        <ele>143</ele>
        <time>2025-03-18T18:41:50Z</time>
      </trkpt>
      <trkpt lat="43.64462" lon="1.37924">
        <ele>143</ele>
        <time>2025-03-18T18:41:51Z</time>
      </trkpt>
      <trkpt lat="43.64465" lon="1.37937">
        <ele>143</ele>
        <time>2025-03-18T18:41:52Z</time>
      </trkpt>
      <trkpt lat="43.64466" lon="1.37939">
        <ele>143</ele>
        <time>2025-03-18T18:41:53Z</time>
      </trkpt>
      <trkpt lat="43.64466" lon="1.37939">
        <ele>142</ele>
        <time>2025-03-18T18:41:54Z</time>
      </trkpt>
      <trkpt lat="43.64471" lon="1.37947">
        <ele>142</ele>
        <time>2025-03-18T18:41:55Z</time>
      </trkpt>
      <trkpt lat="43.64471" lon="1.37947">
        <ele>143</ele>
        <time>2025-03-18T18:41:56Z</time>
      </trkpt>
      <trkpt lat="43.64477" lon="1.37952">
        <ele>143</ele>
        <time>2025-03-18T18:41:57Z</time>
      </trkpt>
      <trkpt lat="43.64477" lon="1.37952">
        <ele>144</ele>
        <time>2025-03-18T18:41:58Z</time>
      </trkpt>
      <trkpt lat="43.64483" lon="1.37955">
        <ele>144</ele>
        <time>2025-03-18T18:41:59Z</time>
      </trkpt>
      <trkpt lat="43.64485" lon="1.37956">
        <ele>144</ele>
        <time>2025-03-18T18:42:00Z</time>
      </trkpt>
      <trkpt lat="43.64488" lon="1.37959">
        <ele>143</ele>
        <time>2025-03-18T18:42:01Z</time>
      </trkpt>
      <trkpt lat="43.64495" lon="1.37963">
        <ele>144</ele>
        <time>2025-03-18T18:42:02Z</time>
      </trkpt>
      <trkpt lat="43.64495" lon="1.37963">
        <ele>144</ele>
        <time>2025-03-18T18:42:03Z</time>
      </trkpt>
      <trkpt lat="43.64501" lon="1.37967">
        <ele>144</ele>
        <time>2025-03-18T18:42:04Z</time>
      </trkpt>
      <trkpt lat="43.64508" lon="1.37971">
        <ele>142</ele>
        <time>2025-03-18T18:42:06Z</time>
      </trkpt>
      <trkpt lat="43.64508" lon="1.37971">
        <ele>142</ele>
        <time>2025-03-18T18:42:07Z</time>
      </trkpt>
      <trkpt lat="43.64515" lon="1.37976">
        <ele>142</ele>
        <time>2025-03-18T18:42:08Z</time>
      </trkpt>
      <trkpt lat="43.64515" lon="1.37976">
        <ele>142</ele>
        <time>2025-03-18T18:42:09Z</time>
      </trkpt>
      <trkpt lat="43.64522" lon="1.3798">
        <ele>142</ele>
        <time>2025-03-18T18:42:10Z</time>
      </trkpt>
      <trkpt lat="43.64525" lon="1.37982">
        <ele>142</ele>
        <time>2025-03-18T18:42:11Z</time>
      </trkpt>
      <trkpt lat="43.64528" lon="1.37984">
        <ele>142</ele>
        <time>2025-03-18T18:42:12Z</time>
      </trkpt>
      <trkpt lat="43.64528" lon="1.37984">
        <ele>142</ele>
        <time>2025-03-18T18:42:13Z</time>
      </trkpt>
      <trkpt lat="43.6453" lon="1.37986">
        <ele>142</ele>
        <time>2025-03-18T18:42:14Z</time>
      </trkpt>
      <trkpt lat="43.64531" lon="1.37987">
        <ele>142</ele>
        <time>2025-03-18T18:42:15Z</time>
      </trkpt>
      <trkpt lat="43.64531" lon="1.37987">
        <ele>142</ele>
        <time>2025-03-18T18:42:16Z</time>
      </trkpt>
      <trkpt lat="43.64534" lon="1.37989">
        <ele>142</ele>
        <time>2025-03-18T18:42:17Z</time>
      </trkpt>
      <trkpt lat="43.64534" lon="1.37989">
        <ele>142</ele>
        <time>2025-03-18T18:42:19Z</time>
      </trkpt>
      <trkpt lat="43.64534" lon="1.37989">
        <ele>143</ele>
        <time>2025-03-18T18:42:20Z</time>
      </trkpt>
      <trkpt lat="43.64532" lon="1.37988">
        <ele>143</ele>
        <time>2025-03-18T18:42:21Z</time>
      </trkpt>
      <trkpt lat="43.6453" lon="1.37987">
        <ele>143</ele>
        <time>2025-03-18T18:42:22Z</time>
      </trkpt>
      <trkpt lat="43.6453" lon="1.37987">
        <ele>143</ele>
        <time>2025-03-18T18:42:23Z</time>
      </trkpt>
      <trkpt lat="43.6453" lon="1.37987">
        <ele>143</ele>
        <time>2025-03-18T18:42:24Z</time>
      </trkpt>
      <trkpt lat="43.64528" lon="1.37985">
        <ele>143</ele>
        <time>2025-03-18T18:42:25Z</time>
      </trkpt>
      <trkpt lat="43.64528" lon="1.37985">
        <ele>143</ele>
        <time>2025-03-18T18:42:26Z</time>
      </trkpt>
      <trkpt lat="43.64525" lon="1.37984">
        <ele>143</ele>
        <time>2025-03-18T18:42:27Z</time>
      </trkpt>
      <trkpt lat="43.64525" lon="1.37984">
        <ele>143</ele>
        <time>2025-03-18T18:42:28Z</time>
      </trkpt>
      <trkpt lat="43.64523" lon="1.37984">
        <ele>143</ele>
        <time>2025-03-18T18:42:29Z</time>
      </trkpt>
      <trkpt lat="43.64523" lon="1.37984">
        <ele>143</ele>
        <time>2025-03-18T18:42:30Z</time>
      </trkpt>
      <trkpt lat="43.64521" lon="1.37984">
        <ele>143</ele>
        <time>2025-03-18T18:42:31Z</time>
      </trkpt>
      <trkpt lat="43.64521" lon="1.37984">
        <ele>143</ele>
        <time>2025-03-18T18:42:33Z</time>
      </trkpt>
      <trkpt lat="43.64519" lon="1.37984">
        <ele>143</ele>
        <time>2025-03-18T18:42:34Z</time>
      </trkpt>
      <trkpt lat="43.64519" lon="1.37984">
        <ele>143</ele>
        <time>2025-03-18T18:42:35Z</time>
      </trkpt>
      <trkpt lat="43.64517" lon="1.37983">
        <ele>143</ele>
        <time>2025-03-18T18:42:36Z</time>
      </trkpt>
      <trkpt lat="43.64515" lon="1.37982">
        <ele>143</ele>
        <time>2025-03-18T18:42:38Z</time>
      </trkpt>
      <trkpt lat="43.64515" lon="1.37982">
        <ele>143</ele>
        <time>2025-03-18T18:42:39Z</time>
      </trkpt>
      <trkpt lat="43.64515" lon="1.37982">
        <ele>143</ele>
        <time>2025-03-18T18:42:40Z</time>
      </trkpt>
      <trkpt lat="43.64513" lon="1.37982">
        <ele>143</ele>
        <time>2025-03-18T18:42:41Z</time>
      </trkpt>
      <trkpt lat="43.64511" lon="1.37981">
        <ele>142</ele>
        <time>2025-03-18T18:42:42Z</time>
      </trkpt>
      <trkpt lat="43.64511" lon="1.37981">
        <ele>142</ele>
        <time>2025-03-18T18:42:43Z</time>
      </trkpt>
      <trkpt lat="43.64511" lon="1.37981">
        <ele>142</ele>
        <time>2025-03-18T18:42:44Z</time>
      </trkpt>
      <trkpt lat="43.64509" lon="1.3798">
        <ele>142</ele>
        <time>2025-03-18T18:42:45Z</time>
      </trkpt>
      <trkpt lat="43.64509" lon="1.3798">
        <ele>142</ele>
        <time>2025-03-18T18:42:46Z</time>
      </trkpt>
      <trkpt lat="43.64506" lon="1.37979">
        <ele>142</ele>
        <time>2025-03-18T18:42:47Z</time>
      </trkpt>
      <trkpt lat="43.64505" lon="1.37978">
        <ele>143</ele>
        <time>2025-03-18T18:42:48Z</time>
      </trkpt>
      <trkpt lat="43.64505" lon="1.37978">
        <ele>143</ele>
        <time>2025-03-18T18:42:49Z</time>
      </trkpt>
      <trkpt lat="43.64505" lon="1.37978">
        <ele>143</ele>
        <time>2025-03-18T18:42:50Z</time>
      </trkpt>
      <trkpt lat="43.64502" lon="1.37977">
        <ele>143</ele>
        <time>2025-03-18T18:42:51Z</time>
      </trkpt>
      <trkpt lat="43.64502" lon="1.37977">
        <ele>143</ele>
        <time>2025-03-18T18:42:52Z</time>
      </trkpt>
      <trkpt lat="43.645" lon="1.37975">
        <ele>143</ele>
        <time>2025-03-18T18:42:53Z</time>
      </trkpt>
      <trkpt lat="43.645" lon="1.37975">
        <ele>143</ele>
        <time>2025-03-18T18:42:54Z</time>
      </trkpt>
      <trkpt lat="43.64498" lon="1.37974">
        <ele>143</ele>
        <time>2025-03-18T18:42:55Z</time>
      </trkpt>
      <trkpt lat="43.64495" lon="1.37974">
        <ele>143</ele>
        <time>2025-03-18T18:42:57Z</time>
      </trkpt>
      <trkpt lat="43.64495" lon="1.37974">
        <ele>143</ele>
        <time>2025-03-18T18:42:58Z</time>
      </trkpt>
      <trkpt lat="43.64494" lon="1.37973">
        <ele>143</ele>
        <time>2025-03-18T18:42:59Z</time>
      </trkpt>
      <trkpt lat="43.64494" lon="1.37973">
        <ele>143</ele>
        <time>2025-03-18T18:43:00Z</time>
      </trkpt>
      <trkpt lat="43.64492" lon="1.3797">
        <ele>143</ele>
        <time>2025-03-18T18:43:01Z</time>
      </trkpt>
      <trkpt lat="43.6449" lon="1.37966">
        <ele>143</ele>
        <time>2025-03-18T18:43:02Z</time>
      </trkpt>
      <trkpt lat="43.6449" lon="1.37966">
        <ele>143</ele>
        <time>2025-03-18T18:43:03Z</time>
      </trkpt>
      <trkpt lat="43.6449" lon="1.37966">
        <ele>143</ele>
        <time>2025-03-18T18:43:04Z</time>
      </trkpt>
      <trkpt lat="43.64488" lon="1.37965">
        <ele>143</ele>
        <time>2025-03-18T18:43:05Z</time>
      </trkpt>
      <trkpt lat="43.64488" lon="1.37965">
        <ele>143</ele>
        <time>2025-03-18T18:43:06Z</time>
      </trkpt>
      <trkpt lat="43.64486" lon="1.37965">
        <ele>143</ele>
        <time>2025-03-18T18:43:07Z</time>
      </trkpt>
      <trkpt lat="43.64484" lon="1.37964">
        <ele>143</ele>
        <time>2025-03-18T18:43:08Z</time>
      </trkpt>
      <trkpt lat="43.64484" lon="1.37964">
        <ele>143</ele>
        <time>2025-03-18T18:43:09Z</time>
      </trkpt>
      <trkpt lat="43.64482" lon="1.37964">
        <ele>143</ele>
        <time>2025-03-18T18:43:10Z</time>
      </trkpt>
      <trkpt lat="43.64482" lon="1.37964">
        <ele>143</ele>
        <time>2025-03-18T18:43:11Z</time>
      </trkpt>
      <trkpt lat="43.64479" lon="1.37964">
        <ele>143</ele>
        <time>2025-03-18T18:43:12Z</time>
      </trkpt>
      <trkpt lat="43.64479" lon="1.37964">
        <ele>143</ele>
        <time>2025-03-18T18:43:13Z</time>
      </trkpt>
      <trkpt lat="43.64479" lon="1.37964">
        <ele>143</ele>
        <time>2025-03-18T18:43:14Z</time>
      </trkpt>
      <trkpt lat="43.64477" lon="1.37963">
        <ele>143</ele>
        <time>2025-03-18T18:43:15Z</time>
      </trkpt>
      <trkpt lat="43.64477" lon="1.37963">
        <ele>143</ele>
        <time>2025-03-18T18:43:16Z</time>
      </trkpt>
      <trkpt lat="43.64476" lon="1.37963">
        <ele>143</ele>
        <time>2025-03-18T18:43:17Z</time>
      </trkpt>
      <trkpt lat="43.64476" lon="1.37963">
        <ele>143</ele>
        <time>2025-03-18T18:43:18Z</time>
      </trkpt>
      <trkpt lat="43.64476" lon="1.37963">
        <ele>143</ele>
        <time>2025-03-18T18:43:19Z</time>
      </trkpt>
      <trkpt lat="43.64473" lon="1.37961">
        <ele>144</ele>
        <time>2025-03-18T18:43:20Z</time>
      </trkpt>
      <trkpt lat="43.64472" lon="1.3796">
        <ele>144</ele>
        <time>2025-03-18T18:43:21Z</time>
      </trkpt>
      <trkpt lat="43.64472" lon="1.3796">
        <ele>144</ele>
        <time>2025-03-18T18:43:22Z</time>
      </trkpt>
      <trkpt lat="43.6447" lon="1.37958">
        <ele>144</ele>
        <time>2025-03-18T18:43:23Z</time>
      </trkpt>
      <trkpt lat="43.6447" lon="1.37958">
        <ele>143</ele>
        <time>2025-03-18T18:43:24Z</time>
      </trkpt>
      <trkpt lat="43.6447" lon="1.37958">
        <ele>143</ele>
        <time>2025-03-18T18:43:25Z</time>
      </trkpt>
      <trkpt lat="43.6447" lon="1.37958">
        <ele>143</ele>
        <time>2025-03-18T18:43:26Z</time>
      </trkpt>
      <trkpt lat="43.6447" lon="1.37958">
        <ele>143</ele>
        <time>2025-03-18T18:43:27Z</time>
      </trkpt>
      <trkpt lat="43.6447" lon="1.37958">
        <ele>142</ele>
        <time>2025-03-18T18:43:28Z</time>
      </trkpt>
      <trkpt lat="43.6447" lon="1.37958">
        <ele>142</ele>
        <time>2025-03-18T18:43:29Z</time>
      </trkpt>
      <trkpt lat="43.6447" lon="1.37958">
        <ele>142</ele>
        <time>2025-03-18T18:43:30Z</time>
      </trkpt>
      <trkpt lat="43.64472" lon="1.37959">
        <ele>143</ele>
        <time>2025-03-18T18:43:31Z</time>
      </trkpt>
      <trkpt lat="43.64472" lon="1.37959">
        <ele>144</ele>
        <time>2025-03-18T18:43:32Z</time>
      </trkpt>
      <trkpt lat="43.64473" lon="1.37961">
        <ele>144</ele>
        <time>2025-03-18T18:43:33Z</time>
      </trkpt>
      <trkpt lat="43.64473" lon="1.37961">
        <ele>144</ele>
        <time>2025-03-18T18:43:35Z</time>
      </trkpt>
      <trkpt lat="43.64473" lon="1.37961">
        <ele>144</ele>
        <time>2025-03-18T18:43:36Z</time>
      </trkpt>
      <trkpt lat="43.64473" lon="1.37961">
        <ele>144</ele>
        <time>2025-03-18T18:43:37Z</time>
      </trkpt>
      <trkpt lat="43.64476" lon="1.3796">
        <ele>144</ele>
        <time>2025-03-18T18:43:38Z</time>
      </trkpt>
      <trkpt lat="43.64476" lon="1.3796">
        <ele>144</ele>
        <time>2025-03-18T18:43:39Z</time>
      </trkpt>
      <trkpt lat="43.64476" lon="1.3796">
        <ele>144</ele>
        <time>2025-03-18T18:43:41Z</time>
      </trkpt>
      <trkpt lat="43.64476" lon="1.3796">
        <ele>144</ele>
        <time>2025-03-18T18:43:42Z</time>
      </trkpt>
      <trkpt lat="43.64478" lon="1.37959">
        <ele>144</ele>
        <time>2025-03-18T18:43:43Z</time>
      </trkpt>
      <trkpt lat="43.64478" lon="1.37959">
        <ele>144</ele>
        <time>2025-03-18T18:43:44Z</time>
      </trkpt>
      <trkpt lat="43.64478" lon="1.37959">
        <ele>144</ele>
        <time>2025-03-18T18:43:45Z</time>
      </trkpt>
      <trkpt lat="43.64478" lon="1.37959">
        <ele>144</ele>
        <time>2025-03-18T18:43:46Z</time>
      </trkpt>
      <trkpt lat="43.64478" lon="1.37959">
        <ele>144</ele>
        <time>2025-03-18T18:43:47Z</time>
      </trkpt>
      <trkpt lat="43.64478" lon="1.37959">
        <ele>144</ele>
        <time>2025-03-18T18:43:48Z</time>
      </trkpt>
      <trkpt lat="43.64478" lon="1.37959">
        <ele>144</ele>
        <time>2025-03-18T18:43:49Z</time>
      </trkpt>
      <trkpt lat="43.64478" lon="1.37959">
        <ele>143</ele>
        <time>2025-03-18T18:43:50Z</time>
      </trkpt>
      <trkpt lat="43.64478" lon="1.37959">
        <ele>143</ele>
        <time>2025-03-18T18:43:51Z</time>
      </trkpt>
      <trkpt lat="43.64478" lon="1.37959">
        <ele>143</ele>
        <time>2025-03-18T18:43:52Z</time>
      </trkpt>
      <trkpt lat="43.64478" lon="1.37959">
        <ele>143</ele>
        <time>2025-03-18T18:43:54Z</time>
      </trkpt>
      <trkpt lat="43.64478" lon="1.37959">
        <ele>143</ele>
        <time>2025-03-18T18:43:55Z</time>
      </trkpt>
      <trkpt lat="43.64478" lon="1.37959">
        <ele>143</ele>
        <time>2025-03-18T18:43:56Z</time>
      </trkpt>
      <trkpt lat="43.64478" lon="1.37959">
        <ele>143</ele>
        <time>2025-03-18T18:43:57Z</time>
      </trkpt>
      <trkpt lat="43.64478" lon="1.37959">
        <ele>143</ele>
        <time>2025-03-18T18:43:58Z</time>
      </trkpt>
      <trkpt lat="43.64478" lon="1.37959">
        <ele>143</ele>
        <time>2025-03-18T18:43:59Z</time>
      </trkpt>
      <trkpt lat="43.64478" lon="1.37959">
        <ele>143</ele>
        <time>2025-03-18T18:44:00Z</time>
      </trkpt>
      <trkpt lat="43.64478" lon="1.37959">
        <ele>143</ele>
        <time>2025-03-18T18:44:01Z</time>
      </trkpt>
      <trkpt lat="43.64478" lon="1.37959">
        <ele>143</ele>
        <time>2025-03-18T18:44:02Z</time>
      </trkpt>
      <trkpt lat="43.64478" lon="1.37959">
        <ele>143</ele>
        <time>2025-03-18T18:44:03Z</time>
      </trkpt>
      <trkpt lat="43.64479" lon="1.37958">
        <ele>143</ele>
        <time>2025-03-18T18:44:04Z</time>
      </trkpt>
      <trkpt lat="43.6448" lon="1.37958">
        <ele>143</ele>
        <time>2025-03-18T18:44:05Z</time>
      </trkpt>
      <trkpt lat="43.6448" lon="1.37958">
        <ele>143</ele>
        <time>2025-03-18T18:44:06Z</time>
      </trkpt>
      <trkpt lat="43.6448" lon="1.37959">
        <ele>143</ele>
        <time>2025-03-18T18:44:07Z</time>
      </trkpt>
      <trkpt lat="43.6448" lon="1.37959">
        <ele>143</ele>
        <time>2025-03-18T18:44:08Z</time>
      </trkpt>
      <trkpt lat="43.64481" lon="1.37959">
        <ele>143</ele>
        <time>2025-03-18T18:44:09Z</time>
      </trkpt>
      <trkpt lat="43.64481" lon="1.37959">
        <ele>143</ele>
        <time>2025-03-18T18:44:10Z</time>
      </trkpt>
      <trkpt lat="43.64481" lon="1.37959">
        <ele>143</ele>
        <time>2025-03-18T18:44:11Z</time>
      </trkpt>
      <trkpt lat="43.64482" lon="1.37959">
        <ele>143</ele>
        <time>2025-03-18T18:44:13Z</time>
      </trkpt>
      <trkpt lat="43.64482" lon="1.37959">
        <ele>144</ele>
        <time>2025-03-18T18:44:14Z</time>
      </trkpt>
      <trkpt lat="43.64482" lon="1.37959">
        <ele>144</ele>
        <time>2025-03-18T18:44:15Z</time>
      </trkpt>
      <trkpt lat="43.64482" lon="1.3796">
        <ele>144</ele>
        <time>2025-03-18T18:44:16Z</time>
      </trkpt>
      <trkpt lat="43.64483" lon="1.3796">
        <ele>143</ele>
        <time>2025-03-18T18:44:17Z</time>
      </trkpt>
      <trkpt lat="43.64483" lon="1.3796">
        <ele>143</ele>
        <time>2025-03-18T18:44:18Z</time>
      </trkpt>
      <trkpt lat="43.64483" lon="1.3796">
        <ele>143</ele>
        <time>2025-03-18T18:44:19Z</time>
      </trkpt>
      <trkpt lat="43.64492" lon="1.37964">
        <ele>143</ele>
        <time>2025-03-18T18:44:20Z</time>
      </trkpt>
      <trkpt lat="43.64495" lon="1.37966">
        <ele>143</ele>
        <time>2025-03-18T18:44:21Z</time>
      </trkpt>
      <trkpt lat="43.64495" lon="1.37966">
        <ele>143</ele>
        <time>2025-03-18T18:44:22Z</time>
      </trkpt>
      <trkpt lat="43.645" lon="1.37968">
        <ele>143</ele>
        <time>2025-03-18T18:44:23Z</time>
      </trkpt>
      <trkpt lat="43.64504" lon="1.3797">
        <ele>144</ele>
        <time>2025-03-18T18:44:24Z</time>
      </trkpt>
      <trkpt lat="43.64508" lon="1.37972">
        <ele>144</ele>
        <time>2025-03-18T18:44:25Z</time>
      </trkpt>
      <trkpt lat="43.64515" lon="1.37977">
        <ele>144</ele>
        <time>2025-03-18T18:44:26Z</time>
      </trkpt>
      <trkpt lat="43.64519" lon="1.37979">
        <ele>144</ele>
        <time>2025-03-18T18:44:27Z</time>
      </trkpt>
      <trkpt lat="43.64528" lon="1.37984">
        <ele>144</ele>
        <time>2025-03-18T18:44:29Z</time>
      </trkpt>
      <trkpt lat="43.64528" lon="1.37984">
        <ele>145</ele>
        <time>2025-03-18T18:44:30Z</time>
      </trkpt>
      <trkpt lat="43.64537" lon="1.37985">
        <ele>145</ele>
        <time>2025-03-18T18:44:31Z</time>
      </trkpt>
      <trkpt lat="43.64541" lon="1.37986">
        <ele>147</ele>
        <time>2025-03-18T18:44:32Z</time>
      </trkpt>
      <trkpt lat="43.64546" lon="1.37985">
        <ele>147</ele>
        <time>2025-03-18T18:44:33Z</time>
      </trkpt>
      <trkpt lat="43.64549" lon="1.37983">
        <ele>147</ele>
        <time>2025-03-18T18:44:34Z</time>
      </trkpt>
      <trkpt lat="43.64552" lon="1.37981">
        <ele>146</ele>
        <time>2025-03-18T18:44:36Z</time>
      </trkpt>
      <trkpt lat="43.64556" lon="1.37978">
        <ele>145</ele>
        <time>2025-03-18T18:44:37Z</time>
      </trkpt>
      <trkpt lat="43.64561" lon="1.3797">
        <ele>145</ele>
        <time>2025-03-18T18:44:38Z</time>
      </trkpt>
      <trkpt lat="43.64564" lon="1.37966">
        <ele>144</ele>
        <time>2025-03-18T18:44:39Z</time>
      </trkpt>
      <trkpt lat="43.64564" lon="1.37966">
        <ele>144</ele>
        <time>2025-03-18T18:44:40Z</time>
      </trkpt>
      <trkpt lat="43.64568" lon="1.37956">
        <ele>144</ele>
        <time>2025-03-18T18:44:41Z</time>
      </trkpt>
      <trkpt lat="43.64568" lon="1.37956">
        <ele>144</ele>
        <time>2025-03-18T18:44:42Z</time>
      </trkpt>
      <trkpt lat="43.64569" lon="1.37945">
        <ele>144</ele>
        <time>2025-03-18T18:44:43Z</time>
      </trkpt>
      <trkpt lat="43.64569" lon="1.37945">
        <ele>143</ele>
        <time>2025-03-18T18:44:44Z</time>
      </trkpt>
      <trkpt lat="43.64568" lon="1.3794">
        <ele>144</ele>
        <time>2025-03-18T18:44:45Z</time>
      </trkpt>
      <trkpt lat="43.64568" lon="1.37934">
        <ele>144</ele>
        <time>2025-03-18T18:44:46Z</time>
      </trkpt>
      <trkpt lat="43.64566" lon="1.37929">
        <ele>143</ele>
        <time>2025-03-18T18:44:47Z</time>
      </trkpt>
      <trkpt lat="43.64565" lon="1.37924">
        <ele>143</ele>
        <time>2025-03-18T18:44:48Z</time>
      </trkpt>
      <trkpt lat="43.64562" lon="1.37919">
        <ele>143</ele>
        <time>2025-03-18T18:44:49Z</time>
      </trkpt>
      <trkpt lat="43.64558" lon="1.37913">
        <ele>143</ele>
        <time>2025-03-18T18:44:50Z</time>
      </trkpt>
      <trkpt lat="43.64557" lon="1.37912">
        <ele>144</ele>
        <time>2025-03-18T18:44:51Z</time>
      </trkpt>
      <trkpt lat="43.64551" lon="1.37906">
        <ele>144</ele>
        <time>2025-03-18T18:44:52Z</time>
      </trkpt>
      <trkpt lat="43.64548" lon="1.37904">
        <ele>144</ele>
        <time>2025-03-18T18:44:53Z</time>
      </trkpt>
      <trkpt lat="43.64548" lon="1.37904">
        <ele>144</ele>
        <time>2025-03-18T18:44:54Z</time>
      </trkpt>
      <trkpt lat="43.6454" lon="1.379">
        <ele>144</ele>
        <time>2025-03-18T18:44:55Z</time>
      </trkpt>
      <trkpt lat="43.64536" lon="1.37898">
        <ele>143</ele>
        <time>2025-03-18T18:44:56Z</time>
      </trkpt>
      <trkpt lat="43.64536" lon="1.37898">
        <ele>143</ele>
        <time>2025-03-18T18:44:57Z</time>
      </trkpt>
      <trkpt lat="43.64529" lon="1.37894">
        <ele>143</ele>
        <time>2025-03-18T18:44:58Z</time>
      </trkpt>
      <trkpt lat="43.64526" lon="1.37893">
        <ele>143</ele>
        <time>2025-03-18T18:44:59Z</time>
      </trkpt>
      <trkpt lat="43.64522" lon="1.37891">
        <ele>143</ele>
        <time>2025-03-18T18:45:00Z</time>
      </trkpt>
      <trkpt lat="43.64518" lon="1.37889">
        <ele>143</ele>
        <time>2025-03-18T18:45:01Z</time>
      </trkpt>
      <trkpt lat="43.64514" lon="1.37888">
        <ele>144</ele>
        <time>2025-03-18T18:45:02Z</time>
      </trkpt>
      <trkpt lat="43.64511" lon="1.37886">
        <ele>146</ele>
        <time>2025-03-18T18:45:04Z</time>
      </trkpt>
      <trkpt lat="43.64505" lon="1.37883">
        <ele>146</ele>
        <time>2025-03-18T18:45:05Z</time>
      </trkpt>
      <trkpt lat="43.64503" lon="1.37882">
        <ele>144</ele>
        <time>2025-03-18T18:45:06Z</time>
      </trkpt>
      <trkpt lat="43.645" lon="1.37881">
        <ele>145</ele>
        <time>2025-03-18T18:45:07Z</time>
      </trkpt>
      <trkpt lat="43.64493" lon="1.37878">
        <ele>145</ele>
        <time>2025-03-18T18:45:08Z</time>
      </trkpt>
      <trkpt lat="43.6449" lon="1.37877">
        <ele>144</ele>
        <time>2025-03-18T18:45:10Z</time>
      </trkpt>
      <trkpt lat="43.64483" lon="1.37876">
        <ele>144</ele>
        <time>2025-03-18T18:45:11Z</time>
      </trkpt>
      <trkpt lat="43.6448" lon="1.37877">
        <ele>143</ele>
        <time>2025-03-18T18:45:12Z</time>
      </trkpt>
      <trkpt lat="43.64477" lon="1.37878">
        <ele>143</ele>
        <time>2025-03-18T18:45:13Z</time>
      </trkpt>
      <trkpt lat="43.64474" lon="1.37879">
        <ele>143</ele>
        <time>2025-03-18T18:45:14Z</time>
      </trkpt>
      <trkpt lat="43.64474" lon="1.37879">
        <ele>143</ele>
        <time>2025-03-18T18:45:15Z</time>
      </trkpt>
      <trkpt lat="43.64471" lon="1.37881">
        <ele>143</ele>
        <time>2025-03-18T18:45:16Z</time>
      </trkpt>
      <trkpt lat="43.64467" lon="1.37885">
        <ele>143</ele>
        <time>2025-03-18T18:45:17Z</time>
      </trkpt>
      <trkpt lat="43.64465" lon="1.37887">
        <ele>145</ele>
        <time>2025-03-18T18:45:18Z</time>
      </trkpt>
      <trkpt lat="43.64464" lon="1.37891">
        <ele>145</ele>
        <time>2025-03-18T18:45:19Z</time>
      </trkpt>
      <trkpt lat="43.64461" lon="1.379">
        <ele>145</ele>
        <time>2025-03-18T18:45:20Z</time>
      </trkpt>
      <trkpt lat="43.64461" lon="1.379">
        <ele>144</ele>
        <time>2025-03-18T18:45:21Z</time>
      </trkpt>
      <trkpt lat="43.6446" lon="1.37911">
        <ele>144</ele>
        <time>2025-03-18T18:45:22Z</time>
      </trkpt>
      <trkpt lat="43.6446" lon="1.37911">
        <ele>144</ele>
        <time>2025-03-18T18:45:23Z</time>
      </trkpt>
      <trkpt lat="43.6446" lon="1.37922">
        <ele>144</ele>
        <time>2025-03-18T18:45:24Z</time>
      </trkpt>
      <trkpt lat="43.64461" lon="1.37927">
        <ele>144</ele>
        <time>2025-03-18T18:45:25Z</time>
      </trkpt>
      <trkpt lat="43.64464" lon="1.37937">
        <ele>143</ele>
        <time>2025-03-18T18:45:27Z</time>
      </trkpt>
      <trkpt lat="43.64466" lon="1.37942">
        <ele>143</ele>
        <time>2025-03-18T18:45:29Z</time>
      </trkpt>
      <trkpt lat="43.64469" lon="1.37945">
        <ele>143</ele>
        <time>2025-03-18T18:45:30Z</time>
      </trkpt>
      <trkpt lat="43.64474" lon="1.3795">
        <ele>143</ele>
        <time>2025-03-18T18:45:31Z</time>
      </trkpt>
      <trkpt lat="43.64475" lon="1.37951">
        <ele>143</ele>
        <time>2025-03-18T18:45:32Z</time>
      </trkpt>
      <trkpt lat="43.64481" lon="1.37954">
        <ele>143</ele>
        <time>2025-03-18T18:45:33Z</time>
      </trkpt>
      <trkpt lat="43.64482" lon="1.37955">
        <ele>143</ele>
        <time>2025-03-18T18:45:34Z</time>
      </trkpt>
      <trkpt lat="43.64486" lon="1.37957">
        <ele>143</ele>
        <time>2025-03-18T18:45:35Z</time>
      </trkpt>
      <trkpt lat="43.64493" lon="1.37961">
        <ele>143</ele>
        <time>2025-03-18T18:45:36Z</time>
      </trkpt>
      <trkpt lat="43.64497" lon="1.37963">
        <ele>143</ele>
        <time>2025-03-18T18:45:37Z</time>
      </trkpt>
      <trkpt lat="43.645" lon="1.37964">
        <ele>143</ele>
        <time>2025-03-18T18:45:38Z</time>
      </trkpt>
      <trkpt lat="43.645" lon="1.37964">
        <ele>143</ele>
        <time>2025-03-18T18:45:39Z</time>
      </trkpt>
      <trkpt lat="43.64507" lon="1.37968">
        <ele>143</ele>
        <time>2025-03-18T18:45:40Z</time>
      </trkpt>
      <trkpt lat="43.6451" lon="1.3797">
        <ele>142</ele>
        <time>2025-03-18T18:45:41Z</time>
      </trkpt>
      <trkpt lat="43.6451" lon="1.3797">
        <ele>142</ele>
        <time>2025-03-18T18:45:42Z</time>
      </trkpt>
      <trkpt lat="43.64518" lon="1.37975">
        <ele>143</ele>
        <time>2025-03-18T18:45:43Z</time>
      </trkpt>
      <trkpt lat="43.64524" lon="1.37979">
        <ele>143</ele>
        <time>2025-03-18T18:45:45Z</time>
      </trkpt>
      <trkpt lat="43.64524" lon="1.37979">
        <ele>143</ele>
        <time>2025-03-18T18:45:46Z</time>
      </trkpt>
      <trkpt lat="43.64528" lon="1.37982">
        <ele>143</ele>
        <time>2025-03-18T18:45:47Z</time>
      </trkpt>
      <trkpt lat="43.64529" lon="1.37983">
        <ele>143</ele>
        <time>2025-03-18T18:45:48Z</time>
      </trkpt>
      <trkpt lat="43.64529" lon="1.37983">
        <ele>143</ele>
        <time>2025-03-18T18:45:49Z</time>
      </trkpt>
      <trkpt lat="43.64533" lon="1.37986">
        <ele>145</ele>
        <time>2025-03-18T18:48:53Z</time>
      </trkpt>
      <trkpt lat="43.64533" lon="1.37986">
        <ele>145</ele>
        <time>2025-03-18T18:48:54Z</time>
      </trkpt>
      <trkpt lat="43.64538" lon="1.37987">
        <ele>145</ele>
        <time>2025-03-18T18:48:55Z</time>
      </trkpt>
      <trkpt lat="43.64538" lon="1.37987">
        <ele>145</ele>
        <time>2025-03-18T18:48:56Z</time>
      </trkpt>
      <trkpt lat="43.6454" lon="1.37987">
        <ele>144</ele>
        <time>2025-03-18T18:48:57Z</time>
      </trkpt>
      <trkpt lat="43.64542" lon="1.37986">
        <ele>144</ele>
        <time>2025-03-18T18:48:58Z</time>
      </trkpt>
      <trkpt lat="43.64545" lon="1.37985">
        <ele>144</ele>
        <time>2025-03-18T18:48:59Z</time>
      </trkpt>
      <trkpt lat="43.64546" lon="1.37984">
        <ele>144</ele>
        <time>2025-03-18T18:49:00Z</time>
      </trkpt>
      <trkpt lat="43.64546" lon="1.37984">
        <ele>144</ele>
        <time>2025-03-18T18:49:01Z</time>
      </trkpt>
      <trkpt lat="43.64551" lon="1.3798">
        <ele>144</ele>
        <time>2025-03-18T18:49:02Z</time>
      </trkpt>
      <trkpt lat="43.64552" lon="1.37978">
        <ele>144</ele>
        <time>2025-03-18T18:49:03Z</time>
      </trkpt>
      <trkpt lat="43.64555" lon="1.37976">
        <ele>144</ele>
        <time>2025-03-18T18:49:04Z</time>
      </trkpt>
      <trkpt lat="43.64555" lon="1.37976">
        <ele>144</ele>
        <time>2025-03-18T18:49:05Z</time>
      </trkpt>
      <trkpt lat="43.64556" lon="1.37974">
        <ele>144</ele>
        <time>2025-03-18T18:49:06Z</time>
      </trkpt>
      <trkpt lat="43.64558" lon="1.3797">
        <ele>144</ele>
        <time>2025-03-18T18:49:07Z</time>
      </trkpt>
      <trkpt lat="43.64558" lon="1.3797">
        <ele>144</ele>
        <time>2025-03-18T18:49:08Z</time>
      </trkpt>
      <trkpt lat="43.6456" lon="1.37967">
        <ele>144</ele>
        <time>2025-03-18T18:49:09Z</time>
      </trkpt>
      <trkpt lat="43.64561" lon="1.37965">
        <ele>143</ele>
        <time>2025-03-18T18:49:10Z</time>
      </trkpt>
      <trkpt lat="43.64562" lon="1.37962">
        <ele>143</ele>
        <time>2025-03-18T18:49:11Z</time>
      </trkpt>
      <trkpt lat="43.64563" lon="1.3796">
        <ele>143</ele>
        <time>2025-03-18T18:49:13Z</time>
      </trkpt>
      <trkpt lat="43.64564" lon="1.37953">
        <ele>143</ele>
        <time>2025-03-18T18:49:14Z</time>
      </trkpt>
      <trkpt lat="43.64564" lon="1.37951">
        <ele>143</ele>
        <time>2025-03-18T18:49:15Z</time>
      </trkpt>
      <trkpt lat="43.64564" lon="1.37951">
        <ele>143</ele>
        <time>2025-03-18T18:49:16Z</time>
      </trkpt>
      <trkpt lat="43.64565" lon="1.37948">
        <ele>143</ele>
        <time>2025-03-18T18:49:17Z</time>
      </trkpt>
      <trkpt lat="43.64566" lon="1.37946">
        <ele>143</ele>
        <time>2025-03-18T18:49:18Z</time>
      </trkpt>
      <trkpt lat="43.64567" lon="1.37944">
        <ele>143</ele>
        <time>2025-03-18T18:49:19Z</time>
      </trkpt>
      <trkpt lat="43.64568" lon="1.37938">
        <ele>143</ele>
        <time>2025-03-18T18:49:20Z</time>
      </trkpt>
      <trkpt lat="43.64568" lon="1.37935">
        <ele>143</ele>
        <time>2025-03-18T18:49:21Z</time>
      </trkpt>
      <trkpt lat="43.64568" lon="1.37935">
        <ele>143</ele>
        <time>2025-03-18T18:49:22Z</time>
      </trkpt>
      <trkpt lat="43.64568" lon="1.37935">
        <ele>143</ele>
        <time>2025-03-18T18:49:23Z</time>
      </trkpt>
      <trkpt lat="43.64567" lon="1.3793">
        <ele>143</ele>
        <time>2025-03-18T18:49:24Z</time>
      </trkpt>
      <trkpt lat="43.64567" lon="1.37928">
        <ele>143</ele>
        <time>2025-03-18T18:49:25Z</time>
      </trkpt>
      <trkpt lat="43.64565" lon="1.37923">
        <ele>143</ele>
        <time>2025-03-18T18:49:26Z</time>
      </trkpt>
      <trkpt lat="43.64564" lon="1.3792">
        <ele>143</ele>
        <time>2025-03-18T18:49:27Z</time>
      </trkpt>
      <trkpt lat="43.64562" lon="1.37918">
        <ele>143</ele>
        <time>2025-03-18T18:49:28Z</time>
      </trkpt>
      <trkpt lat="43.64561" lon="1.37916">
        <ele>143</ele>
        <time>2025-03-18T18:49:29Z</time>
      </trkpt>
      <trkpt lat="43.64561" lon="1.37916">
        <ele>144</ele>
        <time>2025-03-18T18:49:30Z</time>
      </trkpt>
      <trkpt lat="43.64558" lon="1.37913">
        <ele>143</ele>
        <time>2025-03-18T18:49:32Z</time>
      </trkpt>
      <trkpt lat="43.64557" lon="1.37912">
        <ele>143</ele>
        <time>2025-03-18T18:49:33Z</time>
      </trkpt>
      <trkpt lat="43.64557" lon="1.37912">
        <ele>143</ele>
        <time>2025-03-18T18:49:34Z</time>
      </trkpt>
      <trkpt lat="43.64554" lon="1.3791">
        <ele>143</ele>
        <time>2025-03-18T18:49:35Z</time>
      </trkpt>
      <trkpt lat="43.64551" lon="1.37908">
        <ele>144</ele>
        <time>2025-03-18T18:49:36Z</time>
      </trkpt>
      <trkpt lat="43.64551" lon="1.37908">
        <ele>144</ele>
        <time>2025-03-18T18:49:37Z</time>
      </trkpt>
      <trkpt lat="43.64548" lon="1.37907">
        <ele>144</ele>
        <time>2025-03-18T18:49:38Z</time>
      </trkpt>
      <trkpt lat="43.64547" lon="1.37906">
        <ele>145</ele>
        <time>2025-03-18T18:49:39Z</time>
      </trkpt>
      <trkpt lat="43.64543" lon="1.37905">
        <ele>145</ele>
        <time>2025-03-18T18:49:40Z</time>
      </trkpt>
      <trkpt lat="43.64541" lon="1.37904">
        <ele>144</ele>
        <time>2025-03-18T18:49:41Z</time>
      </trkpt>
      <trkpt lat="43.64541" lon="1.37904">
        <ele>144</ele>
        <time>2025-03-18T18:49:42Z</time>
      </trkpt>
      <trkpt lat="43.64537" lon="1.37902">
        <ele>144</ele>
        <time>2025-03-18T18:49:43Z</time>
      </trkpt>
      <trkpt lat="43.64535" lon="1.37901">
        <ele>144</ele>
        <time>2025-03-18T18:49:44Z</time>
      </trkpt>
      <trkpt lat="43.64533" lon="1.379">
        <ele>144</ele>
        <time>2025-03-18T18:49:45Z</time>
      </trkpt>
      <trkpt lat="43.64533" lon="1.379">
        <ele>144</ele>
        <time>2025-03-18T18:49:46Z</time>
      </trkpt>
      <trkpt lat="43.64531" lon="1.37899">
        <ele>144</ele>
        <time>2025-03-18T18:49:47Z</time>
      </trkpt>
      <trkpt lat="43.64529" lon="1.37898">
        <ele>144</ele>
        <time>2025-03-18T18:49:48Z</time>
      </trkpt>
      <trkpt lat="43.64527" lon="1.37896">
        <ele>144</ele>
        <time>2025-03-18T18:49:49Z</time>
      </trkpt>
      <trkpt lat="43.64525" lon="1.37895">
        <ele>144</ele>
        <time>2025-03-18T18:49:50Z</time>
      </trkpt>
      <trkpt lat="43.64523" lon="1.37894">
        <ele>144</ele>
        <time>2025-03-18T18:49:51Z</time>
      </trkpt>
      <trkpt lat="43.64519" lon="1.37892">
        <ele>144</ele>
        <time>2025-03-18T18:49:52Z</time>
      </trkpt>
      <trkpt lat="43.64517" lon="1.3789">
        <ele>144</ele>
        <time>2025-03-18T18:49:53Z</time>
      </trkpt>
      <trkpt lat="43.64517" lon="1.3789">
        <ele>144</ele>
        <time>2025-03-18T18:49:54Z</time>
      </trkpt>
      <trkpt lat="43.64515" lon="1.37889">
        <ele>144</ele>
        <time>2025-03-18T18:49:55Z</time>
      </trkpt>
      <trkpt lat="43.64511" lon="1.37886">
        <ele>144</ele>
        <time>2025-03-18T18:49:56Z</time>
      </trkpt>
      <trkpt lat="43.64509" lon="1.37885">
        <ele>143</ele>
        <time>2025-03-18T18:49:57Z</time>
      </trkpt>
      <trkpt lat="43.64509" lon="1.37885">
        <ele>143</ele>
        <time>2025-03-18T18:49:58Z</time>
      </trkpt>
      <trkpt lat="43.64505" lon="1.37883">
        <ele>144</ele>
        <time>2025-03-18T18:49:59Z</time>
      </trkpt>
      <trkpt lat="43.64505" lon="1.37883">
        <ele>144</ele>
        <time>2025-03-18T18:50:00Z</time>
      </trkpt>
      <trkpt lat="43.64502" lon="1.37882">
        <ele>144</ele>
        <time>2025-03-18T18:50:01Z</time>
      </trkpt>
      <trkpt lat="43.64501" lon="1.37881">
        <ele>143</ele>
        <time>2025-03-18T18:50:02Z</time>
      </trkpt>
      <trkpt lat="43.64498" lon="1.37881">
        <ele>143</ele>
        <time>2025-03-18T18:50:03Z</time>
      </trkpt>
      <trkpt lat="43.64494" lon="1.37879">
        <ele>143</ele>
        <time>2025-03-18T18:50:04Z</time>
      </trkpt>
      <trkpt lat="43.64493" lon="1.37878">
        <ele>142</ele>
        <time>2025-03-18T18:50:05Z</time>
      </trkpt>
      <trkpt lat="43.64493" lon="1.37878">
        <ele>143</ele>
        <time>2025-03-18T18:50:06Z</time>
      </trkpt>
      <trkpt lat="43.64491" lon="1.37877">
        <ele>143</ele>
        <time>2025-03-18T18:50:07Z</time>
      </trkpt>
      <trkpt lat="43.64489" lon="1.37876">
        <ele>143</ele>
        <time>2025-03-18T18:50:08Z</time>
      </trkpt>
      <trkpt lat="43.64485" lon="1.37876">
        <ele>143</ele>
        <time>2025-03-18T18:50:09Z</time>
      </trkpt>
      <trkpt lat="43.64484" lon="1.37876">
        <ele>143</ele>
        <time>2025-03-18T18:50:10Z</time>
      </trkpt>
      <trkpt lat="43.64482" lon="1.37877">
        <ele>143</ele>
        <time>2025-03-18T18:50:11Z</time>
      </trkpt>
      <trkpt lat="43.6448" lon="1.37877">
        <ele>143</ele>
        <time>2025-03-18T18:50:12Z</time>
      </trkpt>
      <trkpt lat="43.64478" lon="1.37877">
        <ele>143</ele>
        <time>2025-03-18T18:50:13Z</time>
      </trkpt>
      <trkpt lat="43.64472" lon="1.37874">
        <ele>144</ele>
        <time>2025-03-18T18:50:18Z</time>
      </trkpt>
      <trkpt lat="43.64471" lon="1.37873">
        <ele>144</ele>
        <time>2025-03-18T18:50:19Z</time>
      </trkpt>
      <trkpt lat="43.6447" lon="1.3787">
        <ele>144</ele>
        <time>2025-03-18T18:50:20Z</time>
      </trkpt>
      <trkpt lat="43.6447" lon="1.3787">
        <ele>144</ele>
        <time>2025-03-18T18:50:21Z</time>
      </trkpt>
      <trkpt lat="43.64469" lon="1.37869">
        <ele>144</ele>
        <time>2025-03-18T18:50:22Z</time>
      </trkpt>
    </trkseg>
  </trk>
</gpx>